<?xml version="1.0" encoding="UTF-8" standalone="no" ?>
<gpx xmlns="http://www.topografix.com/GPX/1/1" xmlns:xsi="http://www.w3.org/2001/XMLSchema-instance" xsi:schemaLocation="http://www.topografix.com/GPX/1/1 http://www.topografix.com/GPX/1/1/gpx.xsd" version="1.1" creator="VisuGPX - https://www.visugpx.com">
  <metadata>
    <name>[17/06/2018] Les Chemins Conchois</name>
    <desc><![CDATA[Avec suppression du passage dans une propriété privée et de quelques erreurs de navigation. A l'origine la parcours fait 55 km.]]></desc>
  </metadata>
  <trk>
    <name><![CDATA[[17/06/2018] Les Chemins Conchois_1]]></name>
    <trkseg>
      <trkpt lat="48.96273" lon="0.94033">
        <ele>144.233765</ele>
        <time>2018-06-17T05:56:11Z</time>
      </trkpt>
      <trkpt lat="48.96273" lon="0.94032">
        <ele>144.233765</ele>
        <time>2018-06-17T05:56:12Z</time>
      </trkpt>
      <trkpt lat="48.96274" lon="0.94046">
        <ele>143.876678</ele>
        <time>2018-06-17T05:56:25Z</time>
      </trkpt>
      <trkpt lat="48.96275" lon="0.94061">
        <ele>144.104401</ele>
        <time>2018-06-17T05:56:31Z</time>
      </trkpt>
      <trkpt lat="48.96273" lon="0.94047">
        <ele>143.990997</ele>
        <time>2018-06-17T05:59:09Z</time>
      </trkpt>
      <trkpt lat="48.96278" lon="0.94034">
        <ele>143.399994</ele>
        <time>2018-06-17T06:01:00Z</time>
      </trkpt>
      <trkpt lat="48.96276" lon="0.94021">
        <ele>143.399994</ele>
        <time>2018-06-17T06:01:03Z</time>
      </trkpt>
      <trkpt lat="48.96282" lon="0.94009">
        <ele>143.199997</ele>
        <time>2018-06-17T06:01:06Z</time>
      </trkpt>
      <trkpt lat="48.96295" lon="0.94007">
        <ele>142.899994</ele>
        <time>2018-06-17T06:01:09Z</time>
      </trkpt>
      <trkpt lat="48.96304" lon="0.94004">
        <ele>142.5</ele>
        <time>2018-06-17T06:01:11Z</time>
      </trkpt>
      <trkpt lat="48.96314" lon="0.94001">
        <ele>142.100006</ele>
        <time>2018-06-17T06:01:13Z</time>
      </trkpt>
      <trkpt lat="48.96324" lon="0.93997">
        <ele>141.699997</ele>
        <time>2018-06-17T06:01:15Z</time>
      </trkpt>
      <trkpt lat="48.96332" lon="0.93986">
        <ele>141</ele>
        <time>2018-06-17T06:01:17Z</time>
      </trkpt>
      <trkpt lat="48.96336" lon="0.9397">
        <ele>140.5</ele>
        <time>2018-06-17T06:01:19Z</time>
      </trkpt>
      <trkpt lat="48.96339" lon="0.93952">
        <ele>140.100006</ele>
        <time>2018-06-17T06:01:21Z</time>
      </trkpt>
      <trkpt lat="48.96342" lon="0.93934">
        <ele>139.5</ele>
        <time>2018-06-17T06:01:23Z</time>
      </trkpt>
      <trkpt lat="48.96342" lon="0.93917">
        <ele>138.899994</ele>
        <time>2018-06-17T06:01:25Z</time>
      </trkpt>
      <trkpt lat="48.96339" lon="0.939">
        <ele>138.300003</ele>
        <time>2018-06-17T06:01:27Z</time>
      </trkpt>
      <trkpt lat="48.96332" lon="0.93884">
        <ele>137.699997</ele>
        <time>2018-06-17T06:01:29Z</time>
      </trkpt>
      <trkpt lat="48.96324" lon="0.93869">
        <ele>137</ele>
        <time>2018-06-17T06:01:31Z</time>
      </trkpt>
      <trkpt lat="48.96314" lon="0.93854">
        <ele>136</ele>
        <time>2018-06-17T06:01:33Z</time>
      </trkpt>
      <trkpt lat="48.96304" lon="0.93838">
        <ele>135.199997</ele>
        <time>2018-06-17T06:01:35Z</time>
      </trkpt>
      <trkpt lat="48.96293" lon="0.93824">
        <ele>134.300003</ele>
        <time>2018-06-17T06:01:37Z</time>
      </trkpt>
      <trkpt lat="48.96282" lon="0.93809">
        <ele>133.5</ele>
        <time>2018-06-17T06:01:39Z</time>
      </trkpt>
      <trkpt lat="48.96257" lon="0.93726">
        <ele>127.400002</ele>
        <time>2018-06-17T06:07:01Z</time>
      </trkpt>
      <trkpt lat="48.96258" lon="0.9371">
        <ele>127.5</ele>
        <time>2018-06-17T06:07:03Z</time>
      </trkpt>
      <trkpt lat="48.96257" lon="0.93694">
        <ele>127.699997</ele>
        <time>2018-06-17T06:07:05Z</time>
      </trkpt>
      <trkpt lat="48.96255" lon="0.93677">
        <ele>127.800003</ele>
        <time>2018-06-17T06:07:07Z</time>
      </trkpt>
      <trkpt lat="48.96253" lon="0.9366">
        <ele>127.900002</ele>
        <time>2018-06-17T06:07:09Z</time>
      </trkpt>
      <trkpt lat="48.96252" lon="0.93642">
        <ele>127.900002</ele>
        <time>2018-06-17T06:07:11Z</time>
      </trkpt>
      <trkpt lat="48.96249" lon="0.93625">
        <ele>127.900002</ele>
        <time>2018-06-17T06:07:13Z</time>
      </trkpt>
      <trkpt lat="48.96246" lon="0.93608">
        <ele>127.800003</ele>
        <time>2018-06-17T06:07:15Z</time>
      </trkpt>
      <trkpt lat="48.96243" lon="0.93592">
        <ele>127.800003</ele>
        <time>2018-06-17T06:07:17Z</time>
      </trkpt>
      <trkpt lat="48.96242" lon="0.93574">
        <ele>127.800003</ele>
        <time>2018-06-17T06:07:19Z</time>
      </trkpt>
      <trkpt lat="48.96241" lon="0.93557">
        <ele>127.699997</ele>
        <time>2018-06-17T06:07:21Z</time>
      </trkpt>
      <trkpt lat="48.96242" lon="0.9354">
        <ele>127.800003</ele>
        <time>2018-06-17T06:07:23Z</time>
      </trkpt>
      <trkpt lat="48.96244" lon="0.93523">
        <ele>127.800003</ele>
        <time>2018-06-17T06:07:25Z</time>
      </trkpt>
      <trkpt lat="48.96246" lon="0.93506">
        <ele>127.800003</ele>
        <time>2018-06-17T06:07:27Z</time>
      </trkpt>
      <trkpt lat="48.96247" lon="0.93489">
        <ele>127.800003</ele>
        <time>2018-06-17T06:07:29Z</time>
      </trkpt>
      <trkpt lat="48.96249" lon="0.93473">
        <ele>127.800003</ele>
        <time>2018-06-17T06:07:31Z</time>
      </trkpt>
      <trkpt lat="48.96255" lon="0.93462">
        <ele>127.5</ele>
        <time>2018-06-17T06:07:33Z</time>
      </trkpt>
      <trkpt lat="48.96262" lon="0.93453">
        <ele>127.800003</ele>
        <time>2018-06-17T06:07:36Z</time>
      </trkpt>
      <trkpt lat="48.96266" lon="0.9344">
        <ele>128.800003</ele>
        <time>2018-06-17T06:07:42Z</time>
      </trkpt>
      <trkpt lat="48.96262" lon="0.93426">
        <ele>129.5</ele>
        <time>2018-06-17T06:07:47Z</time>
      </trkpt>
      <trkpt lat="48.96256" lon="0.93415">
        <ele>129.5</ele>
        <time>2018-06-17T06:07:51Z</time>
      </trkpt>
      <trkpt lat="48.96251" lon="0.93402">
        <ele>129.699997</ele>
        <time>2018-06-17T06:07:54Z</time>
      </trkpt>
      <trkpt lat="48.96247" lon="0.93386">
        <ele>129.899994</ele>
        <time>2018-06-17T06:07:58Z</time>
      </trkpt>
      <trkpt lat="48.96245" lon="0.93371">
        <ele>130.399994</ele>
        <time>2018-06-17T06:08:01Z</time>
      </trkpt>
      <trkpt lat="48.96241" lon="0.93356">
        <ele>130.899994</ele>
        <time>2018-06-17T06:08:04Z</time>
      </trkpt>
      <trkpt lat="48.96237" lon="0.93342">
        <ele>131.600006</ele>
        <time>2018-06-17T06:08:07Z</time>
      </trkpt>
      <trkpt lat="48.96236" lon="0.93326">
        <ele>132.100006</ele>
        <time>2018-06-17T06:08:10Z</time>
      </trkpt>
      <trkpt lat="48.96234" lon="0.93309">
        <ele>132.399994</ele>
        <time>2018-06-17T06:08:13Z</time>
      </trkpt>
      <trkpt lat="48.96232" lon="0.93295">
        <ele>132.800003</ele>
        <time>2018-06-17T06:08:16Z</time>
      </trkpt>
      <trkpt lat="48.96234" lon="0.93282">
        <ele>133.5</ele>
        <time>2018-06-17T06:08:20Z</time>
      </trkpt>
      <trkpt lat="48.96232" lon="0.93265">
        <ele>133.899994</ele>
        <time>2018-06-17T06:08:24Z</time>
      </trkpt>
      <trkpt lat="48.96231" lon="0.93248">
        <ele>134.199997</ele>
        <time>2018-06-17T06:08:28Z</time>
      </trkpt>
      <trkpt lat="48.96234" lon="0.93232">
        <ele>134.399994</ele>
        <time>2018-06-17T06:08:32Z</time>
      </trkpt>
      <trkpt lat="48.96235" lon="0.93218">
        <ele>134.699997</ele>
        <time>2018-06-17T06:08:35Z</time>
      </trkpt>
      <trkpt lat="48.96235" lon="0.93199">
        <ele>134.800003</ele>
        <time>2018-06-17T06:08:38Z</time>
      </trkpt>
      <trkpt lat="48.96235" lon="0.93181">
        <ele>134.600006</ele>
        <time>2018-06-17T06:08:41Z</time>
      </trkpt>
      <trkpt lat="48.96236" lon="0.93165">
        <ele>134.300003</ele>
        <time>2018-06-17T06:08:44Z</time>
      </trkpt>
      <trkpt lat="48.96239" lon="0.93151">
        <ele>134.800003</ele>
        <time>2018-06-17T06:08:47Z</time>
      </trkpt>
      <trkpt lat="48.96244" lon="0.93137">
        <ele>135.300003</ele>
        <time>2018-06-17T06:08:50Z</time>
      </trkpt>
      <trkpt lat="48.96246" lon="0.93119">
        <ele>135.800003</ele>
        <time>2018-06-17T06:08:53Z</time>
      </trkpt>
      <trkpt lat="48.96247" lon="0.93101">
        <ele>136.300003</ele>
        <time>2018-06-17T06:08:56Z</time>
      </trkpt>
      <trkpt lat="48.96249" lon="0.93086">
        <ele>136.800003</ele>
        <time>2018-06-17T06:08:59Z</time>
      </trkpt>
      <trkpt lat="48.96252" lon="0.93069">
        <ele>137.199997</ele>
        <time>2018-06-17T06:09:02Z</time>
      </trkpt>
      <trkpt lat="48.96256" lon="0.93057">
        <ele>137.199997</ele>
        <time>2018-06-17T06:09:04Z</time>
      </trkpt>
      <trkpt lat="48.9626" lon="0.93043">
        <ele>137.300003</ele>
        <time>2018-06-17T06:09:06Z</time>
      </trkpt>
      <trkpt lat="48.96263" lon="0.93029">
        <ele>137.399994</ele>
        <time>2018-06-17T06:09:08Z</time>
      </trkpt>
      <trkpt lat="48.96267" lon="0.93011">
        <ele>137.699997</ele>
        <time>2018-06-17T06:09:11Z</time>
      </trkpt>
      <trkpt lat="48.96272" lon="0.92996">
        <ele>138.399994</ele>
        <time>2018-06-17T06:09:14Z</time>
      </trkpt>
      <trkpt lat="48.96273" lon="0.92978">
        <ele>139</ele>
        <time>2018-06-17T06:09:17Z</time>
      </trkpt>
      <trkpt lat="48.96278" lon="0.92961">
        <ele>139.5</ele>
        <time>2018-06-17T06:09:20Z</time>
      </trkpt>
      <trkpt lat="48.96283" lon="0.92941">
        <ele>139.600006</ele>
        <time>2018-06-17T06:09:23Z</time>
      </trkpt>
      <trkpt lat="48.96286" lon="0.92927">
        <ele>139.5</ele>
        <time>2018-06-17T06:09:25Z</time>
      </trkpt>
      <trkpt lat="48.96293" lon="0.92912">
        <ele>139.399994</ele>
        <time>2018-06-17T06:09:28Z</time>
      </trkpt>
      <trkpt lat="48.96303" lon="0.92912">
        <ele>140.100006</ele>
        <time>2018-06-17T06:09:33Z</time>
      </trkpt>
      <trkpt lat="48.96311" lon="0.92919">
        <ele>141</ele>
        <time>2018-06-17T06:09:36Z</time>
      </trkpt>
      <trkpt lat="48.96319" lon="0.92926">
        <ele>142.100006</ele>
        <time>2018-06-17T06:09:40Z</time>
      </trkpt>
      <trkpt lat="48.96329" lon="0.92937">
        <ele>143.300003</ele>
        <time>2018-06-17T06:09:44Z</time>
      </trkpt>
      <trkpt lat="48.96339" lon="0.92947">
        <ele>144.899994</ele>
        <time>2018-06-17T06:09:48Z</time>
      </trkpt>
      <trkpt lat="48.96348" lon="0.92957">
        <ele>145.600006</ele>
        <time>2018-06-17T06:09:51Z</time>
      </trkpt>
      <trkpt lat="48.96358" lon="0.92966">
        <ele>146</ele>
        <time>2018-06-17T06:09:54Z</time>
      </trkpt>
      <trkpt lat="48.96366" lon="0.92978">
        <ele>146.5</ele>
        <time>2018-06-17T06:09:57Z</time>
      </trkpt>
      <trkpt lat="48.96375" lon="0.92987">
        <ele>146.199997</ele>
        <time>2018-06-17T06:09:59Z</time>
      </trkpt>
      <trkpt lat="48.96383" lon="0.92997">
        <ele>145.899994</ele>
        <time>2018-06-17T06:10:01Z</time>
      </trkpt>
      <trkpt lat="48.9639" lon="0.93005">
        <ele>145.899994</ele>
        <time>2018-06-17T06:10:03Z</time>
      </trkpt>
      <trkpt lat="48.96398" lon="0.93014">
        <ele>146</ele>
        <time>2018-06-17T06:10:05Z</time>
      </trkpt>
      <trkpt lat="48.96405" lon="0.93023">
        <ele>146.100006</ele>
        <time>2018-06-17T06:10:07Z</time>
      </trkpt>
      <trkpt lat="48.96414" lon="0.93033">
        <ele>145.600006</ele>
        <time>2018-06-17T06:10:09Z</time>
      </trkpt>
      <trkpt lat="48.96422" lon="0.93043">
        <ele>145.199997</ele>
        <time>2018-06-17T06:10:11Z</time>
      </trkpt>
      <trkpt lat="48.96432" lon="0.93055">
        <ele>144.800003</ele>
        <time>2018-06-17T06:10:13Z</time>
      </trkpt>
      <trkpt lat="48.9644" lon="0.93064">
        <ele>144.199997</ele>
        <time>2018-06-17T06:10:15Z</time>
      </trkpt>
      <trkpt lat="48.96448" lon="0.93072">
        <ele>144</ele>
        <time>2018-06-17T06:10:17Z</time>
      </trkpt>
      <trkpt lat="48.96457" lon="0.93064">
        <ele>143.800003</ele>
        <time>2018-06-17T06:10:21Z</time>
      </trkpt>
      <trkpt lat="48.96464" lon="0.93052">
        <ele>143.800003</ele>
        <time>2018-06-17T06:10:24Z</time>
      </trkpt>
      <trkpt lat="48.96469" lon="0.93038">
        <ele>143.899994</ele>
        <time>2018-06-17T06:10:27Z</time>
      </trkpt>
      <trkpt lat="48.96475" lon="0.93026">
        <ele>144</ele>
        <time>2018-06-17T06:10:31Z</time>
      </trkpt>
      <trkpt lat="48.96485" lon="0.93024">
        <ele>143.899994</ele>
        <time>2018-06-17T06:10:34Z</time>
      </trkpt>
      <trkpt lat="48.96495" lon="0.93027">
        <ele>144.300003</ele>
        <time>2018-06-17T06:10:38Z</time>
      </trkpt>
      <trkpt lat="48.96504" lon="0.93029">
        <ele>144.600006</ele>
        <time>2018-06-17T06:10:41Z</time>
      </trkpt>
      <trkpt lat="48.96515" lon="0.93035">
        <ele>145.199997</ele>
        <time>2018-06-17T06:10:44Z</time>
      </trkpt>
      <trkpt lat="48.96525" lon="0.93046">
        <ele>146.100006</ele>
        <time>2018-06-17T06:10:47Z</time>
      </trkpt>
      <trkpt lat="48.96532" lon="0.93055">
        <ele>147.100006</ele>
        <time>2018-06-17T06:10:50Z</time>
      </trkpt>
      <trkpt lat="48.96541" lon="0.93063">
        <ele>148</ele>
        <time>2018-06-17T06:10:53Z</time>
      </trkpt>
      <trkpt lat="48.96547" lon="0.93075">
        <ele>149</ele>
        <time>2018-06-17T06:10:57Z</time>
      </trkpt>
      <trkpt lat="48.96552" lon="0.93087">
        <ele>149.800003</ele>
        <time>2018-06-17T06:11:00Z</time>
      </trkpt>
      <trkpt lat="48.96558" lon="0.93103">
        <ele>151</ele>
        <time>2018-06-17T06:11:04Z</time>
      </trkpt>
      <trkpt lat="48.96565" lon="0.93113">
        <ele>151.5</ele>
        <time>2018-06-17T06:11:07Z</time>
      </trkpt>
      <trkpt lat="48.96572" lon="0.93128">
        <ele>152</ele>
        <time>2018-06-17T06:11:10Z</time>
      </trkpt>
      <trkpt lat="48.9658" lon="0.93141">
        <ele>152.199997</ele>
        <time>2018-06-17T06:11:13Z</time>
      </trkpt>
      <trkpt lat="48.96589" lon="0.93155">
        <ele>152.300003</ele>
        <time>2018-06-17T06:11:16Z</time>
      </trkpt>
      <trkpt lat="48.96596" lon="0.93166">
        <ele>152.100006</ele>
        <time>2018-06-17T06:11:19Z</time>
      </trkpt>
      <trkpt lat="48.96603" lon="0.9318">
        <ele>151.800003</ele>
        <time>2018-06-17T06:11:22Z</time>
      </trkpt>
      <trkpt lat="48.96611" lon="0.93194">
        <ele>151.600006</ele>
        <time>2018-06-17T06:11:25Z</time>
      </trkpt>
      <trkpt lat="48.96617" lon="0.93208">
        <ele>151.300003</ele>
        <time>2018-06-17T06:11:28Z</time>
      </trkpt>
      <trkpt lat="48.96624" lon="0.93217">
        <ele>151.300003</ele>
        <time>2018-06-17T06:11:31Z</time>
      </trkpt>
      <trkpt lat="48.96633" lon="0.9323">
        <ele>151.199997</ele>
        <time>2018-06-17T06:11:34Z</time>
      </trkpt>
      <trkpt lat="48.96642" lon="0.93237">
        <ele>151.100006</ele>
        <time>2018-06-17T06:11:37Z</time>
      </trkpt>
      <trkpt lat="48.96652" lon="0.93249">
        <ele>151</ele>
        <time>2018-06-17T06:11:40Z</time>
      </trkpt>
      <trkpt lat="48.96658" lon="0.9326">
        <ele>151.100006</ele>
        <time>2018-06-17T06:11:42Z</time>
      </trkpt>
      <trkpt lat="48.96665" lon="0.93273">
        <ele>151</ele>
        <time>2018-06-17T06:11:45Z</time>
      </trkpt>
      <trkpt lat="48.96674" lon="0.93287">
        <ele>151</ele>
        <time>2018-06-17T06:11:48Z</time>
      </trkpt>
      <trkpt lat="48.96683" lon="0.93296">
        <ele>150.699997</ele>
        <time>2018-06-17T06:11:52Z</time>
      </trkpt>
      <trkpt lat="48.96693" lon="0.93306">
        <ele>150.699997</ele>
        <time>2018-06-17T06:11:55Z</time>
      </trkpt>
      <trkpt lat="48.96702" lon="0.93317">
        <ele>150.600006</ele>
        <time>2018-06-17T06:11:58Z</time>
      </trkpt>
      <trkpt lat="48.9671" lon="0.93326">
        <ele>150.300003</ele>
        <time>2018-06-17T06:12:01Z</time>
      </trkpt>
      <trkpt lat="48.96718" lon="0.93333">
        <ele>150.100006</ele>
        <time>2018-06-17T06:12:03Z</time>
      </trkpt>
      <trkpt lat="48.96727" lon="0.93341">
        <ele>149.5</ele>
        <time>2018-06-17T06:12:06Z</time>
      </trkpt>
      <trkpt lat="48.96734" lon="0.93357">
        <ele>149.399994</ele>
        <time>2018-06-17T06:12:09Z</time>
      </trkpt>
      <trkpt lat="48.96743" lon="0.93368">
        <ele>148.899994</ele>
        <time>2018-06-17T06:12:12Z</time>
      </trkpt>
      <trkpt lat="48.96752" lon="0.93379">
        <ele>148.5</ele>
        <time>2018-06-17T06:12:15Z</time>
      </trkpt>
      <trkpt lat="48.9676" lon="0.93387">
        <ele>148.199997</ele>
        <time>2018-06-17T06:12:17Z</time>
      </trkpt>
      <trkpt lat="48.96768" lon="0.93401">
        <ele>147.600006</ele>
        <time>2018-06-17T06:12:20Z</time>
      </trkpt>
      <trkpt lat="48.96776" lon="0.93407">
        <ele>147.199997</ele>
        <time>2018-06-17T06:12:22Z</time>
      </trkpt>
      <trkpt lat="48.96782" lon="0.9342">
        <ele>146.899994</ele>
        <time>2018-06-17T06:12:25Z</time>
      </trkpt>
      <trkpt lat="48.96777" lon="0.93436">
        <ele>146.800003</ele>
        <time>2018-06-17T06:12:28Z</time>
      </trkpt>
      <trkpt lat="48.96777" lon="0.93456">
        <ele>146.699997</ele>
        <time>2018-06-17T06:12:31Z</time>
      </trkpt>
      <trkpt lat="48.96779" lon="0.93474">
        <ele>146.5</ele>
        <time>2018-06-17T06:12:34Z</time>
      </trkpt>
      <trkpt lat="48.96786" lon="0.93485">
        <ele>146.5</ele>
        <time>2018-06-17T06:12:36Z</time>
      </trkpt>
      <trkpt lat="48.96797" lon="0.93497">
        <ele>146.300003</ele>
        <time>2018-06-17T06:12:39Z</time>
      </trkpt>
      <trkpt lat="48.96807" lon="0.93513">
        <ele>146.300003</ele>
        <time>2018-06-17T06:12:42Z</time>
      </trkpt>
      <trkpt lat="48.96817" lon="0.93525">
        <ele>146.399994</ele>
        <time>2018-06-17T06:12:44Z</time>
      </trkpt>
      <trkpt lat="48.96826" lon="0.93537">
        <ele>146.5</ele>
        <time>2018-06-17T06:12:46Z</time>
      </trkpt>
      <trkpt lat="48.96834" lon="0.93547">
        <ele>146.600006</ele>
        <time>2018-06-17T06:12:48Z</time>
      </trkpt>
      <trkpt lat="48.96842" lon="0.93557">
        <ele>146.699997</ele>
        <time>2018-06-17T06:12:50Z</time>
      </trkpt>
      <trkpt lat="48.96849" lon="0.93565">
        <ele>146.800003</ele>
        <time>2018-06-17T06:12:52Z</time>
      </trkpt>
      <trkpt lat="48.96858" lon="0.93577">
        <ele>147</ele>
        <time>2018-06-17T06:12:55Z</time>
      </trkpt>
      <trkpt lat="48.96865" lon="0.93587">
        <ele>147.199997</ele>
        <time>2018-06-17T06:12:57Z</time>
      </trkpt>
      <trkpt lat="48.96874" lon="0.93595">
        <ele>147.600006</ele>
        <time>2018-06-17T06:12:59Z</time>
      </trkpt>
      <trkpt lat="48.96884" lon="0.93606">
        <ele>148.100006</ele>
        <time>2018-06-17T06:13:02Z</time>
      </trkpt>
      <trkpt lat="48.96891" lon="0.93617">
        <ele>148.5</ele>
        <time>2018-06-17T06:13:04Z</time>
      </trkpt>
      <trkpt lat="48.96898" lon="0.93628">
        <ele>148.800003</ele>
        <time>2018-06-17T06:13:06Z</time>
      </trkpt>
      <trkpt lat="48.96908" lon="0.93639">
        <ele>149.199997</ele>
        <time>2018-06-17T06:13:08Z</time>
      </trkpt>
      <trkpt lat="48.96918" lon="0.9365">
        <ele>149.899994</ele>
        <time>2018-06-17T06:13:10Z</time>
      </trkpt>
      <trkpt lat="48.96927" lon="0.93661">
        <ele>150.800003</ele>
        <time>2018-06-17T06:13:13Z</time>
      </trkpt>
      <trkpt lat="48.96935" lon="0.93669">
        <ele>151.300003</ele>
        <time>2018-06-17T06:13:15Z</time>
      </trkpt>
      <trkpt lat="48.96943" lon="0.93678">
        <ele>151.800003</ele>
        <time>2018-06-17T06:13:17Z</time>
      </trkpt>
      <trkpt lat="48.96951" lon="0.93687">
        <ele>152.100006</ele>
        <time>2018-06-17T06:13:19Z</time>
      </trkpt>
      <trkpt lat="48.96963" lon="0.93697">
        <ele>152.600006</ele>
        <time>2018-06-17T06:13:22Z</time>
      </trkpt>
      <trkpt lat="48.96972" lon="0.937">
        <ele>152.899994</ele>
        <time>2018-06-17T06:13:24Z</time>
      </trkpt>
      <trkpt lat="48.96982" lon="0.937">
        <ele>153.300003</ele>
        <time>2018-06-17T06:13:26Z</time>
      </trkpt>
      <trkpt lat="48.96995" lon="0.93694">
        <ele>153.899994</ele>
        <time>2018-06-17T06:13:29Z</time>
      </trkpt>
      <trkpt lat="48.97006" lon="0.93688">
        <ele>154.300003</ele>
        <time>2018-06-17T06:13:32Z</time>
      </trkpt>
      <trkpt lat="48.97013" lon="0.93676">
        <ele>154.699997</ele>
        <time>2018-06-17T06:13:35Z</time>
      </trkpt>
      <trkpt lat="48.9702" lon="0.93664">
        <ele>154.800003</ele>
        <time>2018-06-17T06:13:38Z</time>
      </trkpt>
      <trkpt lat="48.97026" lon="0.93652">
        <ele>154.699997</ele>
        <time>2018-06-17T06:13:41Z</time>
      </trkpt>
      <trkpt lat="48.97035" lon="0.9364">
        <ele>154.699997</ele>
        <time>2018-06-17T06:13:45Z</time>
      </trkpt>
      <trkpt lat="48.97045" lon="0.93628">
        <ele>154.899994</ele>
        <time>2018-06-17T06:13:48Z</time>
      </trkpt>
      <trkpt lat="48.97052" lon="0.93619">
        <ele>154.699997</ele>
        <time>2018-06-17T06:13:51Z</time>
      </trkpt>
      <trkpt lat="48.97047" lon="0.93606">
        <ele>153.600006</ele>
        <time>2018-06-17T06:14:07Z</time>
      </trkpt>
      <trkpt lat="48.97037" lon="0.93601">
        <ele>153.5</ele>
        <time>2018-06-17T06:14:10Z</time>
      </trkpt>
      <trkpt lat="48.97024" lon="0.93597">
        <ele>153.399994</ele>
        <time>2018-06-17T06:14:13Z</time>
      </trkpt>
      <trkpt lat="48.9701" lon="0.93595">
        <ele>152.600006</ele>
        <time>2018-06-17T06:14:16Z</time>
      </trkpt>
      <trkpt lat="48.96999" lon="0.93592">
        <ele>151.899994</ele>
        <time>2018-06-17T06:14:18Z</time>
      </trkpt>
      <trkpt lat="48.96989" lon="0.93589">
        <ele>151.399994</ele>
        <time>2018-06-17T06:14:20Z</time>
      </trkpt>
      <trkpt lat="48.96978" lon="0.9358">
        <ele>150.899994</ele>
        <time>2018-06-17T06:14:22Z</time>
      </trkpt>
      <trkpt lat="48.96966" lon="0.93571">
        <ele>150.300003</ele>
        <time>2018-06-17T06:14:24Z</time>
      </trkpt>
      <trkpt lat="48.96956" lon="0.93561">
        <ele>149.699997</ele>
        <time>2018-06-17T06:14:26Z</time>
      </trkpt>
      <trkpt lat="48.96946" lon="0.93551">
        <ele>149.199997</ele>
        <time>2018-06-17T06:14:28Z</time>
      </trkpt>
      <trkpt lat="48.96936" lon="0.93543">
        <ele>148.5</ele>
        <time>2018-06-17T06:14:30Z</time>
      </trkpt>
      <trkpt lat="48.96926" lon="0.93532">
        <ele>148.300003</ele>
        <time>2018-06-17T06:14:32Z</time>
      </trkpt>
      <trkpt lat="48.96919" lon="0.9352">
        <ele>147.899994</ele>
        <time>2018-06-17T06:14:34Z</time>
      </trkpt>
      <trkpt lat="48.96911" lon="0.93511">
        <ele>147.699997</ele>
        <time>2018-06-17T06:14:36Z</time>
      </trkpt>
      <trkpt lat="48.96902" lon="0.93499">
        <ele>147.399994</ele>
        <time>2018-06-17T06:14:38Z</time>
      </trkpt>
      <trkpt lat="48.96895" lon="0.93488">
        <ele>146.899994</ele>
        <time>2018-06-17T06:14:40Z</time>
      </trkpt>
      <trkpt lat="48.96886" lon="0.93479">
        <ele>146.399994</ele>
        <time>2018-06-17T06:14:43Z</time>
      </trkpt>
      <trkpt lat="48.96881" lon="0.93464">
        <ele>146.199997</ele>
        <time>2018-06-17T06:14:46Z</time>
      </trkpt>
      <trkpt lat="48.96872" lon="0.93452">
        <ele>146.100006</ele>
        <time>2018-06-17T06:14:49Z</time>
      </trkpt>
      <trkpt lat="48.9686" lon="0.93442">
        <ele>146.100006</ele>
        <time>2018-06-17T06:14:52Z</time>
      </trkpt>
      <trkpt lat="48.9685" lon="0.93436">
        <ele>146.100006</ele>
        <time>2018-06-17T06:14:54Z</time>
      </trkpt>
      <trkpt lat="48.96842" lon="0.93422">
        <ele>146.199997</ele>
        <time>2018-06-17T06:14:57Z</time>
      </trkpt>
      <trkpt lat="48.96834" lon="0.93415">
        <ele>146.199997</ele>
        <time>2018-06-17T06:14:59Z</time>
      </trkpt>
      <trkpt lat="48.96824" lon="0.93401">
        <ele>146.199997</ele>
        <time>2018-06-17T06:15:02Z</time>
      </trkpt>
      <trkpt lat="48.96815" lon="0.93385">
        <ele>146.5</ele>
        <time>2018-06-17T06:15:05Z</time>
      </trkpt>
      <trkpt lat="48.96806" lon="0.93382">
        <ele>146.600006</ele>
        <time>2018-06-17T06:15:07Z</time>
      </trkpt>
      <trkpt lat="48.96797" lon="0.93376">
        <ele>146.899994</ele>
        <time>2018-06-17T06:15:09Z</time>
      </trkpt>
      <trkpt lat="48.96789" lon="0.93362">
        <ele>147.199997</ele>
        <time>2018-06-17T06:15:12Z</time>
      </trkpt>
      <trkpt lat="48.96781" lon="0.93346">
        <ele>147.600006</ele>
        <time>2018-06-17T06:15:15Z</time>
      </trkpt>
      <trkpt lat="48.96783" lon="0.93332">
        <ele>147.800003</ele>
        <time>2018-06-17T06:15:18Z</time>
      </trkpt>
      <trkpt lat="48.96789" lon="0.93319">
        <ele>148.300003</ele>
        <time>2018-06-17T06:15:21Z</time>
      </trkpt>
      <trkpt lat="48.96797" lon="0.93306">
        <ele>148.300003</ele>
        <time>2018-06-17T06:15:24Z</time>
      </trkpt>
      <trkpt lat="48.96804" lon="0.93295">
        <ele>148.600006</ele>
        <time>2018-06-17T06:15:26Z</time>
      </trkpt>
      <trkpt lat="48.96812" lon="0.93282">
        <ele>149.5</ele>
        <time>2018-06-17T06:15:29Z</time>
      </trkpt>
      <trkpt lat="48.96822" lon="0.93269">
        <ele>149.5</ele>
        <time>2018-06-17T06:15:32Z</time>
      </trkpt>
      <trkpt lat="48.96831" lon="0.93259">
        <ele>149.600006</ele>
        <time>2018-06-17T06:15:34Z</time>
      </trkpt>
      <trkpt lat="48.9684" lon="0.93248">
        <ele>149.300003</ele>
        <time>2018-06-17T06:15:36Z</time>
      </trkpt>
      <trkpt lat="48.96846" lon="0.93238">
        <ele>149</ele>
        <time>2018-06-17T06:15:38Z</time>
      </trkpt>
      <trkpt lat="48.9685" lon="0.9322">
        <ele>148.699997</ele>
        <time>2018-06-17T06:15:40Z</time>
      </trkpt>
      <trkpt lat="48.96847" lon="0.93204">
        <ele>148.699997</ele>
        <time>2018-06-17T06:15:42Z</time>
      </trkpt>
      <trkpt lat="48.96841" lon="0.9319">
        <ele>148.600006</ele>
        <time>2018-06-17T06:15:44Z</time>
      </trkpt>
      <trkpt lat="48.96836" lon="0.93175">
        <ele>148.5</ele>
        <time>2018-06-17T06:15:46Z</time>
      </trkpt>
      <trkpt lat="48.96831" lon="0.93159">
        <ele>148.5</ele>
        <time>2018-06-17T06:15:48Z</time>
      </trkpt>
      <trkpt lat="48.96826" lon="0.93146">
        <ele>148.300003</ele>
        <time>2018-06-17T06:15:50Z</time>
      </trkpt>
      <trkpt lat="48.96821" lon="0.93132">
        <ele>148.100006</ele>
        <time>2018-06-17T06:15:52Z</time>
      </trkpt>
      <trkpt lat="48.96814" lon="0.93118">
        <ele>147.699997</ele>
        <time>2018-06-17T06:15:54Z</time>
      </trkpt>
      <trkpt lat="48.96806" lon="0.93104">
        <ele>147.199997</ele>
        <time>2018-06-17T06:15:56Z</time>
      </trkpt>
      <trkpt lat="48.96799" lon="0.9309">
        <ele>146.699997</ele>
        <time>2018-06-17T06:15:58Z</time>
      </trkpt>
      <trkpt lat="48.96792" lon="0.93075">
        <ele>146.300003</ele>
        <time>2018-06-17T06:16:00Z</time>
      </trkpt>
      <trkpt lat="48.96783" lon="0.93066">
        <ele>145.899994</ele>
        <time>2018-06-17T06:16:02Z</time>
      </trkpt>
      <trkpt lat="48.96773" lon="0.93064">
        <ele>145.800003</ele>
        <time>2018-06-17T06:16:04Z</time>
      </trkpt>
      <trkpt lat="48.96758" lon="0.93061">
        <ele>145.5</ele>
        <time>2018-06-17T06:16:07Z</time>
      </trkpt>
      <trkpt lat="48.96749" lon="0.93058">
        <ele>145.800003</ele>
        <time>2018-06-17T06:16:09Z</time>
      </trkpt>
      <trkpt lat="48.96739" lon="0.93053">
        <ele>146</ele>
        <time>2018-06-17T06:16:11Z</time>
      </trkpt>
      <trkpt lat="48.96731" lon="0.93045">
        <ele>145.899994</ele>
        <time>2018-06-17T06:16:13Z</time>
      </trkpt>
      <trkpt lat="48.9672" lon="0.93033">
        <ele>146</ele>
        <time>2018-06-17T06:16:15Z</time>
      </trkpt>
      <trkpt lat="48.96713" lon="0.93023">
        <ele>146.100006</ele>
        <time>2018-06-17T06:16:17Z</time>
      </trkpt>
      <trkpt lat="48.96705" lon="0.93011">
        <ele>146.199997</ele>
        <time>2018-06-17T06:16:19Z</time>
      </trkpt>
      <trkpt lat="48.96697" lon="0.92998">
        <ele>146.100006</ele>
        <time>2018-06-17T06:16:21Z</time>
      </trkpt>
      <trkpt lat="48.96689" lon="0.92983">
        <ele>145.800003</ele>
        <time>2018-06-17T06:16:23Z</time>
      </trkpt>
      <trkpt lat="48.96683" lon="0.92972">
        <ele>145.300003</ele>
        <time>2018-06-17T06:16:25Z</time>
      </trkpt>
      <trkpt lat="48.96686" lon="0.92957">
        <ele>144.5</ele>
        <time>2018-06-17T06:16:28Z</time>
      </trkpt>
      <trkpt lat="48.96697" lon="0.92956">
        <ele>143.5</ele>
        <time>2018-06-17T06:16:32Z</time>
      </trkpt>
      <trkpt lat="48.96707" lon="0.92951">
        <ele>143.300003</ele>
        <time>2018-06-17T06:16:35Z</time>
      </trkpt>
      <trkpt lat="48.96717" lon="0.92953">
        <ele>143.100006</ele>
        <time>2018-06-17T06:16:38Z</time>
      </trkpt>
      <trkpt lat="48.96729" lon="0.92956">
        <ele>142.699997</ele>
        <time>2018-06-17T06:16:41Z</time>
      </trkpt>
      <trkpt lat="48.96737" lon="0.92954">
        <ele>142.699997</ele>
        <time>2018-06-17T06:16:43Z</time>
      </trkpt>
      <trkpt lat="48.96747" lon="0.92954">
        <ele>142.5</ele>
        <time>2018-06-17T06:16:45Z</time>
      </trkpt>
      <trkpt lat="48.9676" lon="0.92954">
        <ele>142.399994</ele>
        <time>2018-06-17T06:16:48Z</time>
      </trkpt>
      <trkpt lat="48.96769" lon="0.9295">
        <ele>142.5</ele>
        <time>2018-06-17T06:16:50Z</time>
      </trkpt>
      <trkpt lat="48.96779" lon="0.92945">
        <ele>142.199997</ele>
        <time>2018-06-17T06:16:52Z</time>
      </trkpt>
      <trkpt lat="48.9679" lon="0.92941">
        <ele>141.899994</ele>
        <time>2018-06-17T06:16:54Z</time>
      </trkpt>
      <trkpt lat="48.96803" lon="0.92946">
        <ele>141.5</ele>
        <time>2018-06-17T06:16:57Z</time>
      </trkpt>
      <trkpt lat="48.96818" lon="0.92946">
        <ele>141.300003</ele>
        <time>2018-06-17T06:17:00Z</time>
      </trkpt>
      <trkpt lat="48.96827" lon="0.9294">
        <ele>141.399994</ele>
        <time>2018-06-17T06:17:02Z</time>
      </trkpt>
      <trkpt lat="48.96837" lon="0.92933">
        <ele>141.5</ele>
        <time>2018-06-17T06:17:04Z</time>
      </trkpt>
      <trkpt lat="48.96848" lon="0.92928">
        <ele>141.600006</ele>
        <time>2018-06-17T06:17:07Z</time>
      </trkpt>
      <trkpt lat="48.96859" lon="0.92922">
        <ele>141.699997</ele>
        <time>2018-06-17T06:17:10Z</time>
      </trkpt>
      <trkpt lat="48.96869" lon="0.92917">
        <ele>141.600006</ele>
        <time>2018-06-17T06:17:12Z</time>
      </trkpt>
      <trkpt lat="48.96881" lon="0.92906">
        <ele>141.399994</ele>
        <time>2018-06-17T06:17:15Z</time>
      </trkpt>
      <trkpt lat="48.96891" lon="0.92899">
        <ele>141</ele>
        <time>2018-06-17T06:17:17Z</time>
      </trkpt>
      <trkpt lat="48.96901" lon="0.9289">
        <ele>140.899994</ele>
        <time>2018-06-17T06:17:19Z</time>
      </trkpt>
      <trkpt lat="48.96911" lon="0.92882">
        <ele>141</ele>
        <time>2018-06-17T06:17:21Z</time>
      </trkpt>
      <trkpt lat="48.96921" lon="0.92873">
        <ele>140.899994</ele>
        <time>2018-06-17T06:17:23Z</time>
      </trkpt>
      <trkpt lat="48.9693" lon="0.92864">
        <ele>140.699997</ele>
        <time>2018-06-17T06:17:25Z</time>
      </trkpt>
      <trkpt lat="48.96937" lon="0.92851">
        <ele>140.399994</ele>
        <time>2018-06-17T06:17:27Z</time>
      </trkpt>
      <trkpt lat="48.96946" lon="0.92836">
        <ele>139.600006</ele>
        <time>2018-06-17T06:17:29Z</time>
      </trkpt>
      <trkpt lat="48.96954" lon="0.92822">
        <ele>138.600006</ele>
        <time>2018-06-17T06:17:31Z</time>
      </trkpt>
      <trkpt lat="48.96961" lon="0.92806">
        <ele>137.699997</ele>
        <time>2018-06-17T06:17:33Z</time>
      </trkpt>
      <trkpt lat="48.96967" lon="0.92792">
        <ele>136.600006</ele>
        <time>2018-06-17T06:17:35Z</time>
      </trkpt>
      <trkpt lat="48.96971" lon="0.92776">
        <ele>135.5</ele>
        <time>2018-06-17T06:17:37Z</time>
      </trkpt>
      <trkpt lat="48.96978" lon="0.9276">
        <ele>133.100006</ele>
        <time>2018-06-17T06:17:41Z</time>
      </trkpt>
      <trkpt lat="48.96985" lon="0.92751">
        <ele>131.699997</ele>
        <time>2018-06-17T06:17:43Z</time>
      </trkpt>
      <trkpt lat="48.96991" lon="0.92738">
        <ele>130.699997</ele>
        <time>2018-06-17T06:17:45Z</time>
      </trkpt>
      <trkpt lat="48.97" lon="0.92725">
        <ele>129.300003</ele>
        <time>2018-06-17T06:17:48Z</time>
      </trkpt>
      <trkpt lat="48.97006" lon="0.9271">
        <ele>126.699997</ele>
        <time>2018-06-17T06:17:54Z</time>
      </trkpt>
      <trkpt lat="48.97015" lon="0.92709">
        <ele>125.099998</ele>
        <time>2018-06-17T06:17:59Z</time>
      </trkpt>
      <trkpt lat="48.97021" lon="0.9272">
        <ele>125.400002</ele>
        <time>2018-06-17T06:18:03Z</time>
      </trkpt>
      <trkpt lat="48.97028" lon="0.92731">
        <ele>126.199997</ele>
        <time>2018-06-17T06:18:07Z</time>
      </trkpt>
      <trkpt lat="48.97035" lon="0.92742">
        <ele>127</ele>
        <time>2018-06-17T06:18:10Z</time>
      </trkpt>
      <trkpt lat="48.97043" lon="0.92755">
        <ele>128.100006</ele>
        <time>2018-06-17T06:18:14Z</time>
      </trkpt>
      <trkpt lat="48.97048" lon="0.92768">
        <ele>128.600006</ele>
        <time>2018-06-17T06:18:17Z</time>
      </trkpt>
      <trkpt lat="48.97054" lon="0.92781">
        <ele>130</ele>
        <time>2018-06-17T06:18:21Z</time>
      </trkpt>
      <trkpt lat="48.97061" lon="0.92791">
        <ele>131.399994</ele>
        <time>2018-06-17T06:18:25Z</time>
      </trkpt>
      <trkpt lat="48.97069" lon="0.92803">
        <ele>132.899994</ele>
        <time>2018-06-17T06:18:29Z</time>
      </trkpt>
      <trkpt lat="48.97073" lon="0.92816">
        <ele>133.800003</ele>
        <time>2018-06-17T06:18:32Z</time>
      </trkpt>
      <trkpt lat="48.97078" lon="0.9283">
        <ele>134.699997</ele>
        <time>2018-06-17T06:18:35Z</time>
      </trkpt>
      <trkpt lat="48.9708" lon="0.92843">
        <ele>135.399994</ele>
        <time>2018-06-17T06:18:38Z</time>
      </trkpt>
      <trkpt lat="48.97079" lon="0.9286">
        <ele>136.399994</ele>
        <time>2018-06-17T06:18:42Z</time>
      </trkpt>
      <trkpt lat="48.97077" lon="0.92875">
        <ele>136.899994</ele>
        <time>2018-06-17T06:18:45Z</time>
      </trkpt>
      <trkpt lat="48.97074" lon="0.92891">
        <ele>137.199997</ele>
        <time>2018-06-17T06:18:48Z</time>
      </trkpt>
      <trkpt lat="48.97073" lon="0.92905">
        <ele>137.600006</ele>
        <time>2018-06-17T06:18:51Z</time>
      </trkpt>
      <trkpt lat="48.97074" lon="0.92922">
        <ele>137.899994</ele>
        <time>2018-06-17T06:18:54Z</time>
      </trkpt>
      <trkpt lat="48.97076" lon="0.9294">
        <ele>138.199997</ele>
        <time>2018-06-17T06:18:57Z</time>
      </trkpt>
      <trkpt lat="48.97078" lon="0.92956">
        <ele>138.5</ele>
        <time>2018-06-17T06:19:00Z</time>
      </trkpt>
      <trkpt lat="48.97083" lon="0.92971">
        <ele>139</ele>
        <time>2018-06-17T06:19:03Z</time>
      </trkpt>
      <trkpt lat="48.97089" lon="0.92984">
        <ele>139.199997</ele>
        <time>2018-06-17T06:19:06Z</time>
      </trkpt>
      <trkpt lat="48.97093" lon="0.92997">
        <ele>139.600006</ele>
        <time>2018-06-17T06:19:09Z</time>
      </trkpt>
      <trkpt lat="48.97102" lon="0.92993">
        <ele>140.600006</ele>
        <time>2018-06-17T06:19:20Z</time>
      </trkpt>
      <trkpt lat="48.97111" lon="0.92986">
        <ele>140.800003</ele>
        <time>2018-06-17T06:19:23Z</time>
      </trkpt>
      <trkpt lat="48.97123" lon="0.92981">
        <ele>141</ele>
        <time>2018-06-17T06:19:26Z</time>
      </trkpt>
      <trkpt lat="48.97132" lon="0.92975">
        <ele>141.100006</ele>
        <time>2018-06-17T06:19:28Z</time>
      </trkpt>
      <trkpt lat="48.97142" lon="0.92966">
        <ele>141.600006</ele>
        <time>2018-06-17T06:19:31Z</time>
      </trkpt>
      <trkpt lat="48.9715" lon="0.92953">
        <ele>142.100006</ele>
        <time>2018-06-17T06:19:34Z</time>
      </trkpt>
      <trkpt lat="48.97159" lon="0.92939">
        <ele>142.600006</ele>
        <time>2018-06-17T06:19:37Z</time>
      </trkpt>
      <trkpt lat="48.97168" lon="0.92925">
        <ele>142.899994</ele>
        <time>2018-06-17T06:19:40Z</time>
      </trkpt>
      <trkpt lat="48.97178" lon="0.92912">
        <ele>143.399994</ele>
        <time>2018-06-17T06:19:43Z</time>
      </trkpt>
      <trkpt lat="48.97186" lon="0.92897">
        <ele>143.699997</ele>
        <time>2018-06-17T06:19:46Z</time>
      </trkpt>
      <trkpt lat="48.97195" lon="0.92882">
        <ele>144.100006</ele>
        <time>2018-06-17T06:19:49Z</time>
      </trkpt>
      <trkpt lat="48.97201" lon="0.92873">
        <ele>144.199997</ele>
        <time>2018-06-17T06:19:51Z</time>
      </trkpt>
      <trkpt lat="48.97211" lon="0.9286">
        <ele>144.5</ele>
        <time>2018-06-17T06:19:54Z</time>
      </trkpt>
      <trkpt lat="48.97222" lon="0.92848">
        <ele>144.699997</ele>
        <time>2018-06-17T06:19:57Z</time>
      </trkpt>
      <trkpt lat="48.97232" lon="0.92836">
        <ele>145</ele>
        <time>2018-06-17T06:20:00Z</time>
      </trkpt>
      <trkpt lat="48.97242" lon="0.92825">
        <ele>145.199997</ele>
        <time>2018-06-17T06:20:03Z</time>
      </trkpt>
      <trkpt lat="48.97251" lon="0.92815">
        <ele>145.600006</ele>
        <time>2018-06-17T06:20:05Z</time>
      </trkpt>
      <trkpt lat="48.97259" lon="0.92807">
        <ele>145.800003</ele>
        <time>2018-06-17T06:20:07Z</time>
      </trkpt>
      <trkpt lat="48.97266" lon="0.92797">
        <ele>146.199997</ele>
        <time>2018-06-17T06:20:09Z</time>
      </trkpt>
      <trkpt lat="48.97276" lon="0.92787">
        <ele>146.699997</ele>
        <time>2018-06-17T06:20:12Z</time>
      </trkpt>
      <trkpt lat="48.97287" lon="0.92777">
        <ele>147.199997</ele>
        <time>2018-06-17T06:20:15Z</time>
      </trkpt>
      <trkpt lat="48.97294" lon="0.92767">
        <ele>147.600006</ele>
        <time>2018-06-17T06:20:17Z</time>
      </trkpt>
      <trkpt lat="48.97301" lon="0.92757">
        <ele>147.699997</ele>
        <time>2018-06-17T06:20:19Z</time>
      </trkpt>
      <trkpt lat="48.97311" lon="0.92743">
        <ele>148.300003</ele>
        <time>2018-06-17T06:20:22Z</time>
      </trkpt>
      <trkpt lat="48.97319" lon="0.92733">
        <ele>148.399994</ele>
        <time>2018-06-17T06:20:24Z</time>
      </trkpt>
      <trkpt lat="48.97326" lon="0.92724">
        <ele>148.5</ele>
        <time>2018-06-17T06:20:26Z</time>
      </trkpt>
      <trkpt lat="48.97338" lon="0.92715">
        <ele>148.699997</ele>
        <time>2018-06-17T06:20:29Z</time>
      </trkpt>
      <trkpt lat="48.97347" lon="0.92707">
        <ele>149</ele>
        <time>2018-06-17T06:20:31Z</time>
      </trkpt>
      <trkpt lat="48.97354" lon="0.92694">
        <ele>149</ele>
        <time>2018-06-17T06:20:33Z</time>
      </trkpt>
      <trkpt lat="48.97364" lon="0.92682">
        <ele>148.899994</ele>
        <time>2018-06-17T06:20:36Z</time>
      </trkpt>
      <trkpt lat="48.97375" lon="0.92668">
        <ele>149</ele>
        <time>2018-06-17T06:20:39Z</time>
      </trkpt>
      <trkpt lat="48.97384" lon="0.92657">
        <ele>149</ele>
        <time>2018-06-17T06:20:41Z</time>
      </trkpt>
      <trkpt lat="48.97393" lon="0.92647">
        <ele>149.100006</ele>
        <time>2018-06-17T06:20:43Z</time>
      </trkpt>
      <trkpt lat="48.97402" lon="0.92636">
        <ele>149.300003</ele>
        <time>2018-06-17T06:20:45Z</time>
      </trkpt>
      <trkpt lat="48.97409" lon="0.92627">
        <ele>149.399994</ele>
        <time>2018-06-17T06:20:47Z</time>
      </trkpt>
      <trkpt lat="48.97418" lon="0.92614">
        <ele>149.5</ele>
        <time>2018-06-17T06:20:49Z</time>
      </trkpt>
      <trkpt lat="48.97426" lon="0.92605">
        <ele>149.600006</ele>
        <time>2018-06-17T06:20:51Z</time>
      </trkpt>
      <trkpt lat="48.97435" lon="0.92593">
        <ele>149.300003</ele>
        <time>2018-06-17T06:20:53Z</time>
      </trkpt>
      <trkpt lat="48.97443" lon="0.92581">
        <ele>149.399994</ele>
        <time>2018-06-17T06:20:55Z</time>
      </trkpt>
      <trkpt lat="48.9745" lon="0.9257">
        <ele>149.300003</ele>
        <time>2018-06-17T06:20:57Z</time>
      </trkpt>
      <trkpt lat="48.97458" lon="0.9256">
        <ele>149.300003</ele>
        <time>2018-06-17T06:20:59Z</time>
      </trkpt>
      <trkpt lat="48.97467" lon="0.92547">
        <ele>149.100006</ele>
        <time>2018-06-17T06:21:01Z</time>
      </trkpt>
      <trkpt lat="48.97476" lon="0.9254">
        <ele>148.899994</ele>
        <time>2018-06-17T06:21:03Z</time>
      </trkpt>
      <trkpt lat="48.97485" lon="0.92533">
        <ele>148.600006</ele>
        <time>2018-06-17T06:21:05Z</time>
      </trkpt>
      <trkpt lat="48.97494" lon="0.9252">
        <ele>148.5</ele>
        <time>2018-06-17T06:21:07Z</time>
      </trkpt>
      <trkpt lat="48.97504" lon="0.92507">
        <ele>148.100006</ele>
        <time>2018-06-17T06:21:09Z</time>
      </trkpt>
      <trkpt lat="48.97514" lon="0.92493">
        <ele>147.699997</ele>
        <time>2018-06-17T06:21:11Z</time>
      </trkpt>
      <trkpt lat="48.97521" lon="0.92483">
        <ele>147.600006</ele>
        <time>2018-06-17T06:21:13Z</time>
      </trkpt>
      <trkpt lat="48.97533" lon="0.92473">
        <ele>147.300003</ele>
        <time>2018-06-17T06:21:15Z</time>
      </trkpt>
      <trkpt lat="48.97545" lon="0.92464">
        <ele>147</ele>
        <time>2018-06-17T06:21:17Z</time>
      </trkpt>
      <trkpt lat="48.97555" lon="0.92453">
        <ele>146.800003</ele>
        <time>2018-06-17T06:21:19Z</time>
      </trkpt>
      <trkpt lat="48.97566" lon="0.92443">
        <ele>146.600006</ele>
        <time>2018-06-17T06:21:21Z</time>
      </trkpt>
      <trkpt lat="48.97576" lon="0.92432">
        <ele>146.199997</ele>
        <time>2018-06-17T06:21:23Z</time>
      </trkpt>
      <trkpt lat="48.97589" lon="0.92419">
        <ele>145.100006</ele>
        <time>2018-06-17T06:21:25Z</time>
      </trkpt>
      <trkpt lat="48.97598" lon="0.92405">
        <ele>144</ele>
        <time>2018-06-17T06:21:27Z</time>
      </trkpt>
      <trkpt lat="48.976" lon="0.92383">
        <ele>143.399994</ele>
        <time>2018-06-17T06:21:29Z</time>
      </trkpt>
      <trkpt lat="48.97602" lon="0.92362">
        <ele>143.199997</ele>
        <time>2018-06-17T06:21:31Z</time>
      </trkpt>
      <trkpt lat="48.97606" lon="0.92345">
        <ele>143.600006</ele>
        <time>2018-06-17T06:21:33Z</time>
      </trkpt>
      <trkpt lat="48.97611" lon="0.9233">
        <ele>143.899994</ele>
        <time>2018-06-17T06:21:35Z</time>
      </trkpt>
      <trkpt lat="48.97617" lon="0.92316">
        <ele>144.399994</ele>
        <time>2018-06-17T06:21:37Z</time>
      </trkpt>
      <trkpt lat="48.97623" lon="0.92303">
        <ele>144.800003</ele>
        <time>2018-06-17T06:21:39Z</time>
      </trkpt>
      <trkpt lat="48.9763" lon="0.92291">
        <ele>145.100006</ele>
        <time>2018-06-17T06:21:41Z</time>
      </trkpt>
      <trkpt lat="48.97636" lon="0.92278">
        <ele>145.399994</ele>
        <time>2018-06-17T06:21:43Z</time>
      </trkpt>
      <trkpt lat="48.97642" lon="0.92263">
        <ele>145.699997</ele>
        <time>2018-06-17T06:21:45Z</time>
      </trkpt>
      <trkpt lat="48.97647" lon="0.92249">
        <ele>145.899994</ele>
        <time>2018-06-17T06:21:47Z</time>
      </trkpt>
      <trkpt lat="48.97651" lon="0.92235">
        <ele>146.199997</ele>
        <time>2018-06-17T06:21:49Z</time>
      </trkpt>
      <trkpt lat="48.97655" lon="0.92221">
        <ele>146.399994</ele>
        <time>2018-06-17T06:21:51Z</time>
      </trkpt>
      <trkpt lat="48.97658" lon="0.92206">
        <ele>146.600006</ele>
        <time>2018-06-17T06:21:53Z</time>
      </trkpt>
      <trkpt lat="48.97663" lon="0.92192">
        <ele>146.699997</ele>
        <time>2018-06-17T06:21:55Z</time>
      </trkpt>
      <trkpt lat="48.9767" lon="0.92179">
        <ele>146.800003</ele>
        <time>2018-06-17T06:21:57Z</time>
      </trkpt>
      <trkpt lat="48.97676" lon="0.92166">
        <ele>147.100006</ele>
        <time>2018-06-17T06:21:59Z</time>
      </trkpt>
      <trkpt lat="48.97679" lon="0.9215">
        <ele>147</ele>
        <time>2018-06-17T06:22:01Z</time>
      </trkpt>
      <trkpt lat="48.97681" lon="0.92134">
        <ele>147</ele>
        <time>2018-06-17T06:22:03Z</time>
      </trkpt>
      <trkpt lat="48.97684" lon="0.92118">
        <ele>147</ele>
        <time>2018-06-17T06:22:05Z</time>
      </trkpt>
      <trkpt lat="48.97687" lon="0.92102">
        <ele>147</ele>
        <time>2018-06-17T06:22:07Z</time>
      </trkpt>
      <trkpt lat="48.97691" lon="0.92087">
        <ele>147.199997</ele>
        <time>2018-06-17T06:22:09Z</time>
      </trkpt>
      <trkpt lat="48.97696" lon="0.92072">
        <ele>147.399994</ele>
        <time>2018-06-17T06:22:11Z</time>
      </trkpt>
      <trkpt lat="48.97702" lon="0.92059">
        <ele>147.600006</ele>
        <time>2018-06-17T06:22:13Z</time>
      </trkpt>
      <trkpt lat="48.9771" lon="0.92047">
        <ele>147.899994</ele>
        <time>2018-06-17T06:22:15Z</time>
      </trkpt>
      <trkpt lat="48.97718" lon="0.92036">
        <ele>148.100006</ele>
        <time>2018-06-17T06:22:17Z</time>
      </trkpt>
      <trkpt lat="48.97725" lon="0.92025">
        <ele>148.300003</ele>
        <time>2018-06-17T06:22:19Z</time>
      </trkpt>
      <trkpt lat="48.97734" lon="0.92015">
        <ele>148.5</ele>
        <time>2018-06-17T06:22:21Z</time>
      </trkpt>
      <trkpt lat="48.97741" lon="0.92006">
        <ele>148.699997</ele>
        <time>2018-06-17T06:22:23Z</time>
      </trkpt>
      <trkpt lat="48.97748" lon="0.91994">
        <ele>148.800003</ele>
        <time>2018-06-17T06:22:25Z</time>
      </trkpt>
      <trkpt lat="48.97754" lon="0.91979">
        <ele>148.800003</ele>
        <time>2018-06-17T06:22:27Z</time>
      </trkpt>
      <trkpt lat="48.97759" lon="0.91963">
        <ele>148.899994</ele>
        <time>2018-06-17T06:22:29Z</time>
      </trkpt>
      <trkpt lat="48.97764" lon="0.91947">
        <ele>148.800003</ele>
        <time>2018-06-17T06:22:31Z</time>
      </trkpt>
      <trkpt lat="48.97769" lon="0.91933">
        <ele>148.699997</ele>
        <time>2018-06-17T06:22:33Z</time>
      </trkpt>
      <trkpt lat="48.97773" lon="0.9192">
        <ele>148.5</ele>
        <time>2018-06-17T06:22:35Z</time>
      </trkpt>
      <trkpt lat="48.97778" lon="0.91906">
        <ele>148.399994</ele>
        <time>2018-06-17T06:22:37Z</time>
      </trkpt>
      <trkpt lat="48.97782" lon="0.91891">
        <ele>148.5</ele>
        <time>2018-06-17T06:22:39Z</time>
      </trkpt>
      <trkpt lat="48.97786" lon="0.91876">
        <ele>148.300003</ele>
        <time>2018-06-17T06:22:41Z</time>
      </trkpt>
      <trkpt lat="48.9779" lon="0.91858">
        <ele>148.199997</ele>
        <time>2018-06-17T06:22:43Z</time>
      </trkpt>
      <trkpt lat="48.97794" lon="0.91841">
        <ele>148</ele>
        <time>2018-06-17T06:22:45Z</time>
      </trkpt>
      <trkpt lat="48.97798" lon="0.91825">
        <ele>147.899994</ele>
        <time>2018-06-17T06:22:47Z</time>
      </trkpt>
      <trkpt lat="48.97802" lon="0.91808">
        <ele>147.899994</ele>
        <time>2018-06-17T06:22:50Z</time>
      </trkpt>
      <trkpt lat="48.97806" lon="0.91795">
        <ele>147.699997</ele>
        <time>2018-06-17T06:22:55Z</time>
      </trkpt>
      <trkpt lat="48.97811" lon="0.91778">
        <ele>147.399994</ele>
        <time>2018-06-17T06:22:59Z</time>
      </trkpt>
      <trkpt lat="48.97816" lon="0.91762">
        <ele>147.600006</ele>
        <time>2018-06-17T06:23:02Z</time>
      </trkpt>
      <trkpt lat="48.97821" lon="0.91746">
        <ele>147.699997</ele>
        <time>2018-06-17T06:23:04Z</time>
      </trkpt>
      <trkpt lat="48.97827" lon="0.91732">
        <ele>148.100006</ele>
        <time>2018-06-17T06:23:06Z</time>
      </trkpt>
      <trkpt lat="48.97833" lon="0.91719">
        <ele>148.199997</ele>
        <time>2018-06-17T06:23:08Z</time>
      </trkpt>
      <trkpt lat="48.97839" lon="0.91702">
        <ele>148.300003</ele>
        <time>2018-06-17T06:23:10Z</time>
      </trkpt>
      <trkpt lat="48.97844" lon="0.91688">
        <ele>148.600006</ele>
        <time>2018-06-17T06:23:12Z</time>
      </trkpt>
      <trkpt lat="48.97853" lon="0.91681">
        <ele>148.699997</ele>
        <time>2018-06-17T06:23:14Z</time>
      </trkpt>
      <trkpt lat="48.97864" lon="0.91675">
        <ele>148.899994</ele>
        <time>2018-06-17T06:23:16Z</time>
      </trkpt>
      <trkpt lat="48.97874" lon="0.91669">
        <ele>149.100006</ele>
        <time>2018-06-17T06:23:18Z</time>
      </trkpt>
      <trkpt lat="48.97883" lon="0.91662">
        <ele>149.399994</ele>
        <time>2018-06-17T06:23:20Z</time>
      </trkpt>
      <trkpt lat="48.97893" lon="0.91657">
        <ele>149.5</ele>
        <time>2018-06-17T06:23:22Z</time>
      </trkpt>
      <trkpt lat="48.97904" lon="0.9165">
        <ele>149.5</ele>
        <time>2018-06-17T06:23:24Z</time>
      </trkpt>
      <trkpt lat="48.97915" lon="0.91644">
        <ele>149.600006</ele>
        <time>2018-06-17T06:23:26Z</time>
      </trkpt>
      <trkpt lat="48.97925" lon="0.91637">
        <ele>149.699997</ele>
        <time>2018-06-17T06:23:28Z</time>
      </trkpt>
      <trkpt lat="48.97933" lon="0.91631">
        <ele>149.699997</ele>
        <time>2018-06-17T06:23:30Z</time>
      </trkpt>
      <trkpt lat="48.97942" lon="0.91624">
        <ele>149.600006</ele>
        <time>2018-06-17T06:23:33Z</time>
      </trkpt>
      <trkpt lat="48.97952" lon="0.9162">
        <ele>149.5</ele>
        <time>2018-06-17T06:23:36Z</time>
      </trkpt>
      <trkpt lat="48.97957" lon="0.91606">
        <ele>149.699997</ele>
        <time>2018-06-17T06:23:39Z</time>
      </trkpt>
      <trkpt lat="48.97957" lon="0.91588">
        <ele>149.699997</ele>
        <time>2018-06-17T06:23:42Z</time>
      </trkpt>
      <trkpt lat="48.97957" lon="0.91569">
        <ele>149.800003</ele>
        <time>2018-06-17T06:23:45Z</time>
      </trkpt>
      <trkpt lat="48.97957" lon="0.91549">
        <ele>150</ele>
        <time>2018-06-17T06:23:48Z</time>
      </trkpt>
      <trkpt lat="48.97956" lon="0.91533">
        <ele>150.100006</ele>
        <time>2018-06-17T06:23:50Z</time>
      </trkpt>
      <trkpt lat="48.97955" lon="0.91514">
        <ele>149.899994</ele>
        <time>2018-06-17T06:23:53Z</time>
      </trkpt>
      <trkpt lat="48.97954" lon="0.91498">
        <ele>149.899994</ele>
        <time>2018-06-17T06:23:55Z</time>
      </trkpt>
      <trkpt lat="48.97953" lon="0.91479">
        <ele>149.600006</ele>
        <time>2018-06-17T06:23:57Z</time>
      </trkpt>
      <trkpt lat="48.97954" lon="0.91463">
        <ele>148.800003</ele>
        <time>2018-06-17T06:23:59Z</time>
      </trkpt>
      <trkpt lat="48.97952" lon="0.91442">
        <ele>147.300003</ele>
        <time>2018-06-17T06:24:02Z</time>
      </trkpt>
      <trkpt lat="48.97952" lon="0.91428">
        <ele>145.600006</ele>
        <time>2018-06-17T06:24:05Z</time>
      </trkpt>
      <trkpt lat="48.97952" lon="0.91414">
        <ele>144.5</ele>
        <time>2018-06-17T06:24:08Z</time>
      </trkpt>
      <trkpt lat="48.97952" lon="0.914">
        <ele>144</ele>
        <time>2018-06-17T06:24:11Z</time>
      </trkpt>
      <trkpt lat="48.97949" lon="0.91382">
        <ele>144</ele>
        <time>2018-06-17T06:24:14Z</time>
      </trkpt>
      <trkpt lat="48.97948" lon="0.91364">
        <ele>144.199997</ele>
        <time>2018-06-17T06:24:17Z</time>
      </trkpt>
      <trkpt lat="48.97946" lon="0.91346">
        <ele>144.399994</ele>
        <time>2018-06-17T06:24:20Z</time>
      </trkpt>
      <trkpt lat="48.97944" lon="0.91328">
        <ele>145.199997</ele>
        <time>2018-06-17T06:24:23Z</time>
      </trkpt>
      <trkpt lat="48.97943" lon="0.91308">
        <ele>146.199997</ele>
        <time>2018-06-17T06:24:26Z</time>
      </trkpt>
      <trkpt lat="48.97941" lon="0.91288">
        <ele>147</ele>
        <time>2018-06-17T06:24:29Z</time>
      </trkpt>
      <trkpt lat="48.97939" lon="0.91268">
        <ele>147.699997</ele>
        <time>2018-06-17T06:24:32Z</time>
      </trkpt>
      <trkpt lat="48.97937" lon="0.91249">
        <ele>148.199997</ele>
        <time>2018-06-17T06:24:35Z</time>
      </trkpt>
      <trkpt lat="48.97935" lon="0.91229">
        <ele>148.5</ele>
        <time>2018-06-17T06:24:38Z</time>
      </trkpt>
      <trkpt lat="48.97933" lon="0.9121">
        <ele>148.899994</ele>
        <time>2018-06-17T06:24:41Z</time>
      </trkpt>
      <trkpt lat="48.97931" lon="0.91191">
        <ele>149.199997</ele>
        <time>2018-06-17T06:24:44Z</time>
      </trkpt>
      <trkpt lat="48.97929" lon="0.91172">
        <ele>149.699997</ele>
        <time>2018-06-17T06:24:47Z</time>
      </trkpt>
      <trkpt lat="48.97926" lon="0.91153">
        <ele>150.100006</ele>
        <time>2018-06-17T06:24:50Z</time>
      </trkpt>
      <trkpt lat="48.97924" lon="0.91134">
        <ele>150.600006</ele>
        <time>2018-06-17T06:24:53Z</time>
      </trkpt>
      <trkpt lat="48.97922" lon="0.91114">
        <ele>151</ele>
        <time>2018-06-17T06:24:56Z</time>
      </trkpt>
      <trkpt lat="48.9792" lon="0.91094">
        <ele>151.199997</ele>
        <time>2018-06-17T06:24:59Z</time>
      </trkpt>
      <trkpt lat="48.97918" lon="0.91074">
        <ele>151.600006</ele>
        <time>2018-06-17T06:25:02Z</time>
      </trkpt>
      <trkpt lat="48.97917" lon="0.9106">
        <ele>152</ele>
        <time>2018-06-17T06:25:04Z</time>
      </trkpt>
      <trkpt lat="48.97916" lon="0.91046">
        <ele>151.899994</ele>
        <time>2018-06-17T06:25:06Z</time>
      </trkpt>
      <trkpt lat="48.97915" lon="0.91033">
        <ele>152</ele>
        <time>2018-06-17T06:25:08Z</time>
      </trkpt>
      <trkpt lat="48.97914" lon="0.91019">
        <ele>152.199997</ele>
        <time>2018-06-17T06:25:10Z</time>
      </trkpt>
      <trkpt lat="48.97914" lon="0.90998">
        <ele>152.699997</ele>
        <time>2018-06-17T06:25:13Z</time>
      </trkpt>
      <trkpt lat="48.97917" lon="0.90979">
        <ele>153.100006</ele>
        <time>2018-06-17T06:25:16Z</time>
      </trkpt>
      <trkpt lat="48.97922" lon="0.90966">
        <ele>153.199997</ele>
        <time>2018-06-17T06:25:18Z</time>
      </trkpt>
      <trkpt lat="48.97927" lon="0.90954">
        <ele>153.300003</ele>
        <time>2018-06-17T06:25:20Z</time>
      </trkpt>
      <trkpt lat="48.97934" lon="0.90942">
        <ele>153.399994</ele>
        <time>2018-06-17T06:25:22Z</time>
      </trkpt>
      <trkpt lat="48.97941" lon="0.90932">
        <ele>153.300003</ele>
        <time>2018-06-17T06:25:24Z</time>
      </trkpt>
      <trkpt lat="48.97949" lon="0.9092">
        <ele>153.199997</ele>
        <time>2018-06-17T06:25:26Z</time>
      </trkpt>
      <trkpt lat="48.97957" lon="0.9091">
        <ele>153</ele>
        <time>2018-06-17T06:25:28Z</time>
      </trkpt>
      <trkpt lat="48.97963" lon="0.90898">
        <ele>152.600006</ele>
        <time>2018-06-17T06:25:30Z</time>
      </trkpt>
      <trkpt lat="48.97963" lon="0.90883">
        <ele>152.699997</ele>
        <time>2018-06-17T06:25:32Z</time>
      </trkpt>
      <trkpt lat="48.97961" lon="0.90867">
        <ele>152.800003</ele>
        <time>2018-06-17T06:25:34Z</time>
      </trkpt>
      <trkpt lat="48.97959" lon="0.9085">
        <ele>152.699997</ele>
        <time>2018-06-17T06:25:36Z</time>
      </trkpt>
      <trkpt lat="48.97957" lon="0.90833">
        <ele>152.699997</ele>
        <time>2018-06-17T06:25:38Z</time>
      </trkpt>
      <trkpt lat="48.97956" lon="0.90815">
        <ele>152.399994</ele>
        <time>2018-06-17T06:25:40Z</time>
      </trkpt>
      <trkpt lat="48.97956" lon="0.90797">
        <ele>152</ele>
        <time>2018-06-17T06:25:42Z</time>
      </trkpt>
      <trkpt lat="48.97955" lon="0.9078">
        <ele>151.600006</ele>
        <time>2018-06-17T06:25:44Z</time>
      </trkpt>
      <trkpt lat="48.97954" lon="0.90763">
        <ele>151.300003</ele>
        <time>2018-06-17T06:25:46Z</time>
      </trkpt>
      <trkpt lat="48.97953" lon="0.90745">
        <ele>151</ele>
        <time>2018-06-17T06:25:48Z</time>
      </trkpt>
      <trkpt lat="48.97953" lon="0.90726">
        <ele>150.899994</ele>
        <time>2018-06-17T06:25:50Z</time>
      </trkpt>
      <trkpt lat="48.97952" lon="0.90706">
        <ele>150.399994</ele>
        <time>2018-06-17T06:25:52Z</time>
      </trkpt>
      <trkpt lat="48.97952" lon="0.90688">
        <ele>150.100006</ele>
        <time>2018-06-17T06:25:54Z</time>
      </trkpt>
      <trkpt lat="48.97952" lon="0.90674">
        <ele>149.600006</ele>
        <time>2018-06-17T06:25:56Z</time>
      </trkpt>
      <trkpt lat="48.97943" lon="0.90666">
        <ele>148.899994</ele>
        <time>2018-06-17T06:26:00Z</time>
      </trkpt>
      <trkpt lat="48.97931" lon="0.90668">
        <ele>148.600006</ele>
        <time>2018-06-17T06:26:03Z</time>
      </trkpt>
      <trkpt lat="48.9792" lon="0.90671">
        <ele>148.699997</ele>
        <time>2018-06-17T06:26:05Z</time>
      </trkpt>
      <trkpt lat="48.9791" lon="0.90673">
        <ele>148.800003</ele>
        <time>2018-06-17T06:26:07Z</time>
      </trkpt>
      <trkpt lat="48.97899" lon="0.90675">
        <ele>148.800003</ele>
        <time>2018-06-17T06:26:09Z</time>
      </trkpt>
      <trkpt lat="48.97888" lon="0.90672">
        <ele>148.899994</ele>
        <time>2018-06-17T06:26:11Z</time>
      </trkpt>
      <trkpt lat="48.97882" lon="0.90659">
        <ele>149</ele>
        <time>2018-06-17T06:26:13Z</time>
      </trkpt>
      <trkpt lat="48.97882" lon="0.9064">
        <ele>148.899994</ele>
        <time>2018-06-17T06:26:15Z</time>
      </trkpt>
      <trkpt lat="48.97882" lon="0.90622">
        <ele>148.699997</ele>
        <time>2018-06-17T06:26:17Z</time>
      </trkpt>
      <trkpt lat="48.97882" lon="0.90602">
        <ele>148.399994</ele>
        <time>2018-06-17T06:26:19Z</time>
      </trkpt>
      <trkpt lat="48.97882" lon="0.90583">
        <ele>148.199997</ele>
        <time>2018-06-17T06:26:21Z</time>
      </trkpt>
      <trkpt lat="48.97882" lon="0.90565">
        <ele>147.800003</ele>
        <time>2018-06-17T06:26:23Z</time>
      </trkpt>
      <trkpt lat="48.97882" lon="0.90545">
        <ele>147.399994</ele>
        <time>2018-06-17T06:26:25Z</time>
      </trkpt>
      <trkpt lat="48.97883" lon="0.90528">
        <ele>147.199997</ele>
        <time>2018-06-17T06:26:27Z</time>
      </trkpt>
      <trkpt lat="48.97884" lon="0.9051">
        <ele>147</ele>
        <time>2018-06-17T06:26:29Z</time>
      </trkpt>
      <trkpt lat="48.97884" lon="0.90491">
        <ele>146.699997</ele>
        <time>2018-06-17T06:26:31Z</time>
      </trkpt>
      <trkpt lat="48.97883" lon="0.9047">
        <ele>146.399994</ele>
        <time>2018-06-17T06:26:33Z</time>
      </trkpt>
      <trkpt lat="48.97883" lon="0.90451">
        <ele>146.100006</ele>
        <time>2018-06-17T06:26:35Z</time>
      </trkpt>
      <trkpt lat="48.97883" lon="0.90433">
        <ele>145.899994</ele>
        <time>2018-06-17T06:26:37Z</time>
      </trkpt>
      <trkpt lat="48.97882" lon="0.9041">
        <ele>145.600006</ele>
        <time>2018-06-17T06:26:39Z</time>
      </trkpt>
      <trkpt lat="48.97881" lon="0.90387">
        <ele>145.399994</ele>
        <time>2018-06-17T06:26:41Z</time>
      </trkpt>
      <trkpt lat="48.97881" lon="0.90367">
        <ele>145.199997</ele>
        <time>2018-06-17T06:26:43Z</time>
      </trkpt>
      <trkpt lat="48.97879" lon="0.9035">
        <ele>145.100006</ele>
        <time>2018-06-17T06:26:45Z</time>
      </trkpt>
      <trkpt lat="48.9787" lon="0.90329">
        <ele>145</ele>
        <time>2018-06-17T06:26:47Z</time>
      </trkpt>
      <trkpt lat="48.97862" lon="0.9032">
        <ele>144.800003</ele>
        <time>2018-06-17T06:26:48Z</time>
      </trkpt>
      <trkpt lat="48.97855" lon="0.90312">
        <ele>144.600006</ele>
        <time>2018-06-17T06:26:49Z</time>
      </trkpt>
      <trkpt lat="48.97838" lon="0.90303">
        <ele>144.100006</ele>
        <time>2018-06-17T06:26:51Z</time>
      </trkpt>
      <trkpt lat="48.97824" lon="0.90296">
        <ele>143.5</ele>
        <time>2018-06-17T06:26:53Z</time>
      </trkpt>
      <trkpt lat="48.97808" lon="0.9029">
        <ele>142.899994</ele>
        <time>2018-06-17T06:26:55Z</time>
      </trkpt>
      <trkpt lat="48.97794" lon="0.90279">
        <ele>142.199997</ele>
        <time>2018-06-17T06:26:57Z</time>
      </trkpt>
      <trkpt lat="48.97787" lon="0.9027">
        <ele>141.899994</ele>
        <time>2018-06-17T06:26:58Z</time>
      </trkpt>
      <trkpt lat="48.97778" lon="0.90249">
        <ele>141</ele>
        <time>2018-06-17T06:27:00Z</time>
      </trkpt>
      <trkpt lat="48.9777" lon="0.90228">
        <ele>140.399994</ele>
        <time>2018-06-17T06:27:02Z</time>
      </trkpt>
      <trkpt lat="48.97758" lon="0.90211">
        <ele>139.600006</ele>
        <time>2018-06-17T06:27:04Z</time>
      </trkpt>
      <trkpt lat="48.97744" lon="0.90203">
        <ele>138.800003</ele>
        <time>2018-06-17T06:27:06Z</time>
      </trkpt>
      <trkpt lat="48.97729" lon="0.902">
        <ele>138.300003</ele>
        <time>2018-06-17T06:27:08Z</time>
      </trkpt>
      <trkpt lat="48.97714" lon="0.90201">
        <ele>137.800003</ele>
        <time>2018-06-17T06:27:10Z</time>
      </trkpt>
      <trkpt lat="48.97702" lon="0.90198">
        <ele>137.399994</ele>
        <time>2018-06-17T06:27:12Z</time>
      </trkpt>
      <trkpt lat="48.97689" lon="0.90191">
        <ele>137</ele>
        <time>2018-06-17T06:27:14Z</time>
      </trkpt>
      <trkpt lat="48.97679" lon="0.90175">
        <ele>136.600006</ele>
        <time>2018-06-17T06:27:16Z</time>
      </trkpt>
      <trkpt lat="48.97668" lon="0.90161">
        <ele>136.199997</ele>
        <time>2018-06-17T06:27:18Z</time>
      </trkpt>
      <trkpt lat="48.97658" lon="0.90143">
        <ele>135.800003</ele>
        <time>2018-06-17T06:27:20Z</time>
      </trkpt>
      <trkpt lat="48.97651" lon="0.90123">
        <ele>135.399994</ele>
        <time>2018-06-17T06:27:22Z</time>
      </trkpt>
      <trkpt lat="48.97647" lon="0.90103">
        <ele>135.100006</ele>
        <time>2018-06-17T06:27:24Z</time>
      </trkpt>
      <trkpt lat="48.97643" lon="0.90084">
        <ele>135.300003</ele>
        <time>2018-06-17T06:27:26Z</time>
      </trkpt>
      <trkpt lat="48.97641" lon="0.90066">
        <ele>135.699997</ele>
        <time>2018-06-17T06:27:28Z</time>
      </trkpt>
      <trkpt lat="48.97639" lon="0.90049">
        <ele>136.100006</ele>
        <time>2018-06-17T06:27:30Z</time>
      </trkpt>
      <trkpt lat="48.97636" lon="0.90033">
        <ele>136.5</ele>
        <time>2018-06-17T06:27:32Z</time>
      </trkpt>
      <trkpt lat="48.97634" lon="0.90018">
        <ele>136.899994</ele>
        <time>2018-06-17T06:27:34Z</time>
      </trkpt>
      <trkpt lat="48.97631" lon="0.90002">
        <ele>137.199997</ele>
        <time>2018-06-17T06:27:36Z</time>
      </trkpt>
      <trkpt lat="48.97628" lon="0.89985">
        <ele>137.699997</ele>
        <time>2018-06-17T06:27:38Z</time>
      </trkpt>
      <trkpt lat="48.97625" lon="0.89969">
        <ele>138.100006</ele>
        <time>2018-06-17T06:27:40Z</time>
      </trkpt>
      <trkpt lat="48.97622" lon="0.89952">
        <ele>138.5</ele>
        <time>2018-06-17T06:27:42Z</time>
      </trkpt>
      <trkpt lat="48.97618" lon="0.89936">
        <ele>138.800003</ele>
        <time>2018-06-17T06:27:44Z</time>
      </trkpt>
      <trkpt lat="48.97614" lon="0.89921">
        <ele>139.100006</ele>
        <time>2018-06-17T06:27:46Z</time>
      </trkpt>
      <trkpt lat="48.97613" lon="0.89905">
        <ele>139.399994</ele>
        <time>2018-06-17T06:27:48Z</time>
      </trkpt>
      <trkpt lat="48.97617" lon="0.8989">
        <ele>139.399994</ele>
        <time>2018-06-17T06:27:50Z</time>
      </trkpt>
      <trkpt lat="48.97621" lon="0.89875">
        <ele>139.300003</ele>
        <time>2018-06-17T06:27:52Z</time>
      </trkpt>
      <trkpt lat="48.97624" lon="0.89859">
        <ele>139.300003</ele>
        <time>2018-06-17T06:27:54Z</time>
      </trkpt>
      <trkpt lat="48.97627" lon="0.89843">
        <ele>139.300003</ele>
        <time>2018-06-17T06:27:56Z</time>
      </trkpt>
      <trkpt lat="48.97632" lon="0.8983">
        <ele>139.300003</ele>
        <time>2018-06-17T06:27:58Z</time>
      </trkpt>
      <trkpt lat="48.97635" lon="0.89815">
        <ele>139.399994</ele>
        <time>2018-06-17T06:28:00Z</time>
      </trkpt>
      <trkpt lat="48.97638" lon="0.89799">
        <ele>139.600006</ele>
        <time>2018-06-17T06:28:02Z</time>
      </trkpt>
      <trkpt lat="48.97643" lon="0.89778">
        <ele>139.800003</ele>
        <time>2018-06-17T06:28:05Z</time>
      </trkpt>
      <trkpt lat="48.97646" lon="0.89762">
        <ele>139.699997</ele>
        <time>2018-06-17T06:28:07Z</time>
      </trkpt>
      <trkpt lat="48.97649" lon="0.89747">
        <ele>139.899994</ele>
        <time>2018-06-17T06:28:09Z</time>
      </trkpt>
      <trkpt lat="48.97652" lon="0.89731">
        <ele>139.899994</ele>
        <time>2018-06-17T06:28:11Z</time>
      </trkpt>
      <trkpt lat="48.97654" lon="0.89714">
        <ele>139.899994</ele>
        <time>2018-06-17T06:28:13Z</time>
      </trkpt>
      <trkpt lat="48.97656" lon="0.89695">
        <ele>139.899994</ele>
        <time>2018-06-17T06:28:15Z</time>
      </trkpt>
      <trkpt lat="48.97659" lon="0.89676">
        <ele>140.100006</ele>
        <time>2018-06-17T06:28:17Z</time>
      </trkpt>
      <trkpt lat="48.97661" lon="0.89659">
        <ele>140.199997</ele>
        <time>2018-06-17T06:28:19Z</time>
      </trkpt>
      <trkpt lat="48.97663" lon="0.89642">
        <ele>140.399994</ele>
        <time>2018-06-17T06:28:21Z</time>
      </trkpt>
      <trkpt lat="48.97665" lon="0.89625">
        <ele>140.5</ele>
        <time>2018-06-17T06:28:23Z</time>
      </trkpt>
      <trkpt lat="48.97667" lon="0.89608">
        <ele>140.5</ele>
        <time>2018-06-17T06:28:25Z</time>
      </trkpt>
      <trkpt lat="48.97669" lon="0.89591">
        <ele>140.5</ele>
        <time>2018-06-17T06:28:27Z</time>
      </trkpt>
      <trkpt lat="48.97672" lon="0.89575">
        <ele>140.399994</ele>
        <time>2018-06-17T06:28:29Z</time>
      </trkpt>
      <trkpt lat="48.97673" lon="0.89558">
        <ele>140.800003</ele>
        <time>2018-06-17T06:28:31Z</time>
      </trkpt>
      <trkpt lat="48.97675" lon="0.89542">
        <ele>140.899994</ele>
        <time>2018-06-17T06:28:33Z</time>
      </trkpt>
      <trkpt lat="48.97677" lon="0.89525">
        <ele>141.199997</ele>
        <time>2018-06-17T06:28:35Z</time>
      </trkpt>
      <trkpt lat="48.97678" lon="0.89509">
        <ele>141.300003</ele>
        <time>2018-06-17T06:28:37Z</time>
      </trkpt>
      <trkpt lat="48.9768" lon="0.89492">
        <ele>141.5</ele>
        <time>2018-06-17T06:28:39Z</time>
      </trkpt>
      <trkpt lat="48.97682" lon="0.89476">
        <ele>141.600006</ele>
        <time>2018-06-17T06:28:41Z</time>
      </trkpt>
      <trkpt lat="48.97683" lon="0.89459">
        <ele>141.600006</ele>
        <time>2018-06-17T06:28:43Z</time>
      </trkpt>
      <trkpt lat="48.97684" lon="0.89442">
        <ele>141.800003</ele>
        <time>2018-06-17T06:28:45Z</time>
      </trkpt>
      <trkpt lat="48.97686" lon="0.89426">
        <ele>141.899994</ele>
        <time>2018-06-17T06:28:47Z</time>
      </trkpt>
      <trkpt lat="48.97687" lon="0.8941">
        <ele>141.800003</ele>
        <time>2018-06-17T06:28:49Z</time>
      </trkpt>
      <trkpt lat="48.97687" lon="0.89395">
        <ele>142.100006</ele>
        <time>2018-06-17T06:28:51Z</time>
      </trkpt>
      <trkpt lat="48.97689" lon="0.8938">
        <ele>142.199997</ele>
        <time>2018-06-17T06:28:53Z</time>
      </trkpt>
      <trkpt lat="48.9769" lon="0.89364">
        <ele>142.300003</ele>
        <time>2018-06-17T06:28:55Z</time>
      </trkpt>
      <trkpt lat="48.9769" lon="0.89347">
        <ele>142.399994</ele>
        <time>2018-06-17T06:28:57Z</time>
      </trkpt>
      <trkpt lat="48.97691" lon="0.89332">
        <ele>142.600006</ele>
        <time>2018-06-17T06:28:59Z</time>
      </trkpt>
      <trkpt lat="48.97692" lon="0.89316">
        <ele>142.5</ele>
        <time>2018-06-17T06:29:01Z</time>
      </trkpt>
      <trkpt lat="48.97693" lon="0.89298">
        <ele>142.600006</ele>
        <time>2018-06-17T06:29:04Z</time>
      </trkpt>
      <trkpt lat="48.97694" lon="0.89281">
        <ele>142.800003</ele>
        <time>2018-06-17T06:29:06Z</time>
      </trkpt>
      <trkpt lat="48.97694" lon="0.89264">
        <ele>142.899994</ele>
        <time>2018-06-17T06:29:08Z</time>
      </trkpt>
      <trkpt lat="48.97694" lon="0.89248">
        <ele>143</ele>
        <time>2018-06-17T06:29:10Z</time>
      </trkpt>
      <trkpt lat="48.97695" lon="0.89234">
        <ele>142.899994</ele>
        <time>2018-06-17T06:29:12Z</time>
      </trkpt>
      <trkpt lat="48.97695" lon="0.89216">
        <ele>143</ele>
        <time>2018-06-17T06:29:14Z</time>
      </trkpt>
      <trkpt lat="48.97695" lon="0.892">
        <ele>143.100006</ele>
        <time>2018-06-17T06:29:16Z</time>
      </trkpt>
      <trkpt lat="48.97695" lon="0.89182">
        <ele>143.300003</ele>
        <time>2018-06-17T06:29:18Z</time>
      </trkpt>
      <trkpt lat="48.97695" lon="0.89165">
        <ele>143.399994</ele>
        <time>2018-06-17T06:29:20Z</time>
      </trkpt>
      <trkpt lat="48.97695" lon="0.89148">
        <ele>143.699997</ele>
        <time>2018-06-17T06:29:22Z</time>
      </trkpt>
      <trkpt lat="48.97694" lon="0.89131">
        <ele>143.800003</ele>
        <time>2018-06-17T06:29:24Z</time>
      </trkpt>
      <trkpt lat="48.97693" lon="0.89114">
        <ele>143.899994</ele>
        <time>2018-06-17T06:29:26Z</time>
      </trkpt>
      <trkpt lat="48.97693" lon="0.89098">
        <ele>143.899994</ele>
        <time>2018-06-17T06:29:28Z</time>
      </trkpt>
      <trkpt lat="48.97692" lon="0.89083">
        <ele>144.300003</ele>
        <time>2018-06-17T06:29:30Z</time>
      </trkpt>
      <trkpt lat="48.97691" lon="0.89067">
        <ele>144.300003</ele>
        <time>2018-06-17T06:29:32Z</time>
      </trkpt>
      <trkpt lat="48.97691" lon="0.89049">
        <ele>144.399994</ele>
        <time>2018-06-17T06:29:34Z</time>
      </trkpt>
      <trkpt lat="48.9769" lon="0.89033">
        <ele>144.399994</ele>
        <time>2018-06-17T06:29:36Z</time>
      </trkpt>
      <trkpt lat="48.97688" lon="0.89018">
        <ele>144.600006</ele>
        <time>2018-06-17T06:29:38Z</time>
      </trkpt>
      <trkpt lat="48.97688" lon="0.89002">
        <ele>144.600006</ele>
        <time>2018-06-17T06:29:40Z</time>
      </trkpt>
      <trkpt lat="48.97687" lon="0.88985">
        <ele>144.5</ele>
        <time>2018-06-17T06:29:42Z</time>
      </trkpt>
      <trkpt lat="48.97686" lon="0.88967">
        <ele>144.600006</ele>
        <time>2018-06-17T06:29:44Z</time>
      </trkpt>
      <trkpt lat="48.97684" lon="0.88952">
        <ele>144.699997</ele>
        <time>2018-06-17T06:29:46Z</time>
      </trkpt>
      <trkpt lat="48.97682" lon="0.88932">
        <ele>144.800003</ele>
        <time>2018-06-17T06:29:49Z</time>
      </trkpt>
      <trkpt lat="48.97681" lon="0.88916">
        <ele>144.899994</ele>
        <time>2018-06-17T06:29:51Z</time>
      </trkpt>
      <trkpt lat="48.97679" lon="0.889">
        <ele>145</ele>
        <time>2018-06-17T06:29:53Z</time>
      </trkpt>
      <trkpt lat="48.97677" lon="0.88881">
        <ele>145.100006</ele>
        <time>2018-06-17T06:29:55Z</time>
      </trkpt>
      <trkpt lat="48.97675" lon="0.88865">
        <ele>145.100006</ele>
        <time>2018-06-17T06:29:57Z</time>
      </trkpt>
      <trkpt lat="48.97675" lon="0.88849">
        <ele>145.100006</ele>
        <time>2018-06-17T06:29:59Z</time>
      </trkpt>
      <trkpt lat="48.97672" lon="0.88834">
        <ele>145.199997</ele>
        <time>2018-06-17T06:30:01Z</time>
      </trkpt>
      <trkpt lat="48.9767" lon="0.88818">
        <ele>145.399994</ele>
        <time>2018-06-17T06:30:03Z</time>
      </trkpt>
      <trkpt lat="48.97668" lon="0.88802">
        <ele>145.600006</ele>
        <time>2018-06-17T06:30:05Z</time>
      </trkpt>
      <trkpt lat="48.97666" lon="0.88787">
        <ele>146</ele>
        <time>2018-06-17T06:30:07Z</time>
      </trkpt>
      <trkpt lat="48.97664" lon="0.88772">
        <ele>145.800003</ele>
        <time>2018-06-17T06:30:09Z</time>
      </trkpt>
      <trkpt lat="48.97661" lon="0.88755">
        <ele>145.699997</ele>
        <time>2018-06-17T06:30:11Z</time>
      </trkpt>
      <trkpt lat="48.97659" lon="0.88739">
        <ele>145.699997</ele>
        <time>2018-06-17T06:30:13Z</time>
      </trkpt>
      <trkpt lat="48.97657" lon="0.88723">
        <ele>145.699997</ele>
        <time>2018-06-17T06:30:15Z</time>
      </trkpt>
      <trkpt lat="48.97654" lon="0.88709">
        <ele>146</ele>
        <time>2018-06-17T06:30:17Z</time>
      </trkpt>
      <trkpt lat="48.97652" lon="0.88694">
        <ele>146</ele>
        <time>2018-06-17T06:30:19Z</time>
      </trkpt>
      <trkpt lat="48.97649" lon="0.88678">
        <ele>145.899994</ele>
        <time>2018-06-17T06:30:21Z</time>
      </trkpt>
      <trkpt lat="48.97647" lon="0.88663">
        <ele>146.100006</ele>
        <time>2018-06-17T06:30:23Z</time>
      </trkpt>
      <trkpt lat="48.97644" lon="0.88648">
        <ele>146.199997</ele>
        <time>2018-06-17T06:30:25Z</time>
      </trkpt>
      <trkpt lat="48.97641" lon="0.88632">
        <ele>146.199997</ele>
        <time>2018-06-17T06:30:27Z</time>
      </trkpt>
      <trkpt lat="48.97638" lon="0.88616">
        <ele>146.300003</ele>
        <time>2018-06-17T06:30:29Z</time>
      </trkpt>
      <trkpt lat="48.97634" lon="0.886">
        <ele>146.399994</ele>
        <time>2018-06-17T06:30:31Z</time>
      </trkpt>
      <trkpt lat="48.97631" lon="0.88584">
        <ele>146.5</ele>
        <time>2018-06-17T06:30:33Z</time>
      </trkpt>
      <trkpt lat="48.97628" lon="0.88568">
        <ele>146.300003</ele>
        <time>2018-06-17T06:30:35Z</time>
      </trkpt>
      <trkpt lat="48.97625" lon="0.88554">
        <ele>146.300003</ele>
        <time>2018-06-17T06:30:37Z</time>
      </trkpt>
      <trkpt lat="48.97622" lon="0.88535">
        <ele>146.199997</ele>
        <time>2018-06-17T06:30:40Z</time>
      </trkpt>
      <trkpt lat="48.97618" lon="0.88519">
        <ele>146.100006</ele>
        <time>2018-06-17T06:30:43Z</time>
      </trkpt>
      <trkpt lat="48.97614" lon="0.88502">
        <ele>146</ele>
        <time>2018-06-17T06:30:46Z</time>
      </trkpt>
      <trkpt lat="48.97609" lon="0.88484">
        <ele>146.300003</ele>
        <time>2018-06-17T06:30:49Z</time>
      </trkpt>
      <trkpt lat="48.97605" lon="0.88468">
        <ele>146.300003</ele>
        <time>2018-06-17T06:30:52Z</time>
      </trkpt>
      <trkpt lat="48.97598" lon="0.88458">
        <ele>146.100006</ele>
        <time>2018-06-17T06:30:57Z</time>
      </trkpt>
      <trkpt lat="48.97591" lon="0.88447">
        <ele>146.300003</ele>
        <time>2018-06-17T06:31:02Z</time>
      </trkpt>
      <trkpt lat="48.97587" lon="0.88433">
        <ele>146.300003</ele>
        <time>2018-06-17T06:31:05Z</time>
      </trkpt>
      <trkpt lat="48.97581" lon="0.88415">
        <ele>146.399994</ele>
        <time>2018-06-17T06:31:08Z</time>
      </trkpt>
      <trkpt lat="48.97577" lon="0.88402">
        <ele>146.300003</ele>
        <time>2018-06-17T06:31:10Z</time>
      </trkpt>
      <trkpt lat="48.97574" lon="0.8839">
        <ele>146.399994</ele>
        <time>2018-06-17T06:31:12Z</time>
      </trkpt>
      <trkpt lat="48.9757" lon="0.88377">
        <ele>146.5</ele>
        <time>2018-06-17T06:31:14Z</time>
      </trkpt>
      <trkpt lat="48.97566" lon="0.88356">
        <ele>146.5</ele>
        <time>2018-06-17T06:31:17Z</time>
      </trkpt>
      <trkpt lat="48.97562" lon="0.88343">
        <ele>146.5</ele>
        <time>2018-06-17T06:31:19Z</time>
      </trkpt>
      <trkpt lat="48.97558" lon="0.8833">
        <ele>146.600006</ele>
        <time>2018-06-17T06:31:21Z</time>
      </trkpt>
      <trkpt lat="48.97555" lon="0.88313">
        <ele>146.699997</ele>
        <time>2018-06-17T06:31:23Z</time>
      </trkpt>
      <trkpt lat="48.97551" lon="0.88298">
        <ele>146.600006</ele>
        <time>2018-06-17T06:31:25Z</time>
      </trkpt>
      <trkpt lat="48.97546" lon="0.88283">
        <ele>146.5</ele>
        <time>2018-06-17T06:31:27Z</time>
      </trkpt>
      <trkpt lat="48.97542" lon="0.8827">
        <ele>146.5</ele>
        <time>2018-06-17T06:31:29Z</time>
      </trkpt>
      <trkpt lat="48.97536" lon="0.88257">
        <ele>146.5</ele>
        <time>2018-06-17T06:31:31Z</time>
      </trkpt>
      <trkpt lat="48.97527" lon="0.88251">
        <ele>146.100006</ele>
        <time>2018-06-17T06:31:34Z</time>
      </trkpt>
      <trkpt lat="48.97515" lon="0.88248">
        <ele>145</ele>
        <time>2018-06-17T06:31:37Z</time>
      </trkpt>
      <trkpt lat="48.97505" lon="0.88249">
        <ele>143.800003</ele>
        <time>2018-06-17T06:31:39Z</time>
      </trkpt>
      <trkpt lat="48.97497" lon="0.88239">
        <ele>141.800003</ele>
        <time>2018-06-17T06:31:42Z</time>
      </trkpt>
      <trkpt lat="48.97507" lon="0.88237">
        <ele>139.899994</ele>
        <time>2018-06-17T06:31:47Z</time>
      </trkpt>
      <trkpt lat="48.97517" lon="0.88232">
        <ele>139.600006</ele>
        <time>2018-06-17T06:31:50Z</time>
      </trkpt>
      <trkpt lat="48.97527" lon="0.88224">
        <ele>139.699997</ele>
        <time>2018-06-17T06:31:53Z</time>
      </trkpt>
      <trkpt lat="48.97539" lon="0.8822">
        <ele>139.800003</ele>
        <time>2018-06-17T06:31:56Z</time>
      </trkpt>
      <trkpt lat="48.9755" lon="0.88214">
        <ele>139.800003</ele>
        <time>2018-06-17T06:31:58Z</time>
      </trkpt>
      <trkpt lat="48.97559" lon="0.88206">
        <ele>139.800003</ele>
        <time>2018-06-17T06:32:00Z</time>
      </trkpt>
      <trkpt lat="48.97568" lon="0.882">
        <ele>139.699997</ele>
        <time>2018-06-17T06:32:02Z</time>
      </trkpt>
      <trkpt lat="48.97579" lon="0.88196">
        <ele>139.600006</ele>
        <time>2018-06-17T06:32:04Z</time>
      </trkpt>
      <trkpt lat="48.97591" lon="0.88194">
        <ele>139.699997</ele>
        <time>2018-06-17T06:32:06Z</time>
      </trkpt>
      <trkpt lat="48.97602" lon="0.88194">
        <ele>140.199997</ele>
        <time>2018-06-17T06:32:10Z</time>
      </trkpt>
      <trkpt lat="48.97612" lon="0.88197">
        <ele>140.800003</ele>
        <time>2018-06-17T06:32:13Z</time>
      </trkpt>
      <trkpt lat="48.97626" lon="0.88202">
        <ele>141.399994</ele>
        <time>2018-06-17T06:32:16Z</time>
      </trkpt>
      <trkpt lat="48.97637" lon="0.88208">
        <ele>141.800003</ele>
        <time>2018-06-17T06:32:18Z</time>
      </trkpt>
      <trkpt lat="48.97649" lon="0.88213">
        <ele>142.199997</ele>
        <time>2018-06-17T06:32:20Z</time>
      </trkpt>
      <trkpt lat="48.97662" lon="0.88218">
        <ele>142.600006</ele>
        <time>2018-06-17T06:32:22Z</time>
      </trkpt>
      <trkpt lat="48.97675" lon="0.88224">
        <ele>143</ele>
        <time>2018-06-17T06:32:24Z</time>
      </trkpt>
      <trkpt lat="48.97685" lon="0.88229">
        <ele>143.399994</ele>
        <time>2018-06-17T06:32:26Z</time>
      </trkpt>
      <trkpt lat="48.97695" lon="0.88234">
        <ele>143.800003</ele>
        <time>2018-06-17T06:32:28Z</time>
      </trkpt>
      <trkpt lat="48.97705" lon="0.88238">
        <ele>144.199997</ele>
        <time>2018-06-17T06:32:30Z</time>
      </trkpt>
      <trkpt lat="48.97715" lon="0.88242">
        <ele>144.399994</ele>
        <time>2018-06-17T06:32:32Z</time>
      </trkpt>
      <trkpt lat="48.97725" lon="0.88246">
        <ele>144.699997</ele>
        <time>2018-06-17T06:32:34Z</time>
      </trkpt>
      <trkpt lat="48.97736" lon="0.88249">
        <ele>145</ele>
        <time>2018-06-17T06:32:36Z</time>
      </trkpt>
      <trkpt lat="48.97745" lon="0.88252">
        <ele>145.100006</ele>
        <time>2018-06-17T06:32:38Z</time>
      </trkpt>
      <trkpt lat="48.97756" lon="0.88255">
        <ele>145.300003</ele>
        <time>2018-06-17T06:32:40Z</time>
      </trkpt>
      <trkpt lat="48.97766" lon="0.88258">
        <ele>145.399994</ele>
        <time>2018-06-17T06:32:42Z</time>
      </trkpt>
      <trkpt lat="48.97776" lon="0.8826">
        <ele>145.5</ele>
        <time>2018-06-17T06:32:44Z</time>
      </trkpt>
      <trkpt lat="48.97784" lon="0.88245">
        <ele>145.899994</ele>
        <time>2018-06-17T06:32:47Z</time>
      </trkpt>
      <trkpt lat="48.97787" lon="0.88232">
        <ele>146.199997</ele>
        <time>2018-06-17T06:32:49Z</time>
      </trkpt>
      <trkpt lat="48.9779" lon="0.88218">
        <ele>146.399994</ele>
        <time>2018-06-17T06:32:51Z</time>
      </trkpt>
      <trkpt lat="48.97794" lon="0.88204">
        <ele>146.5</ele>
        <time>2018-06-17T06:32:53Z</time>
      </trkpt>
      <trkpt lat="48.97797" lon="0.88189">
        <ele>146.600006</ele>
        <time>2018-06-17T06:32:55Z</time>
      </trkpt>
      <trkpt lat="48.978" lon="0.88174">
        <ele>146.699997</ele>
        <time>2018-06-17T06:32:57Z</time>
      </trkpt>
      <trkpt lat="48.97804" lon="0.88159">
        <ele>146.800003</ele>
        <time>2018-06-17T06:32:59Z</time>
      </trkpt>
      <trkpt lat="48.97807" lon="0.88144">
        <ele>146.899994</ele>
        <time>2018-06-17T06:33:01Z</time>
      </trkpt>
      <trkpt lat="48.9781" lon="0.8813">
        <ele>147.100006</ele>
        <time>2018-06-17T06:33:03Z</time>
      </trkpt>
      <trkpt lat="48.97814" lon="0.88115">
        <ele>147.300003</ele>
        <time>2018-06-17T06:33:05Z</time>
      </trkpt>
      <trkpt lat="48.97817" lon="0.881">
        <ele>147.5</ele>
        <time>2018-06-17T06:33:07Z</time>
      </trkpt>
      <trkpt lat="48.97821" lon="0.88085">
        <ele>147.5</ele>
        <time>2018-06-17T06:33:09Z</time>
      </trkpt>
      <trkpt lat="48.97825" lon="0.88069">
        <ele>147.5</ele>
        <time>2018-06-17T06:33:11Z</time>
      </trkpt>
      <trkpt lat="48.97829" lon="0.88054">
        <ele>147.699997</ele>
        <time>2018-06-17T06:33:13Z</time>
      </trkpt>
      <trkpt lat="48.97833" lon="0.88038">
        <ele>147.699997</ele>
        <time>2018-06-17T06:33:15Z</time>
      </trkpt>
      <trkpt lat="48.97837" lon="0.88023">
        <ele>147.800003</ele>
        <time>2018-06-17T06:33:17Z</time>
      </trkpt>
      <trkpt lat="48.97841" lon="0.88007">
        <ele>147.899994</ele>
        <time>2018-06-17T06:33:19Z</time>
      </trkpt>
      <trkpt lat="48.97845" lon="0.87992">
        <ele>148.100006</ele>
        <time>2018-06-17T06:33:21Z</time>
      </trkpt>
      <trkpt lat="48.97848" lon="0.87977">
        <ele>148.399994</ele>
        <time>2018-06-17T06:33:23Z</time>
      </trkpt>
      <trkpt lat="48.97851" lon="0.87961">
        <ele>148.699997</ele>
        <time>2018-06-17T06:33:25Z</time>
      </trkpt>
      <trkpt lat="48.97854" lon="0.87945">
        <ele>148.899994</ele>
        <time>2018-06-17T06:33:27Z</time>
      </trkpt>
      <trkpt lat="48.97856" lon="0.87928">
        <ele>149</ele>
        <time>2018-06-17T06:33:29Z</time>
      </trkpt>
      <trkpt lat="48.97859" lon="0.87912">
        <ele>149.100006</ele>
        <time>2018-06-17T06:33:31Z</time>
      </trkpt>
      <trkpt lat="48.97861" lon="0.87894">
        <ele>149.100006</ele>
        <time>2018-06-17T06:33:33Z</time>
      </trkpt>
      <trkpt lat="48.97864" lon="0.87877">
        <ele>149.100006</ele>
        <time>2018-06-17T06:33:35Z</time>
      </trkpt>
      <trkpt lat="48.97867" lon="0.8786">
        <ele>149.199997</ele>
        <time>2018-06-17T06:33:37Z</time>
      </trkpt>
      <trkpt lat="48.97869" lon="0.87843">
        <ele>149.300003</ele>
        <time>2018-06-17T06:33:39Z</time>
      </trkpt>
      <trkpt lat="48.97872" lon="0.87826">
        <ele>149.399994</ele>
        <time>2018-06-17T06:33:41Z</time>
      </trkpt>
      <trkpt lat="48.97875" lon="0.8781">
        <ele>149.600006</ele>
        <time>2018-06-17T06:33:43Z</time>
      </trkpt>
      <trkpt lat="48.97879" lon="0.87793">
        <ele>149.699997</ele>
        <time>2018-06-17T06:33:45Z</time>
      </trkpt>
      <trkpt lat="48.97883" lon="0.87777">
        <ele>149.5</ele>
        <time>2018-06-17T06:33:47Z</time>
      </trkpt>
      <trkpt lat="48.97889" lon="0.87762">
        <ele>149.600006</ele>
        <time>2018-06-17T06:33:49Z</time>
      </trkpt>
      <trkpt lat="48.97893" lon="0.87749">
        <ele>149.800003</ele>
        <time>2018-06-17T06:33:51Z</time>
      </trkpt>
      <trkpt lat="48.97892" lon="0.8773">
        <ele>150.100006</ele>
        <time>2018-06-17T06:33:54Z</time>
      </trkpt>
      <trkpt lat="48.97892" lon="0.87711">
        <ele>149.699997</ele>
        <time>2018-06-17T06:33:57Z</time>
      </trkpt>
      <trkpt lat="48.97892" lon="0.87697">
        <ele>149.899994</ele>
        <time>2018-06-17T06:33:59Z</time>
      </trkpt>
      <trkpt lat="48.97891" lon="0.87683">
        <ele>150</ele>
        <time>2018-06-17T06:34:01Z</time>
      </trkpt>
      <trkpt lat="48.97891" lon="0.87669">
        <ele>150</ele>
        <time>2018-06-17T06:34:03Z</time>
      </trkpt>
      <trkpt lat="48.97891" lon="0.87648">
        <ele>150</ele>
        <time>2018-06-17T06:34:06Z</time>
      </trkpt>
      <trkpt lat="48.97891" lon="0.87632">
        <ele>150.100006</ele>
        <time>2018-06-17T06:34:08Z</time>
      </trkpt>
      <trkpt lat="48.9789" lon="0.87616">
        <ele>150.100006</ele>
        <time>2018-06-17T06:34:10Z</time>
      </trkpt>
      <trkpt lat="48.97889" lon="0.87601">
        <ele>150.100006</ele>
        <time>2018-06-17T06:34:12Z</time>
      </trkpt>
      <trkpt lat="48.97888" lon="0.87587">
        <ele>149.899994</ele>
        <time>2018-06-17T06:34:14Z</time>
      </trkpt>
      <trkpt lat="48.97889" lon="0.87573">
        <ele>149.699997</ele>
        <time>2018-06-17T06:34:16Z</time>
      </trkpt>
      <trkpt lat="48.97889" lon="0.87559">
        <ele>149.600006</ele>
        <time>2018-06-17T06:34:18Z</time>
      </trkpt>
      <trkpt lat="48.97888" lon="0.87539">
        <ele>149.800003</ele>
        <time>2018-06-17T06:34:21Z</time>
      </trkpt>
      <trkpt lat="48.97888" lon="0.87525">
        <ele>149.800003</ele>
        <time>2018-06-17T06:34:23Z</time>
      </trkpt>
      <trkpt lat="48.97888" lon="0.8751">
        <ele>149.800003</ele>
        <time>2018-06-17T06:34:25Z</time>
      </trkpt>
      <trkpt lat="48.97887" lon="0.87494">
        <ele>149.899994</ele>
        <time>2018-06-17T06:34:27Z</time>
      </trkpt>
      <trkpt lat="48.97887" lon="0.87478">
        <ele>150</ele>
        <time>2018-06-17T06:34:29Z</time>
      </trkpt>
      <trkpt lat="48.97886" lon="0.87461">
        <ele>150.100006</ele>
        <time>2018-06-17T06:34:31Z</time>
      </trkpt>
      <trkpt lat="48.97885" lon="0.87443">
        <ele>149.899994</ele>
        <time>2018-06-17T06:34:33Z</time>
      </trkpt>
      <trkpt lat="48.97884" lon="0.87426">
        <ele>149.899994</ele>
        <time>2018-06-17T06:34:35Z</time>
      </trkpt>
      <trkpt lat="48.97884" lon="0.8741">
        <ele>149.699997</ele>
        <time>2018-06-17T06:34:37Z</time>
      </trkpt>
      <trkpt lat="48.97884" lon="0.87394">
        <ele>149.800003</ele>
        <time>2018-06-17T06:34:39Z</time>
      </trkpt>
      <trkpt lat="48.97883" lon="0.87377">
        <ele>150</ele>
        <time>2018-06-17T06:34:41Z</time>
      </trkpt>
      <trkpt lat="48.97882" lon="0.87361">
        <ele>150</ele>
        <time>2018-06-17T06:34:43Z</time>
      </trkpt>
      <trkpt lat="48.97882" lon="0.87346">
        <ele>150.399994</ele>
        <time>2018-06-17T06:34:45Z</time>
      </trkpt>
      <trkpt lat="48.9788" lon="0.8733">
        <ele>150.5</ele>
        <time>2018-06-17T06:34:47Z</time>
      </trkpt>
      <trkpt lat="48.97879" lon="0.87313">
        <ele>150.399994</ele>
        <time>2018-06-17T06:34:49Z</time>
      </trkpt>
      <trkpt lat="48.97879" lon="0.87298">
        <ele>150.600006</ele>
        <time>2018-06-17T06:34:51Z</time>
      </trkpt>
      <trkpt lat="48.97879" lon="0.87282">
        <ele>150.600006</ele>
        <time>2018-06-17T06:34:53Z</time>
      </trkpt>
      <trkpt lat="48.97879" lon="0.87266">
        <ele>150.699997</ele>
        <time>2018-06-17T06:34:55Z</time>
      </trkpt>
      <trkpt lat="48.97878" lon="0.8725">
        <ele>150.699997</ele>
        <time>2018-06-17T06:34:57Z</time>
      </trkpt>
      <trkpt lat="48.97878" lon="0.87236">
        <ele>150.699997</ele>
        <time>2018-06-17T06:34:59Z</time>
      </trkpt>
      <trkpt lat="48.97878" lon="0.87222">
        <ele>150.699997</ele>
        <time>2018-06-17T06:35:01Z</time>
      </trkpt>
      <trkpt lat="48.97877" lon="0.87207">
        <ele>150.899994</ele>
        <time>2018-06-17T06:35:03Z</time>
      </trkpt>
      <trkpt lat="48.97876" lon="0.87189">
        <ele>150.899994</ele>
        <time>2018-06-17T06:35:05Z</time>
      </trkpt>
      <trkpt lat="48.97876" lon="0.87175">
        <ele>150.800003</ele>
        <time>2018-06-17T06:35:07Z</time>
      </trkpt>
      <trkpt lat="48.97876" lon="0.8716">
        <ele>150.800003</ele>
        <time>2018-06-17T06:35:09Z</time>
      </trkpt>
      <trkpt lat="48.97876" lon="0.87146">
        <ele>150.800003</ele>
        <time>2018-06-17T06:35:11Z</time>
      </trkpt>
      <trkpt lat="48.97875" lon="0.87132">
        <ele>150.699997</ele>
        <time>2018-06-17T06:35:13Z</time>
      </trkpt>
      <trkpt lat="48.97873" lon="0.87112">
        <ele>150.699997</ele>
        <time>2018-06-17T06:35:16Z</time>
      </trkpt>
      <trkpt lat="48.97872" lon="0.87098">
        <ele>150.800003</ele>
        <time>2018-06-17T06:35:18Z</time>
      </trkpt>
      <trkpt lat="48.97871" lon="0.8708">
        <ele>150.899994</ele>
        <time>2018-06-17T06:35:20Z</time>
      </trkpt>
      <trkpt lat="48.97871" lon="0.87064">
        <ele>150.800003</ele>
        <time>2018-06-17T06:35:22Z</time>
      </trkpt>
      <trkpt lat="48.9787" lon="0.87047">
        <ele>150.800003</ele>
        <time>2018-06-17T06:35:24Z</time>
      </trkpt>
      <trkpt lat="48.9787" lon="0.87031">
        <ele>150.800003</ele>
        <time>2018-06-17T06:35:26Z</time>
      </trkpt>
      <trkpt lat="48.97868" lon="0.87013">
        <ele>150.899994</ele>
        <time>2018-06-17T06:35:28Z</time>
      </trkpt>
      <trkpt lat="48.97866" lon="0.86998">
        <ele>151.100006</ele>
        <time>2018-06-17T06:35:30Z</time>
      </trkpt>
      <trkpt lat="48.97863" lon="0.86982">
        <ele>151.199997</ele>
        <time>2018-06-17T06:35:32Z</time>
      </trkpt>
      <trkpt lat="48.97859" lon="0.86964">
        <ele>151.600006</ele>
        <time>2018-06-17T06:35:34Z</time>
      </trkpt>
      <trkpt lat="48.97856" lon="0.86948">
        <ele>151.899994</ele>
        <time>2018-06-17T06:35:36Z</time>
      </trkpt>
      <trkpt lat="48.97854" lon="0.86932">
        <ele>151.800003</ele>
        <time>2018-06-17T06:35:38Z</time>
      </trkpt>
      <trkpt lat="48.97853" lon="0.86916">
        <ele>151.899994</ele>
        <time>2018-06-17T06:35:40Z</time>
      </trkpt>
      <trkpt lat="48.97854" lon="0.86901">
        <ele>152</ele>
        <time>2018-06-17T06:35:42Z</time>
      </trkpt>
      <trkpt lat="48.97855" lon="0.86886">
        <ele>152.100006</ele>
        <time>2018-06-17T06:35:44Z</time>
      </trkpt>
      <trkpt lat="48.97856" lon="0.8687">
        <ele>151.899994</ele>
        <time>2018-06-17T06:35:46Z</time>
      </trkpt>
      <trkpt lat="48.97856" lon="0.86855">
        <ele>152.100006</ele>
        <time>2018-06-17T06:35:48Z</time>
      </trkpt>
      <trkpt lat="48.97854" lon="0.8684">
        <ele>152.199997</ele>
        <time>2018-06-17T06:35:50Z</time>
      </trkpt>
      <trkpt lat="48.97855" lon="0.86825">
        <ele>152.300003</ele>
        <time>2018-06-17T06:35:52Z</time>
      </trkpt>
      <trkpt lat="48.97859" lon="0.86811">
        <ele>152.5</ele>
        <time>2018-06-17T06:35:55Z</time>
      </trkpt>
      <trkpt lat="48.97864" lon="0.86796">
        <ele>152.300003</ele>
        <time>2018-06-17T06:35:59Z</time>
      </trkpt>
      <trkpt lat="48.97872" lon="0.86781">
        <ele>152.600006</ele>
        <time>2018-06-17T06:36:03Z</time>
      </trkpt>
      <trkpt lat="48.97877" lon="0.86768">
        <ele>152.600006</ele>
        <time>2018-06-17T06:36:05Z</time>
      </trkpt>
      <trkpt lat="48.97881" lon="0.86752">
        <ele>152.800003</ele>
        <time>2018-06-17T06:36:07Z</time>
      </trkpt>
      <trkpt lat="48.97886" lon="0.86739">
        <ele>153</ele>
        <time>2018-06-17T06:36:09Z</time>
      </trkpt>
      <trkpt lat="48.97891" lon="0.86725">
        <ele>153.300003</ele>
        <time>2018-06-17T06:36:11Z</time>
      </trkpt>
      <trkpt lat="48.97897" lon="0.86711">
        <ele>153.5</ele>
        <time>2018-06-17T06:36:13Z</time>
      </trkpt>
      <trkpt lat="48.97902" lon="0.86693">
        <ele>153.5</ele>
        <time>2018-06-17T06:36:15Z</time>
      </trkpt>
      <trkpt lat="48.97907" lon="0.86679">
        <ele>153.5</ele>
        <time>2018-06-17T06:36:17Z</time>
      </trkpt>
      <trkpt lat="48.97911" lon="0.86663">
        <ele>153.5</ele>
        <time>2018-06-17T06:36:19Z</time>
      </trkpt>
      <trkpt lat="48.97917" lon="0.86648">
        <ele>153.600006</ele>
        <time>2018-06-17T06:36:21Z</time>
      </trkpt>
      <trkpt lat="48.97924" lon="0.86632">
        <ele>153.899994</ele>
        <time>2018-06-17T06:36:24Z</time>
      </trkpt>
      <trkpt lat="48.97933" lon="0.86615">
        <ele>154.199997</ele>
        <time>2018-06-17T06:36:27Z</time>
      </trkpt>
      <trkpt lat="48.97938" lon="0.86602">
        <ele>154.399994</ele>
        <time>2018-06-17T06:36:29Z</time>
      </trkpt>
      <trkpt lat="48.97942" lon="0.86586">
        <ele>154.5</ele>
        <time>2018-06-17T06:36:31Z</time>
      </trkpt>
      <trkpt lat="48.97947" lon="0.86569">
        <ele>154.600006</ele>
        <time>2018-06-17T06:36:33Z</time>
      </trkpt>
      <trkpt lat="48.97952" lon="0.86553">
        <ele>154.5</ele>
        <time>2018-06-17T06:36:35Z</time>
      </trkpt>
      <trkpt lat="48.97957" lon="0.86538">
        <ele>154.399994</ele>
        <time>2018-06-17T06:36:37Z</time>
      </trkpt>
      <trkpt lat="48.97962" lon="0.8652">
        <ele>154.300003</ele>
        <time>2018-06-17T06:36:39Z</time>
      </trkpt>
      <trkpt lat="48.97967" lon="0.86503">
        <ele>154.100006</ele>
        <time>2018-06-17T06:36:41Z</time>
      </trkpt>
      <trkpt lat="48.97973" lon="0.86489">
        <ele>153.5</ele>
        <time>2018-06-17T06:36:43Z</time>
      </trkpt>
      <trkpt lat="48.9798" lon="0.86473">
        <ele>152.800003</ele>
        <time>2018-06-17T06:36:46Z</time>
      </trkpt>
      <trkpt lat="48.97988" lon="0.86458">
        <ele>152.5</ele>
        <time>2018-06-17T06:36:49Z</time>
      </trkpt>
      <trkpt lat="48.97994" lon="0.86443">
        <ele>152.5</ele>
        <time>2018-06-17T06:36:51Z</time>
      </trkpt>
      <trkpt lat="48.98" lon="0.86431">
        <ele>152.600006</ele>
        <time>2018-06-17T06:36:53Z</time>
      </trkpt>
      <trkpt lat="48.98006" lon="0.8642">
        <ele>152.899994</ele>
        <time>2018-06-17T06:36:55Z</time>
      </trkpt>
      <trkpt lat="48.98011" lon="0.86407">
        <ele>153.100006</ele>
        <time>2018-06-17T06:36:57Z</time>
      </trkpt>
      <trkpt lat="48.9802" lon="0.86391">
        <ele>153.600006</ele>
        <time>2018-06-17T06:37:00Z</time>
      </trkpt>
      <trkpt lat="48.98025" lon="0.86379">
        <ele>153.800003</ele>
        <time>2018-06-17T06:37:02Z</time>
      </trkpt>
      <trkpt lat="48.9803" lon="0.86367">
        <ele>154.100006</ele>
        <time>2018-06-17T06:37:04Z</time>
      </trkpt>
      <trkpt lat="48.98033" lon="0.86347">
        <ele>154.5</ele>
        <time>2018-06-17T06:37:06Z</time>
      </trkpt>
      <trkpt lat="48.98038" lon="0.86336">
        <ele>155</ele>
        <time>2018-06-17T06:37:08Z</time>
      </trkpt>
      <trkpt lat="48.98044" lon="0.86325">
        <ele>155.199997</ele>
        <time>2018-06-17T06:37:10Z</time>
      </trkpt>
      <trkpt lat="48.98052" lon="0.86309">
        <ele>155.699997</ele>
        <time>2018-06-17T06:37:13Z</time>
      </trkpt>
      <trkpt lat="48.98059" lon="0.86287">
        <ele>156</ele>
        <time>2018-06-17T06:37:16Z</time>
      </trkpt>
      <trkpt lat="48.98064" lon="0.86272">
        <ele>156.199997</ele>
        <time>2018-06-17T06:37:18Z</time>
      </trkpt>
      <trkpt lat="48.98069" lon="0.86256">
        <ele>156.300003</ele>
        <time>2018-06-17T06:37:20Z</time>
      </trkpt>
      <trkpt lat="48.98073" lon="0.86241">
        <ele>156.300003</ele>
        <time>2018-06-17T06:37:22Z</time>
      </trkpt>
      <trkpt lat="48.98079" lon="0.86227">
        <ele>156.199997</ele>
        <time>2018-06-17T06:37:24Z</time>
      </trkpt>
      <trkpt lat="48.98083" lon="0.86211">
        <ele>156.199997</ele>
        <time>2018-06-17T06:37:26Z</time>
      </trkpt>
      <trkpt lat="48.98089" lon="0.86195">
        <ele>156</ele>
        <time>2018-06-17T06:37:28Z</time>
      </trkpt>
      <trkpt lat="48.98095" lon="0.86182">
        <ele>155.800003</ele>
        <time>2018-06-17T06:37:30Z</time>
      </trkpt>
      <trkpt lat="48.98101" lon="0.8617">
        <ele>155.699997</ele>
        <time>2018-06-17T06:37:32Z</time>
      </trkpt>
      <trkpt lat="48.98106" lon="0.86158">
        <ele>155.899994</ele>
        <time>2018-06-17T06:37:34Z</time>
      </trkpt>
      <trkpt lat="48.98111" lon="0.86147">
        <ele>156</ele>
        <time>2018-06-17T06:37:36Z</time>
      </trkpt>
      <trkpt lat="48.98116" lon="0.86134">
        <ele>156.199997</ele>
        <time>2018-06-17T06:37:38Z</time>
      </trkpt>
      <trkpt lat="48.98121" lon="0.86122">
        <ele>156.399994</ele>
        <time>2018-06-17T06:37:40Z</time>
      </trkpt>
      <trkpt lat="48.98127" lon="0.86112">
        <ele>156.699997</ele>
        <time>2018-06-17T06:37:42Z</time>
      </trkpt>
      <trkpt lat="48.98133" lon="0.86101">
        <ele>157</ele>
        <time>2018-06-17T06:37:44Z</time>
      </trkpt>
      <trkpt lat="48.98138" lon="0.86087">
        <ele>157.5</ele>
        <time>2018-06-17T06:37:46Z</time>
      </trkpt>
      <trkpt lat="48.98142" lon="0.86073">
        <ele>157.699997</ele>
        <time>2018-06-17T06:37:48Z</time>
      </trkpt>
      <trkpt lat="48.98147" lon="0.8606">
        <ele>157.899994</ele>
        <time>2018-06-17T06:37:50Z</time>
      </trkpt>
      <trkpt lat="48.98151" lon="0.86044">
        <ele>158.100006</ele>
        <time>2018-06-17T06:37:52Z</time>
      </trkpt>
      <trkpt lat="48.98156" lon="0.8603">
        <ele>158</ele>
        <time>2018-06-17T06:37:54Z</time>
      </trkpt>
      <trkpt lat="48.9816" lon="0.86017">
        <ele>158</ele>
        <time>2018-06-17T06:37:56Z</time>
      </trkpt>
      <trkpt lat="48.98165" lon="0.86004">
        <ele>158</ele>
        <time>2018-06-17T06:37:58Z</time>
      </trkpt>
      <trkpt lat="48.98171" lon="0.85988">
        <ele>158</ele>
        <time>2018-06-17T06:38:00Z</time>
      </trkpt>
      <trkpt lat="48.98175" lon="0.85974">
        <ele>157.699997</ele>
        <time>2018-06-17T06:38:02Z</time>
      </trkpt>
      <trkpt lat="48.98182" lon="0.85956">
        <ele>157.199997</ele>
        <time>2018-06-17T06:38:05Z</time>
      </trkpt>
      <trkpt lat="48.98188" lon="0.85938">
        <ele>156.600006</ele>
        <time>2018-06-17T06:38:07Z</time>
      </trkpt>
      <trkpt lat="48.98194" lon="0.85916">
        <ele>156.300003</ele>
        <time>2018-06-17T06:38:09Z</time>
      </trkpt>
      <trkpt lat="48.98199" lon="0.85895">
        <ele>155.899994</ele>
        <time>2018-06-17T06:38:11Z</time>
      </trkpt>
      <trkpt lat="48.98205" lon="0.85873">
        <ele>155.5</ele>
        <time>2018-06-17T06:38:13Z</time>
      </trkpt>
      <trkpt lat="48.98211" lon="0.85855">
        <ele>155.300003</ele>
        <time>2018-06-17T06:38:15Z</time>
      </trkpt>
      <trkpt lat="48.98216" lon="0.85839">
        <ele>155</ele>
        <time>2018-06-17T06:38:17Z</time>
      </trkpt>
      <trkpt lat="48.98223" lon="0.85825">
        <ele>155</ele>
        <time>2018-06-17T06:38:19Z</time>
      </trkpt>
      <trkpt lat="48.98228" lon="0.85811">
        <ele>155</ele>
        <time>2018-06-17T06:38:21Z</time>
      </trkpt>
      <trkpt lat="48.98233" lon="0.85796">
        <ele>154.899994</ele>
        <time>2018-06-17T06:38:23Z</time>
      </trkpt>
      <trkpt lat="48.98239" lon="0.85781">
        <ele>154.699997</ele>
        <time>2018-06-17T06:38:25Z</time>
      </trkpt>
      <trkpt lat="48.98245" lon="0.85765">
        <ele>154.699997</ele>
        <time>2018-06-17T06:38:27Z</time>
      </trkpt>
      <trkpt lat="48.9825" lon="0.8575">
        <ele>154.699997</ele>
        <time>2018-06-17T06:38:29Z</time>
      </trkpt>
      <trkpt lat="48.98255" lon="0.85737">
        <ele>154.699997</ele>
        <time>2018-06-17T06:38:31Z</time>
      </trkpt>
      <trkpt lat="48.98261" lon="0.85721">
        <ele>154.699997</ele>
        <time>2018-06-17T06:38:33Z</time>
      </trkpt>
      <trkpt lat="48.98266" lon="0.85706">
        <ele>154.699997</ele>
        <time>2018-06-17T06:38:35Z</time>
      </trkpt>
      <trkpt lat="48.98272" lon="0.85691">
        <ele>154.800003</ele>
        <time>2018-06-17T06:38:37Z</time>
      </trkpt>
      <trkpt lat="48.98277" lon="0.85676">
        <ele>154.600006</ele>
        <time>2018-06-17T06:38:39Z</time>
      </trkpt>
      <trkpt lat="48.98282" lon="0.85663">
        <ele>154.699997</ele>
        <time>2018-06-17T06:38:41Z</time>
      </trkpt>
      <trkpt lat="48.98288" lon="0.85647">
        <ele>154.699997</ele>
        <time>2018-06-17T06:38:43Z</time>
      </trkpt>
      <trkpt lat="48.98294" lon="0.85631">
        <ele>154.600006</ele>
        <time>2018-06-17T06:38:45Z</time>
      </trkpt>
      <trkpt lat="48.98299" lon="0.85617">
        <ele>154.600006</ele>
        <time>2018-06-17T06:38:47Z</time>
      </trkpt>
      <trkpt lat="48.98305" lon="0.856">
        <ele>154.300003</ele>
        <time>2018-06-17T06:38:49Z</time>
      </trkpt>
      <trkpt lat="48.98311" lon="0.85583">
        <ele>154.100006</ele>
        <time>2018-06-17T06:38:51Z</time>
      </trkpt>
      <trkpt lat="48.98315" lon="0.85568">
        <ele>153.600006</ele>
        <time>2018-06-17T06:38:53Z</time>
      </trkpt>
      <trkpt lat="48.98317" lon="0.85554">
        <ele>153.399994</ele>
        <time>2018-06-17T06:38:55Z</time>
      </trkpt>
      <trkpt lat="48.98322" lon="0.85538">
        <ele>153.100006</ele>
        <time>2018-06-17T06:38:58Z</time>
      </trkpt>
      <trkpt lat="48.98331" lon="0.85522">
        <ele>153</ele>
        <time>2018-06-17T06:39:01Z</time>
      </trkpt>
      <trkpt lat="48.98337" lon="0.85509">
        <ele>153</ele>
        <time>2018-06-17T06:39:03Z</time>
      </trkpt>
      <trkpt lat="48.98344" lon="0.85495">
        <ele>153</ele>
        <time>2018-06-17T06:39:05Z</time>
      </trkpt>
      <trkpt lat="48.98349" lon="0.85477">
        <ele>152.800003</ele>
        <time>2018-06-17T06:39:07Z</time>
      </trkpt>
      <trkpt lat="48.98355" lon="0.85461">
        <ele>152.600006</ele>
        <time>2018-06-17T06:39:09Z</time>
      </trkpt>
      <trkpt lat="48.98361" lon="0.85444">
        <ele>152.100006</ele>
        <time>2018-06-17T06:39:11Z</time>
      </trkpt>
      <trkpt lat="48.98365" lon="0.85429">
        <ele>151.600006</ele>
        <time>2018-06-17T06:39:13Z</time>
      </trkpt>
      <trkpt lat="48.98366" lon="0.85413">
        <ele>151.399994</ele>
        <time>2018-06-17T06:39:15Z</time>
      </trkpt>
      <trkpt lat="48.98365" lon="0.85396">
        <ele>151</ele>
        <time>2018-06-17T06:39:17Z</time>
      </trkpt>
      <trkpt lat="48.98364" lon="0.85381">
        <ele>150.800003</ele>
        <time>2018-06-17T06:39:19Z</time>
      </trkpt>
      <trkpt lat="48.9836" lon="0.85364">
        <ele>150.800003</ele>
        <time>2018-06-17T06:39:21Z</time>
      </trkpt>
      <trkpt lat="48.98357" lon="0.85347">
        <ele>150.899994</ele>
        <time>2018-06-17T06:39:23Z</time>
      </trkpt>
      <trkpt lat="48.98354" lon="0.85328">
        <ele>150.300003</ele>
        <time>2018-06-17T06:39:25Z</time>
      </trkpt>
      <trkpt lat="48.98355" lon="0.85313">
        <ele>149.800003</ele>
        <time>2018-06-17T06:39:27Z</time>
      </trkpt>
      <trkpt lat="48.9836" lon="0.85301">
        <ele>149.5</ele>
        <time>2018-06-17T06:39:29Z</time>
      </trkpt>
      <trkpt lat="48.98367" lon="0.85291">
        <ele>149.300003</ele>
        <time>2018-06-17T06:39:31Z</time>
      </trkpt>
      <trkpt lat="48.98375" lon="0.85282">
        <ele>149.100006</ele>
        <time>2018-06-17T06:39:33Z</time>
      </trkpt>
      <trkpt lat="48.98383" lon="0.85272">
        <ele>149.300003</ele>
        <time>2018-06-17T06:39:35Z</time>
      </trkpt>
      <trkpt lat="48.98391" lon="0.85261">
        <ele>149.399994</ele>
        <time>2018-06-17T06:39:37Z</time>
      </trkpt>
      <trkpt lat="48.98399" lon="0.8525">
        <ele>149.300003</ele>
        <time>2018-06-17T06:39:39Z</time>
      </trkpt>
      <trkpt lat="48.98407" lon="0.85239">
        <ele>149.699997</ele>
        <time>2018-06-17T06:39:41Z</time>
      </trkpt>
      <trkpt lat="48.98414" lon="0.85228">
        <ele>149.800003</ele>
        <time>2018-06-17T06:39:43Z</time>
      </trkpt>
      <trkpt lat="48.98422" lon="0.85216">
        <ele>149.699997</ele>
        <time>2018-06-17T06:39:45Z</time>
      </trkpt>
      <trkpt lat="48.9843" lon="0.85205">
        <ele>149.5</ele>
        <time>2018-06-17T06:39:47Z</time>
      </trkpt>
      <trkpt lat="48.98437" lon="0.85194">
        <ele>149.5</ele>
        <time>2018-06-17T06:39:49Z</time>
      </trkpt>
      <trkpt lat="48.98445" lon="0.85183">
        <ele>149.199997</ele>
        <time>2018-06-17T06:39:51Z</time>
      </trkpt>
      <trkpt lat="48.98452" lon="0.85172">
        <ele>149.300003</ele>
        <time>2018-06-17T06:39:53Z</time>
      </trkpt>
      <trkpt lat="48.9846" lon="0.8516">
        <ele>149.199997</ele>
        <time>2018-06-17T06:39:55Z</time>
      </trkpt>
      <trkpt lat="48.98467" lon="0.8515">
        <ele>149.199997</ele>
        <time>2018-06-17T06:39:57Z</time>
      </trkpt>
      <trkpt lat="48.98475" lon="0.85141">
        <ele>149.300003</ele>
        <time>2018-06-17T06:39:59Z</time>
      </trkpt>
      <trkpt lat="48.98484" lon="0.85138">
        <ele>149.5</ele>
        <time>2018-06-17T06:40:01Z</time>
      </trkpt>
      <trkpt lat="48.98497" lon="0.85138">
        <ele>149.699997</ele>
        <time>2018-06-17T06:40:04Z</time>
      </trkpt>
      <trkpt lat="48.98509" lon="0.85138">
        <ele>150.100006</ele>
        <time>2018-06-17T06:40:07Z</time>
      </trkpt>
      <trkpt lat="48.98521" lon="0.8514">
        <ele>150.699997</ele>
        <time>2018-06-17T06:40:10Z</time>
      </trkpt>
      <trkpt lat="48.98533" lon="0.8514">
        <ele>151.699997</ele>
        <time>2018-06-17T06:40:13Z</time>
      </trkpt>
      <trkpt lat="48.98544" lon="0.85141">
        <ele>152.399994</ele>
        <time>2018-06-17T06:40:16Z</time>
      </trkpt>
      <trkpt lat="48.98557" lon="0.85142">
        <ele>153.100006</ele>
        <time>2018-06-17T06:40:19Z</time>
      </trkpt>
      <trkpt lat="48.9857" lon="0.85143">
        <ele>153.5</ele>
        <time>2018-06-17T06:40:22Z</time>
      </trkpt>
      <trkpt lat="48.98579" lon="0.85144">
        <ele>153.800003</ele>
        <time>2018-06-17T06:40:24Z</time>
      </trkpt>
      <trkpt lat="48.98589" lon="0.85144">
        <ele>154</ele>
        <time>2018-06-17T06:40:26Z</time>
      </trkpt>
      <trkpt lat="48.98598" lon="0.85143">
        <ele>154</ele>
        <time>2018-06-17T06:40:28Z</time>
      </trkpt>
      <trkpt lat="48.98607" lon="0.85142">
        <ele>154.300003</ele>
        <time>2018-06-17T06:40:30Z</time>
      </trkpt>
      <trkpt lat="48.98616" lon="0.8514">
        <ele>154.5</ele>
        <time>2018-06-17T06:40:32Z</time>
      </trkpt>
      <trkpt lat="48.98625" lon="0.85138">
        <ele>154.600006</ele>
        <time>2018-06-17T06:40:34Z</time>
      </trkpt>
      <trkpt lat="48.98634" lon="0.85135">
        <ele>154.800003</ele>
        <time>2018-06-17T06:40:36Z</time>
      </trkpt>
      <trkpt lat="48.98643" lon="0.85134">
        <ele>155</ele>
        <time>2018-06-17T06:40:38Z</time>
      </trkpt>
      <trkpt lat="48.98656" lon="0.85131">
        <ele>155.100006</ele>
        <time>2018-06-17T06:40:41Z</time>
      </trkpt>
      <trkpt lat="48.98665" lon="0.85131">
        <ele>155.399994</ele>
        <time>2018-06-17T06:40:43Z</time>
      </trkpt>
      <trkpt lat="48.98674" lon="0.8513">
        <ele>155.5</ele>
        <time>2018-06-17T06:40:45Z</time>
      </trkpt>
      <trkpt lat="48.98684" lon="0.85128">
        <ele>155.699997</ele>
        <time>2018-06-17T06:40:47Z</time>
      </trkpt>
      <trkpt lat="48.98697" lon="0.85125">
        <ele>156</ele>
        <time>2018-06-17T06:40:50Z</time>
      </trkpt>
      <trkpt lat="48.98706" lon="0.85123">
        <ele>156.399994</ele>
        <time>2018-06-17T06:40:52Z</time>
      </trkpt>
      <trkpt lat="48.98718" lon="0.8512">
        <ele>156.899994</ele>
        <time>2018-06-17T06:40:55Z</time>
      </trkpt>
      <trkpt lat="48.98728" lon="0.85118">
        <ele>157.399994</ele>
        <time>2018-06-17T06:40:57Z</time>
      </trkpt>
      <trkpt lat="48.98741" lon="0.85115">
        <ele>158.199997</ele>
        <time>2018-06-17T06:41:00Z</time>
      </trkpt>
      <trkpt lat="48.98753" lon="0.85112">
        <ele>158.899994</ele>
        <time>2018-06-17T06:41:03Z</time>
      </trkpt>
      <trkpt lat="48.98766" lon="0.85109">
        <ele>159.5</ele>
        <time>2018-06-17T06:41:06Z</time>
      </trkpt>
      <trkpt lat="48.98779" lon="0.85106">
        <ele>160.100006</ele>
        <time>2018-06-17T06:41:09Z</time>
      </trkpt>
      <trkpt lat="48.98791" lon="0.85103">
        <ele>160.600006</ele>
        <time>2018-06-17T06:41:12Z</time>
      </trkpt>
      <trkpt lat="48.98805" lon="0.851">
        <ele>161.199997</ele>
        <time>2018-06-17T06:41:15Z</time>
      </trkpt>
      <trkpt lat="48.98814" lon="0.85097">
        <ele>161.699997</ele>
        <time>2018-06-17T06:41:17Z</time>
      </trkpt>
      <trkpt lat="48.98825" lon="0.85094">
        <ele>162.600006</ele>
        <time>2018-06-17T06:41:20Z</time>
      </trkpt>
      <trkpt lat="48.98836" lon="0.8509">
        <ele>163.300003</ele>
        <time>2018-06-17T06:41:23Z</time>
      </trkpt>
      <trkpt lat="48.98847" lon="0.85085">
        <ele>164.300003</ele>
        <time>2018-06-17T06:41:26Z</time>
      </trkpt>
      <trkpt lat="48.98859" lon="0.8508">
        <ele>165</ele>
        <time>2018-06-17T06:41:29Z</time>
      </trkpt>
      <trkpt lat="48.9887" lon="0.85077">
        <ele>165.800003</ele>
        <time>2018-06-17T06:41:32Z</time>
      </trkpt>
      <trkpt lat="48.9888" lon="0.85076">
        <ele>166.199997</ele>
        <time>2018-06-17T06:41:34Z</time>
      </trkpt>
      <trkpt lat="48.98889" lon="0.85074">
        <ele>166.5</ele>
        <time>2018-06-17T06:41:36Z</time>
      </trkpt>
      <trkpt lat="48.98898" lon="0.85071">
        <ele>166.600006</ele>
        <time>2018-06-17T06:41:38Z</time>
      </trkpt>
      <trkpt lat="48.98907" lon="0.85068">
        <ele>166.800003</ele>
        <time>2018-06-17T06:41:40Z</time>
      </trkpt>
      <trkpt lat="48.98916" lon="0.85065">
        <ele>167</ele>
        <time>2018-06-17T06:41:42Z</time>
      </trkpt>
      <trkpt lat="48.98925" lon="0.85062">
        <ele>167.300003</ele>
        <time>2018-06-17T06:41:44Z</time>
      </trkpt>
      <trkpt lat="48.98934" lon="0.85059">
        <ele>167.5</ele>
        <time>2018-06-17T06:41:46Z</time>
      </trkpt>
      <trkpt lat="48.98944" lon="0.85054">
        <ele>167.600006</ele>
        <time>2018-06-17T06:41:48Z</time>
      </trkpt>
      <trkpt lat="48.98953" lon="0.85049">
        <ele>167.800003</ele>
        <time>2018-06-17T06:41:50Z</time>
      </trkpt>
      <trkpt lat="48.98962" lon="0.85043">
        <ele>167.899994</ele>
        <time>2018-06-17T06:41:52Z</time>
      </trkpt>
      <trkpt lat="48.98971" lon="0.85036">
        <ele>168.100006</ele>
        <time>2018-06-17T06:41:54Z</time>
      </trkpt>
      <trkpt lat="48.9898" lon="0.85029">
        <ele>168</ele>
        <time>2018-06-17T06:41:56Z</time>
      </trkpt>
      <trkpt lat="48.98989" lon="0.85021">
        <ele>168.300003</ele>
        <time>2018-06-17T06:41:58Z</time>
      </trkpt>
      <trkpt lat="48.98998" lon="0.85014">
        <ele>168.5</ele>
        <time>2018-06-17T06:42:00Z</time>
      </trkpt>
      <trkpt lat="48.99007" lon="0.85005">
        <ele>168.600006</ele>
        <time>2018-06-17T06:42:02Z</time>
      </trkpt>
      <trkpt lat="48.99016" lon="0.84997">
        <ele>168.699997</ele>
        <time>2018-06-17T06:42:04Z</time>
      </trkpt>
      <trkpt lat="48.99025" lon="0.84989">
        <ele>168.800003</ele>
        <time>2018-06-17T06:42:06Z</time>
      </trkpt>
      <trkpt lat="48.99033" lon="0.8498">
        <ele>169</ele>
        <time>2018-06-17T06:42:08Z</time>
      </trkpt>
      <trkpt lat="48.99041" lon="0.8497">
        <ele>169</ele>
        <time>2018-06-17T06:42:10Z</time>
      </trkpt>
      <trkpt lat="48.99046" lon="0.84957">
        <ele>169.100006</ele>
        <time>2018-06-17T06:42:12Z</time>
      </trkpt>
      <trkpt lat="48.99048" lon="0.84941">
        <ele>169.199997</ele>
        <time>2018-06-17T06:42:14Z</time>
      </trkpt>
      <trkpt lat="48.99048" lon="0.84926">
        <ele>169.399994</ele>
        <time>2018-06-17T06:42:16Z</time>
      </trkpt>
      <trkpt lat="48.99047" lon="0.8491">
        <ele>169.399994</ele>
        <time>2018-06-17T06:42:18Z</time>
      </trkpt>
      <trkpt lat="48.99047" lon="0.84894">
        <ele>169.399994</ele>
        <time>2018-06-17T06:42:20Z</time>
      </trkpt>
      <trkpt lat="48.99046" lon="0.84878">
        <ele>169.300003</ele>
        <time>2018-06-17T06:42:22Z</time>
      </trkpt>
      <trkpt lat="48.99045" lon="0.84861">
        <ele>169.399994</ele>
        <time>2018-06-17T06:42:24Z</time>
      </trkpt>
      <trkpt lat="48.99044" lon="0.84844">
        <ele>169.600006</ele>
        <time>2018-06-17T06:42:26Z</time>
      </trkpt>
      <trkpt lat="48.99043" lon="0.84826">
        <ele>169.399994</ele>
        <time>2018-06-17T06:42:28Z</time>
      </trkpt>
      <trkpt lat="48.99042" lon="0.84808">
        <ele>169.399994</ele>
        <time>2018-06-17T06:42:30Z</time>
      </trkpt>
      <trkpt lat="48.99041" lon="0.8479">
        <ele>169.399994</ele>
        <time>2018-06-17T06:42:32Z</time>
      </trkpt>
      <trkpt lat="48.99041" lon="0.84772">
        <ele>169.399994</ele>
        <time>2018-06-17T06:42:34Z</time>
      </trkpt>
      <trkpt lat="48.99042" lon="0.84754">
        <ele>169.199997</ele>
        <time>2018-06-17T06:42:36Z</time>
      </trkpt>
      <trkpt lat="48.99045" lon="0.84736">
        <ele>169.199997</ele>
        <time>2018-06-17T06:42:38Z</time>
      </trkpt>
      <trkpt lat="48.99048" lon="0.84717">
        <ele>168.899994</ele>
        <time>2018-06-17T06:42:40Z</time>
      </trkpt>
      <trkpt lat="48.99051" lon="0.84698">
        <ele>168.699997</ele>
        <time>2018-06-17T06:42:42Z</time>
      </trkpt>
      <trkpt lat="48.99054" lon="0.84679">
        <ele>168.600006</ele>
        <time>2018-06-17T06:42:44Z</time>
      </trkpt>
      <trkpt lat="48.99058" lon="0.8466">
        <ele>168.5</ele>
        <time>2018-06-17T06:42:46Z</time>
      </trkpt>
      <trkpt lat="48.99061" lon="0.84641">
        <ele>168.300003</ele>
        <time>2018-06-17T06:42:48Z</time>
      </trkpt>
      <trkpt lat="48.99064" lon="0.84622">
        <ele>168.199997</ele>
        <time>2018-06-17T06:42:50Z</time>
      </trkpt>
      <trkpt lat="48.99066" lon="0.84603">
        <ele>168</ele>
        <time>2018-06-17T06:42:52Z</time>
      </trkpt>
      <trkpt lat="48.99069" lon="0.84584">
        <ele>167.800003</ele>
        <time>2018-06-17T06:42:54Z</time>
      </trkpt>
      <trkpt lat="48.99071" lon="0.84565">
        <ele>167.600006</ele>
        <time>2018-06-17T06:42:56Z</time>
      </trkpt>
      <trkpt lat="48.99072" lon="0.84545">
        <ele>167.300003</ele>
        <time>2018-06-17T06:42:58Z</time>
      </trkpt>
      <trkpt lat="48.99073" lon="0.84525">
        <ele>167.100006</ele>
        <time>2018-06-17T06:43:00Z</time>
      </trkpt>
      <trkpt lat="48.99074" lon="0.84505">
        <ele>166.800003</ele>
        <time>2018-06-17T06:43:02Z</time>
      </trkpt>
      <trkpt lat="48.99074" lon="0.84484">
        <ele>166.399994</ele>
        <time>2018-06-17T06:43:04Z</time>
      </trkpt>
      <trkpt lat="48.99075" lon="0.84462">
        <ele>166</ele>
        <time>2018-06-17T06:43:06Z</time>
      </trkpt>
      <trkpt lat="48.99076" lon="0.84441">
        <ele>165.399994</ele>
        <time>2018-06-17T06:43:08Z</time>
      </trkpt>
      <trkpt lat="48.99079" lon="0.84422">
        <ele>164.800003</ele>
        <time>2018-06-17T06:43:10Z</time>
      </trkpt>
      <trkpt lat="48.99086" lon="0.84408">
        <ele>164.199997</ele>
        <time>2018-06-17T06:43:12Z</time>
      </trkpt>
      <trkpt lat="48.99097" lon="0.84403">
        <ele>163.600006</ele>
        <time>2018-06-17T06:43:14Z</time>
      </trkpt>
      <trkpt lat="48.99107" lon="0.84397">
        <ele>163.199997</ele>
        <time>2018-06-17T06:43:16Z</time>
      </trkpt>
      <trkpt lat="48.99118" lon="0.84391">
        <ele>162.899994</ele>
        <time>2018-06-17T06:43:18Z</time>
      </trkpt>
      <trkpt lat="48.99129" lon="0.84391">
        <ele>162.600006</ele>
        <time>2018-06-17T06:43:20Z</time>
      </trkpt>
      <trkpt lat="48.99141" lon="0.8439">
        <ele>162.600006</ele>
        <time>2018-06-17T06:43:22Z</time>
      </trkpt>
      <trkpt lat="48.99153" lon="0.84389">
        <ele>162.5</ele>
        <time>2018-06-17T06:43:24Z</time>
      </trkpt>
      <trkpt lat="48.99165" lon="0.84387">
        <ele>162.5</ele>
        <time>2018-06-17T06:43:26Z</time>
      </trkpt>
      <trkpt lat="48.99177" lon="0.84383">
        <ele>162.600006</ele>
        <time>2018-06-17T06:43:28Z</time>
      </trkpt>
      <trkpt lat="48.99189" lon="0.84381">
        <ele>162.699997</ele>
        <time>2018-06-17T06:43:30Z</time>
      </trkpt>
      <trkpt lat="48.992" lon="0.84377">
        <ele>162.800003</ele>
        <time>2018-06-17T06:43:32Z</time>
      </trkpt>
      <trkpt lat="48.99211" lon="0.84375">
        <ele>162.800003</ele>
        <time>2018-06-17T06:43:34Z</time>
      </trkpt>
      <trkpt lat="48.99221" lon="0.84371">
        <ele>162.899994</ele>
        <time>2018-06-17T06:43:36Z</time>
      </trkpt>
      <trkpt lat="48.99227" lon="0.84359">
        <ele>162.899994</ele>
        <time>2018-06-17T06:43:38Z</time>
      </trkpt>
      <trkpt lat="48.99227" lon="0.84342">
        <ele>162.899994</ele>
        <time>2018-06-17T06:43:40Z</time>
      </trkpt>
      <trkpt lat="48.99225" lon="0.84323">
        <ele>162.600006</ele>
        <time>2018-06-17T06:43:42Z</time>
      </trkpt>
      <trkpt lat="48.99224" lon="0.84303">
        <ele>162.300003</ele>
        <time>2018-06-17T06:43:44Z</time>
      </trkpt>
      <trkpt lat="48.99225" lon="0.84284">
        <ele>162.100006</ele>
        <time>2018-06-17T06:43:46Z</time>
      </trkpt>
      <trkpt lat="48.99225" lon="0.84266">
        <ele>162</ele>
        <time>2018-06-17T06:43:48Z</time>
      </trkpt>
      <trkpt lat="48.99227" lon="0.84248">
        <ele>162</ele>
        <time>2018-06-17T06:43:50Z</time>
      </trkpt>
      <trkpt lat="48.99228" lon="0.8423">
        <ele>161.800003</ele>
        <time>2018-06-17T06:43:52Z</time>
      </trkpt>
      <trkpt lat="48.9923" lon="0.84212">
        <ele>161.699997</ele>
        <time>2018-06-17T06:43:54Z</time>
      </trkpt>
      <trkpt lat="48.99231" lon="0.84195">
        <ele>161.5</ele>
        <time>2018-06-17T06:43:56Z</time>
      </trkpt>
      <trkpt lat="48.99233" lon="0.84177">
        <ele>161.800003</ele>
        <time>2018-06-17T06:43:58Z</time>
      </trkpt>
      <trkpt lat="48.99235" lon="0.84159">
        <ele>162</ele>
        <time>2018-06-17T06:44:00Z</time>
      </trkpt>
      <trkpt lat="48.99237" lon="0.84142">
        <ele>162.100006</ele>
        <time>2018-06-17T06:44:02Z</time>
      </trkpt>
      <trkpt lat="48.99239" lon="0.84124">
        <ele>162.300003</ele>
        <time>2018-06-17T06:44:04Z</time>
      </trkpt>
      <trkpt lat="48.99241" lon="0.84106">
        <ele>162.5</ele>
        <time>2018-06-17T06:44:06Z</time>
      </trkpt>
      <trkpt lat="48.99242" lon="0.84089">
        <ele>162.5</ele>
        <time>2018-06-17T06:44:08Z</time>
      </trkpt>
      <trkpt lat="48.99242" lon="0.84072">
        <ele>162.800003</ele>
        <time>2018-06-17T06:44:10Z</time>
      </trkpt>
      <trkpt lat="48.99242" lon="0.84055">
        <ele>163.100006</ele>
        <time>2018-06-17T06:44:12Z</time>
      </trkpt>
      <trkpt lat="48.99241" lon="0.84039">
        <ele>163.199997</ele>
        <time>2018-06-17T06:44:14Z</time>
      </trkpt>
      <trkpt lat="48.9924" lon="0.84022">
        <ele>163.100006</ele>
        <time>2018-06-17T06:44:16Z</time>
      </trkpt>
      <trkpt lat="48.99239" lon="0.84005">
        <ele>163.199997</ele>
        <time>2018-06-17T06:44:18Z</time>
      </trkpt>
      <trkpt lat="48.99237" lon="0.83988">
        <ele>163.199997</ele>
        <time>2018-06-17T06:44:20Z</time>
      </trkpt>
      <trkpt lat="48.99236" lon="0.83971">
        <ele>163.300003</ele>
        <time>2018-06-17T06:44:22Z</time>
      </trkpt>
      <trkpt lat="48.99234" lon="0.83954">
        <ele>163.399994</ele>
        <time>2018-06-17T06:44:24Z</time>
      </trkpt>
      <trkpt lat="48.99233" lon="0.83937">
        <ele>163.399994</ele>
        <time>2018-06-17T06:44:26Z</time>
      </trkpt>
      <trkpt lat="48.99231" lon="0.8392">
        <ele>163.300003</ele>
        <time>2018-06-17T06:44:28Z</time>
      </trkpt>
      <trkpt lat="48.9923" lon="0.83903">
        <ele>163.199997</ele>
        <time>2018-06-17T06:44:30Z</time>
      </trkpt>
      <trkpt lat="48.99228" lon="0.83886">
        <ele>163.5</ele>
        <time>2018-06-17T06:44:32Z</time>
      </trkpt>
      <trkpt lat="48.99226" lon="0.8387">
        <ele>163.600006</ele>
        <time>2018-06-17T06:44:34Z</time>
      </trkpt>
      <trkpt lat="48.99225" lon="0.83853">
        <ele>163.699997</ele>
        <time>2018-06-17T06:44:36Z</time>
      </trkpt>
      <trkpt lat="48.99223" lon="0.83837">
        <ele>163.600006</ele>
        <time>2018-06-17T06:44:38Z</time>
      </trkpt>
      <trkpt lat="48.99222" lon="0.83821">
        <ele>163.699997</ele>
        <time>2018-06-17T06:44:40Z</time>
      </trkpt>
      <trkpt lat="48.9922" lon="0.83805">
        <ele>163.899994</ele>
        <time>2018-06-17T06:44:42Z</time>
      </trkpt>
      <trkpt lat="48.99218" lon="0.83789">
        <ele>164.300003</ele>
        <time>2018-06-17T06:44:44Z</time>
      </trkpt>
      <trkpt lat="48.99217" lon="0.83772">
        <ele>164.5</ele>
        <time>2018-06-17T06:44:46Z</time>
      </trkpt>
      <trkpt lat="48.99215" lon="0.83755">
        <ele>164.399994</ele>
        <time>2018-06-17T06:44:48Z</time>
      </trkpt>
      <trkpt lat="48.99214" lon="0.83738">
        <ele>164.199997</ele>
        <time>2018-06-17T06:44:50Z</time>
      </trkpt>
      <trkpt lat="48.99212" lon="0.83721">
        <ele>164.399994</ele>
        <time>2018-06-17T06:44:52Z</time>
      </trkpt>
      <trkpt lat="48.99211" lon="0.83704">
        <ele>164.300003</ele>
        <time>2018-06-17T06:44:54Z</time>
      </trkpt>
      <trkpt lat="48.99209" lon="0.83688">
        <ele>164.399994</ele>
        <time>2018-06-17T06:44:56Z</time>
      </trkpt>
      <trkpt lat="48.99207" lon="0.83671">
        <ele>164.300003</ele>
        <time>2018-06-17T06:44:58Z</time>
      </trkpt>
      <trkpt lat="48.99205" lon="0.83653">
        <ele>164.399994</ele>
        <time>2018-06-17T06:45:00Z</time>
      </trkpt>
      <trkpt lat="48.99203" lon="0.83636">
        <ele>164.5</ele>
        <time>2018-06-17T06:45:02Z</time>
      </trkpt>
      <trkpt lat="48.992" lon="0.83619">
        <ele>164.5</ele>
        <time>2018-06-17T06:45:04Z</time>
      </trkpt>
      <trkpt lat="48.99197" lon="0.83602">
        <ele>164.300003</ele>
        <time>2018-06-17T06:45:06Z</time>
      </trkpt>
      <trkpt lat="48.99193" lon="0.83586">
        <ele>164.5</ele>
        <time>2018-06-17T06:45:08Z</time>
      </trkpt>
      <trkpt lat="48.99189" lon="0.8357">
        <ele>164.600006</ele>
        <time>2018-06-17T06:45:10Z</time>
      </trkpt>
      <trkpt lat="48.99184" lon="0.83553">
        <ele>164.699997</ele>
        <time>2018-06-17T06:45:12Z</time>
      </trkpt>
      <trkpt lat="48.9918" lon="0.83537">
        <ele>164.699997</ele>
        <time>2018-06-17T06:45:14Z</time>
      </trkpt>
      <trkpt lat="48.99177" lon="0.8352">
        <ele>164.800003</ele>
        <time>2018-06-17T06:45:16Z</time>
      </trkpt>
      <trkpt lat="48.99173" lon="0.83504">
        <ele>164.899994</ele>
        <time>2018-06-17T06:45:18Z</time>
      </trkpt>
      <trkpt lat="48.99169" lon="0.83488">
        <ele>165.100006</ele>
        <time>2018-06-17T06:45:20Z</time>
      </trkpt>
      <trkpt lat="48.99166" lon="0.83472">
        <ele>165.199997</ele>
        <time>2018-06-17T06:45:22Z</time>
      </trkpt>
      <trkpt lat="48.99162" lon="0.83456">
        <ele>165.199997</ele>
        <time>2018-06-17T06:45:24Z</time>
      </trkpt>
      <trkpt lat="48.99159" lon="0.83439">
        <ele>165.100006</ele>
        <time>2018-06-17T06:45:26Z</time>
      </trkpt>
      <trkpt lat="48.99155" lon="0.83424">
        <ele>165.199997</ele>
        <time>2018-06-17T06:45:28Z</time>
      </trkpt>
      <trkpt lat="48.99152" lon="0.83407">
        <ele>165.100006</ele>
        <time>2018-06-17T06:45:30Z</time>
      </trkpt>
      <trkpt lat="48.99148" lon="0.83391">
        <ele>164.899994</ele>
        <time>2018-06-17T06:45:32Z</time>
      </trkpt>
      <trkpt lat="48.99145" lon="0.83374">
        <ele>164.600006</ele>
        <time>2018-06-17T06:45:34Z</time>
      </trkpt>
      <trkpt lat="48.99141" lon="0.83358">
        <ele>164.600006</ele>
        <time>2018-06-17T06:45:36Z</time>
      </trkpt>
      <trkpt lat="48.99138" lon="0.83341">
        <ele>164.600006</ele>
        <time>2018-06-17T06:45:38Z</time>
      </trkpt>
      <trkpt lat="48.99134" lon="0.83324">
        <ele>164.800003</ele>
        <time>2018-06-17T06:45:40Z</time>
      </trkpt>
      <trkpt lat="48.99131" lon="0.83307">
        <ele>164.600006</ele>
        <time>2018-06-17T06:45:42Z</time>
      </trkpt>
      <trkpt lat="48.99127" lon="0.8329">
        <ele>164.699997</ele>
        <time>2018-06-17T06:45:44Z</time>
      </trkpt>
      <trkpt lat="48.99123" lon="0.83273">
        <ele>164.800003</ele>
        <time>2018-06-17T06:45:46Z</time>
      </trkpt>
      <trkpt lat="48.9912" lon="0.83256">
        <ele>164.800003</ele>
        <time>2018-06-17T06:45:48Z</time>
      </trkpt>
      <trkpt lat="48.99116" lon="0.8324">
        <ele>164.899994</ele>
        <time>2018-06-17T06:45:50Z</time>
      </trkpt>
      <trkpt lat="48.99113" lon="0.83223">
        <ele>164.800003</ele>
        <time>2018-06-17T06:45:52Z</time>
      </trkpt>
      <trkpt lat="48.99109" lon="0.83205">
        <ele>164.699997</ele>
        <time>2018-06-17T06:45:54Z</time>
      </trkpt>
      <trkpt lat="48.99106" lon="0.83187">
        <ele>164.600006</ele>
        <time>2018-06-17T06:45:56Z</time>
      </trkpt>
      <trkpt lat="48.99093" lon="0.83055">
        <ele>164.399994</ele>
        <time>2018-06-17T06:46:12Z</time>
      </trkpt>
      <trkpt lat="48.99088" lon="0.83036">
        <ele>164.5</ele>
        <time>2018-06-17T06:46:14Z</time>
      </trkpt>
      <trkpt lat="48.99084" lon="0.83019">
        <ele>164</ele>
        <time>2018-06-17T06:46:16Z</time>
      </trkpt>
      <trkpt lat="48.99079" lon="0.83004">
        <ele>163.899994</ele>
        <time>2018-06-17T06:46:18Z</time>
      </trkpt>
      <trkpt lat="48.99074" lon="0.82992">
        <ele>164</ele>
        <time>2018-06-17T06:46:20Z</time>
      </trkpt>
      <trkpt lat="48.99069" lon="0.82978">
        <ele>164</ele>
        <time>2018-06-17T06:46:23Z</time>
      </trkpt>
      <trkpt lat="48.99063" lon="0.82965">
        <ele>163.5</ele>
        <time>2018-06-17T06:46:26Z</time>
      </trkpt>
      <trkpt lat="48.99049" lon="0.82936">
        <ele>163.199997</ele>
        <time>2018-06-17T06:46:32Z</time>
      </trkpt>
      <trkpt lat="48.99042" lon="0.82918">
        <ele>162.899994</ele>
        <time>2018-06-17T06:46:35Z</time>
      </trkpt>
      <trkpt lat="48.99036" lon="0.82906">
        <ele>162.699997</ele>
        <time>2018-06-17T06:46:37Z</time>
      </trkpt>
      <trkpt lat="48.9903" lon="0.82893">
        <ele>162.600006</ele>
        <time>2018-06-17T06:46:39Z</time>
      </trkpt>
      <trkpt lat="48.99025" lon="0.82879">
        <ele>162.399994</ele>
        <time>2018-06-17T06:46:41Z</time>
      </trkpt>
      <trkpt lat="48.9902" lon="0.82865">
        <ele>162.399994</ele>
        <time>2018-06-17T06:46:43Z</time>
      </trkpt>
      <trkpt lat="48.99015" lon="0.82849">
        <ele>162.600006</ele>
        <time>2018-06-17T06:46:45Z</time>
      </trkpt>
      <trkpt lat="48.99011" lon="0.82834">
        <ele>162.600006</ele>
        <time>2018-06-17T06:46:47Z</time>
      </trkpt>
      <trkpt lat="48.99008" lon="0.82818">
        <ele>162.699997</ele>
        <time>2018-06-17T06:46:49Z</time>
      </trkpt>
      <trkpt lat="48.99004" lon="0.82802">
        <ele>162.600006</ele>
        <time>2018-06-17T06:46:51Z</time>
      </trkpt>
      <trkpt lat="48.98999" lon="0.82784">
        <ele>162.399994</ele>
        <time>2018-06-17T06:46:53Z</time>
      </trkpt>
      <trkpt lat="48.98992" lon="0.82747">
        <ele>162.399994</ele>
        <time>2018-06-17T06:46:57Z</time>
      </trkpt>
      <trkpt lat="48.98989" lon="0.82728">
        <ele>162.300003</ele>
        <time>2018-06-17T06:46:59Z</time>
      </trkpt>
      <trkpt lat="48.98987" lon="0.82712">
        <ele>162.199997</ele>
        <time>2018-06-17T06:47:01Z</time>
      </trkpt>
      <trkpt lat="48.98983" lon="0.82697">
        <ele>162.100006</ele>
        <time>2018-06-17T06:47:03Z</time>
      </trkpt>
      <trkpt lat="48.98981" lon="0.82679">
        <ele>162.399994</ele>
        <time>2018-06-17T06:47:06Z</time>
      </trkpt>
      <trkpt lat="48.98978" lon="0.82663">
        <ele>162.399994</ele>
        <time>2018-06-17T06:47:09Z</time>
      </trkpt>
      <trkpt lat="48.98975" lon="0.8265">
        <ele>162.199997</ele>
        <time>2018-06-17T06:47:11Z</time>
      </trkpt>
      <trkpt lat="48.9897" lon="0.82631">
        <ele>162.300003</ele>
        <time>2018-06-17T06:47:14Z</time>
      </trkpt>
      <trkpt lat="48.98966" lon="0.82613">
        <ele>162.100006</ele>
        <time>2018-06-17T06:47:16Z</time>
      </trkpt>
      <trkpt lat="48.98962" lon="0.82596">
        <ele>162</ele>
        <time>2018-06-17T06:47:18Z</time>
      </trkpt>
      <trkpt lat="48.98958" lon="0.82579">
        <ele>162.100006</ele>
        <time>2018-06-17T06:47:20Z</time>
      </trkpt>
      <trkpt lat="48.98955" lon="0.8256">
        <ele>162.199997</ele>
        <time>2018-06-17T06:47:22Z</time>
      </trkpt>
      <trkpt lat="48.98951" lon="0.82542">
        <ele>162.300003</ele>
        <time>2018-06-17T06:47:24Z</time>
      </trkpt>
      <trkpt lat="48.98946" lon="0.82527">
        <ele>162.399994</ele>
        <time>2018-06-17T06:47:26Z</time>
      </trkpt>
      <trkpt lat="48.98943" lon="0.82507">
        <ele>162.5</ele>
        <time>2018-06-17T06:47:28Z</time>
      </trkpt>
      <trkpt lat="48.98929" lon="0.82489">
        <ele>166.732986</ele>
        <time>2018-06-17T06:47:30Z</time>
      </trkpt>
      <trkpt lat="48.98938" lon="0.82468">
        <ele>162.800003</ele>
        <time>2018-06-17T06:47:32Z</time>
      </trkpt>
      <trkpt lat="48.98934" lon="0.8245">
        <ele>163</ele>
        <time>2018-06-17T06:47:34Z</time>
      </trkpt>
      <trkpt lat="48.9893" lon="0.82431">
        <ele>163</ele>
        <time>2018-06-17T06:47:36Z</time>
      </trkpt>
      <trkpt lat="48.98925" lon="0.82414">
        <ele>163</ele>
        <time>2018-06-17T06:47:38Z</time>
      </trkpt>
      <trkpt lat="48.98921" lon="0.82398">
        <ele>163.100006</ele>
        <time>2018-06-17T06:47:40Z</time>
      </trkpt>
      <trkpt lat="48.98916" lon="0.82376">
        <ele>163.100006</ele>
        <time>2018-06-17T06:47:43Z</time>
      </trkpt>
      <trkpt lat="48.98912" lon="0.82356">
        <ele>163.199997</ele>
        <time>2018-06-17T06:47:45Z</time>
      </trkpt>
      <trkpt lat="48.98908" lon="0.82341">
        <ele>163.300003</ele>
        <time>2018-06-17T06:47:47Z</time>
      </trkpt>
      <trkpt lat="48.98904" lon="0.82323">
        <ele>163.399994</ele>
        <time>2018-06-17T06:47:49Z</time>
      </trkpt>
      <trkpt lat="48.98901" lon="0.82307">
        <ele>163.600006</ele>
        <time>2018-06-17T06:47:51Z</time>
      </trkpt>
      <trkpt lat="48.98897" lon="0.82293">
        <ele>163.699997</ele>
        <time>2018-06-17T06:47:53Z</time>
      </trkpt>
      <trkpt lat="48.98895" lon="0.82278">
        <ele>163.699997</ele>
        <time>2018-06-17T06:47:55Z</time>
      </trkpt>
      <trkpt lat="48.9889" lon="0.8226">
        <ele>163.699997</ele>
        <time>2018-06-17T06:47:57Z</time>
      </trkpt>
      <trkpt lat="48.98887" lon="0.82241">
        <ele>163.699997</ele>
        <time>2018-06-17T06:47:59Z</time>
      </trkpt>
      <trkpt lat="48.98884" lon="0.82224">
        <ele>163.699997</ele>
        <time>2018-06-17T06:48:01Z</time>
      </trkpt>
      <trkpt lat="48.98881" lon="0.82207">
        <ele>163.899994</ele>
        <time>2018-06-17T06:48:03Z</time>
      </trkpt>
      <trkpt lat="48.98876" lon="0.82192">
        <ele>163.899994</ele>
        <time>2018-06-17T06:48:05Z</time>
      </trkpt>
      <trkpt lat="48.98874" lon="0.82173">
        <ele>164.100006</ele>
        <time>2018-06-17T06:48:07Z</time>
      </trkpt>
      <trkpt lat="48.9887" lon="0.82158">
        <ele>164.399994</ele>
        <time>2018-06-17T06:48:09Z</time>
      </trkpt>
      <trkpt lat="48.98866" lon="0.82141">
        <ele>164.600006</ele>
        <time>2018-06-17T06:48:11Z</time>
      </trkpt>
      <trkpt lat="48.98864" lon="0.82123">
        <ele>164.5</ele>
        <time>2018-06-17T06:48:13Z</time>
      </trkpt>
      <trkpt lat="48.9886" lon="0.82102">
        <ele>164.600006</ele>
        <time>2018-06-17T06:48:15Z</time>
      </trkpt>
      <trkpt lat="48.98856" lon="0.82084">
        <ele>164.800003</ele>
        <time>2018-06-17T06:48:17Z</time>
      </trkpt>
      <trkpt lat="48.98853" lon="0.82065">
        <ele>165</ele>
        <time>2018-06-17T06:48:19Z</time>
      </trkpt>
      <trkpt lat="48.98849" lon="0.82047">
        <ele>165.100006</ele>
        <time>2018-06-17T06:48:21Z</time>
      </trkpt>
      <trkpt lat="48.98845" lon="0.82028">
        <ele>165.100006</ele>
        <time>2018-06-17T06:48:23Z</time>
      </trkpt>
      <trkpt lat="48.98841" lon="0.82011">
        <ele>165.199997</ele>
        <time>2018-06-17T06:48:25Z</time>
      </trkpt>
      <trkpt lat="48.98838" lon="0.81993">
        <ele>165.399994</ele>
        <time>2018-06-17T06:48:27Z</time>
      </trkpt>
      <trkpt lat="48.98834" lon="0.81975">
        <ele>165.399994</ele>
        <time>2018-06-17T06:48:29Z</time>
      </trkpt>
      <trkpt lat="48.9883" lon="0.81958">
        <ele>165.5</ele>
        <time>2018-06-17T06:48:31Z</time>
      </trkpt>
      <trkpt lat="48.98826" lon="0.8194">
        <ele>165.600006</ele>
        <time>2018-06-17T06:48:33Z</time>
      </trkpt>
      <trkpt lat="48.98822" lon="0.81923">
        <ele>165.800003</ele>
        <time>2018-06-17T06:48:35Z</time>
      </trkpt>
      <trkpt lat="48.98819" lon="0.81906">
        <ele>166.100006</ele>
        <time>2018-06-17T06:48:37Z</time>
      </trkpt>
      <trkpt lat="48.98815" lon="0.81889">
        <ele>166.199997</ele>
        <time>2018-06-17T06:48:39Z</time>
      </trkpt>
      <trkpt lat="48.98811" lon="0.81873">
        <ele>166.199997</ele>
        <time>2018-06-17T06:48:41Z</time>
      </trkpt>
      <trkpt lat="48.98807" lon="0.81857">
        <ele>166.300003</ele>
        <time>2018-06-17T06:48:43Z</time>
      </trkpt>
      <trkpt lat="48.98804" lon="0.81841">
        <ele>166.399994</ele>
        <time>2018-06-17T06:48:45Z</time>
      </trkpt>
      <trkpt lat="48.98801" lon="0.81827">
        <ele>166.5</ele>
        <time>2018-06-17T06:48:47Z</time>
      </trkpt>
      <trkpt lat="48.98797" lon="0.81814">
        <ele>166.699997</ele>
        <time>2018-06-17T06:48:49Z</time>
      </trkpt>
      <trkpt lat="48.98791" lon="0.81796">
        <ele>167</ele>
        <time>2018-06-17T06:48:52Z</time>
      </trkpt>
      <trkpt lat="48.98787" lon="0.81783">
        <ele>167.199997</ele>
        <time>2018-06-17T06:48:54Z</time>
      </trkpt>
      <trkpt lat="48.98782" lon="0.8177">
        <ele>167.300003</ele>
        <time>2018-06-17T06:48:56Z</time>
      </trkpt>
      <trkpt lat="48.9878" lon="0.81756">
        <ele>167.399994</ele>
        <time>2018-06-17T06:48:58Z</time>
      </trkpt>
      <trkpt lat="48.98777" lon="0.81739">
        <ele>167.600006</ele>
        <time>2018-06-17T06:49:00Z</time>
      </trkpt>
      <trkpt lat="48.98775" lon="0.81718">
        <ele>167.800003</ele>
        <time>2018-06-17T06:49:03Z</time>
      </trkpt>
      <trkpt lat="48.98772" lon="0.81701">
        <ele>167.899994</ele>
        <time>2018-06-17T06:49:05Z</time>
      </trkpt>
      <trkpt lat="48.9877" lon="0.81681">
        <ele>168.100006</ele>
        <time>2018-06-17T06:49:07Z</time>
      </trkpt>
      <trkpt lat="48.98767" lon="0.81662">
        <ele>168.300003</ele>
        <time>2018-06-17T06:49:09Z</time>
      </trkpt>
      <trkpt lat="48.98764" lon="0.81646">
        <ele>168.199997</ele>
        <time>2018-06-17T06:49:11Z</time>
      </trkpt>
      <trkpt lat="48.9876" lon="0.81625">
        <ele>168.199997</ele>
        <time>2018-06-17T06:49:13Z</time>
      </trkpt>
      <trkpt lat="48.98756" lon="0.8161">
        <ele>168.399994</ele>
        <time>2018-06-17T06:49:15Z</time>
      </trkpt>
      <trkpt lat="48.98753" lon="0.81589">
        <ele>168.5</ele>
        <time>2018-06-17T06:49:17Z</time>
      </trkpt>
      <trkpt lat="48.98748" lon="0.81571">
        <ele>168.600006</ele>
        <time>2018-06-17T06:49:19Z</time>
      </trkpt>
      <trkpt lat="48.98744" lon="0.81551">
        <ele>168.699997</ele>
        <time>2018-06-17T06:49:21Z</time>
      </trkpt>
      <trkpt lat="48.98739" lon="0.81533">
        <ele>168.699997</ele>
        <time>2018-06-17T06:49:23Z</time>
      </trkpt>
      <trkpt lat="48.98735" lon="0.81517">
        <ele>168.600006</ele>
        <time>2018-06-17T06:49:25Z</time>
      </trkpt>
      <trkpt lat="48.9873" lon="0.81503">
        <ele>168.600006</ele>
        <time>2018-06-17T06:49:27Z</time>
      </trkpt>
      <trkpt lat="48.98727" lon="0.81486">
        <ele>168.800003</ele>
        <time>2018-06-17T06:49:29Z</time>
      </trkpt>
      <trkpt lat="48.98724" lon="0.81468">
        <ele>169</ele>
        <time>2018-06-17T06:49:31Z</time>
      </trkpt>
      <trkpt lat="48.98722" lon="0.81454">
        <ele>169</ele>
        <time>2018-06-17T06:49:33Z</time>
      </trkpt>
      <trkpt lat="48.98718" lon="0.81436">
        <ele>169</ele>
        <time>2018-06-17T06:49:35Z</time>
      </trkpt>
      <trkpt lat="48.98713" lon="0.81419">
        <ele>169.199997</ele>
        <time>2018-06-17T06:49:37Z</time>
      </trkpt>
      <trkpt lat="48.98708" lon="0.81402">
        <ele>169.100006</ele>
        <time>2018-06-17T06:49:39Z</time>
      </trkpt>
      <trkpt lat="48.98703" lon="0.81387">
        <ele>169</ele>
        <time>2018-06-17T06:49:41Z</time>
      </trkpt>
      <trkpt lat="48.98699" lon="0.81372">
        <ele>169.199997</ele>
        <time>2018-06-17T06:49:43Z</time>
      </trkpt>
      <trkpt lat="48.98695" lon="0.81351">
        <ele>169.100006</ele>
        <time>2018-06-17T06:49:45Z</time>
      </trkpt>
      <trkpt lat="48.98691" lon="0.81331">
        <ele>169.100006</ele>
        <time>2018-06-17T06:49:47Z</time>
      </trkpt>
      <trkpt lat="48.98687" lon="0.81311">
        <ele>168.899994</ele>
        <time>2018-06-17T06:49:49Z</time>
      </trkpt>
      <trkpt lat="48.98683" lon="0.81291">
        <ele>168.800003</ele>
        <time>2018-06-17T06:49:51Z</time>
      </trkpt>
      <trkpt lat="48.98679" lon="0.81274">
        <ele>169.100006</ele>
        <time>2018-06-17T06:49:53Z</time>
      </trkpt>
      <trkpt lat="48.98675" lon="0.81256">
        <ele>169.100006</ele>
        <time>2018-06-17T06:49:55Z</time>
      </trkpt>
      <trkpt lat="48.98672" lon="0.81238">
        <ele>169.199997</ele>
        <time>2018-06-17T06:49:57Z</time>
      </trkpt>
      <trkpt lat="48.98668" lon="0.8122">
        <ele>169.199997</ele>
        <time>2018-06-17T06:49:59Z</time>
      </trkpt>
      <trkpt lat="48.98665" lon="0.81203">
        <ele>169.300003</ele>
        <time>2018-06-17T06:50:01Z</time>
      </trkpt>
      <trkpt lat="48.98662" lon="0.81186">
        <ele>169.300003</ele>
        <time>2018-06-17T06:50:03Z</time>
      </trkpt>
      <trkpt lat="48.98659" lon="0.81169">
        <ele>169.300003</ele>
        <time>2018-06-17T06:50:05Z</time>
      </trkpt>
      <trkpt lat="48.98655" lon="0.8115">
        <ele>169.300003</ele>
        <time>2018-06-17T06:50:07Z</time>
      </trkpt>
      <trkpt lat="48.98652" lon="0.81133">
        <ele>169.399994</ele>
        <time>2018-06-17T06:50:09Z</time>
      </trkpt>
      <trkpt lat="48.98649" lon="0.81115">
        <ele>169.399994</ele>
        <time>2018-06-17T06:50:11Z</time>
      </trkpt>
      <trkpt lat="48.98645" lon="0.81097">
        <ele>169.5</ele>
        <time>2018-06-17T06:50:13Z</time>
      </trkpt>
      <trkpt lat="48.9864" lon="0.81079">
        <ele>169.800003</ele>
        <time>2018-06-17T06:50:15Z</time>
      </trkpt>
      <trkpt lat="48.98634" lon="0.81062">
        <ele>169.800003</ele>
        <time>2018-06-17T06:50:17Z</time>
      </trkpt>
      <trkpt lat="48.98629" lon="0.81044">
        <ele>169.800003</ele>
        <time>2018-06-17T06:50:19Z</time>
      </trkpt>
      <trkpt lat="48.98625" lon="0.81023">
        <ele>169.699997</ele>
        <time>2018-06-17T06:50:21Z</time>
      </trkpt>
      <trkpt lat="48.9862" lon="0.81003">
        <ele>169.800003</ele>
        <time>2018-06-17T06:50:23Z</time>
      </trkpt>
      <trkpt lat="48.98617" lon="0.80982">
        <ele>169.5</ele>
        <time>2018-06-17T06:50:25Z</time>
      </trkpt>
      <trkpt lat="48.98613" lon="0.80962">
        <ele>169.399994</ele>
        <time>2018-06-17T06:50:27Z</time>
      </trkpt>
      <trkpt lat="48.98609" lon="0.80943">
        <ele>169.399994</ele>
        <time>2018-06-17T06:50:29Z</time>
      </trkpt>
      <trkpt lat="48.98605" lon="0.80925">
        <ele>169.5</ele>
        <time>2018-06-17T06:50:31Z</time>
      </trkpt>
      <trkpt lat="48.98601" lon="0.80906">
        <ele>169.600006</ele>
        <time>2018-06-17T06:50:33Z</time>
      </trkpt>
      <trkpt lat="48.98598" lon="0.80887">
        <ele>169.600006</ele>
        <time>2018-06-17T06:50:35Z</time>
      </trkpt>
      <trkpt lat="48.98593" lon="0.80868">
        <ele>170</ele>
        <time>2018-06-17T06:50:37Z</time>
      </trkpt>
      <trkpt lat="48.98589" lon="0.80849">
        <ele>170</ele>
        <time>2018-06-17T06:50:39Z</time>
      </trkpt>
      <trkpt lat="48.98586" lon="0.8083">
        <ele>169.600006</ele>
        <time>2018-06-17T06:50:41Z</time>
      </trkpt>
      <trkpt lat="48.98582" lon="0.80811">
        <ele>169.899994</ele>
        <time>2018-06-17T06:50:43Z</time>
      </trkpt>
      <trkpt lat="48.98578" lon="0.80793">
        <ele>169.899994</ele>
        <time>2018-06-17T06:50:45Z</time>
      </trkpt>
      <trkpt lat="48.98574" lon="0.80775">
        <ele>169.800003</ele>
        <time>2018-06-17T06:50:47Z</time>
      </trkpt>
      <trkpt lat="48.9857" lon="0.80757">
        <ele>170</ele>
        <time>2018-06-17T06:50:49Z</time>
      </trkpt>
      <trkpt lat="48.98566" lon="0.80737">
        <ele>170.100006</ele>
        <time>2018-06-17T06:50:51Z</time>
      </trkpt>
      <trkpt lat="48.98562" lon="0.80719">
        <ele>169.600006</ele>
        <time>2018-06-17T06:50:53Z</time>
      </trkpt>
      <trkpt lat="48.98558" lon="0.80701">
        <ele>169.600006</ele>
        <time>2018-06-17T06:50:55Z</time>
      </trkpt>
      <trkpt lat="48.98555" lon="0.80682">
        <ele>169.800003</ele>
        <time>2018-06-17T06:50:57Z</time>
      </trkpt>
      <trkpt lat="48.98552" lon="0.80663">
        <ele>169.800003</ele>
        <time>2018-06-17T06:50:59Z</time>
      </trkpt>
      <trkpt lat="48.98548" lon="0.80644">
        <ele>169.899994</ele>
        <time>2018-06-17T06:51:01Z</time>
      </trkpt>
      <trkpt lat="48.98544" lon="0.80625">
        <ele>169.800003</ele>
        <time>2018-06-17T06:51:03Z</time>
      </trkpt>
      <trkpt lat="48.9854" lon="0.80606">
        <ele>169.699997</ele>
        <time>2018-06-17T06:51:05Z</time>
      </trkpt>
      <trkpt lat="48.98535" lon="0.80587">
        <ele>169.600006</ele>
        <time>2018-06-17T06:51:07Z</time>
      </trkpt>
      <trkpt lat="48.98531" lon="0.80568">
        <ele>169.699997</ele>
        <time>2018-06-17T06:51:09Z</time>
      </trkpt>
      <trkpt lat="48.98527" lon="0.8055">
        <ele>169.899994</ele>
        <time>2018-06-17T06:51:11Z</time>
      </trkpt>
      <trkpt lat="48.98523" lon="0.80531">
        <ele>170.100006</ele>
        <time>2018-06-17T06:51:13Z</time>
      </trkpt>
      <trkpt lat="48.98519" lon="0.80512">
        <ele>170.100006</ele>
        <time>2018-06-17T06:51:15Z</time>
      </trkpt>
      <trkpt lat="48.98515" lon="0.80493">
        <ele>170</ele>
        <time>2018-06-17T06:51:17Z</time>
      </trkpt>
      <trkpt lat="48.98511" lon="0.80474">
        <ele>169.899994</ele>
        <time>2018-06-17T06:51:19Z</time>
      </trkpt>
      <trkpt lat="48.98507" lon="0.80456">
        <ele>169.899994</ele>
        <time>2018-06-17T06:51:21Z</time>
      </trkpt>
      <trkpt lat="48.98503" lon="0.80437">
        <ele>169.699997</ele>
        <time>2018-06-17T06:51:23Z</time>
      </trkpt>
      <trkpt lat="48.98498" lon="0.80419">
        <ele>169.5</ele>
        <time>2018-06-17T06:51:25Z</time>
      </trkpt>
      <trkpt lat="48.98494" lon="0.804">
        <ele>169.300003</ele>
        <time>2018-06-17T06:51:27Z</time>
      </trkpt>
      <trkpt lat="48.98488" lon="0.80382">
        <ele>169.300003</ele>
        <time>2018-06-17T06:51:29Z</time>
      </trkpt>
      <trkpt lat="48.98484" lon="0.80362">
        <ele>169.199997</ele>
        <time>2018-06-17T06:51:31Z</time>
      </trkpt>
      <trkpt lat="48.9848" lon="0.80343">
        <ele>169.199997</ele>
        <time>2018-06-17T06:51:33Z</time>
      </trkpt>
      <trkpt lat="48.98476" lon="0.80323">
        <ele>169.300003</ele>
        <time>2018-06-17T06:51:35Z</time>
      </trkpt>
      <trkpt lat="48.98472" lon="0.80304">
        <ele>169.199997</ele>
        <time>2018-06-17T06:51:37Z</time>
      </trkpt>
      <trkpt lat="48.98469" lon="0.80285">
        <ele>169.100006</ele>
        <time>2018-06-17T06:51:39Z</time>
      </trkpt>
      <trkpt lat="48.98465" lon="0.80267">
        <ele>168.899994</ele>
        <time>2018-06-17T06:51:41Z</time>
      </trkpt>
      <trkpt lat="48.98461" lon="0.80248">
        <ele>168.399994</ele>
        <time>2018-06-17T06:51:43Z</time>
      </trkpt>
      <trkpt lat="48.98457" lon="0.8023">
        <ele>168.399994</ele>
        <time>2018-06-17T06:51:45Z</time>
      </trkpt>
      <trkpt lat="48.98453" lon="0.80212">
        <ele>168.399994</ele>
        <time>2018-06-17T06:51:47Z</time>
      </trkpt>
      <trkpt lat="48.98449" lon="0.80193">
        <ele>168.5</ele>
        <time>2018-06-17T06:51:49Z</time>
      </trkpt>
      <trkpt lat="48.98445" lon="0.80176">
        <ele>168.199997</ele>
        <time>2018-06-17T06:51:51Z</time>
      </trkpt>
      <trkpt lat="48.9844" lon="0.80158">
        <ele>167.899994</ele>
        <time>2018-06-17T06:51:53Z</time>
      </trkpt>
      <trkpt lat="48.98435" lon="0.80139">
        <ele>167.899994</ele>
        <time>2018-06-17T06:51:55Z</time>
      </trkpt>
      <trkpt lat="48.98429" lon="0.8012">
        <ele>167.5</ele>
        <time>2018-06-17T06:51:57Z</time>
      </trkpt>
      <trkpt lat="48.9842" lon="0.80105">
        <ele>167.300003</ele>
        <time>2018-06-17T06:51:59Z</time>
      </trkpt>
      <trkpt lat="48.9841" lon="0.8009">
        <ele>167.199997</ele>
        <time>2018-06-17T06:52:01Z</time>
      </trkpt>
      <trkpt lat="48.98399" lon="0.80077">
        <ele>166.899994</ele>
        <time>2018-06-17T06:52:03Z</time>
      </trkpt>
      <trkpt lat="48.98388" lon="0.80066">
        <ele>166.699997</ele>
        <time>2018-06-17T06:52:05Z</time>
      </trkpt>
      <trkpt lat="48.98379" lon="0.80052">
        <ele>166.600006</ele>
        <time>2018-06-17T06:52:07Z</time>
      </trkpt>
      <trkpt lat="48.98369" lon="0.80038">
        <ele>166.800003</ele>
        <time>2018-06-17T06:52:09Z</time>
      </trkpt>
      <trkpt lat="48.98359" lon="0.80025">
        <ele>167</ele>
        <time>2018-06-17T06:52:11Z</time>
      </trkpt>
      <trkpt lat="48.98349" lon="0.80015">
        <ele>166.899994</ele>
        <time>2018-06-17T06:52:13Z</time>
      </trkpt>
      <trkpt lat="48.9834" lon="0.80007">
        <ele>167</ele>
        <time>2018-06-17T06:52:15Z</time>
      </trkpt>
      <trkpt lat="48.98331" lon="0.79997">
        <ele>166.800003</ele>
        <time>2018-06-17T06:52:17Z</time>
      </trkpt>
      <trkpt lat="48.98322" lon="0.79987">
        <ele>166.899994</ele>
        <time>2018-06-17T06:52:19Z</time>
      </trkpt>
      <trkpt lat="48.98312" lon="0.79977">
        <ele>167</ele>
        <time>2018-06-17T06:52:21Z</time>
      </trkpt>
      <trkpt lat="48.98302" lon="0.79967">
        <ele>166.899994</ele>
        <time>2018-06-17T06:52:23Z</time>
      </trkpt>
      <trkpt lat="48.98292" lon="0.79955">
        <ele>167.300003</ele>
        <time>2018-06-17T06:52:25Z</time>
      </trkpt>
      <trkpt lat="48.98283" lon="0.79944">
        <ele>167.300003</ele>
        <time>2018-06-17T06:52:27Z</time>
      </trkpt>
      <trkpt lat="48.98274" lon="0.7993">
        <ele>167.399994</ele>
        <time>2018-06-17T06:52:29Z</time>
      </trkpt>
      <trkpt lat="48.98266" lon="0.79917">
        <ele>167.300003</ele>
        <time>2018-06-17T06:52:31Z</time>
      </trkpt>
      <trkpt lat="48.9826" lon="0.79903">
        <ele>167.199997</ele>
        <time>2018-06-17T06:52:33Z</time>
      </trkpt>
      <trkpt lat="48.98252" lon="0.7989">
        <ele>167.300003</ele>
        <time>2018-06-17T06:52:35Z</time>
      </trkpt>
      <trkpt lat="48.98246" lon="0.79876">
        <ele>167.5</ele>
        <time>2018-06-17T06:52:37Z</time>
      </trkpt>
      <trkpt lat="48.98238" lon="0.79862">
        <ele>167.300003</ele>
        <time>2018-06-17T06:52:39Z</time>
      </trkpt>
      <trkpt lat="48.98231" lon="0.79849">
        <ele>167.100006</ele>
        <time>2018-06-17T06:52:41Z</time>
      </trkpt>
      <trkpt lat="48.98223" lon="0.79834">
        <ele>167</ele>
        <time>2018-06-17T06:52:43Z</time>
      </trkpt>
      <trkpt lat="48.98227" lon="0.7982">
        <ele>166.399994</ele>
        <time>2018-06-17T06:52:49Z</time>
      </trkpt>
      <trkpt lat="48.98239" lon="0.79812">
        <ele>165.899994</ele>
        <time>2018-06-17T06:52:53Z</time>
      </trkpt>
      <trkpt lat="48.98246" lon="0.79804">
        <ele>165.5</ele>
        <time>2018-06-17T06:52:55Z</time>
      </trkpt>
      <trkpt lat="48.98257" lon="0.79794">
        <ele>165</ele>
        <time>2018-06-17T06:52:57Z</time>
      </trkpt>
      <trkpt lat="48.98266" lon="0.79785">
        <ele>164.399994</ele>
        <time>2018-06-17T06:52:59Z</time>
      </trkpt>
      <trkpt lat="48.98278" lon="0.79776">
        <ele>162.899994</ele>
        <time>2018-06-17T06:53:02Z</time>
      </trkpt>
      <trkpt lat="48.98285" lon="0.79765">
        <ele>162.100006</ele>
        <time>2018-06-17T06:53:04Z</time>
      </trkpt>
      <trkpt lat="48.98294" lon="0.79753">
        <ele>160.699997</ele>
        <time>2018-06-17T06:53:06Z</time>
      </trkpt>
      <trkpt lat="48.98303" lon="0.79738">
        <ele>159.800003</ele>
        <time>2018-06-17T06:53:08Z</time>
      </trkpt>
      <trkpt lat="48.98311" lon="0.79719">
        <ele>158.899994</ele>
        <time>2018-06-17T06:53:10Z</time>
      </trkpt>
      <trkpt lat="48.98317" lon="0.79702">
        <ele>158.100006</ele>
        <time>2018-06-17T06:53:12Z</time>
      </trkpt>
      <trkpt lat="48.98323" lon="0.79683">
        <ele>157.199997</ele>
        <time>2018-06-17T06:53:14Z</time>
      </trkpt>
      <trkpt lat="48.98326" lon="0.7966">
        <ele>156.300003</ele>
        <time>2018-06-17T06:53:16Z</time>
      </trkpt>
      <trkpt lat="48.98327" lon="0.79647">
        <ele>155.800003</ele>
        <time>2018-06-17T06:53:17Z</time>
      </trkpt>
      <trkpt lat="48.9833" lon="0.7962">
        <ele>154.800003</ele>
        <time>2018-06-17T06:53:19Z</time>
      </trkpt>
      <trkpt lat="48.98332" lon="0.79596">
        <ele>153.800003</ele>
        <time>2018-06-17T06:53:21Z</time>
      </trkpt>
      <trkpt lat="48.98336" lon="0.7958">
        <ele>153.300003</ele>
        <time>2018-06-17T06:53:22Z</time>
      </trkpt>
      <trkpt lat="48.9834" lon="0.79561">
        <ele>151.800003</ele>
        <time>2018-06-17T06:53:24Z</time>
      </trkpt>
      <trkpt lat="48.98346" lon="0.79545">
        <ele>150.600006</ele>
        <time>2018-06-17T06:53:26Z</time>
      </trkpt>
      <trkpt lat="48.98356" lon="0.7953">
        <ele>149.399994</ele>
        <time>2018-06-17T06:53:28Z</time>
      </trkpt>
      <trkpt lat="48.98363" lon="0.79512">
        <ele>148.100006</ele>
        <time>2018-06-17T06:53:30Z</time>
      </trkpt>
      <trkpt lat="48.98369" lon="0.79493">
        <ele>147.100006</ele>
        <time>2018-06-17T06:53:32Z</time>
      </trkpt>
      <trkpt lat="48.98372" lon="0.79479">
        <ele>146</ele>
        <time>2018-06-17T06:53:34Z</time>
      </trkpt>
      <trkpt lat="48.98379" lon="0.79459">
        <ele>144.600006</ele>
        <time>2018-06-17T06:53:36Z</time>
      </trkpt>
      <trkpt lat="48.98386" lon="0.79445">
        <ele>143.899994</ele>
        <time>2018-06-17T06:53:37Z</time>
      </trkpt>
      <trkpt lat="48.9839" lon="0.79433">
        <ele>143.199997</ele>
        <time>2018-06-17T06:53:38Z</time>
      </trkpt>
      <trkpt lat="48.98395" lon="0.79419">
        <ele>142.5</ele>
        <time>2018-06-17T06:53:39Z</time>
      </trkpt>
      <trkpt lat="48.98397" lon="0.79404">
        <ele>142</ele>
        <time>2018-06-17T06:53:40Z</time>
      </trkpt>
      <trkpt lat="48.98398" lon="0.79376">
        <ele>140.899994</ele>
        <time>2018-06-17T06:53:42Z</time>
      </trkpt>
      <trkpt lat="48.98401" lon="0.7935">
        <ele>139.899994</ele>
        <time>2018-06-17T06:53:44Z</time>
      </trkpt>
      <trkpt lat="48.98403" lon="0.79329">
        <ele>139</ele>
        <time>2018-06-17T06:53:46Z</time>
      </trkpt>
      <trkpt lat="48.98406" lon="0.79309">
        <ele>138</ele>
        <time>2018-06-17T06:53:48Z</time>
      </trkpt>
      <trkpt lat="48.98401" lon="0.79292">
        <ele>136.800003</ele>
        <time>2018-06-17T06:53:50Z</time>
      </trkpt>
      <trkpt lat="48.98393" lon="0.79282">
        <ele>135.899994</ele>
        <time>2018-06-17T06:53:52Z</time>
      </trkpt>
      <trkpt lat="48.98386" lon="0.79264">
        <ele>134.899994</ele>
        <time>2018-06-17T06:53:54Z</time>
      </trkpt>
      <trkpt lat="48.9838" lon="0.79253">
        <ele>134.199997</ele>
        <time>2018-06-17T06:53:56Z</time>
      </trkpt>
      <trkpt lat="48.9837" lon="0.79243">
        <ele>133.699997</ele>
        <time>2018-06-17T06:53:58Z</time>
      </trkpt>
      <trkpt lat="48.98359" lon="0.79239">
        <ele>133.399994</ele>
        <time>2018-06-17T06:54:00Z</time>
      </trkpt>
      <trkpt lat="48.98347" lon="0.79234">
        <ele>133.199997</ele>
        <time>2018-06-17T06:54:02Z</time>
      </trkpt>
      <trkpt lat="48.98334" lon="0.7923">
        <ele>132.899994</ele>
        <time>2018-06-17T06:54:04Z</time>
      </trkpt>
      <trkpt lat="48.98322" lon="0.79226">
        <ele>132.899994</ele>
        <time>2018-06-17T06:54:06Z</time>
      </trkpt>
      <trkpt lat="48.98309" lon="0.79222">
        <ele>132.800003</ele>
        <time>2018-06-17T06:54:08Z</time>
      </trkpt>
      <trkpt lat="48.98296" lon="0.79217">
        <ele>132.699997</ele>
        <time>2018-06-17T06:54:10Z</time>
      </trkpt>
      <trkpt lat="48.98283" lon="0.79213">
        <ele>132.600006</ele>
        <time>2018-06-17T06:54:12Z</time>
      </trkpt>
      <trkpt lat="48.9827" lon="0.79209">
        <ele>132.600006</ele>
        <time>2018-06-17T06:54:14Z</time>
      </trkpt>
      <trkpt lat="48.98256" lon="0.79205">
        <ele>132.600006</ele>
        <time>2018-06-17T06:54:16Z</time>
      </trkpt>
      <trkpt lat="48.98243" lon="0.792">
        <ele>132.5</ele>
        <time>2018-06-17T06:54:18Z</time>
      </trkpt>
      <trkpt lat="48.9823" lon="0.79195">
        <ele>132.399994</ele>
        <time>2018-06-17T06:54:20Z</time>
      </trkpt>
      <trkpt lat="48.98218" lon="0.7919">
        <ele>132.399994</ele>
        <time>2018-06-17T06:54:22Z</time>
      </trkpt>
      <trkpt lat="48.98206" lon="0.79184">
        <ele>132.300003</ele>
        <time>2018-06-17T06:54:24Z</time>
      </trkpt>
      <trkpt lat="48.98194" lon="0.79177">
        <ele>132.100006</ele>
        <time>2018-06-17T06:54:26Z</time>
      </trkpt>
      <trkpt lat="48.98182" lon="0.79171">
        <ele>132</ele>
        <time>2018-06-17T06:54:28Z</time>
      </trkpt>
      <trkpt lat="48.9817" lon="0.79164">
        <ele>132</ele>
        <time>2018-06-17T06:54:30Z</time>
      </trkpt>
      <trkpt lat="48.98158" lon="0.7916">
        <ele>131.899994</ele>
        <time>2018-06-17T06:54:32Z</time>
      </trkpt>
      <trkpt lat="48.98148" lon="0.79153">
        <ele>131.899994</ele>
        <time>2018-06-17T06:54:34Z</time>
      </trkpt>
      <trkpt lat="48.98137" lon="0.79145">
        <ele>132</ele>
        <time>2018-06-17T06:54:36Z</time>
      </trkpt>
      <trkpt lat="48.98128" lon="0.79137">
        <ele>131.899994</ele>
        <time>2018-06-17T06:54:38Z</time>
      </trkpt>
      <trkpt lat="48.98118" lon="0.79129">
        <ele>131.899994</ele>
        <time>2018-06-17T06:54:40Z</time>
      </trkpt>
      <trkpt lat="48.98109" lon="0.7912">
        <ele>132</ele>
        <time>2018-06-17T06:54:42Z</time>
      </trkpt>
      <trkpt lat="48.981" lon="0.79113">
        <ele>132.100006</ele>
        <time>2018-06-17T06:54:44Z</time>
      </trkpt>
      <trkpt lat="48.98091" lon="0.79106">
        <ele>132.399994</ele>
        <time>2018-06-17T06:54:46Z</time>
      </trkpt>
      <trkpt lat="48.98082" lon="0.79099">
        <ele>132.5</ele>
        <time>2018-06-17T06:54:48Z</time>
      </trkpt>
      <trkpt lat="48.98074" lon="0.79091">
        <ele>132.399994</ele>
        <time>2018-06-17T06:54:50Z</time>
      </trkpt>
      <trkpt lat="48.98065" lon="0.79083">
        <ele>132.399994</ele>
        <time>2018-06-17T06:54:52Z</time>
      </trkpt>
      <trkpt lat="48.98056" lon="0.79075">
        <ele>132.399994</ele>
        <time>2018-06-17T06:54:54Z</time>
      </trkpt>
      <trkpt lat="48.98048" lon="0.79066">
        <ele>132.399994</ele>
        <time>2018-06-17T06:54:56Z</time>
      </trkpt>
      <trkpt lat="48.98039" lon="0.79057">
        <ele>132.300003</ele>
        <time>2018-06-17T06:54:58Z</time>
      </trkpt>
      <trkpt lat="48.98031" lon="0.79049">
        <ele>132</ele>
        <time>2018-06-17T06:55:00Z</time>
      </trkpt>
      <trkpt lat="48.98022" lon="0.79042">
        <ele>131.800003</ele>
        <time>2018-06-17T06:55:02Z</time>
      </trkpt>
      <trkpt lat="48.98011" lon="0.79033">
        <ele>132</ele>
        <time>2018-06-17T06:55:05Z</time>
      </trkpt>
      <trkpt lat="48.98" lon="0.79024">
        <ele>132.600006</ele>
        <time>2018-06-17T06:55:08Z</time>
      </trkpt>
      <trkpt lat="48.97989" lon="0.79016">
        <ele>133</ele>
        <time>2018-06-17T06:55:11Z</time>
      </trkpt>
      <trkpt lat="48.9798" lon="0.7901">
        <ele>133.5</ele>
        <time>2018-06-17T06:55:13Z</time>
      </trkpt>
      <trkpt lat="48.9797" lon="0.78998">
        <ele>133.899994</ele>
        <time>2018-06-17T06:55:16Z</time>
      </trkpt>
      <trkpt lat="48.9796" lon="0.78987">
        <ele>134.399994</ele>
        <time>2018-06-17T06:55:19Z</time>
      </trkpt>
      <trkpt lat="48.9795" lon="0.78977">
        <ele>134.800003</ele>
        <time>2018-06-17T06:55:22Z</time>
      </trkpt>
      <trkpt lat="48.97944" lon="0.78968">
        <ele>134.899994</ele>
        <time>2018-06-17T06:55:24Z</time>
      </trkpt>
      <trkpt lat="48.97935" lon="0.78958">
        <ele>134.800003</ele>
        <time>2018-06-17T06:55:26Z</time>
      </trkpt>
      <trkpt lat="48.97926" lon="0.78949">
        <ele>134.899994</ele>
        <time>2018-06-17T06:55:28Z</time>
      </trkpt>
      <trkpt lat="48.97916" lon="0.78943">
        <ele>134.5</ele>
        <time>2018-06-17T06:55:30Z</time>
      </trkpt>
      <trkpt lat="48.97906" lon="0.7894">
        <ele>134.600006</ele>
        <time>2018-06-17T06:55:32Z</time>
      </trkpt>
      <trkpt lat="48.97897" lon="0.78932">
        <ele>134.699997</ele>
        <time>2018-06-17T06:55:34Z</time>
      </trkpt>
      <trkpt lat="48.97889" lon="0.78925">
        <ele>134.899994</ele>
        <time>2018-06-17T06:55:36Z</time>
      </trkpt>
      <trkpt lat="48.97881" lon="0.78918">
        <ele>135.199997</ele>
        <time>2018-06-17T06:55:38Z</time>
      </trkpt>
      <trkpt lat="48.97871" lon="0.78911">
        <ele>135.699997</ele>
        <time>2018-06-17T06:55:41Z</time>
      </trkpt>
      <trkpt lat="48.97862" lon="0.78902">
        <ele>136.100006</ele>
        <time>2018-06-17T06:55:44Z</time>
      </trkpt>
      <trkpt lat="48.97853" lon="0.78888">
        <ele>135.800003</ele>
        <time>2018-06-17T06:55:47Z</time>
      </trkpt>
      <trkpt lat="48.97847" lon="0.78873">
        <ele>134.699997</ele>
        <time>2018-06-17T06:55:51Z</time>
      </trkpt>
      <trkpt lat="48.97845" lon="0.78856">
        <ele>134.199997</ele>
        <time>2018-06-17T06:55:54Z</time>
      </trkpt>
      <trkpt lat="48.97841" lon="0.78842">
        <ele>134.100006</ele>
        <time>2018-06-17T06:55:56Z</time>
      </trkpt>
      <trkpt lat="48.97836" lon="0.78827">
        <ele>134</ele>
        <time>2018-06-17T06:55:58Z</time>
      </trkpt>
      <trkpt lat="48.9783" lon="0.78813">
        <ele>133.399994</ele>
        <time>2018-06-17T06:56:00Z</time>
      </trkpt>
      <trkpt lat="48.97821" lon="0.78808">
        <ele>132.699997</ele>
        <time>2018-06-17T06:56:03Z</time>
      </trkpt>
      <trkpt lat="48.97811" lon="0.788">
        <ele>133</ele>
        <time>2018-06-17T06:56:07Z</time>
      </trkpt>
      <trkpt lat="48.97803" lon="0.78786">
        <ele>133.800003</ele>
        <time>2018-06-17T06:56:11Z</time>
      </trkpt>
      <trkpt lat="48.97794" lon="0.7877">
        <ele>134.100006</ele>
        <time>2018-06-17T06:56:14Z</time>
      </trkpt>
      <trkpt lat="48.97789" lon="0.78758">
        <ele>134.100006</ele>
        <time>2018-06-17T06:56:16Z</time>
      </trkpt>
      <trkpt lat="48.97781" lon="0.78748">
        <ele>134</ele>
        <time>2018-06-17T06:56:18Z</time>
      </trkpt>
      <trkpt lat="48.97775" lon="0.78735">
        <ele>133.899994</ele>
        <time>2018-06-17T06:56:20Z</time>
      </trkpt>
      <trkpt lat="48.97768" lon="0.78724">
        <ele>134.300003</ele>
        <time>2018-06-17T06:56:22Z</time>
      </trkpt>
      <trkpt lat="48.9776" lon="0.78711">
        <ele>134.5</ele>
        <time>2018-06-17T06:56:25Z</time>
      </trkpt>
      <trkpt lat="48.97754" lon="0.78702">
        <ele>134.399994</ele>
        <time>2018-06-17T06:56:27Z</time>
      </trkpt>
      <trkpt lat="48.97747" lon="0.7869">
        <ele>134.300003</ele>
        <time>2018-06-17T06:56:29Z</time>
      </trkpt>
      <trkpt lat="48.97741" lon="0.78679">
        <ele>134.300003</ele>
        <time>2018-06-17T06:56:31Z</time>
      </trkpt>
      <trkpt lat="48.97734" lon="0.78666">
        <ele>134</ele>
        <time>2018-06-17T06:56:33Z</time>
      </trkpt>
      <trkpt lat="48.97728" lon="0.78651">
        <ele>134</ele>
        <time>2018-06-17T06:56:35Z</time>
      </trkpt>
      <trkpt lat="48.97721" lon="0.78637">
        <ele>133.899994</ele>
        <time>2018-06-17T06:56:37Z</time>
      </trkpt>
      <trkpt lat="48.97715" lon="0.78624">
        <ele>133.899994</ele>
        <time>2018-06-17T06:56:39Z</time>
      </trkpt>
      <trkpt lat="48.97708" lon="0.78612">
        <ele>134</ele>
        <time>2018-06-17T06:56:41Z</time>
      </trkpt>
      <trkpt lat="48.97702" lon="0.78599">
        <ele>134</ele>
        <time>2018-06-17T06:56:43Z</time>
      </trkpt>
      <trkpt lat="48.97696" lon="0.78586">
        <ele>134.199997</ele>
        <time>2018-06-17T06:56:45Z</time>
      </trkpt>
      <trkpt lat="48.97689" lon="0.78574">
        <ele>134.399994</ele>
        <time>2018-06-17T06:56:47Z</time>
      </trkpt>
      <trkpt lat="48.97681" lon="0.78563">
        <ele>134.600006</ele>
        <time>2018-06-17T06:56:49Z</time>
      </trkpt>
      <trkpt lat="48.97674" lon="0.78551">
        <ele>134.699997</ele>
        <time>2018-06-17T06:56:51Z</time>
      </trkpt>
      <trkpt lat="48.9767" lon="0.78539">
        <ele>134.899994</ele>
        <time>2018-06-17T06:56:53Z</time>
      </trkpt>
      <trkpt lat="48.97677" lon="0.78528">
        <ele>133.800003</ele>
        <time>2018-06-17T06:56:58Z</time>
      </trkpt>
      <trkpt lat="48.97687" lon="0.78519">
        <ele>132.899994</ele>
        <time>2018-06-17T06:57:01Z</time>
      </trkpt>
      <trkpt lat="48.97697" lon="0.78517">
        <ele>132.399994</ele>
        <time>2018-06-17T06:57:03Z</time>
      </trkpt>
      <trkpt lat="48.97706" lon="0.78512">
        <ele>132</ele>
        <time>2018-06-17T06:57:05Z</time>
      </trkpt>
      <trkpt lat="48.97716" lon="0.78504">
        <ele>131.800003</ele>
        <time>2018-06-17T06:57:07Z</time>
      </trkpt>
      <trkpt lat="48.97726" lon="0.78496">
        <ele>131.399994</ele>
        <time>2018-06-17T06:57:10Z</time>
      </trkpt>
      <trkpt lat="48.97738" lon="0.78505">
        <ele>131.399994</ele>
        <time>2018-06-17T06:57:13Z</time>
      </trkpt>
      <trkpt lat="48.97745" lon="0.78517">
        <ele>131.300003</ele>
        <time>2018-06-17T06:57:15Z</time>
      </trkpt>
      <trkpt lat="48.97752" lon="0.78531">
        <ele>131.199997</ele>
        <time>2018-06-17T06:57:17Z</time>
      </trkpt>
      <trkpt lat="48.97759" lon="0.78544">
        <ele>131.199997</ele>
        <time>2018-06-17T06:57:19Z</time>
      </trkpt>
      <trkpt lat="48.97766" lon="0.78558">
        <ele>131.199997</ele>
        <time>2018-06-17T06:57:21Z</time>
      </trkpt>
      <trkpt lat="48.97774" lon="0.78572">
        <ele>131.100006</ele>
        <time>2018-06-17T06:57:23Z</time>
      </trkpt>
      <trkpt lat="48.97782" lon="0.78585">
        <ele>131.100006</ele>
        <time>2018-06-17T06:57:25Z</time>
      </trkpt>
      <trkpt lat="48.97791" lon="0.78599">
        <ele>131.100006</ele>
        <time>2018-06-17T06:57:27Z</time>
      </trkpt>
      <trkpt lat="48.97799" lon="0.78612">
        <ele>131</ele>
        <time>2018-06-17T06:57:29Z</time>
      </trkpt>
      <trkpt lat="48.97808" lon="0.78625">
        <ele>131.100006</ele>
        <time>2018-06-17T06:57:31Z</time>
      </trkpt>
      <trkpt lat="48.97816" lon="0.78638">
        <ele>131</ele>
        <time>2018-06-17T06:57:33Z</time>
      </trkpt>
      <trkpt lat="48.97823" lon="0.78649">
        <ele>131</ele>
        <time>2018-06-17T06:57:35Z</time>
      </trkpt>
      <trkpt lat="48.97832" lon="0.78652">
        <ele>130.399994</ele>
        <time>2018-06-17T06:57:40Z</time>
      </trkpt>
      <trkpt lat="48.97833" lon="0.78666">
        <ele>129.600006</ele>
        <time>2018-06-17T07:04:12Z</time>
      </trkpt>
      <trkpt lat="48.97839" lon="0.78677">
        <ele>129.699997</ele>
        <time>2018-06-17T07:04:15Z</time>
      </trkpt>
      <trkpt lat="48.97848" lon="0.7869">
        <ele>129.800003</ele>
        <time>2018-06-17T07:04:18Z</time>
      </trkpt>
      <trkpt lat="48.97857" lon="0.78703">
        <ele>129.899994</ele>
        <time>2018-06-17T07:04:21Z</time>
      </trkpt>
      <trkpt lat="48.97867" lon="0.78717">
        <ele>129.899994</ele>
        <time>2018-06-17T07:04:24Z</time>
      </trkpt>
      <trkpt lat="48.97876" lon="0.78725">
        <ele>129.899994</ele>
        <time>2018-06-17T07:04:27Z</time>
      </trkpt>
      <trkpt lat="48.97879" lon="0.78711">
        <ele>130.100006</ele>
        <time>2018-06-17T07:04:31Z</time>
      </trkpt>
      <trkpt lat="48.97875" lon="0.78696">
        <ele>130.100006</ele>
        <time>2018-06-17T07:04:34Z</time>
      </trkpt>
      <trkpt lat="48.97867" lon="0.78682">
        <ele>130.199997</ele>
        <time>2018-06-17T07:04:37Z</time>
      </trkpt>
      <trkpt lat="48.97861" lon="0.7867">
        <ele>130.199997</ele>
        <time>2018-06-17T07:04:39Z</time>
      </trkpt>
      <trkpt lat="48.97856" lon="0.78658">
        <ele>130.199997</ele>
        <time>2018-06-17T07:04:41Z</time>
      </trkpt>
      <trkpt lat="48.97849" lon="0.78642">
        <ele>130.300003</ele>
        <time>2018-06-17T07:04:44Z</time>
      </trkpt>
      <trkpt lat="48.97843" lon="0.78626">
        <ele>130.399994</ele>
        <time>2018-06-17T07:04:47Z</time>
      </trkpt>
      <trkpt lat="48.97837" lon="0.78612">
        <ele>130.300003</ele>
        <time>2018-06-17T07:04:50Z</time>
      </trkpt>
      <trkpt lat="48.97831" lon="0.786">
        <ele>130.300003</ele>
        <time>2018-06-17T07:04:52Z</time>
      </trkpt>
      <trkpt lat="48.97825" lon="0.78588">
        <ele>130.300003</ele>
        <time>2018-06-17T07:04:54Z</time>
      </trkpt>
      <trkpt lat="48.97819" lon="0.78577">
        <ele>130.300003</ele>
        <time>2018-06-17T07:04:56Z</time>
      </trkpt>
      <trkpt lat="48.97812" lon="0.78565">
        <ele>130.399994</ele>
        <time>2018-06-17T07:04:58Z</time>
      </trkpt>
      <trkpt lat="48.97806" lon="0.78553">
        <ele>130.699997</ele>
        <time>2018-06-17T07:05:00Z</time>
      </trkpt>
      <trkpt lat="48.97799" lon="0.78542">
        <ele>130.800003</ele>
        <time>2018-06-17T07:05:02Z</time>
      </trkpt>
      <trkpt lat="48.97793" lon="0.78532">
        <ele>130.800003</ele>
        <time>2018-06-17T07:05:04Z</time>
      </trkpt>
      <trkpt lat="48.97786" lon="0.78521">
        <ele>130.699997</ele>
        <time>2018-06-17T07:05:06Z</time>
      </trkpt>
      <trkpt lat="48.97779" lon="0.78511">
        <ele>130.800003</ele>
        <time>2018-06-17T07:05:08Z</time>
      </trkpt>
      <trkpt lat="48.97767" lon="0.78502">
        <ele>130.699997</ele>
        <time>2018-06-17T07:05:11Z</time>
      </trkpt>
      <trkpt lat="48.97758" lon="0.78497">
        <ele>130.899994</ele>
        <time>2018-06-17T07:05:13Z</time>
      </trkpt>
      <trkpt lat="48.97749" lon="0.78491">
        <ele>130.899994</ele>
        <time>2018-06-17T07:05:15Z</time>
      </trkpt>
      <trkpt lat="48.97739" lon="0.78485">
        <ele>130.899994</ele>
        <time>2018-06-17T07:05:17Z</time>
      </trkpt>
      <trkpt lat="48.9773" lon="0.78476">
        <ele>130.899994</ele>
        <time>2018-06-17T07:05:19Z</time>
      </trkpt>
      <trkpt lat="48.97722" lon="0.78467">
        <ele>130.899994</ele>
        <time>2018-06-17T07:05:21Z</time>
      </trkpt>
      <trkpt lat="48.97715" lon="0.78457">
        <ele>130.899994</ele>
        <time>2018-06-17T07:05:23Z</time>
      </trkpt>
      <trkpt lat="48.97707" lon="0.78447">
        <ele>130.800003</ele>
        <time>2018-06-17T07:05:25Z</time>
      </trkpt>
      <trkpt lat="48.977" lon="0.78437">
        <ele>130.699997</ele>
        <time>2018-06-17T07:05:27Z</time>
      </trkpt>
      <trkpt lat="48.97695" lon="0.78426">
        <ele>130.800003</ele>
        <time>2018-06-17T07:05:29Z</time>
      </trkpt>
      <trkpt lat="48.97694" lon="0.78411">
        <ele>130.899994</ele>
        <time>2018-06-17T07:05:31Z</time>
      </trkpt>
      <trkpt lat="48.97698" lon="0.78398">
        <ele>131</ele>
        <time>2018-06-17T07:05:33Z</time>
      </trkpt>
      <trkpt lat="48.97705" lon="0.78388">
        <ele>130.800003</ele>
        <time>2018-06-17T07:05:35Z</time>
      </trkpt>
      <trkpt lat="48.97713" lon="0.78378">
        <ele>130.899994</ele>
        <time>2018-06-17T07:05:37Z</time>
      </trkpt>
      <trkpt lat="48.97721" lon="0.78368">
        <ele>131</ele>
        <time>2018-06-17T07:05:39Z</time>
      </trkpt>
      <trkpt lat="48.97728" lon="0.78357">
        <ele>131</ele>
        <time>2018-06-17T07:05:41Z</time>
      </trkpt>
      <trkpt lat="48.97735" lon="0.78345">
        <ele>131</ele>
        <time>2018-06-17T07:05:43Z</time>
      </trkpt>
      <trkpt lat="48.97743" lon="0.78335">
        <ele>131.100006</ele>
        <time>2018-06-17T07:05:45Z</time>
      </trkpt>
      <trkpt lat="48.9775" lon="0.78325">
        <ele>131.100006</ele>
        <time>2018-06-17T07:05:47Z</time>
      </trkpt>
      <trkpt lat="48.97758" lon="0.78316">
        <ele>131.100006</ele>
        <time>2018-06-17T07:05:49Z</time>
      </trkpt>
      <trkpt lat="48.97767" lon="0.78308">
        <ele>131.300003</ele>
        <time>2018-06-17T07:05:51Z</time>
      </trkpt>
      <trkpt lat="48.97776" lon="0.78304">
        <ele>131.5</ele>
        <time>2018-06-17T07:05:53Z</time>
      </trkpt>
      <trkpt lat="48.97785" lon="0.78305">
        <ele>131.699997</ele>
        <time>2018-06-17T07:05:55Z</time>
      </trkpt>
      <trkpt lat="48.97794" lon="0.78311">
        <ele>132.199997</ele>
        <time>2018-06-17T07:05:57Z</time>
      </trkpt>
      <trkpt lat="48.97802" lon="0.78319">
        <ele>132.5</ele>
        <time>2018-06-17T07:05:59Z</time>
      </trkpt>
      <trkpt lat="48.97811" lon="0.78328">
        <ele>132.699997</ele>
        <time>2018-06-17T07:06:01Z</time>
      </trkpt>
      <trkpt lat="48.97819" lon="0.78335">
        <ele>133</ele>
        <time>2018-06-17T07:06:03Z</time>
      </trkpt>
      <trkpt lat="48.97828" lon="0.78344">
        <ele>133.100006</ele>
        <time>2018-06-17T07:06:05Z</time>
      </trkpt>
      <trkpt lat="48.97838" lon="0.78352">
        <ele>133.199997</ele>
        <time>2018-06-17T07:06:07Z</time>
      </trkpt>
      <trkpt lat="48.97849" lon="0.7836">
        <ele>133.199997</ele>
        <time>2018-06-17T07:06:09Z</time>
      </trkpt>
      <trkpt lat="48.97858" lon="0.78369">
        <ele>133.199997</ele>
        <time>2018-06-17T07:06:11Z</time>
      </trkpt>
      <trkpt lat="48.97867" lon="0.78378">
        <ele>133</ele>
        <time>2018-06-17T07:06:13Z</time>
      </trkpt>
      <trkpt lat="48.97876" lon="0.78382">
        <ele>132.800003</ele>
        <time>2018-06-17T07:06:16Z</time>
      </trkpt>
      <trkpt lat="48.97883" lon="0.78368">
        <ele>132.699997</ele>
        <time>2018-06-17T07:06:19Z</time>
      </trkpt>
      <trkpt lat="48.97888" lon="0.78356">
        <ele>132.699997</ele>
        <time>2018-06-17T07:06:21Z</time>
      </trkpt>
      <trkpt lat="48.97894" lon="0.78344">
        <ele>132.899994</ele>
        <time>2018-06-17T07:06:23Z</time>
      </trkpt>
      <trkpt lat="48.979" lon="0.78331">
        <ele>133</ele>
        <time>2018-06-17T07:06:25Z</time>
      </trkpt>
      <trkpt lat="48.97905" lon="0.78318">
        <ele>133.100006</ele>
        <time>2018-06-17T07:06:27Z</time>
      </trkpt>
      <trkpt lat="48.97904" lon="0.78299">
        <ele>133.300003</ele>
        <time>2018-06-17T07:06:30Z</time>
      </trkpt>
      <trkpt lat="48.97899" lon="0.78286">
        <ele>133.199997</ele>
        <time>2018-06-17T07:06:32Z</time>
      </trkpt>
      <trkpt lat="48.97893" lon="0.78272">
        <ele>133</ele>
        <time>2018-06-17T07:06:34Z</time>
      </trkpt>
      <trkpt lat="48.97887" lon="0.78258">
        <ele>132.899994</ele>
        <time>2018-06-17T07:06:36Z</time>
      </trkpt>
      <trkpt lat="48.97881" lon="0.78244">
        <ele>132.800003</ele>
        <time>2018-06-17T07:06:38Z</time>
      </trkpt>
      <trkpt lat="48.97875" lon="0.78231">
        <ele>132.899994</ele>
        <time>2018-06-17T07:06:40Z</time>
      </trkpt>
      <trkpt lat="48.97868" lon="0.78218">
        <ele>132.699997</ele>
        <time>2018-06-17T07:06:42Z</time>
      </trkpt>
      <trkpt lat="48.97861" lon="0.78204">
        <ele>132.399994</ele>
        <time>2018-06-17T07:06:44Z</time>
      </trkpt>
      <trkpt lat="48.97854" lon="0.78191">
        <ele>132.600006</ele>
        <time>2018-06-17T07:06:46Z</time>
      </trkpt>
      <trkpt lat="48.97846" lon="0.78177">
        <ele>132.5</ele>
        <time>2018-06-17T07:06:48Z</time>
      </trkpt>
      <trkpt lat="48.9784" lon="0.78162">
        <ele>132.399994</ele>
        <time>2018-06-17T07:06:50Z</time>
      </trkpt>
      <trkpt lat="48.97832" lon="0.78146">
        <ele>132.199997</ele>
        <time>2018-06-17T07:06:52Z</time>
      </trkpt>
      <trkpt lat="48.97825" lon="0.78132">
        <ele>132.100006</ele>
        <time>2018-06-17T07:06:54Z</time>
      </trkpt>
      <trkpt lat="48.97819" lon="0.78119">
        <ele>132</ele>
        <time>2018-06-17T07:06:56Z</time>
      </trkpt>
      <trkpt lat="48.97818" lon="0.78105">
        <ele>132</ele>
        <time>2018-06-17T07:06:58Z</time>
      </trkpt>
      <trkpt lat="48.9782" lon="0.78091">
        <ele>132</ele>
        <time>2018-06-17T07:07:00Z</time>
      </trkpt>
      <trkpt lat="48.97823" lon="0.78076">
        <ele>132.199997</ele>
        <time>2018-06-17T07:07:02Z</time>
      </trkpt>
      <trkpt lat="48.97824" lon="0.78061">
        <ele>132.5</ele>
        <time>2018-06-17T07:07:04Z</time>
      </trkpt>
      <trkpt lat="48.97821" lon="0.78041">
        <ele>133.300003</ele>
        <time>2018-06-17T07:07:07Z</time>
      </trkpt>
      <trkpt lat="48.97815" lon="0.78023">
        <ele>134.300003</ele>
        <time>2018-06-17T07:07:10Z</time>
      </trkpt>
      <trkpt lat="48.97809" lon="0.78008">
        <ele>135.399994</ele>
        <time>2018-06-17T07:07:13Z</time>
      </trkpt>
      <trkpt lat="48.97803" lon="0.77994">
        <ele>136.600006</ele>
        <time>2018-06-17T07:07:16Z</time>
      </trkpt>
      <trkpt lat="48.97798" lon="0.77979">
        <ele>137.899994</ele>
        <time>2018-06-17T07:07:19Z</time>
      </trkpt>
      <trkpt lat="48.97793" lon="0.77964">
        <ele>139.100006</ele>
        <time>2018-06-17T07:07:22Z</time>
      </trkpt>
      <trkpt lat="48.9779" lon="0.77951">
        <ele>140</ele>
        <time>2018-06-17T07:07:25Z</time>
      </trkpt>
      <trkpt lat="48.97786" lon="0.77934">
        <ele>141.600006</ele>
        <time>2018-06-17T07:07:29Z</time>
      </trkpt>
      <trkpt lat="48.97796" lon="0.7794">
        <ele>143.800003</ele>
        <time>2018-06-17T07:07:35Z</time>
      </trkpt>
      <trkpt lat="48.97803" lon="0.77948">
        <ele>145</ele>
        <time>2018-06-17T07:07:38Z</time>
      </trkpt>
      <trkpt lat="48.97811" lon="0.7796">
        <ele>146.399994</ele>
        <time>2018-06-17T07:07:42Z</time>
      </trkpt>
      <trkpt lat="48.97818" lon="0.77968">
        <ele>147.399994</ele>
        <time>2018-06-17T07:07:45Z</time>
      </trkpt>
      <trkpt lat="48.97827" lon="0.77976">
        <ele>148.399994</ele>
        <time>2018-06-17T07:07:48Z</time>
      </trkpt>
      <trkpt lat="48.97834" lon="0.77986">
        <ele>149.699997</ele>
        <time>2018-06-17T07:07:52Z</time>
      </trkpt>
      <trkpt lat="48.97841" lon="0.77997">
        <ele>150.600006</ele>
        <time>2018-06-17T07:07:55Z</time>
      </trkpt>
      <trkpt lat="48.97848" lon="0.78008">
        <ele>151.100006</ele>
        <time>2018-06-17T07:07:58Z</time>
      </trkpt>
      <trkpt lat="48.97858" lon="0.78019">
        <ele>151.800003</ele>
        <time>2018-06-17T07:08:01Z</time>
      </trkpt>
      <trkpt lat="48.97869" lon="0.78028">
        <ele>152.199997</ele>
        <time>2018-06-17T07:08:04Z</time>
      </trkpt>
      <trkpt lat="48.97878" lon="0.78039">
        <ele>152.800003</ele>
        <time>2018-06-17T07:08:07Z</time>
      </trkpt>
      <trkpt lat="48.97887" lon="0.78049">
        <ele>153.399994</ele>
        <time>2018-06-17T07:08:10Z</time>
      </trkpt>
      <trkpt lat="48.97895" lon="0.7806">
        <ele>154</ele>
        <time>2018-06-17T07:08:13Z</time>
      </trkpt>
      <trkpt lat="48.97903" lon="0.78067">
        <ele>154.699997</ele>
        <time>2018-06-17T07:08:16Z</time>
      </trkpt>
      <trkpt lat="48.97912" lon="0.78071">
        <ele>155.5</ele>
        <time>2018-06-17T07:08:19Z</time>
      </trkpt>
      <trkpt lat="48.97923" lon="0.7807">
        <ele>156.5</ele>
        <time>2018-06-17T07:08:23Z</time>
      </trkpt>
      <trkpt lat="48.97931" lon="0.78064">
        <ele>157.300003</ele>
        <time>2018-06-17T07:08:26Z</time>
      </trkpt>
      <trkpt lat="48.9794" lon="0.78058">
        <ele>158.100006</ele>
        <time>2018-06-17T07:08:29Z</time>
      </trkpt>
      <trkpt lat="48.97949" lon="0.78056">
        <ele>158.699997</ele>
        <time>2018-06-17T07:08:32Z</time>
      </trkpt>
      <trkpt lat="48.9796" lon="0.78055">
        <ele>159.199997</ele>
        <time>2018-06-17T07:08:35Z</time>
      </trkpt>
      <trkpt lat="48.9797" lon="0.78053">
        <ele>159.5</ele>
        <time>2018-06-17T07:08:37Z</time>
      </trkpt>
      <trkpt lat="48.97979" lon="0.7805">
        <ele>159.699997</ele>
        <time>2018-06-17T07:08:39Z</time>
      </trkpt>
      <trkpt lat="48.97988" lon="0.78048">
        <ele>160</ele>
        <time>2018-06-17T07:08:41Z</time>
      </trkpt>
      <trkpt lat="48.97998" lon="0.78044">
        <ele>160</ele>
        <time>2018-06-17T07:08:43Z</time>
      </trkpt>
      <trkpt lat="48.98008" lon="0.78038">
        <ele>160.100006</ele>
        <time>2018-06-17T07:08:45Z</time>
      </trkpt>
      <trkpt lat="48.98017" lon="0.7803">
        <ele>160.300003</ele>
        <time>2018-06-17T07:08:47Z</time>
      </trkpt>
      <trkpt lat="48.98025" lon="0.78021">
        <ele>160.100006</ele>
        <time>2018-06-17T07:08:49Z</time>
      </trkpt>
      <trkpt lat="48.98032" lon="0.78006">
        <ele>160.100006</ele>
        <time>2018-06-17T07:08:51Z</time>
      </trkpt>
      <trkpt lat="48.98038" lon="0.77991">
        <ele>160.100006</ele>
        <time>2018-06-17T07:08:53Z</time>
      </trkpt>
      <trkpt lat="48.98043" lon="0.77976">
        <ele>160.300003</ele>
        <time>2018-06-17T07:08:55Z</time>
      </trkpt>
      <trkpt lat="48.98047" lon="0.77961">
        <ele>160.399994</ele>
        <time>2018-06-17T07:08:57Z</time>
      </trkpt>
      <trkpt lat="48.98051" lon="0.77948">
        <ele>160.5</ele>
        <time>2018-06-17T07:08:59Z</time>
      </trkpt>
      <trkpt lat="48.98055" lon="0.77935">
        <ele>160.600006</ele>
        <time>2018-06-17T07:09:01Z</time>
      </trkpt>
      <trkpt lat="48.9806" lon="0.77921">
        <ele>160.699997</ele>
        <time>2018-06-17T07:09:03Z</time>
      </trkpt>
      <trkpt lat="48.98064" lon="0.77908">
        <ele>161</ele>
        <time>2018-06-17T07:09:05Z</time>
      </trkpt>
      <trkpt lat="48.98069" lon="0.77895">
        <ele>161.300003</ele>
        <time>2018-06-17T07:09:07Z</time>
      </trkpt>
      <trkpt lat="48.98073" lon="0.77883">
        <ele>161.5</ele>
        <time>2018-06-17T07:09:09Z</time>
      </trkpt>
      <trkpt lat="48.98078" lon="0.7787">
        <ele>161.600006</ele>
        <time>2018-06-17T07:09:11Z</time>
      </trkpt>
      <trkpt lat="48.98083" lon="0.77858">
        <ele>162</ele>
        <time>2018-06-17T07:09:13Z</time>
      </trkpt>
      <trkpt lat="48.98087" lon="0.77845">
        <ele>162.300003</ele>
        <time>2018-06-17T07:09:15Z</time>
      </trkpt>
      <trkpt lat="48.98092" lon="0.77833">
        <ele>162.5</ele>
        <time>2018-06-17T07:09:17Z</time>
      </trkpt>
      <trkpt lat="48.98097" lon="0.7782">
        <ele>162.899994</ele>
        <time>2018-06-17T07:09:19Z</time>
      </trkpt>
      <trkpt lat="48.98102" lon="0.77808">
        <ele>163.300003</ele>
        <time>2018-06-17T07:09:21Z</time>
      </trkpt>
      <trkpt lat="48.98106" lon="0.77795">
        <ele>163.5</ele>
        <time>2018-06-17T07:09:23Z</time>
      </trkpt>
      <trkpt lat="48.98111" lon="0.77782">
        <ele>164</ele>
        <time>2018-06-17T07:09:25Z</time>
      </trkpt>
      <trkpt lat="48.98115" lon="0.77769">
        <ele>164.300003</ele>
        <time>2018-06-17T07:09:27Z</time>
      </trkpt>
      <trkpt lat="48.9812" lon="0.77755">
        <ele>164.399994</ele>
        <time>2018-06-17T07:09:29Z</time>
      </trkpt>
      <trkpt lat="48.98124" lon="0.77742">
        <ele>164.800003</ele>
        <time>2018-06-17T07:09:31Z</time>
      </trkpt>
      <trkpt lat="48.98128" lon="0.77727">
        <ele>165</ele>
        <time>2018-06-17T07:09:33Z</time>
      </trkpt>
      <trkpt lat="48.98133" lon="0.77713">
        <ele>165.199997</ele>
        <time>2018-06-17T07:09:35Z</time>
      </trkpt>
      <trkpt lat="48.98138" lon="0.77699">
        <ele>165.199997</ele>
        <time>2018-06-17T07:09:37Z</time>
      </trkpt>
      <trkpt lat="48.98142" lon="0.77686">
        <ele>165.5</ele>
        <time>2018-06-17T07:09:39Z</time>
      </trkpt>
      <trkpt lat="48.98147" lon="0.77673">
        <ele>165.699997</ele>
        <time>2018-06-17T07:09:41Z</time>
      </trkpt>
      <trkpt lat="48.98152" lon="0.77661">
        <ele>165.899994</ele>
        <time>2018-06-17T07:09:43Z</time>
      </trkpt>
      <trkpt lat="48.98159" lon="0.77645">
        <ele>166.199997</ele>
        <time>2018-06-17T07:09:46Z</time>
      </trkpt>
      <trkpt lat="48.98165" lon="0.7763">
        <ele>166.399994</ele>
        <time>2018-06-17T07:09:49Z</time>
      </trkpt>
      <trkpt lat="48.98173" lon="0.77621">
        <ele>166.600006</ele>
        <time>2018-06-17T07:09:52Z</time>
      </trkpt>
      <trkpt lat="48.98181" lon="0.77632">
        <ele>166.699997</ele>
        <time>2018-06-17T07:09:55Z</time>
      </trkpt>
      <trkpt lat="48.98186" lon="0.77646">
        <ele>166.800003</ele>
        <time>2018-06-17T07:09:57Z</time>
      </trkpt>
      <trkpt lat="48.98192" lon="0.77661">
        <ele>166.699997</ele>
        <time>2018-06-17T07:09:59Z</time>
      </trkpt>
      <trkpt lat="48.98198" lon="0.77676">
        <ele>166.699997</ele>
        <time>2018-06-17T07:10:01Z</time>
      </trkpt>
      <trkpt lat="48.98205" lon="0.77691">
        <ele>166.699997</ele>
        <time>2018-06-17T07:10:03Z</time>
      </trkpt>
      <trkpt lat="48.98212" lon="0.77707">
        <ele>166.600006</ele>
        <time>2018-06-17T07:10:05Z</time>
      </trkpt>
      <trkpt lat="48.9822" lon="0.77722">
        <ele>166.699997</ele>
        <time>2018-06-17T07:10:07Z</time>
      </trkpt>
      <trkpt lat="48.98229" lon="0.77737">
        <ele>166.5</ele>
        <time>2018-06-17T07:10:09Z</time>
      </trkpt>
      <trkpt lat="48.98238" lon="0.77753">
        <ele>166.199997</ele>
        <time>2018-06-17T07:10:11Z</time>
      </trkpt>
      <trkpt lat="48.98247" lon="0.77768">
        <ele>166</ele>
        <time>2018-06-17T07:10:13Z</time>
      </trkpt>
      <trkpt lat="48.98257" lon="0.77784">
        <ele>165.899994</ele>
        <time>2018-06-17T07:10:15Z</time>
      </trkpt>
      <trkpt lat="48.98267" lon="0.778">
        <ele>165.5</ele>
        <time>2018-06-17T07:10:17Z</time>
      </trkpt>
      <trkpt lat="48.98276" lon="0.77816">
        <ele>165.199997</ele>
        <time>2018-06-17T07:10:19Z</time>
      </trkpt>
      <trkpt lat="48.98287" lon="0.77831">
        <ele>165.100006</ele>
        <time>2018-06-17T07:10:21Z</time>
      </trkpt>
      <trkpt lat="48.98297" lon="0.77846">
        <ele>164.899994</ele>
        <time>2018-06-17T07:10:23Z</time>
      </trkpt>
      <trkpt lat="48.98308" lon="0.7786">
        <ele>164.600006</ele>
        <time>2018-06-17T07:10:25Z</time>
      </trkpt>
      <trkpt lat="48.9832" lon="0.77873">
        <ele>164.5</ele>
        <time>2018-06-17T07:10:27Z</time>
      </trkpt>
      <trkpt lat="48.98331" lon="0.77886">
        <ele>164.399994</ele>
        <time>2018-06-17T07:10:29Z</time>
      </trkpt>
      <trkpt lat="48.98343" lon="0.77898">
        <ele>164.300003</ele>
        <time>2018-06-17T07:10:31Z</time>
      </trkpt>
      <trkpt lat="48.98354" lon="0.7791">
        <ele>164.100006</ele>
        <time>2018-06-17T07:10:33Z</time>
      </trkpt>
      <trkpt lat="48.98367" lon="0.77919">
        <ele>163.899994</ele>
        <time>2018-06-17T07:10:35Z</time>
      </trkpt>
      <trkpt lat="48.9838" lon="0.77928">
        <ele>163.800003</ele>
        <time>2018-06-17T07:10:37Z</time>
      </trkpt>
      <trkpt lat="48.98393" lon="0.77935">
        <ele>163.699997</ele>
        <time>2018-06-17T07:10:39Z</time>
      </trkpt>
      <trkpt lat="48.98406" lon="0.77941">
        <ele>163.5</ele>
        <time>2018-06-17T07:10:41Z</time>
      </trkpt>
      <trkpt lat="48.98419" lon="0.77949">
        <ele>163.5</ele>
        <time>2018-06-17T07:10:43Z</time>
      </trkpt>
      <trkpt lat="48.98431" lon="0.77958">
        <ele>163.600006</ele>
        <time>2018-06-17T07:10:45Z</time>
      </trkpt>
      <trkpt lat="48.98442" lon="0.77968">
        <ele>163.600006</ele>
        <time>2018-06-17T07:10:47Z</time>
      </trkpt>
      <trkpt lat="48.98452" lon="0.77978">
        <ele>163.600006</ele>
        <time>2018-06-17T07:10:49Z</time>
      </trkpt>
      <trkpt lat="48.98462" lon="0.77989">
        <ele>163.800003</ele>
        <time>2018-06-17T07:10:51Z</time>
      </trkpt>
      <trkpt lat="48.9847" lon="0.77998">
        <ele>163.899994</ele>
        <time>2018-06-17T07:10:53Z</time>
      </trkpt>
      <trkpt lat="48.98477" lon="0.78009">
        <ele>164.199997</ele>
        <time>2018-06-17T07:10:55Z</time>
      </trkpt>
      <trkpt lat="48.98488" lon="0.78019">
        <ele>164.399994</ele>
        <time>2018-06-17T07:10:57Z</time>
      </trkpt>
      <trkpt lat="48.98497" lon="0.78029">
        <ele>164.600006</ele>
        <time>2018-06-17T07:10:59Z</time>
      </trkpt>
      <trkpt lat="48.98507" lon="0.78038">
        <ele>164.899994</ele>
        <time>2018-06-17T07:11:01Z</time>
      </trkpt>
      <trkpt lat="48.98517" lon="0.78047">
        <ele>165.199997</ele>
        <time>2018-06-17T07:11:03Z</time>
      </trkpt>
      <trkpt lat="48.98525" lon="0.78055">
        <ele>165.300003</ele>
        <time>2018-06-17T07:11:05Z</time>
      </trkpt>
      <trkpt lat="48.98529" lon="0.78071">
        <ele>165.800003</ele>
        <time>2018-06-17T07:11:08Z</time>
      </trkpt>
      <trkpt lat="48.98528" lon="0.7809">
        <ele>165.800003</ele>
        <time>2018-06-17T07:11:11Z</time>
      </trkpt>
      <trkpt lat="48.98523" lon="0.78103">
        <ele>165.600006</ele>
        <time>2018-06-17T07:11:15Z</time>
      </trkpt>
      <trkpt lat="48.98514" lon="0.78116">
        <ele>165.600006</ele>
        <time>2018-06-17T07:11:18Z</time>
      </trkpt>
      <trkpt lat="48.98508" lon="0.7813">
        <ele>165.800003</ele>
        <time>2018-06-17T07:11:20Z</time>
      </trkpt>
      <trkpt lat="48.98502" lon="0.78145">
        <ele>165.899994</ele>
        <time>2018-06-17T07:11:22Z</time>
      </trkpt>
      <trkpt lat="48.98498" lon="0.78162">
        <ele>165.800003</ele>
        <time>2018-06-17T07:11:24Z</time>
      </trkpt>
      <trkpt lat="48.98497" lon="0.78181">
        <ele>165.699997</ele>
        <time>2018-06-17T07:11:26Z</time>
      </trkpt>
      <trkpt lat="48.98496" lon="0.782">
        <ele>165.5</ele>
        <time>2018-06-17T07:11:28Z</time>
      </trkpt>
      <trkpt lat="48.98496" lon="0.78219">
        <ele>165.300003</ele>
        <time>2018-06-17T07:11:30Z</time>
      </trkpt>
      <trkpt lat="48.98497" lon="0.78239">
        <ele>164.899994</ele>
        <time>2018-06-17T07:11:32Z</time>
      </trkpt>
      <trkpt lat="48.985" lon="0.78258">
        <ele>164.699997</ele>
        <time>2018-06-17T07:11:34Z</time>
      </trkpt>
      <trkpt lat="48.98505" lon="0.78276">
        <ele>164.5</ele>
        <time>2018-06-17T07:11:36Z</time>
      </trkpt>
      <trkpt lat="48.98509" lon="0.78294">
        <ele>164.199997</ele>
        <time>2018-06-17T07:11:38Z</time>
      </trkpt>
      <trkpt lat="48.98513" lon="0.78311">
        <ele>163.899994</ele>
        <time>2018-06-17T07:11:40Z</time>
      </trkpt>
      <trkpt lat="48.98517" lon="0.78325">
        <ele>163.600006</ele>
        <time>2018-06-17T07:11:42Z</time>
      </trkpt>
      <trkpt lat="48.98519" lon="0.78344">
        <ele>163.300003</ele>
        <time>2018-06-17T07:11:45Z</time>
      </trkpt>
      <trkpt lat="48.9852" lon="0.78358">
        <ele>163.300003</ele>
        <time>2018-06-17T07:11:47Z</time>
      </trkpt>
      <trkpt lat="48.98522" lon="0.78375">
        <ele>163</ele>
        <time>2018-06-17T07:11:49Z</time>
      </trkpt>
      <trkpt lat="48.98525" lon="0.78392">
        <ele>162.899994</ele>
        <time>2018-06-17T07:11:51Z</time>
      </trkpt>
      <trkpt lat="48.98528" lon="0.7841">
        <ele>162.800003</ele>
        <time>2018-06-17T07:11:53Z</time>
      </trkpt>
      <trkpt lat="48.98531" lon="0.78428">
        <ele>162.600006</ele>
        <time>2018-06-17T07:11:55Z</time>
      </trkpt>
      <trkpt lat="48.98535" lon="0.78446">
        <ele>162.300003</ele>
        <time>2018-06-17T07:11:57Z</time>
      </trkpt>
      <trkpt lat="48.9854" lon="0.78464">
        <ele>162.100006</ele>
        <time>2018-06-17T07:11:59Z</time>
      </trkpt>
      <trkpt lat="48.98545" lon="0.78481">
        <ele>162</ele>
        <time>2018-06-17T07:12:01Z</time>
      </trkpt>
      <trkpt lat="48.98552" lon="0.78498">
        <ele>161.899994</ele>
        <time>2018-06-17T07:12:03Z</time>
      </trkpt>
      <trkpt lat="48.98559" lon="0.78514">
        <ele>161.600006</ele>
        <time>2018-06-17T07:12:05Z</time>
      </trkpt>
      <trkpt lat="48.98568" lon="0.78529">
        <ele>161.199997</ele>
        <time>2018-06-17T07:12:07Z</time>
      </trkpt>
      <trkpt lat="48.98578" lon="0.78543">
        <ele>160.899994</ele>
        <time>2018-06-17T07:12:09Z</time>
      </trkpt>
      <trkpt lat="48.98589" lon="0.78557">
        <ele>160.399994</ele>
        <time>2018-06-17T07:12:11Z</time>
      </trkpt>
      <trkpt lat="48.986" lon="0.7857">
        <ele>159.800003</ele>
        <time>2018-06-17T07:12:13Z</time>
      </trkpt>
      <trkpt lat="48.98611" lon="0.78582">
        <ele>159.300003</ele>
        <time>2018-06-17T07:12:15Z</time>
      </trkpt>
      <trkpt lat="48.98623" lon="0.7859">
        <ele>158.899994</ele>
        <time>2018-06-17T07:12:17Z</time>
      </trkpt>
      <trkpt lat="48.98632" lon="0.78595">
        <ele>158.300003</ele>
        <time>2018-06-17T07:12:19Z</time>
      </trkpt>
      <trkpt lat="48.98642" lon="0.78601">
        <ele>158.199997</ele>
        <time>2018-06-17T07:12:21Z</time>
      </trkpt>
      <trkpt lat="48.98652" lon="0.78607">
        <ele>158</ele>
        <time>2018-06-17T07:12:23Z</time>
      </trkpt>
      <trkpt lat="48.98661" lon="0.78612">
        <ele>157.699997</ele>
        <time>2018-06-17T07:12:25Z</time>
      </trkpt>
      <trkpt lat="48.98668" lon="0.78618">
        <ele>157.300003</ele>
        <time>2018-06-17T07:12:27Z</time>
      </trkpt>
      <trkpt lat="48.98676" lon="0.78627">
        <ele>157</ele>
        <time>2018-06-17T07:12:29Z</time>
      </trkpt>
      <trkpt lat="48.98684" lon="0.78635">
        <ele>156.5</ele>
        <time>2018-06-17T07:12:31Z</time>
      </trkpt>
      <trkpt lat="48.98691" lon="0.78643">
        <ele>155.800003</ele>
        <time>2018-06-17T07:12:33Z</time>
      </trkpt>
      <trkpt lat="48.987" lon="0.78651">
        <ele>154.5</ele>
        <time>2018-06-17T07:12:35Z</time>
      </trkpt>
      <trkpt lat="48.98709" lon="0.78654">
        <ele>153.199997</ele>
        <time>2018-06-17T07:12:37Z</time>
      </trkpt>
      <trkpt lat="48.98719" lon="0.78656">
        <ele>152.300003</ele>
        <time>2018-06-17T07:12:39Z</time>
      </trkpt>
      <trkpt lat="48.98731" lon="0.78661">
        <ele>151.600006</ele>
        <time>2018-06-17T07:12:41Z</time>
      </trkpt>
      <trkpt lat="48.98742" lon="0.78669">
        <ele>150.800003</ele>
        <time>2018-06-17T07:12:43Z</time>
      </trkpt>
      <trkpt lat="48.98751" lon="0.78679">
        <ele>150.300003</ele>
        <time>2018-06-17T07:12:45Z</time>
      </trkpt>
      <trkpt lat="48.9876" lon="0.78687">
        <ele>149.399994</ele>
        <time>2018-06-17T07:12:47Z</time>
      </trkpt>
      <trkpt lat="48.98769" lon="0.78693">
        <ele>148.699997</ele>
        <time>2018-06-17T07:12:49Z</time>
      </trkpt>
      <trkpt lat="48.98779" lon="0.78696">
        <ele>148.100006</ele>
        <time>2018-06-17T07:12:51Z</time>
      </trkpt>
      <trkpt lat="48.98789" lon="0.78701">
        <ele>147.100006</ele>
        <time>2018-06-17T07:12:53Z</time>
      </trkpt>
      <trkpt lat="48.98796" lon="0.78712">
        <ele>146</ele>
        <time>2018-06-17T07:12:55Z</time>
      </trkpt>
      <trkpt lat="48.98809" lon="0.78721">
        <ele>144.699997</ele>
        <time>2018-06-17T07:12:57Z</time>
      </trkpt>
      <trkpt lat="48.98822" lon="0.78725">
        <ele>143.300003</ele>
        <time>2018-06-17T07:12:59Z</time>
      </trkpt>
      <trkpt lat="48.98836" lon="0.78732">
        <ele>141.800003</ele>
        <time>2018-06-17T07:13:01Z</time>
      </trkpt>
      <trkpt lat="48.98849" lon="0.78734">
        <ele>141</ele>
        <time>2018-06-17T07:13:02Z</time>
      </trkpt>
      <trkpt lat="48.98858" lon="0.78746">
        <ele>139.699997</ele>
        <time>2018-06-17T07:13:04Z</time>
      </trkpt>
      <trkpt lat="48.98868" lon="0.78761">
        <ele>138.699997</ele>
        <time>2018-06-17T07:13:06Z</time>
      </trkpt>
      <trkpt lat="48.98878" lon="0.78776">
        <ele>137.600006</ele>
        <time>2018-06-17T07:13:08Z</time>
      </trkpt>
      <trkpt lat="48.9889" lon="0.78792">
        <ele>136.5</ele>
        <time>2018-06-17T07:13:10Z</time>
      </trkpt>
      <trkpt lat="48.989" lon="0.78808">
        <ele>135.399994</ele>
        <time>2018-06-17T07:13:12Z</time>
      </trkpt>
      <trkpt lat="48.9891" lon="0.78824">
        <ele>134.300003</ele>
        <time>2018-06-17T07:13:14Z</time>
      </trkpt>
      <trkpt lat="48.98917" lon="0.78837">
        <ele>132.899994</ele>
        <time>2018-06-17T07:13:16Z</time>
      </trkpt>
      <trkpt lat="48.98924" lon="0.78851">
        <ele>130.699997</ele>
        <time>2018-06-17T07:13:20Z</time>
      </trkpt>
      <trkpt lat="48.98933" lon="0.78857">
        <ele>129.800003</ele>
        <time>2018-06-17T07:13:23Z</time>
      </trkpt>
      <trkpt lat="48.98948" lon="0.78859">
        <ele>128.899994</ele>
        <time>2018-06-17T07:13:26Z</time>
      </trkpt>
      <trkpt lat="48.98959" lon="0.78859">
        <ele>128.699997</ele>
        <time>2018-06-17T07:13:28Z</time>
      </trkpt>
      <trkpt lat="48.98972" lon="0.7886">
        <ele>128.399994</ele>
        <time>2018-06-17T07:13:30Z</time>
      </trkpt>
      <trkpt lat="48.98985" lon="0.78861">
        <ele>127.400002</ele>
        <time>2018-06-17T07:13:33Z</time>
      </trkpt>
      <trkpt lat="48.98997" lon="0.78865">
        <ele>127.199997</ele>
        <time>2018-06-17T07:13:36Z</time>
      </trkpt>
      <trkpt lat="48.99007" lon="0.78867">
        <ele>127.099998</ele>
        <time>2018-06-17T07:13:38Z</time>
      </trkpt>
      <trkpt lat="48.99018" lon="0.78867">
        <ele>127</ele>
        <time>2018-06-17T07:13:40Z</time>
      </trkpt>
      <trkpt lat="48.99031" lon="0.78869">
        <ele>127</ele>
        <time>2018-06-17T07:13:42Z</time>
      </trkpt>
      <trkpt lat="48.99041" lon="0.78872">
        <ele>126.900002</ele>
        <time>2018-06-17T07:13:44Z</time>
      </trkpt>
      <trkpt lat="48.99054" lon="0.78876">
        <ele>127</ele>
        <time>2018-06-17T07:13:47Z</time>
      </trkpt>
      <trkpt lat="48.99064" lon="0.78875">
        <ele>127.099998</ele>
        <time>2018-06-17T07:13:49Z</time>
      </trkpt>
      <trkpt lat="48.99075" lon="0.78877">
        <ele>127</ele>
        <time>2018-06-17T07:13:51Z</time>
      </trkpt>
      <trkpt lat="48.99088" lon="0.78876">
        <ele>127</ele>
        <time>2018-06-17T07:13:54Z</time>
      </trkpt>
      <trkpt lat="48.99099" lon="0.78875">
        <ele>127</ele>
        <time>2018-06-17T07:13:56Z</time>
      </trkpt>
      <trkpt lat="48.99114" lon="0.78871">
        <ele>126.800003</ele>
        <time>2018-06-17T07:13:59Z</time>
      </trkpt>
      <trkpt lat="48.99129" lon="0.78871">
        <ele>126.5</ele>
        <time>2018-06-17T07:14:01Z</time>
      </trkpt>
      <trkpt lat="48.9914" lon="0.78871">
        <ele>126.599998</ele>
        <time>2018-06-17T07:14:03Z</time>
      </trkpt>
      <trkpt lat="48.99154" lon="0.78873">
        <ele>126.300003</ele>
        <time>2018-06-17T07:14:06Z</time>
      </trkpt>
      <trkpt lat="48.99165" lon="0.78873">
        <ele>126.099998</ele>
        <time>2018-06-17T07:14:08Z</time>
      </trkpt>
      <trkpt lat="48.99179" lon="0.78871">
        <ele>126.099998</ele>
        <time>2018-06-17T07:14:10Z</time>
      </trkpt>
      <trkpt lat="48.99193" lon="0.78868">
        <ele>126.300003</ele>
        <time>2018-06-17T07:14:13Z</time>
      </trkpt>
      <trkpt lat="48.99207" lon="0.7887">
        <ele>126.400002</ele>
        <time>2018-06-17T07:14:15Z</time>
      </trkpt>
      <trkpt lat="48.9922" lon="0.7887">
        <ele>126</ele>
        <time>2018-06-17T07:14:17Z</time>
      </trkpt>
      <trkpt lat="48.99229" lon="0.78874">
        <ele>125.900002</ele>
        <time>2018-06-17T07:14:19Z</time>
      </trkpt>
      <trkpt lat="48.9924" lon="0.78878">
        <ele>125.900002</ele>
        <time>2018-06-17T07:14:21Z</time>
      </trkpt>
      <trkpt lat="48.99254" lon="0.78879">
        <ele>125.900002</ele>
        <time>2018-06-17T07:14:23Z</time>
      </trkpt>
      <trkpt lat="48.99265" lon="0.78881">
        <ele>126.099998</ele>
        <time>2018-06-17T07:14:25Z</time>
      </trkpt>
      <trkpt lat="48.99277" lon="0.78886">
        <ele>126.199997</ele>
        <time>2018-06-17T07:14:27Z</time>
      </trkpt>
      <trkpt lat="48.99289" lon="0.78888">
        <ele>126.199997</ele>
        <time>2018-06-17T07:14:29Z</time>
      </trkpt>
      <trkpt lat="48.993" lon="0.78889">
        <ele>126.199997</ele>
        <time>2018-06-17T07:14:31Z</time>
      </trkpt>
      <trkpt lat="48.99312" lon="0.78891">
        <ele>125.699997</ele>
        <time>2018-06-17T07:14:34Z</time>
      </trkpt>
      <trkpt lat="48.99323" lon="0.78895">
        <ele>125.800003</ele>
        <time>2018-06-17T07:14:36Z</time>
      </trkpt>
      <trkpt lat="48.99337" lon="0.78898">
        <ele>125.5</ele>
        <time>2018-06-17T07:14:38Z</time>
      </trkpt>
      <trkpt lat="48.99349" lon="0.78902">
        <ele>125.099998</ele>
        <time>2018-06-17T07:14:40Z</time>
      </trkpt>
      <trkpt lat="48.99362" lon="0.78905">
        <ele>124.900002</ele>
        <time>2018-06-17T07:14:42Z</time>
      </trkpt>
      <trkpt lat="48.99374" lon="0.78908">
        <ele>124.599998</ele>
        <time>2018-06-17T07:14:44Z</time>
      </trkpt>
      <trkpt lat="48.99386" lon="0.78912">
        <ele>124.300003</ele>
        <time>2018-06-17T07:14:46Z</time>
      </trkpt>
      <trkpt lat="48.99397" lon="0.7892">
        <ele>124.199997</ele>
        <time>2018-06-17T07:14:48Z</time>
      </trkpt>
      <trkpt lat="48.99409" lon="0.78922">
        <ele>124.199997</ele>
        <time>2018-06-17T07:14:50Z</time>
      </trkpt>
      <trkpt lat="48.99419" lon="0.78925">
        <ele>124.199997</ele>
        <time>2018-06-17T07:14:52Z</time>
      </trkpt>
      <trkpt lat="48.99432" lon="0.78929">
        <ele>124</ele>
        <time>2018-06-17T07:14:55Z</time>
      </trkpt>
      <trkpt lat="48.99445" lon="0.78934">
        <ele>123.900002</ele>
        <time>2018-06-17T07:14:58Z</time>
      </trkpt>
      <trkpt lat="48.99454" lon="0.78939">
        <ele>123.800003</ele>
        <time>2018-06-17T07:15:00Z</time>
      </trkpt>
      <trkpt lat="48.99462" lon="0.78945">
        <ele>123.800003</ele>
        <time>2018-06-17T07:15:02Z</time>
      </trkpt>
      <trkpt lat="48.99472" lon="0.78951">
        <ele>123.900002</ele>
        <time>2018-06-17T07:15:04Z</time>
      </trkpt>
      <trkpt lat="48.99483" lon="0.78961">
        <ele>124.199997</ele>
        <time>2018-06-17T07:15:07Z</time>
      </trkpt>
      <trkpt lat="48.99493" lon="0.78973">
        <ele>124.599998</ele>
        <time>2018-06-17T07:15:10Z</time>
      </trkpt>
      <trkpt lat="48.99502" lon="0.78985">
        <ele>124.800003</ele>
        <time>2018-06-17T07:15:13Z</time>
      </trkpt>
      <trkpt lat="48.9951" lon="0.78993">
        <ele>124.599998</ele>
        <time>2018-06-17T07:15:15Z</time>
      </trkpt>
      <trkpt lat="48.99517" lon="0.79001">
        <ele>124.599998</ele>
        <time>2018-06-17T07:15:17Z</time>
      </trkpt>
      <trkpt lat="48.9953" lon="0.79009">
        <ele>124.5</ele>
        <time>2018-06-17T07:15:20Z</time>
      </trkpt>
      <trkpt lat="48.99537" lon="0.79017">
        <ele>124.400002</ele>
        <time>2018-06-17T07:15:22Z</time>
      </trkpt>
      <trkpt lat="48.9954" lon="0.79031">
        <ele>124.300003</ele>
        <time>2018-06-17T07:15:24Z</time>
      </trkpt>
      <trkpt lat="48.99544" lon="0.79044">
        <ele>124.300003</ele>
        <time>2018-06-17T07:15:26Z</time>
      </trkpt>
      <trkpt lat="48.99546" lon="0.79059">
        <ele>124.300003</ele>
        <time>2018-06-17T07:15:28Z</time>
      </trkpt>
      <trkpt lat="48.99548" lon="0.79073">
        <ele>124.400002</ele>
        <time>2018-06-17T07:15:30Z</time>
      </trkpt>
      <trkpt lat="48.99551" lon="0.79088">
        <ele>124.400002</ele>
        <time>2018-06-17T07:15:32Z</time>
      </trkpt>
      <trkpt lat="48.99554" lon="0.79104">
        <ele>124.5</ele>
        <time>2018-06-17T07:15:34Z</time>
      </trkpt>
      <trkpt lat="48.99559" lon="0.79119">
        <ele>124.5</ele>
        <time>2018-06-17T07:15:36Z</time>
      </trkpt>
      <trkpt lat="48.99561" lon="0.79136">
        <ele>124.300003</ele>
        <time>2018-06-17T07:15:38Z</time>
      </trkpt>
      <trkpt lat="48.99564" lon="0.79156">
        <ele>124.300003</ele>
        <time>2018-06-17T07:15:40Z</time>
      </trkpt>
      <trkpt lat="48.99568" lon="0.79175">
        <ele>124.099998</ele>
        <time>2018-06-17T07:15:42Z</time>
      </trkpt>
      <trkpt lat="48.99571" lon="0.79194">
        <ele>124.099998</ele>
        <time>2018-06-17T07:15:44Z</time>
      </trkpt>
      <trkpt lat="48.99572" lon="0.79213">
        <ele>124</ele>
        <time>2018-06-17T07:15:46Z</time>
      </trkpt>
      <trkpt lat="48.99569" lon="0.79231">
        <ele>123.900002</ele>
        <time>2018-06-17T07:15:48Z</time>
      </trkpt>
      <trkpt lat="48.99561" lon="0.79245">
        <ele>123.900002</ele>
        <time>2018-06-17T07:15:50Z</time>
      </trkpt>
      <trkpt lat="48.99551" lon="0.79254">
        <ele>123.800003</ele>
        <time>2018-06-17T07:15:52Z</time>
      </trkpt>
      <trkpt lat="48.9954" lon="0.79264">
        <ele>123.900002</ele>
        <time>2018-06-17T07:15:54Z</time>
      </trkpt>
      <trkpt lat="48.9953" lon="0.79274">
        <ele>123.699997</ele>
        <time>2018-06-17T07:15:56Z</time>
      </trkpt>
      <trkpt lat="48.99521" lon="0.79287">
        <ele>123.699997</ele>
        <time>2018-06-17T07:15:58Z</time>
      </trkpt>
      <trkpt lat="48.99514" lon="0.79302">
        <ele>123.599998</ele>
        <time>2018-06-17T07:16:00Z</time>
      </trkpt>
      <trkpt lat="48.99509" lon="0.7932">
        <ele>123.699997</ele>
        <time>2018-06-17T07:16:02Z</time>
      </trkpt>
      <trkpt lat="48.99506" lon="0.79338">
        <ele>123.900002</ele>
        <time>2018-06-17T07:16:04Z</time>
      </trkpt>
      <trkpt lat="48.99504" lon="0.79356">
        <ele>123.900002</ele>
        <time>2018-06-17T07:16:06Z</time>
      </trkpt>
      <trkpt lat="48.99502" lon="0.79375">
        <ele>123.800003</ele>
        <time>2018-06-17T07:16:08Z</time>
      </trkpt>
      <trkpt lat="48.99501" lon="0.79393">
        <ele>123.800003</ele>
        <time>2018-06-17T07:16:10Z</time>
      </trkpt>
      <trkpt lat="48.99499" lon="0.79412">
        <ele>123.800003</ele>
        <time>2018-06-17T07:16:12Z</time>
      </trkpt>
      <trkpt lat="48.99497" lon="0.79431">
        <ele>123.699997</ele>
        <time>2018-06-17T07:16:14Z</time>
      </trkpt>
      <trkpt lat="48.99495" lon="0.7945">
        <ele>123.900002</ele>
        <time>2018-06-17T07:16:16Z</time>
      </trkpt>
      <trkpt lat="48.99493" lon="0.79469">
        <ele>123.900002</ele>
        <time>2018-06-17T07:16:18Z</time>
      </trkpt>
      <trkpt lat="48.99491" lon="0.79487">
        <ele>124</ele>
        <time>2018-06-17T07:16:20Z</time>
      </trkpt>
      <trkpt lat="48.9949" lon="0.79506">
        <ele>124.099998</ele>
        <time>2018-06-17T07:16:22Z</time>
      </trkpt>
      <trkpt lat="48.99488" lon="0.79525">
        <ele>124.199997</ele>
        <time>2018-06-17T07:16:24Z</time>
      </trkpt>
      <trkpt lat="48.99486" lon="0.79543">
        <ele>124.400002</ele>
        <time>2018-06-17T07:16:26Z</time>
      </trkpt>
      <trkpt lat="48.99485" lon="0.79562">
        <ele>124.5</ele>
        <time>2018-06-17T07:16:28Z</time>
      </trkpt>
      <trkpt lat="48.99483" lon="0.79581">
        <ele>124.5</ele>
        <time>2018-06-17T07:16:30Z</time>
      </trkpt>
      <trkpt lat="48.99481" lon="0.79598">
        <ele>124.800003</ele>
        <time>2018-06-17T07:16:32Z</time>
      </trkpt>
      <trkpt lat="48.99479" lon="0.79616">
        <ele>125.099998</ele>
        <time>2018-06-17T07:16:34Z</time>
      </trkpt>
      <trkpt lat="48.99477" lon="0.79633">
        <ele>125.5</ele>
        <time>2018-06-17T07:16:36Z</time>
      </trkpt>
      <trkpt lat="48.99476" lon="0.7965">
        <ele>125.900002</ele>
        <time>2018-06-17T07:16:38Z</time>
      </trkpt>
      <trkpt lat="48.99474" lon="0.79668">
        <ele>126.400002</ele>
        <time>2018-06-17T07:16:40Z</time>
      </trkpt>
      <trkpt lat="48.99473" lon="0.79686">
        <ele>126.800003</ele>
        <time>2018-06-17T07:16:42Z</time>
      </trkpt>
      <trkpt lat="48.99471" lon="0.79705">
        <ele>127.400002</ele>
        <time>2018-06-17T07:16:44Z</time>
      </trkpt>
      <trkpt lat="48.99469" lon="0.79723">
        <ele>128</ele>
        <time>2018-06-17T07:16:46Z</time>
      </trkpt>
      <trkpt lat="48.99466" lon="0.79741">
        <ele>128.5</ele>
        <time>2018-06-17T07:16:48Z</time>
      </trkpt>
      <trkpt lat="48.99464" lon="0.79759">
        <ele>128.899994</ele>
        <time>2018-06-17T07:16:50Z</time>
      </trkpt>
      <trkpt lat="48.99462" lon="0.79777">
        <ele>129.5</ele>
        <time>2018-06-17T07:16:52Z</time>
      </trkpt>
      <trkpt lat="48.9946" lon="0.79795">
        <ele>130.100006</ele>
        <time>2018-06-17T07:16:54Z</time>
      </trkpt>
      <trkpt lat="48.99459" lon="0.79813">
        <ele>130.600006</ele>
        <time>2018-06-17T07:16:56Z</time>
      </trkpt>
      <trkpt lat="48.99457" lon="0.79831">
        <ele>131.100006</ele>
        <time>2018-06-17T07:16:58Z</time>
      </trkpt>
      <trkpt lat="48.99455" lon="0.79848">
        <ele>131.5</ele>
        <time>2018-06-17T07:17:00Z</time>
      </trkpt>
      <trkpt lat="48.99454" lon="0.79865">
        <ele>132.100006</ele>
        <time>2018-06-17T07:17:02Z</time>
      </trkpt>
      <trkpt lat="48.99452" lon="0.79882">
        <ele>132.699997</ele>
        <time>2018-06-17T07:17:04Z</time>
      </trkpt>
      <trkpt lat="48.99452" lon="0.79899">
        <ele>133.399994</ele>
        <time>2018-06-17T07:17:06Z</time>
      </trkpt>
      <trkpt lat="48.99453" lon="0.79915">
        <ele>133.800003</ele>
        <time>2018-06-17T07:17:08Z</time>
      </trkpt>
      <trkpt lat="48.99455" lon="0.79931">
        <ele>134.199997</ele>
        <time>2018-06-17T07:17:10Z</time>
      </trkpt>
      <trkpt lat="48.99458" lon="0.79946">
        <ele>134.800003</ele>
        <time>2018-06-17T07:17:12Z</time>
      </trkpt>
      <trkpt lat="48.99463" lon="0.7996">
        <ele>135.199997</ele>
        <time>2018-06-17T07:17:14Z</time>
      </trkpt>
      <trkpt lat="48.99469" lon="0.79974">
        <ele>136</ele>
        <time>2018-06-17T07:17:16Z</time>
      </trkpt>
      <trkpt lat="48.99476" lon="0.79985">
        <ele>136.600006</ele>
        <time>2018-06-17T07:17:18Z</time>
      </trkpt>
      <trkpt lat="48.99484" lon="0.79996">
        <ele>137</ele>
        <time>2018-06-17T07:17:20Z</time>
      </trkpt>
      <trkpt lat="48.99491" lon="0.80006">
        <ele>137.300003</ele>
        <time>2018-06-17T07:17:22Z</time>
      </trkpt>
      <trkpt lat="48.99502" lon="0.80016">
        <ele>137.899994</ele>
        <time>2018-06-17T07:17:25Z</time>
      </trkpt>
      <trkpt lat="48.99509" lon="0.80023">
        <ele>138.300003</ele>
        <time>2018-06-17T07:17:27Z</time>
      </trkpt>
      <trkpt lat="48.99516" lon="0.80031">
        <ele>138.800003</ele>
        <time>2018-06-17T07:17:29Z</time>
      </trkpt>
      <trkpt lat="48.99523" lon="0.80043">
        <ele>139.300003</ele>
        <time>2018-06-17T07:17:31Z</time>
      </trkpt>
      <trkpt lat="48.99534" lon="0.80055">
        <ele>140</ele>
        <time>2018-06-17T07:17:34Z</time>
      </trkpt>
      <trkpt lat="48.99544" lon="0.80068">
        <ele>140.600006</ele>
        <time>2018-06-17T07:17:37Z</time>
      </trkpt>
      <trkpt lat="48.99554" lon="0.8008">
        <ele>141.300003</ele>
        <time>2018-06-17T07:17:40Z</time>
      </trkpt>
      <trkpt lat="48.99563" lon="0.80088">
        <ele>141.699997</ele>
        <time>2018-06-17T07:17:42Z</time>
      </trkpt>
      <trkpt lat="48.99572" lon="0.80097">
        <ele>142</ele>
        <time>2018-06-17T07:17:44Z</time>
      </trkpt>
      <trkpt lat="48.9958" lon="0.80108">
        <ele>142.5</ele>
        <time>2018-06-17T07:17:46Z</time>
      </trkpt>
      <trkpt lat="48.99585" lon="0.80123">
        <ele>142.899994</ele>
        <time>2018-06-17T07:17:48Z</time>
      </trkpt>
      <trkpt lat="48.99589" lon="0.80136">
        <ele>143.300003</ele>
        <time>2018-06-17T07:17:50Z</time>
      </trkpt>
      <trkpt lat="48.99599" lon="0.80149">
        <ele>144.100006</ele>
        <time>2018-06-17T07:17:53Z</time>
      </trkpt>
      <trkpt lat="48.99606" lon="0.8016">
        <ele>144.600006</ele>
        <time>2018-06-17T07:17:55Z</time>
      </trkpt>
      <trkpt lat="48.99616" lon="0.80167">
        <ele>145.100006</ele>
        <time>2018-06-17T07:17:57Z</time>
      </trkpt>
      <trkpt lat="48.99627" lon="0.80172">
        <ele>145.699997</ele>
        <time>2018-06-17T07:17:59Z</time>
      </trkpt>
      <trkpt lat="48.99636" lon="0.80177">
        <ele>146.199997</ele>
        <time>2018-06-17T07:18:01Z</time>
      </trkpt>
      <trkpt lat="48.99648" lon="0.80182">
        <ele>146.699997</ele>
        <time>2018-06-17T07:18:04Z</time>
      </trkpt>
      <trkpt lat="48.99656" lon="0.80185">
        <ele>147.100006</ele>
        <time>2018-06-17T07:18:06Z</time>
      </trkpt>
      <trkpt lat="48.99666" lon="0.80188">
        <ele>147.5</ele>
        <time>2018-06-17T07:18:08Z</time>
      </trkpt>
      <trkpt lat="48.99675" lon="0.80192">
        <ele>147.800003</ele>
        <time>2018-06-17T07:18:10Z</time>
      </trkpt>
      <trkpt lat="48.99687" lon="0.80197">
        <ele>148.399994</ele>
        <time>2018-06-17T07:18:13Z</time>
      </trkpt>
      <trkpt lat="48.997" lon="0.80201">
        <ele>149.100006</ele>
        <time>2018-06-17T07:18:16Z</time>
      </trkpt>
      <trkpt lat="48.99711" lon="0.80205">
        <ele>149.600006</ele>
        <time>2018-06-17T07:18:18Z</time>
      </trkpt>
      <trkpt lat="48.99721" lon="0.80212">
        <ele>150.100006</ele>
        <time>2018-06-17T07:18:20Z</time>
      </trkpt>
      <trkpt lat="48.99729" lon="0.80217">
        <ele>150.399994</ele>
        <time>2018-06-17T07:18:22Z</time>
      </trkpt>
      <trkpt lat="48.99739" lon="0.80226">
        <ele>151</ele>
        <time>2018-06-17T07:18:24Z</time>
      </trkpt>
      <trkpt lat="48.99747" lon="0.80238">
        <ele>151.5</ele>
        <time>2018-06-17T07:18:26Z</time>
      </trkpt>
      <trkpt lat="48.99753" lon="0.80249">
        <ele>152</ele>
        <time>2018-06-17T07:18:28Z</time>
      </trkpt>
      <trkpt lat="48.9976" lon="0.8026">
        <ele>152.399994</ele>
        <time>2018-06-17T07:18:30Z</time>
      </trkpt>
      <trkpt lat="48.99765" lon="0.80273">
        <ele>152.800003</ele>
        <time>2018-06-17T07:18:32Z</time>
      </trkpt>
      <trkpt lat="48.99769" lon="0.80285">
        <ele>153.199997</ele>
        <time>2018-06-17T07:18:34Z</time>
      </trkpt>
      <trkpt lat="48.99774" lon="0.80301">
        <ele>153.800003</ele>
        <time>2018-06-17T07:18:37Z</time>
      </trkpt>
      <trkpt lat="48.99776" lon="0.80316">
        <ele>154.5</ele>
        <time>2018-06-17T07:18:40Z</time>
      </trkpt>
      <trkpt lat="48.99778" lon="0.8033">
        <ele>155</ele>
        <time>2018-06-17T07:18:43Z</time>
      </trkpt>
      <trkpt lat="48.99786" lon="0.80344">
        <ele>155.5</ele>
        <time>2018-06-17T07:18:46Z</time>
      </trkpt>
      <trkpt lat="48.99796" lon="0.80354">
        <ele>155.800003</ele>
        <time>2018-06-17T07:18:48Z</time>
      </trkpt>
      <trkpt lat="48.99806" lon="0.80364">
        <ele>156</ele>
        <time>2018-06-17T07:18:50Z</time>
      </trkpt>
      <trkpt lat="48.99816" lon="0.80374">
        <ele>156</ele>
        <time>2018-06-17T07:18:52Z</time>
      </trkpt>
      <trkpt lat="48.99825" lon="0.80384">
        <ele>155.899994</ele>
        <time>2018-06-17T07:18:54Z</time>
      </trkpt>
      <trkpt lat="48.99835" lon="0.80396">
        <ele>155.699997</ele>
        <time>2018-06-17T07:18:56Z</time>
      </trkpt>
      <trkpt lat="48.99846" lon="0.80408">
        <ele>155.600006</ele>
        <time>2018-06-17T07:18:58Z</time>
      </trkpt>
      <trkpt lat="48.99856" lon="0.80421">
        <ele>155.199997</ele>
        <time>2018-06-17T07:19:00Z</time>
      </trkpt>
      <trkpt lat="48.99867" lon="0.80435">
        <ele>154.800003</ele>
        <time>2018-06-17T07:19:02Z</time>
      </trkpt>
      <trkpt lat="48.99877" lon="0.8045">
        <ele>154.5</ele>
        <time>2018-06-17T07:19:04Z</time>
      </trkpt>
      <trkpt lat="48.99887" lon="0.80466">
        <ele>154.300003</ele>
        <time>2018-06-17T07:19:06Z</time>
      </trkpt>
      <trkpt lat="48.99897" lon="0.80482">
        <ele>154.100006</ele>
        <time>2018-06-17T07:19:08Z</time>
      </trkpt>
      <trkpt lat="48.99908" lon="0.80498">
        <ele>153.899994</ele>
        <time>2018-06-17T07:19:10Z</time>
      </trkpt>
      <trkpt lat="48.9992" lon="0.80511">
        <ele>153.800003</ele>
        <time>2018-06-17T07:19:12Z</time>
      </trkpt>
      <trkpt lat="48.99933" lon="0.8052">
        <ele>153.800003</ele>
        <time>2018-06-17T07:19:14Z</time>
      </trkpt>
      <trkpt lat="48.99947" lon="0.80524">
        <ele>153.800003</ele>
        <time>2018-06-17T07:19:16Z</time>
      </trkpt>
      <trkpt lat="48.99961" lon="0.80527">
        <ele>153.800003</ele>
        <time>2018-06-17T07:19:18Z</time>
      </trkpt>
      <trkpt lat="48.99975" lon="0.8053">
        <ele>154</ele>
        <time>2018-06-17T07:19:20Z</time>
      </trkpt>
      <trkpt lat="48.99988" lon="0.80532">
        <ele>154.300003</ele>
        <time>2018-06-17T07:19:22Z</time>
      </trkpt>
      <trkpt lat="49.00001" lon="0.80535">
        <ele>154.600006</ele>
        <time>2018-06-17T07:19:24Z</time>
      </trkpt>
      <trkpt lat="49.00015" lon="0.80538">
        <ele>154.800003</ele>
        <time>2018-06-17T07:19:26Z</time>
      </trkpt>
      <trkpt lat="49.00029" lon="0.80541">
        <ele>155</ele>
        <time>2018-06-17T07:19:28Z</time>
      </trkpt>
      <trkpt lat="49.00044" lon="0.80545">
        <ele>155.100006</ele>
        <time>2018-06-17T07:19:30Z</time>
      </trkpt>
      <trkpt lat="49.00057" lon="0.80551">
        <ele>155.199997</ele>
        <time>2018-06-17T07:19:32Z</time>
      </trkpt>
      <trkpt lat="49.00071" lon="0.80559">
        <ele>155.399994</ele>
        <time>2018-06-17T07:19:34Z</time>
      </trkpt>
      <trkpt lat="49.00083" lon="0.8057">
        <ele>155.5</ele>
        <time>2018-06-17T07:19:36Z</time>
      </trkpt>
      <trkpt lat="49.00095" lon="0.80581">
        <ele>155.5</ele>
        <time>2018-06-17T07:19:38Z</time>
      </trkpt>
      <trkpt lat="49.00108" lon="0.80592">
        <ele>155.5</ele>
        <time>2018-06-17T07:19:40Z</time>
      </trkpt>
      <trkpt lat="49.00121" lon="0.80603">
        <ele>155.699997</ele>
        <time>2018-06-17T07:19:42Z</time>
      </trkpt>
      <trkpt lat="49.00133" lon="0.80613">
        <ele>155.699997</ele>
        <time>2018-06-17T07:19:44Z</time>
      </trkpt>
      <trkpt lat="49.00144" lon="0.80625">
        <ele>155.800003</ele>
        <time>2018-06-17T07:19:46Z</time>
      </trkpt>
      <trkpt lat="49.00155" lon="0.80636">
        <ele>156.100006</ele>
        <time>2018-06-17T07:19:48Z</time>
      </trkpt>
      <trkpt lat="49.00165" lon="0.80639">
        <ele>156</ele>
        <time>2018-06-17T07:19:50Z</time>
      </trkpt>
      <trkpt lat="49.00173" lon="0.80627">
        <ele>156.100006</ele>
        <time>2018-06-17T07:19:52Z</time>
      </trkpt>
      <trkpt lat="49.00179" lon="0.80608">
        <ele>156.199997</ele>
        <time>2018-06-17T07:19:54Z</time>
      </trkpt>
      <trkpt lat="49.00184" lon="0.80589">
        <ele>156.199997</ele>
        <time>2018-06-17T07:19:56Z</time>
      </trkpt>
      <trkpt lat="49.0019" lon="0.80574">
        <ele>156.100006</ele>
        <time>2018-06-17T07:19:58Z</time>
      </trkpt>
      <trkpt lat="49.00202" lon="0.80577">
        <ele>155.600006</ele>
        <time>2018-06-17T07:20:01Z</time>
      </trkpt>
      <trkpt lat="49.00211" lon="0.80585">
        <ele>155.5</ele>
        <time>2018-06-17T07:20:03Z</time>
      </trkpt>
      <trkpt lat="49.00221" lon="0.80594">
        <ele>155.399994</ele>
        <time>2018-06-17T07:20:05Z</time>
      </trkpt>
      <trkpt lat="49.00231" lon="0.80604">
        <ele>155.300003</ele>
        <time>2018-06-17T07:20:07Z</time>
      </trkpt>
      <trkpt lat="49.0024" lon="0.80614">
        <ele>155.300003</ele>
        <time>2018-06-17T07:20:09Z</time>
      </trkpt>
      <trkpt lat="49.0025" lon="0.80622">
        <ele>155.199997</ele>
        <time>2018-06-17T07:20:11Z</time>
      </trkpt>
      <trkpt lat="49.0026" lon="0.80631">
        <ele>155.399994</ele>
        <time>2018-06-17T07:20:13Z</time>
      </trkpt>
      <trkpt lat="49.00269" lon="0.80639">
        <ele>155.600006</ele>
        <time>2018-06-17T07:20:15Z</time>
      </trkpt>
      <trkpt lat="49.00279" lon="0.80647">
        <ele>155.899994</ele>
        <time>2018-06-17T07:20:17Z</time>
      </trkpt>
      <trkpt lat="49.00288" lon="0.80655">
        <ele>156.100006</ele>
        <time>2018-06-17T07:20:19Z</time>
      </trkpt>
      <trkpt lat="49.00297" lon="0.80664">
        <ele>156.399994</ele>
        <time>2018-06-17T07:20:21Z</time>
      </trkpt>
      <trkpt lat="49.00306" lon="0.80672">
        <ele>156.699997</ele>
        <time>2018-06-17T07:20:23Z</time>
      </trkpt>
      <trkpt lat="49.00315" lon="0.80681">
        <ele>156.800003</ele>
        <time>2018-06-17T07:20:25Z</time>
      </trkpt>
      <trkpt lat="49.00325" lon="0.8069">
        <ele>157</ele>
        <time>2018-06-17T07:20:27Z</time>
      </trkpt>
      <trkpt lat="49.00334" lon="0.80698">
        <ele>157.199997</ele>
        <time>2018-06-17T07:20:29Z</time>
      </trkpt>
      <trkpt lat="49.00344" lon="0.80707">
        <ele>157.199997</ele>
        <time>2018-06-17T07:20:31Z</time>
      </trkpt>
      <trkpt lat="49.00353" lon="0.80717">
        <ele>157.300003</ele>
        <time>2018-06-17T07:20:33Z</time>
      </trkpt>
      <trkpt lat="49.00362" lon="0.80728">
        <ele>157.199997</ele>
        <time>2018-06-17T07:20:35Z</time>
      </trkpt>
      <trkpt lat="49.00371" lon="0.80739">
        <ele>157.199997</ele>
        <time>2018-06-17T07:20:37Z</time>
      </trkpt>
      <trkpt lat="49.00381" lon="0.80751">
        <ele>157</ele>
        <time>2018-06-17T07:20:39Z</time>
      </trkpt>
      <trkpt lat="49.00391" lon="0.80763">
        <ele>157</ele>
        <time>2018-06-17T07:20:41Z</time>
      </trkpt>
      <trkpt lat="49.00401" lon="0.80775">
        <ele>157</ele>
        <time>2018-06-17T07:20:43Z</time>
      </trkpt>
      <trkpt lat="49.00411" lon="0.80787">
        <ele>156.600006</ele>
        <time>2018-06-17T07:20:45Z</time>
      </trkpt>
      <trkpt lat="49.00421" lon="0.80799">
        <ele>156.600006</ele>
        <time>2018-06-17T07:20:47Z</time>
      </trkpt>
      <trkpt lat="49.00431" lon="0.80812">
        <ele>156.199997</ele>
        <time>2018-06-17T07:20:49Z</time>
      </trkpt>
      <trkpt lat="49.00441" lon="0.80824">
        <ele>156.100006</ele>
        <time>2018-06-17T07:20:51Z</time>
      </trkpt>
      <trkpt lat="49.0045" lon="0.80834">
        <ele>155.899994</ele>
        <time>2018-06-17T07:20:53Z</time>
      </trkpt>
      <trkpt lat="49.00459" lon="0.80844">
        <ele>155.899994</ele>
        <time>2018-06-17T07:20:55Z</time>
      </trkpt>
      <trkpt lat="49.00468" lon="0.80855">
        <ele>155.800003</ele>
        <time>2018-06-17T07:20:57Z</time>
      </trkpt>
      <trkpt lat="49.00476" lon="0.80865">
        <ele>156</ele>
        <time>2018-06-17T07:20:59Z</time>
      </trkpt>
      <trkpt lat="49.00485" lon="0.80875">
        <ele>156.300003</ele>
        <time>2018-06-17T07:21:01Z</time>
      </trkpt>
      <trkpt lat="49.00493" lon="0.80884">
        <ele>156.699997</ele>
        <time>2018-06-17T07:21:03Z</time>
      </trkpt>
      <trkpt lat="49.00501" lon="0.80894">
        <ele>156.899994</ele>
        <time>2018-06-17T07:21:05Z</time>
      </trkpt>
      <trkpt lat="49.0051" lon="0.80904">
        <ele>157</ele>
        <time>2018-06-17T07:21:07Z</time>
      </trkpt>
      <trkpt lat="49.00519" lon="0.80912">
        <ele>157.100006</ele>
        <time>2018-06-17T07:21:09Z</time>
      </trkpt>
      <trkpt lat="49.00528" lon="0.8092">
        <ele>157.199997</ele>
        <time>2018-06-17T07:21:11Z</time>
      </trkpt>
      <trkpt lat="49.00537" lon="0.80927">
        <ele>157</ele>
        <time>2018-06-17T07:21:13Z</time>
      </trkpt>
      <trkpt lat="49.00546" lon="0.80937">
        <ele>157.199997</ele>
        <time>2018-06-17T07:21:15Z</time>
      </trkpt>
      <trkpt lat="49.00554" lon="0.80945">
        <ele>157.399994</ele>
        <time>2018-06-17T07:21:17Z</time>
      </trkpt>
      <trkpt lat="49.00562" lon="0.80953">
        <ele>157.600006</ele>
        <time>2018-06-17T07:21:19Z</time>
      </trkpt>
      <trkpt lat="49.00573" lon="0.80966">
        <ele>158.199997</ele>
        <time>2018-06-17T07:21:22Z</time>
      </trkpt>
      <trkpt lat="49.00584" lon="0.80976">
        <ele>158.5</ele>
        <time>2018-06-17T07:21:25Z</time>
      </trkpt>
      <trkpt lat="49.00593" lon="0.80987">
        <ele>158.699997</ele>
        <time>2018-06-17T07:21:27Z</time>
      </trkpt>
      <trkpt lat="49.006" lon="0.80997">
        <ele>158.800003</ele>
        <time>2018-06-17T07:21:29Z</time>
      </trkpt>
      <trkpt lat="49.00611" lon="0.81007">
        <ele>158.699997</ele>
        <time>2018-06-17T07:21:31Z</time>
      </trkpt>
      <trkpt lat="49.00622" lon="0.81017">
        <ele>158.800003</ele>
        <time>2018-06-17T07:21:33Z</time>
      </trkpt>
      <trkpt lat="49.00633" lon="0.81025">
        <ele>158.600006</ele>
        <time>2018-06-17T07:21:35Z</time>
      </trkpt>
      <trkpt lat="49.00642" lon="0.8104">
        <ele>157.899994</ele>
        <time>2018-06-17T07:21:38Z</time>
      </trkpt>
      <trkpt lat="49.00654" lon="0.81047">
        <ele>157.5</ele>
        <time>2018-06-17T07:21:40Z</time>
      </trkpt>
      <trkpt lat="49.00663" lon="0.81058">
        <ele>156.699997</ele>
        <time>2018-06-17T07:21:43Z</time>
      </trkpt>
      <trkpt lat="49.00673" lon="0.81064">
        <ele>156.300003</ele>
        <time>2018-06-17T07:21:46Z</time>
      </trkpt>
      <trkpt lat="49.00683" lon="0.81076">
        <ele>155.699997</ele>
        <time>2018-06-17T07:21:49Z</time>
      </trkpt>
      <trkpt lat="49.0069" lon="0.8109">
        <ele>155.300003</ele>
        <time>2018-06-17T07:21:52Z</time>
      </trkpt>
      <trkpt lat="49.00701" lon="0.81104">
        <ele>155</ele>
        <time>2018-06-17T07:21:55Z</time>
      </trkpt>
      <trkpt lat="49.00711" lon="0.81116">
        <ele>154.699997</ele>
        <time>2018-06-17T07:21:58Z</time>
      </trkpt>
      <trkpt lat="49.0072" lon="0.81123">
        <ele>154.600006</ele>
        <time>2018-06-17T07:22:00Z</time>
      </trkpt>
      <trkpt lat="49.0073" lon="0.81132">
        <ele>154.5</ele>
        <time>2018-06-17T07:22:02Z</time>
      </trkpt>
      <trkpt lat="49.0074" lon="0.81139">
        <ele>154.399994</ele>
        <time>2018-06-17T07:22:04Z</time>
      </trkpt>
      <trkpt lat="49.00749" lon="0.81148">
        <ele>154.199997</ele>
        <time>2018-06-17T07:22:06Z</time>
      </trkpt>
      <trkpt lat="49.00757" lon="0.81157">
        <ele>153.800003</ele>
        <time>2018-06-17T07:22:08Z</time>
      </trkpt>
      <trkpt lat="49.00766" lon="0.81168">
        <ele>153.600006</ele>
        <time>2018-06-17T07:22:10Z</time>
      </trkpt>
      <trkpt lat="49.00775" lon="0.81179">
        <ele>153.300003</ele>
        <time>2018-06-17T07:22:13Z</time>
      </trkpt>
      <trkpt lat="49.00783" lon="0.81189">
        <ele>152.800003</ele>
        <time>2018-06-17T07:22:17Z</time>
      </trkpt>
      <trkpt lat="49.00792" lon="0.81197">
        <ele>152.600006</ele>
        <time>2018-06-17T07:22:21Z</time>
      </trkpt>
      <trkpt lat="49.008" lon="0.81206">
        <ele>152.600006</ele>
        <time>2018-06-17T07:22:25Z</time>
      </trkpt>
      <trkpt lat="49.00812" lon="0.81214">
        <ele>152.800003</ele>
        <time>2018-06-17T07:22:29Z</time>
      </trkpt>
      <trkpt lat="49.00821" lon="0.81223">
        <ele>152.800003</ele>
        <time>2018-06-17T07:22:32Z</time>
      </trkpt>
      <trkpt lat="49.0083" lon="0.81234">
        <ele>153</ele>
        <time>2018-06-17T07:22:35Z</time>
      </trkpt>
      <trkpt lat="49.00841" lon="0.81245">
        <ele>153.300003</ele>
        <time>2018-06-17T07:22:38Z</time>
      </trkpt>
      <trkpt lat="49.00848" lon="0.8126">
        <ele>153.800003</ele>
        <time>2018-06-17T07:22:41Z</time>
      </trkpt>
      <trkpt lat="49.00856" lon="0.81271">
        <ele>154.100006</ele>
        <time>2018-06-17T07:22:44Z</time>
      </trkpt>
      <trkpt lat="49.00867" lon="0.81282">
        <ele>154.300003</ele>
        <time>2018-06-17T07:22:47Z</time>
      </trkpt>
      <trkpt lat="49.00874" lon="0.81291">
        <ele>154.5</ele>
        <time>2018-06-17T07:22:49Z</time>
      </trkpt>
      <trkpt lat="49.00881" lon="0.81301">
        <ele>154.699997</ele>
        <time>2018-06-17T07:22:51Z</time>
      </trkpt>
      <trkpt lat="49.00892" lon="0.81315">
        <ele>154.800003</ele>
        <time>2018-06-17T07:22:54Z</time>
      </trkpt>
      <trkpt lat="49.00903" lon="0.81329">
        <ele>155</ele>
        <time>2018-06-17T07:22:57Z</time>
      </trkpt>
      <trkpt lat="49.00909" lon="0.81342">
        <ele>155.199997</ele>
        <time>2018-06-17T07:22:59Z</time>
      </trkpt>
      <trkpt lat="49.00916" lon="0.81353">
        <ele>155.199997</ele>
        <time>2018-06-17T07:23:01Z</time>
      </trkpt>
      <trkpt lat="49.00924" lon="0.81363">
        <ele>155.300003</ele>
        <time>2018-06-17T07:23:03Z</time>
      </trkpt>
      <trkpt lat="49.00929" lon="0.81375">
        <ele>155.199997</ele>
        <time>2018-06-17T07:23:05Z</time>
      </trkpt>
      <trkpt lat="49.00933" lon="0.81388">
        <ele>155.199997</ele>
        <time>2018-06-17T07:23:07Z</time>
      </trkpt>
      <trkpt lat="49.0094" lon="0.81398">
        <ele>155.199997</ele>
        <time>2018-06-17T07:23:09Z</time>
      </trkpt>
      <trkpt lat="49.00951" lon="0.8141">
        <ele>155.199997</ele>
        <time>2018-06-17T07:23:12Z</time>
      </trkpt>
      <trkpt lat="49.00961" lon="0.81415">
        <ele>155.199997</ele>
        <time>2018-06-17T07:23:14Z</time>
      </trkpt>
      <trkpt lat="49.00971" lon="0.81419">
        <ele>155.100006</ele>
        <time>2018-06-17T07:23:16Z</time>
      </trkpt>
      <trkpt lat="49.00982" lon="0.81421">
        <ele>155</ele>
        <time>2018-06-17T07:23:18Z</time>
      </trkpt>
      <trkpt lat="49.00993" lon="0.81418">
        <ele>154.800003</ele>
        <time>2018-06-17T07:23:20Z</time>
      </trkpt>
      <trkpt lat="49.01005" lon="0.81413">
        <ele>154.399994</ele>
        <time>2018-06-17T07:23:22Z</time>
      </trkpt>
      <trkpt lat="49.01016" lon="0.81406">
        <ele>154</ele>
        <time>2018-06-17T07:23:24Z</time>
      </trkpt>
      <trkpt lat="49.01026" lon="0.81399">
        <ele>153.600006</ele>
        <time>2018-06-17T07:23:26Z</time>
      </trkpt>
      <trkpt lat="49.01035" lon="0.81393">
        <ele>153.300003</ele>
        <time>2018-06-17T07:23:28Z</time>
      </trkpt>
      <trkpt lat="49.01046" lon="0.8139">
        <ele>152.199997</ele>
        <time>2018-06-17T07:23:32Z</time>
      </trkpt>
      <trkpt lat="49.01059" lon="0.81388">
        <ele>151.800003</ele>
        <time>2018-06-17T07:23:36Z</time>
      </trkpt>
      <trkpt lat="49.01068" lon="0.81389">
        <ele>151.699997</ele>
        <time>2018-06-17T07:23:40Z</time>
      </trkpt>
      <trkpt lat="49.01078" lon="0.81394">
        <ele>151.399994</ele>
        <time>2018-06-17T07:23:43Z</time>
      </trkpt>
      <trkpt lat="49.01091" lon="0.81401">
        <ele>151.199997</ele>
        <time>2018-06-17T07:23:46Z</time>
      </trkpt>
      <trkpt lat="49.011" lon="0.81407">
        <ele>151.100006</ele>
        <time>2018-06-17T07:23:48Z</time>
      </trkpt>
      <trkpt lat="49.01109" lon="0.81413">
        <ele>150.899994</ele>
        <time>2018-06-17T07:23:50Z</time>
      </trkpt>
      <trkpt lat="49.01119" lon="0.8142">
        <ele>150.899994</ele>
        <time>2018-06-17T07:23:52Z</time>
      </trkpt>
      <trkpt lat="49.01129" lon="0.81427">
        <ele>150.899994</ele>
        <time>2018-06-17T07:23:54Z</time>
      </trkpt>
      <trkpt lat="49.01139" lon="0.81435">
        <ele>150.800003</ele>
        <time>2018-06-17T07:23:56Z</time>
      </trkpt>
      <trkpt lat="49.01149" lon="0.81443">
        <ele>150.5</ele>
        <time>2018-06-17T07:23:58Z</time>
      </trkpt>
      <trkpt lat="49.01158" lon="0.8145">
        <ele>150.100006</ele>
        <time>2018-06-17T07:24:00Z</time>
      </trkpt>
      <trkpt lat="49.01168" lon="0.8146">
        <ele>149.5</ele>
        <time>2018-06-17T07:24:03Z</time>
      </trkpt>
      <trkpt lat="49.01176" lon="0.81467">
        <ele>149.300003</ele>
        <time>2018-06-17T07:24:05Z</time>
      </trkpt>
      <trkpt lat="49.01184" lon="0.81476">
        <ele>148.5</ele>
        <time>2018-06-17T07:24:07Z</time>
      </trkpt>
      <trkpt lat="49.01192" lon="0.81485">
        <ele>148.199997</ele>
        <time>2018-06-17T07:24:09Z</time>
      </trkpt>
      <trkpt lat="49.012" lon="0.81493">
        <ele>147.800003</ele>
        <time>2018-06-17T07:24:11Z</time>
      </trkpt>
      <trkpt lat="49.01209" lon="0.81498">
        <ele>147.300003</ele>
        <time>2018-06-17T07:24:13Z</time>
      </trkpt>
      <trkpt lat="49.01218" lon="0.81502">
        <ele>146.699997</ele>
        <time>2018-06-17T07:24:15Z</time>
      </trkpt>
      <trkpt lat="49.01227" lon="0.81504">
        <ele>146.300003</ele>
        <time>2018-06-17T07:24:17Z</time>
      </trkpt>
      <trkpt lat="49.01238" lon="0.81507">
        <ele>145.800003</ele>
        <time>2018-06-17T07:24:20Z</time>
      </trkpt>
      <trkpt lat="49.01248" lon="0.81507">
        <ele>145.199997</ele>
        <time>2018-06-17T07:24:23Z</time>
      </trkpt>
      <trkpt lat="49.01247" lon="0.81521">
        <ele>144.699997</ele>
        <time>2018-06-17T07:24:28Z</time>
      </trkpt>
      <trkpt lat="49.01244" lon="0.81537">
        <ele>144.699997</ele>
        <time>2018-06-17T07:24:32Z</time>
      </trkpt>
      <trkpt lat="49.01241" lon="0.81557">
        <ele>145.100006</ele>
        <time>2018-06-17T07:24:36Z</time>
      </trkpt>
      <trkpt lat="49.01239" lon="0.81571">
        <ele>145.399994</ele>
        <time>2018-06-17T07:24:38Z</time>
      </trkpt>
      <trkpt lat="49.01238" lon="0.81587">
        <ele>145.800003</ele>
        <time>2018-06-17T07:24:40Z</time>
      </trkpt>
      <trkpt lat="49.01236" lon="0.81606">
        <ele>146.100006</ele>
        <time>2018-06-17T07:24:42Z</time>
      </trkpt>
      <trkpt lat="49.01234" lon="0.81623">
        <ele>146.699997</ele>
        <time>2018-06-17T07:24:44Z</time>
      </trkpt>
      <trkpt lat="49.01235" lon="0.81637">
        <ele>147.100006</ele>
        <time>2018-06-17T07:24:46Z</time>
      </trkpt>
      <trkpt lat="49.01236" lon="0.81651">
        <ele>147.399994</ele>
        <time>2018-06-17T07:24:48Z</time>
      </trkpt>
      <trkpt lat="49.01236" lon="0.81668">
        <ele>147.600006</ele>
        <time>2018-06-17T07:24:50Z</time>
      </trkpt>
      <trkpt lat="49.01234" lon="0.81683">
        <ele>147.5</ele>
        <time>2018-06-17T07:24:52Z</time>
      </trkpt>
      <trkpt lat="49.0123" lon="0.817">
        <ele>147.600006</ele>
        <time>2018-06-17T07:24:54Z</time>
      </trkpt>
      <trkpt lat="49.0123" lon="0.81715">
        <ele>147.600006</ele>
        <time>2018-06-17T07:24:56Z</time>
      </trkpt>
      <trkpt lat="49.01232" lon="0.81729">
        <ele>147.699997</ele>
        <time>2018-06-17T07:24:58Z</time>
      </trkpt>
      <trkpt lat="49.01234" lon="0.81746">
        <ele>148.399994</ele>
        <time>2018-06-17T07:25:01Z</time>
      </trkpt>
      <trkpt lat="49.01237" lon="0.81767">
        <ele>149</ele>
        <time>2018-06-17T07:25:04Z</time>
      </trkpt>
      <trkpt lat="49.01234" lon="0.81789">
        <ele>149.800003</ele>
        <time>2018-06-17T07:25:07Z</time>
      </trkpt>
      <trkpt lat="49.01233" lon="0.81803">
        <ele>150.199997</ele>
        <time>2018-06-17T07:25:09Z</time>
      </trkpt>
      <trkpt lat="49.0123" lon="0.81823">
        <ele>150.5</ele>
        <time>2018-06-17T07:25:12Z</time>
      </trkpt>
      <trkpt lat="49.01227" lon="0.8184">
        <ele>151.100006</ele>
        <time>2018-06-17T07:25:14Z</time>
      </trkpt>
      <trkpt lat="49.01223" lon="0.81857">
        <ele>151.5</ele>
        <time>2018-06-17T07:25:16Z</time>
      </trkpt>
      <trkpt lat="49.0122" lon="0.81872">
        <ele>151.899994</ele>
        <time>2018-06-17T07:25:18Z</time>
      </trkpt>
      <trkpt lat="49.01218" lon="0.81886">
        <ele>152</ele>
        <time>2018-06-17T07:25:20Z</time>
      </trkpt>
      <trkpt lat="49.01216" lon="0.81906">
        <ele>152.5</ele>
        <time>2018-06-17T07:25:23Z</time>
      </trkpt>
      <trkpt lat="49.01213" lon="0.81927">
        <ele>152.699997</ele>
        <time>2018-06-17T07:25:26Z</time>
      </trkpt>
      <trkpt lat="49.01213" lon="0.8195">
        <ele>152.800003</ele>
        <time>2018-06-17T07:25:29Z</time>
      </trkpt>
      <trkpt lat="49.01209" lon="0.81966">
        <ele>152.899994</ele>
        <time>2018-06-17T07:25:31Z</time>
      </trkpt>
      <trkpt lat="49.01205" lon="0.81982">
        <ele>153</ele>
        <time>2018-06-17T07:25:33Z</time>
      </trkpt>
      <trkpt lat="49.012" lon="0.81997">
        <ele>153.100006</ele>
        <time>2018-06-17T07:25:35Z</time>
      </trkpt>
      <trkpt lat="49.01194" lon="0.82014">
        <ele>153.199997</ele>
        <time>2018-06-17T07:25:37Z</time>
      </trkpt>
      <trkpt lat="49.01189" lon="0.8203">
        <ele>153.300003</ele>
        <time>2018-06-17T07:25:39Z</time>
      </trkpt>
      <trkpt lat="49.01184" lon="0.82046">
        <ele>153.399994</ele>
        <time>2018-06-17T07:25:41Z</time>
      </trkpt>
      <trkpt lat="49.01179" lon="0.82063">
        <ele>153.5</ele>
        <time>2018-06-17T07:25:43Z</time>
      </trkpt>
      <trkpt lat="49.01174" lon="0.82079">
        <ele>153.800003</ele>
        <time>2018-06-17T07:25:45Z</time>
      </trkpt>
      <trkpt lat="49.01168" lon="0.82095">
        <ele>154</ele>
        <time>2018-06-17T07:25:47Z</time>
      </trkpt>
      <trkpt lat="49.01163" lon="0.82109">
        <ele>154.199997</ele>
        <time>2018-06-17T07:25:49Z</time>
      </trkpt>
      <trkpt lat="49.01157" lon="0.8212">
        <ele>154.300003</ele>
        <time>2018-06-17T07:25:51Z</time>
      </trkpt>
      <trkpt lat="49.0115" lon="0.82134">
        <ele>154.300003</ele>
        <time>2018-06-17T07:25:53Z</time>
      </trkpt>
      <trkpt lat="49.01143" lon="0.82148">
        <ele>154.300003</ele>
        <time>2018-06-17T07:25:55Z</time>
      </trkpt>
      <trkpt lat="49.01137" lon="0.82162">
        <ele>154.399994</ele>
        <time>2018-06-17T07:25:57Z</time>
      </trkpt>
      <trkpt lat="49.01132" lon="0.82178">
        <ele>154.399994</ele>
        <time>2018-06-17T07:25:59Z</time>
      </trkpt>
      <trkpt lat="49.01128" lon="0.82195">
        <ele>154.399994</ele>
        <time>2018-06-17T07:26:01Z</time>
      </trkpt>
      <trkpt lat="49.01128" lon="0.82213">
        <ele>154.5</ele>
        <time>2018-06-17T07:26:03Z</time>
      </trkpt>
      <trkpt lat="49.01127" lon="0.82232">
        <ele>154.600006</ele>
        <time>2018-06-17T07:26:05Z</time>
      </trkpt>
      <trkpt lat="49.01127" lon="0.8225">
        <ele>154.800003</ele>
        <time>2018-06-17T07:26:07Z</time>
      </trkpt>
      <trkpt lat="49.01128" lon="0.82269">
        <ele>154.800003</ele>
        <time>2018-06-17T07:26:09Z</time>
      </trkpt>
      <trkpt lat="49.01128" lon="0.82288">
        <ele>155</ele>
        <time>2018-06-17T07:26:11Z</time>
      </trkpt>
      <trkpt lat="49.01128" lon="0.82307">
        <ele>155.100006</ele>
        <time>2018-06-17T07:26:13Z</time>
      </trkpt>
      <trkpt lat="49.01127" lon="0.82326">
        <ele>155.199997</ele>
        <time>2018-06-17T07:26:15Z</time>
      </trkpt>
      <trkpt lat="49.01128" lon="0.82345">
        <ele>155.399994</ele>
        <time>2018-06-17T07:26:17Z</time>
      </trkpt>
      <trkpt lat="49.01128" lon="0.82364">
        <ele>155.5</ele>
        <time>2018-06-17T07:26:19Z</time>
      </trkpt>
      <trkpt lat="49.01129" lon="0.82384">
        <ele>155.5</ele>
        <time>2018-06-17T07:26:21Z</time>
      </trkpt>
      <trkpt lat="49.0113" lon="0.82403">
        <ele>155.5</ele>
        <time>2018-06-17T07:26:23Z</time>
      </trkpt>
      <trkpt lat="49.01131" lon="0.82424">
        <ele>155.5</ele>
        <time>2018-06-17T07:26:25Z</time>
      </trkpt>
      <trkpt lat="49.0113" lon="0.82444">
        <ele>155.399994</ele>
        <time>2018-06-17T07:26:27Z</time>
      </trkpt>
      <trkpt lat="49.01129" lon="0.82464">
        <ele>155.699997</ele>
        <time>2018-06-17T07:26:29Z</time>
      </trkpt>
      <trkpt lat="49.01126" lon="0.82484">
        <ele>155.600006</ele>
        <time>2018-06-17T07:26:31Z</time>
      </trkpt>
      <trkpt lat="49.01124" lon="0.82505">
        <ele>155.5</ele>
        <time>2018-06-17T07:26:33Z</time>
      </trkpt>
      <trkpt lat="49.01122" lon="0.82525">
        <ele>155.5</ele>
        <time>2018-06-17T07:26:35Z</time>
      </trkpt>
      <trkpt lat="49.01119" lon="0.82546">
        <ele>155.399994</ele>
        <time>2018-06-17T07:26:37Z</time>
      </trkpt>
      <trkpt lat="49.01116" lon="0.82566">
        <ele>155.5</ele>
        <time>2018-06-17T07:26:39Z</time>
      </trkpt>
      <trkpt lat="49.01114" lon="0.82587">
        <ele>155.300003</ele>
        <time>2018-06-17T07:26:41Z</time>
      </trkpt>
      <trkpt lat="49.01111" lon="0.82608">
        <ele>155.300003</ele>
        <time>2018-06-17T07:26:43Z</time>
      </trkpt>
      <trkpt lat="49.01109" lon="0.8263">
        <ele>155.199997</ele>
        <time>2018-06-17T07:26:45Z</time>
      </trkpt>
      <trkpt lat="49.01107" lon="0.82652">
        <ele>155.100006</ele>
        <time>2018-06-17T07:26:47Z</time>
      </trkpt>
      <trkpt lat="49.01106" lon="0.82674">
        <ele>155.199997</ele>
        <time>2018-06-17T07:26:49Z</time>
      </trkpt>
      <trkpt lat="49.01104" lon="0.82696">
        <ele>155.199997</ele>
        <time>2018-06-17T07:26:51Z</time>
      </trkpt>
      <trkpt lat="49.01103" lon="0.82717">
        <ele>155.300003</ele>
        <time>2018-06-17T07:26:53Z</time>
      </trkpt>
      <trkpt lat="49.01101" lon="0.82739">
        <ele>155.199997</ele>
        <time>2018-06-17T07:26:55Z</time>
      </trkpt>
      <trkpt lat="49.011" lon="0.82761">
        <ele>155.300003</ele>
        <time>2018-06-17T07:26:57Z</time>
      </trkpt>
      <trkpt lat="49.01098" lon="0.82783">
        <ele>155.199997</ele>
        <time>2018-06-17T07:26:59Z</time>
      </trkpt>
      <trkpt lat="49.01096" lon="0.82805">
        <ele>155.300003</ele>
        <time>2018-06-17T07:27:01Z</time>
      </trkpt>
      <trkpt lat="49.01095" lon="0.82826">
        <ele>155.300003</ele>
        <time>2018-06-17T07:27:03Z</time>
      </trkpt>
      <trkpt lat="49.01093" lon="0.82848">
        <ele>155.300003</ele>
        <time>2018-06-17T07:27:05Z</time>
      </trkpt>
      <trkpt lat="49.01091" lon="0.82871">
        <ele>155.300003</ele>
        <time>2018-06-17T07:27:07Z</time>
      </trkpt>
      <trkpt lat="49.01088" lon="0.82891">
        <ele>155.199997</ele>
        <time>2018-06-17T07:27:09Z</time>
      </trkpt>
      <trkpt lat="49.01079" lon="0.82896">
        <ele>154.800003</ele>
        <time>2018-06-17T07:27:16Z</time>
      </trkpt>
      <trkpt lat="49.01068" lon="0.82893">
        <ele>154.800003</ele>
        <time>2018-06-17T07:27:21Z</time>
      </trkpt>
      <trkpt lat="49.01059" lon="0.82891">
        <ele>154.699997</ele>
        <time>2018-06-17T07:27:24Z</time>
      </trkpt>
      <trkpt lat="49.01048" lon="0.82889">
        <ele>154.800003</ele>
        <time>2018-06-17T07:27:27Z</time>
      </trkpt>
      <trkpt lat="49.01037" lon="0.82886">
        <ele>154.699997</ele>
        <time>2018-06-17T07:27:30Z</time>
      </trkpt>
      <trkpt lat="49.01025" lon="0.82884">
        <ele>155</ele>
        <time>2018-06-17T07:27:33Z</time>
      </trkpt>
      <trkpt lat="49.01013" lon="0.82881">
        <ele>154.899994</ele>
        <time>2018-06-17T07:27:36Z</time>
      </trkpt>
      <trkpt lat="49.01001" lon="0.82878">
        <ele>155</ele>
        <time>2018-06-17T07:27:39Z</time>
      </trkpt>
      <trkpt lat="49.00989" lon="0.82876">
        <ele>155.199997</ele>
        <time>2018-06-17T07:27:42Z</time>
      </trkpt>
      <trkpt lat="49.00978" lon="0.82873">
        <ele>155.300003</ele>
        <time>2018-06-17T07:27:45Z</time>
      </trkpt>
      <trkpt lat="49.00966" lon="0.82871">
        <ele>155.300003</ele>
        <time>2018-06-17T07:27:48Z</time>
      </trkpt>
      <trkpt lat="49.00954" lon="0.82868">
        <ele>155.199997</ele>
        <time>2018-06-17T07:27:51Z</time>
      </trkpt>
      <trkpt lat="49.00943" lon="0.82866">
        <ele>155.399994</ele>
        <time>2018-06-17T07:27:54Z</time>
      </trkpt>
      <trkpt lat="49.00931" lon="0.82864">
        <ele>155.300003</ele>
        <time>2018-06-17T07:27:57Z</time>
      </trkpt>
      <trkpt lat="49.0092" lon="0.82862">
        <ele>155.600006</ele>
        <time>2018-06-17T07:28:00Z</time>
      </trkpt>
      <trkpt lat="49.00908" lon="0.82858">
        <ele>155.800003</ele>
        <time>2018-06-17T07:28:03Z</time>
      </trkpt>
      <trkpt lat="49.00895" lon="0.82856">
        <ele>155.899994</ele>
        <time>2018-06-17T07:28:06Z</time>
      </trkpt>
      <trkpt lat="49.00883" lon="0.82854">
        <ele>155.899994</ele>
        <time>2018-06-17T07:28:09Z</time>
      </trkpt>
      <trkpt lat="49.00871" lon="0.82851">
        <ele>155.899994</ele>
        <time>2018-06-17T07:28:12Z</time>
      </trkpt>
      <trkpt lat="49.0086" lon="0.8285">
        <ele>156</ele>
        <time>2018-06-17T07:28:15Z</time>
      </trkpt>
      <trkpt lat="49.00849" lon="0.82848">
        <ele>156.399994</ele>
        <time>2018-06-17T07:28:18Z</time>
      </trkpt>
      <trkpt lat="49.00837" lon="0.82845">
        <ele>156.600006</ele>
        <time>2018-06-17T07:28:21Z</time>
      </trkpt>
      <trkpt lat="49.00827" lon="0.82843">
        <ele>156.600006</ele>
        <time>2018-06-17T07:28:24Z</time>
      </trkpt>
      <trkpt lat="49.00816" lon="0.82841">
        <ele>156.699997</ele>
        <time>2018-06-17T07:28:27Z</time>
      </trkpt>
      <trkpt lat="49.00806" lon="0.82839">
        <ele>156.600006</ele>
        <time>2018-06-17T07:28:30Z</time>
      </trkpt>
      <trkpt lat="49.00795" lon="0.82836">
        <ele>156.699997</ele>
        <time>2018-06-17T07:28:33Z</time>
      </trkpt>
      <trkpt lat="49.00784" lon="0.82835">
        <ele>156.899994</ele>
        <time>2018-06-17T07:28:36Z</time>
      </trkpt>
      <trkpt lat="49.00773" lon="0.82832">
        <ele>156.800003</ele>
        <time>2018-06-17T07:28:39Z</time>
      </trkpt>
      <trkpt lat="49.00762" lon="0.8283">
        <ele>156.800003</ele>
        <time>2018-06-17T07:28:42Z</time>
      </trkpt>
      <trkpt lat="49.00751" lon="0.82829">
        <ele>157</ele>
        <time>2018-06-17T07:28:45Z</time>
      </trkpt>
      <trkpt lat="49.0074" lon="0.82828">
        <ele>157.199997</ele>
        <time>2018-06-17T07:28:48Z</time>
      </trkpt>
      <trkpt lat="49.00728" lon="0.82827">
        <ele>157.5</ele>
        <time>2018-06-17T07:28:51Z</time>
      </trkpt>
      <trkpt lat="49.00717" lon="0.82824">
        <ele>157.800003</ele>
        <time>2018-06-17T07:28:54Z</time>
      </trkpt>
      <trkpt lat="49.00706" lon="0.82822">
        <ele>158.100006</ele>
        <time>2018-06-17T07:28:57Z</time>
      </trkpt>
      <trkpt lat="49.00696" lon="0.82821">
        <ele>158.100006</ele>
        <time>2018-06-17T07:29:00Z</time>
      </trkpt>
      <trkpt lat="49.00686" lon="0.82819">
        <ele>158</ele>
        <time>2018-06-17T07:29:03Z</time>
      </trkpt>
      <trkpt lat="49.00676" lon="0.82818">
        <ele>158</ele>
        <time>2018-06-17T07:29:06Z</time>
      </trkpt>
      <trkpt lat="49.00665" lon="0.82817">
        <ele>158</ele>
        <time>2018-06-17T07:29:09Z</time>
      </trkpt>
      <trkpt lat="49.00655" lon="0.82814">
        <ele>158.100006</ele>
        <time>2018-06-17T07:29:12Z</time>
      </trkpt>
      <trkpt lat="49.00644" lon="0.82813">
        <ele>158.199997</ele>
        <time>2018-06-17T07:29:15Z</time>
      </trkpt>
      <trkpt lat="49.00633" lon="0.82811">
        <ele>158.100006</ele>
        <time>2018-06-17T07:29:18Z</time>
      </trkpt>
      <trkpt lat="49.00622" lon="0.8281">
        <ele>158.100006</ele>
        <time>2018-06-17T07:29:21Z</time>
      </trkpt>
      <trkpt lat="49.0061" lon="0.82808">
        <ele>158.100006</ele>
        <time>2018-06-17T07:29:24Z</time>
      </trkpt>
      <trkpt lat="49.00599" lon="0.82805">
        <ele>158.300003</ele>
        <time>2018-06-17T07:29:27Z</time>
      </trkpt>
      <trkpt lat="49.00588" lon="0.82803">
        <ele>158.399994</ele>
        <time>2018-06-17T07:29:30Z</time>
      </trkpt>
      <trkpt lat="49.00576" lon="0.828">
        <ele>158.5</ele>
        <time>2018-06-17T07:29:33Z</time>
      </trkpt>
      <trkpt lat="49.00566" lon="0.828">
        <ele>158.399994</ele>
        <time>2018-06-17T07:29:36Z</time>
      </trkpt>
      <trkpt lat="49.00559" lon="0.82812">
        <ele>158.100006</ele>
        <time>2018-06-17T07:29:39Z</time>
      </trkpt>
      <trkpt lat="49.00548" lon="0.82817">
        <ele>158.199997</ele>
        <time>2018-06-17T07:29:42Z</time>
      </trkpt>
      <trkpt lat="49.00535" lon="0.82813">
        <ele>158.300003</ele>
        <time>2018-06-17T07:29:45Z</time>
      </trkpt>
      <trkpt lat="49.00526" lon="0.8281">
        <ele>158.399994</ele>
        <time>2018-06-17T07:29:47Z</time>
      </trkpt>
      <trkpt lat="49.00516" lon="0.82806">
        <ele>158.5</ele>
        <time>2018-06-17T07:29:49Z</time>
      </trkpt>
      <trkpt lat="49.00506" lon="0.82803">
        <ele>158.800003</ele>
        <time>2018-06-17T07:29:51Z</time>
      </trkpt>
      <trkpt lat="49.00497" lon="0.828">
        <ele>159</ele>
        <time>2018-06-17T07:29:53Z</time>
      </trkpt>
      <trkpt lat="49.00486" lon="0.82794">
        <ele>159.199997</ele>
        <time>2018-06-17T07:29:56Z</time>
      </trkpt>
      <trkpt lat="49.00475" lon="0.82789">
        <ele>159.199997</ele>
        <time>2018-06-17T07:29:59Z</time>
      </trkpt>
      <trkpt lat="49.00461" lon="0.82788">
        <ele>159.300003</ele>
        <time>2018-06-17T07:30:02Z</time>
      </trkpt>
      <trkpt lat="49.0045" lon="0.82787">
        <ele>159.300003</ele>
        <time>2018-06-17T07:30:04Z</time>
      </trkpt>
      <trkpt lat="49.00439" lon="0.82785">
        <ele>159.600006</ele>
        <time>2018-06-17T07:30:06Z</time>
      </trkpt>
      <trkpt lat="49.00428" lon="0.82783">
        <ele>159.699997</ele>
        <time>2018-06-17T07:30:08Z</time>
      </trkpt>
      <trkpt lat="49.00417" lon="0.82782">
        <ele>159.800003</ele>
        <time>2018-06-17T07:30:10Z</time>
      </trkpt>
      <trkpt lat="49.00405" lon="0.82781">
        <ele>160</ele>
        <time>2018-06-17T07:30:12Z</time>
      </trkpt>
      <trkpt lat="49.00394" lon="0.82779">
        <ele>160.199997</ele>
        <time>2018-06-17T07:30:14Z</time>
      </trkpt>
      <trkpt lat="49.00383" lon="0.82778">
        <ele>160.100006</ele>
        <time>2018-06-17T07:30:16Z</time>
      </trkpt>
      <trkpt lat="49.00372" lon="0.82777">
        <ele>160.100006</ele>
        <time>2018-06-17T07:30:18Z</time>
      </trkpt>
      <trkpt lat="49.00362" lon="0.82775">
        <ele>160</ele>
        <time>2018-06-17T07:30:20Z</time>
      </trkpt>
      <trkpt lat="49.00353" lon="0.82773">
        <ele>159.800003</ele>
        <time>2018-06-17T07:30:22Z</time>
      </trkpt>
      <trkpt lat="49.00343" lon="0.82771">
        <ele>160</ele>
        <time>2018-06-17T07:30:24Z</time>
      </trkpt>
      <trkpt lat="49.00333" lon="0.82769">
        <ele>160.300003</ele>
        <time>2018-06-17T07:30:26Z</time>
      </trkpt>
      <trkpt lat="49.00323" lon="0.82768">
        <ele>160.399994</ele>
        <time>2018-06-17T07:30:28Z</time>
      </trkpt>
      <trkpt lat="49.00313" lon="0.82767">
        <ele>160.399994</ele>
        <time>2018-06-17T07:30:30Z</time>
      </trkpt>
      <trkpt lat="49.00302" lon="0.82765">
        <ele>160.5</ele>
        <time>2018-06-17T07:30:32Z</time>
      </trkpt>
      <trkpt lat="49.00292" lon="0.82764">
        <ele>160.699997</ele>
        <time>2018-06-17T07:30:34Z</time>
      </trkpt>
      <trkpt lat="49.00281" lon="0.82762">
        <ele>160.699997</ele>
        <time>2018-06-17T07:30:36Z</time>
      </trkpt>
      <trkpt lat="49.0027" lon="0.82761">
        <ele>160.600006</ele>
        <time>2018-06-17T07:30:38Z</time>
      </trkpt>
      <trkpt lat="49.00259" lon="0.82759">
        <ele>160.699997</ele>
        <time>2018-06-17T07:30:40Z</time>
      </trkpt>
      <trkpt lat="49.00249" lon="0.82758">
        <ele>160.800003</ele>
        <time>2018-06-17T07:30:42Z</time>
      </trkpt>
      <trkpt lat="49.00238" lon="0.82756">
        <ele>160.899994</ele>
        <time>2018-06-17T07:30:44Z</time>
      </trkpt>
      <trkpt lat="49.00227" lon="0.82754">
        <ele>160.800003</ele>
        <time>2018-06-17T07:30:46Z</time>
      </trkpt>
      <trkpt lat="49.00216" lon="0.82753">
        <ele>160.699997</ele>
        <time>2018-06-17T07:30:48Z</time>
      </trkpt>
      <trkpt lat="49.00205" lon="0.82752">
        <ele>160.800003</ele>
        <time>2018-06-17T07:30:50Z</time>
      </trkpt>
      <trkpt lat="49.00195" lon="0.82751">
        <ele>161</ele>
        <time>2018-06-17T07:30:52Z</time>
      </trkpt>
      <trkpt lat="49.00184" lon="0.82749">
        <ele>161.199997</ele>
        <time>2018-06-17T07:30:54Z</time>
      </trkpt>
      <trkpt lat="49.00173" lon="0.82748">
        <ele>161.300003</ele>
        <time>2018-06-17T07:30:56Z</time>
      </trkpt>
      <trkpt lat="49.00163" lon="0.82746">
        <ele>161.199997</ele>
        <time>2018-06-17T07:30:58Z</time>
      </trkpt>
      <trkpt lat="49.00152" lon="0.82745">
        <ele>161</ele>
        <time>2018-06-17T07:31:00Z</time>
      </trkpt>
      <trkpt lat="49.00142" lon="0.82744">
        <ele>160.899994</ele>
        <time>2018-06-17T07:31:02Z</time>
      </trkpt>
      <trkpt lat="49.00131" lon="0.82742">
        <ele>161.100006</ele>
        <time>2018-06-17T07:31:04Z</time>
      </trkpt>
      <trkpt lat="49.00121" lon="0.82741">
        <ele>161.199997</ele>
        <time>2018-06-17T07:31:06Z</time>
      </trkpt>
      <trkpt lat="49.0011" lon="0.8274">
        <ele>161.5</ele>
        <time>2018-06-17T07:31:08Z</time>
      </trkpt>
      <trkpt lat="49.00101" lon="0.82739">
        <ele>161.699997</ele>
        <time>2018-06-17T07:31:10Z</time>
      </trkpt>
      <trkpt lat="49.00091" lon="0.82738">
        <ele>161.300003</ele>
        <time>2018-06-17T07:31:12Z</time>
      </trkpt>
      <trkpt lat="49.00081" lon="0.82737">
        <ele>161.100006</ele>
        <time>2018-06-17T07:31:14Z</time>
      </trkpt>
      <trkpt lat="49.00071" lon="0.82735">
        <ele>161.199997</ele>
        <time>2018-06-17T07:31:16Z</time>
      </trkpt>
      <trkpt lat="49.00059" lon="0.82734">
        <ele>161.300003</ele>
        <time>2018-06-17T07:31:19Z</time>
      </trkpt>
      <trkpt lat="49.00051" lon="0.82725">
        <ele>161.399994</ele>
        <time>2018-06-17T07:31:22Z</time>
      </trkpt>
      <trkpt lat="49.00046" lon="0.82708">
        <ele>161.399994</ele>
        <time>2018-06-17T07:31:25Z</time>
      </trkpt>
      <trkpt lat="49.0004" lon="0.8269">
        <ele>161.399994</ele>
        <time>2018-06-17T07:31:28Z</time>
      </trkpt>
      <trkpt lat="49.00035" lon="0.82677">
        <ele>161.5</ele>
        <time>2018-06-17T07:31:30Z</time>
      </trkpt>
      <trkpt lat="49.0003" lon="0.82663">
        <ele>161.5</ele>
        <time>2018-06-17T07:31:32Z</time>
      </trkpt>
      <trkpt lat="49.00025" lon="0.8265">
        <ele>161.699997</ele>
        <time>2018-06-17T07:31:34Z</time>
      </trkpt>
      <trkpt lat="49.0002" lon="0.82637">
        <ele>161.800003</ele>
        <time>2018-06-17T07:31:36Z</time>
      </trkpt>
      <trkpt lat="49.00015" lon="0.82623">
        <ele>161.800003</ele>
        <time>2018-06-17T07:31:38Z</time>
      </trkpt>
      <trkpt lat="49.0001" lon="0.8261">
        <ele>162</ele>
        <time>2018-06-17T07:31:40Z</time>
      </trkpt>
      <trkpt lat="49.00005" lon="0.82596">
        <ele>162.199997</ele>
        <time>2018-06-17T07:31:42Z</time>
      </trkpt>
      <trkpt lat="49" lon="0.82582">
        <ele>162.199997</ele>
        <time>2018-06-17T07:31:44Z</time>
      </trkpt>
      <trkpt lat="48.99995" lon="0.82569">
        <ele>162.199997</ele>
        <time>2018-06-17T07:31:46Z</time>
      </trkpt>
      <trkpt lat="48.9999" lon="0.82556">
        <ele>162.100006</ele>
        <time>2018-06-17T07:31:48Z</time>
      </trkpt>
      <trkpt lat="48.99982" lon="0.8254">
        <ele>162.199997</ele>
        <time>2018-06-17T07:31:51Z</time>
      </trkpt>
      <trkpt lat="48.99972" lon="0.82528">
        <ele>162</ele>
        <time>2018-06-17T07:31:54Z</time>
      </trkpt>
      <trkpt lat="48.99962" lon="0.82519">
        <ele>162.199997</ele>
        <time>2018-06-17T07:31:57Z</time>
      </trkpt>
      <trkpt lat="48.9995" lon="0.82509">
        <ele>162.399994</ele>
        <time>2018-06-17T07:32:00Z</time>
      </trkpt>
      <trkpt lat="48.99941" lon="0.82504">
        <ele>162.5</ele>
        <time>2018-06-17T07:32:03Z</time>
      </trkpt>
      <trkpt lat="48.99932" lon="0.82508">
        <ele>162.600006</ele>
        <time>2018-06-17T07:32:06Z</time>
      </trkpt>
      <trkpt lat="48.99922" lon="0.82516">
        <ele>162.600006</ele>
        <time>2018-06-17T07:32:09Z</time>
      </trkpt>
      <trkpt lat="48.99913" lon="0.82523">
        <ele>162.600006</ele>
        <time>2018-06-17T07:32:11Z</time>
      </trkpt>
      <trkpt lat="48.99903" lon="0.82533">
        <ele>162.800003</ele>
        <time>2018-06-17T07:32:14Z</time>
      </trkpt>
      <trkpt lat="48.99892" lon="0.82539">
        <ele>162.699997</ele>
        <time>2018-06-17T07:32:16Z</time>
      </trkpt>
      <trkpt lat="48.99883" lon="0.82547">
        <ele>162.699997</ele>
        <time>2018-06-17T07:32:18Z</time>
      </trkpt>
      <trkpt lat="48.9987" lon="0.82557">
        <ele>162.699997</ele>
        <time>2018-06-17T07:32:21Z</time>
      </trkpt>
      <trkpt lat="48.99861" lon="0.82565">
        <ele>163</ele>
        <time>2018-06-17T07:32:24Z</time>
      </trkpt>
      <trkpt lat="48.99853" lon="0.82573">
        <ele>163.100006</ele>
        <time>2018-06-17T07:32:26Z</time>
      </trkpt>
      <trkpt lat="48.9984" lon="0.82584">
        <ele>163.300003</ele>
        <time>2018-06-17T07:32:29Z</time>
      </trkpt>
      <trkpt lat="48.99832" lon="0.82592">
        <ele>163.399994</ele>
        <time>2018-06-17T07:32:31Z</time>
      </trkpt>
      <trkpt lat="48.99823" lon="0.82598">
        <ele>163.399994</ele>
        <time>2018-06-17T07:32:33Z</time>
      </trkpt>
      <trkpt lat="48.99815" lon="0.82605">
        <ele>163.399994</ele>
        <time>2018-06-17T07:32:35Z</time>
      </trkpt>
      <trkpt lat="48.99807" lon="0.82614">
        <ele>163.5</ele>
        <time>2018-06-17T07:32:37Z</time>
      </trkpt>
      <trkpt lat="48.99799" lon="0.82622">
        <ele>163.600006</ele>
        <time>2018-06-17T07:32:39Z</time>
      </trkpt>
      <trkpt lat="48.99787" lon="0.82634">
        <ele>163.600006</ele>
        <time>2018-06-17T07:32:42Z</time>
      </trkpt>
      <trkpt lat="48.99778" lon="0.82642">
        <ele>163.399994</ele>
        <time>2018-06-17T07:32:43Z</time>
      </trkpt>
      <trkpt lat="48.99767" lon="0.8265">
        <ele>163.399994</ele>
        <time>2018-06-17T07:32:45Z</time>
      </trkpt>
      <trkpt lat="48.99758" lon="0.82659">
        <ele>163.399994</ele>
        <time>2018-06-17T07:32:47Z</time>
      </trkpt>
      <trkpt lat="48.99748" lon="0.82666">
        <ele>163.300003</ele>
        <time>2018-06-17T07:32:49Z</time>
      </trkpt>
      <trkpt lat="48.99739" lon="0.82673">
        <ele>163.300003</ele>
        <time>2018-06-17T07:32:51Z</time>
      </trkpt>
      <trkpt lat="48.99731" lon="0.8268">
        <ele>163.300003</ele>
        <time>2018-06-17T07:32:53Z</time>
      </trkpt>
      <trkpt lat="48.99722" lon="0.8269">
        <ele>163.199997</ele>
        <time>2018-06-17T07:32:55Z</time>
      </trkpt>
      <trkpt lat="48.99709" lon="0.827">
        <ele>163.300003</ele>
        <time>2018-06-17T07:32:57Z</time>
      </trkpt>
      <trkpt lat="48.99699" lon="0.82709">
        <ele>163.399994</ele>
        <time>2018-06-17T07:32:59Z</time>
      </trkpt>
      <trkpt lat="48.99688" lon="0.82715">
        <ele>163.300003</ele>
        <time>2018-06-17T07:33:01Z</time>
      </trkpt>
      <trkpt lat="48.99676" lon="0.82721">
        <ele>163.199997</ele>
        <time>2018-06-17T07:33:03Z</time>
      </trkpt>
      <trkpt lat="48.99665" lon="0.82728">
        <ele>163.199997</ele>
        <time>2018-06-17T07:33:05Z</time>
      </trkpt>
      <trkpt lat="48.99654" lon="0.82733">
        <ele>163.199997</ele>
        <time>2018-06-17T07:33:07Z</time>
      </trkpt>
      <trkpt lat="48.99642" lon="0.8274">
        <ele>163.100006</ele>
        <time>2018-06-17T07:33:10Z</time>
      </trkpt>
      <trkpt lat="48.99632" lon="0.82744">
        <ele>163.199997</ele>
        <time>2018-06-17T07:33:12Z</time>
      </trkpt>
      <trkpt lat="48.99621" lon="0.8275">
        <ele>163.100006</ele>
        <time>2018-06-17T07:33:14Z</time>
      </trkpt>
      <trkpt lat="48.9961" lon="0.82758">
        <ele>163</ele>
        <time>2018-06-17T07:33:16Z</time>
      </trkpt>
      <trkpt lat="48.99601" lon="0.82767">
        <ele>162.899994</ele>
        <time>2018-06-17T07:33:18Z</time>
      </trkpt>
      <trkpt lat="48.99592" lon="0.82777">
        <ele>162.899994</ele>
        <time>2018-06-17T07:33:20Z</time>
      </trkpt>
      <trkpt lat="48.99581" lon="0.82788">
        <ele>163</ele>
        <time>2018-06-17T07:33:23Z</time>
      </trkpt>
      <trkpt lat="48.99574" lon="0.82797">
        <ele>162.899994</ele>
        <time>2018-06-17T07:33:25Z</time>
      </trkpt>
      <trkpt lat="48.99566" lon="0.82807">
        <ele>162.600006</ele>
        <time>2018-06-17T07:33:28Z</time>
      </trkpt>
      <trkpt lat="48.99559" lon="0.82817">
        <ele>162.5</ele>
        <time>2018-06-17T07:33:30Z</time>
      </trkpt>
      <trkpt lat="48.99549" lon="0.82831">
        <ele>162.399994</ele>
        <time>2018-06-17T07:33:33Z</time>
      </trkpt>
      <trkpt lat="48.99541" lon="0.8284">
        <ele>162.5</ele>
        <time>2018-06-17T07:33:35Z</time>
      </trkpt>
      <trkpt lat="48.99533" lon="0.82851">
        <ele>162.600006</ele>
        <time>2018-06-17T07:33:37Z</time>
      </trkpt>
      <trkpt lat="48.99524" lon="0.82859">
        <ele>162.399994</ele>
        <time>2018-06-17T07:33:39Z</time>
      </trkpt>
      <trkpt lat="48.99512" lon="0.82868">
        <ele>162.100006</ele>
        <time>2018-06-17T07:33:42Z</time>
      </trkpt>
      <trkpt lat="48.99506" lon="0.8288">
        <ele>161.899994</ele>
        <time>2018-06-17T07:33:45Z</time>
      </trkpt>
      <trkpt lat="48.99498" lon="0.82889">
        <ele>162</ele>
        <time>2018-06-17T07:33:47Z</time>
      </trkpt>
      <trkpt lat="48.99489" lon="0.82898">
        <ele>162.100006</ele>
        <time>2018-06-17T07:33:50Z</time>
      </trkpt>
      <trkpt lat="48.9948" lon="0.82911">
        <ele>162.199997</ele>
        <time>2018-06-17T07:33:53Z</time>
      </trkpt>
      <trkpt lat="48.99472" lon="0.82918">
        <ele>162.199997</ele>
        <time>2018-06-17T07:33:55Z</time>
      </trkpt>
      <trkpt lat="48.99463" lon="0.82927">
        <ele>162.199997</ele>
        <time>2018-06-17T07:33:58Z</time>
      </trkpt>
      <trkpt lat="48.99452" lon="0.82938">
        <ele>162.300003</ele>
        <time>2018-06-17T07:34:01Z</time>
      </trkpt>
      <trkpt lat="48.99445" lon="0.82948">
        <ele>162.300003</ele>
        <time>2018-06-17T07:34:03Z</time>
      </trkpt>
      <trkpt lat="48.99435" lon="0.82958">
        <ele>161.800003</ele>
        <time>2018-06-17T07:34:06Z</time>
      </trkpt>
      <trkpt lat="48.99425" lon="0.82971">
        <ele>161.600006</ele>
        <time>2018-06-17T07:34:09Z</time>
      </trkpt>
      <trkpt lat="48.99415" lon="0.82983">
        <ele>161.5</ele>
        <time>2018-06-17T07:34:12Z</time>
      </trkpt>
      <trkpt lat="48.99405" lon="0.82997">
        <ele>161.399994</ele>
        <time>2018-06-17T07:34:15Z</time>
      </trkpt>
      <trkpt lat="48.99396" lon="0.83005">
        <ele>161.600006</ele>
        <time>2018-06-17T07:34:17Z</time>
      </trkpt>
      <trkpt lat="48.99386" lon="0.83016">
        <ele>161.800003</ele>
        <time>2018-06-17T07:34:19Z</time>
      </trkpt>
      <trkpt lat="48.99375" lon="0.83026">
        <ele>161.800003</ele>
        <time>2018-06-17T07:34:21Z</time>
      </trkpt>
      <trkpt lat="48.99365" lon="0.83035">
        <ele>161.699997</ele>
        <time>2018-06-17T07:34:23Z</time>
      </trkpt>
      <trkpt lat="48.99354" lon="0.83039">
        <ele>161.699997</ele>
        <time>2018-06-17T07:34:25Z</time>
      </trkpt>
      <trkpt lat="48.99342" lon="0.83048">
        <ele>161.5</ele>
        <time>2018-06-17T07:34:28Z</time>
      </trkpt>
      <trkpt lat="48.99333" lon="0.83058">
        <ele>161.699997</ele>
        <time>2018-06-17T07:34:30Z</time>
      </trkpt>
      <trkpt lat="48.99321" lon="0.83069">
        <ele>161.699997</ele>
        <time>2018-06-17T07:34:32Z</time>
      </trkpt>
      <trkpt lat="48.9931" lon="0.83077">
        <ele>161.600006</ele>
        <time>2018-06-17T07:34:34Z</time>
      </trkpt>
      <trkpt lat="48.99301" lon="0.83083">
        <ele>161.600006</ele>
        <time>2018-06-17T07:34:36Z</time>
      </trkpt>
      <trkpt lat="48.99291" lon="0.83091">
        <ele>161.699997</ele>
        <time>2018-06-17T07:34:38Z</time>
      </trkpt>
      <trkpt lat="48.99279" lon="0.83097">
        <ele>161.699997</ele>
        <time>2018-06-17T07:34:40Z</time>
      </trkpt>
      <trkpt lat="48.99267" lon="0.83102">
        <ele>161.800003</ele>
        <time>2018-06-17T07:34:42Z</time>
      </trkpt>
      <trkpt lat="48.99256" lon="0.83107">
        <ele>161.800003</ele>
        <time>2018-06-17T07:34:44Z</time>
      </trkpt>
      <trkpt lat="48.99245" lon="0.83109">
        <ele>161.800003</ele>
        <time>2018-06-17T07:34:46Z</time>
      </trkpt>
      <trkpt lat="48.99234" lon="0.83112">
        <ele>161.800003</ele>
        <time>2018-06-17T07:34:48Z</time>
      </trkpt>
      <trkpt lat="48.99221" lon="0.83115">
        <ele>161.5</ele>
        <time>2018-06-17T07:34:51Z</time>
      </trkpt>
      <trkpt lat="48.99209" lon="0.83117">
        <ele>161.100006</ele>
        <time>2018-06-17T07:34:54Z</time>
      </trkpt>
      <trkpt lat="48.99199" lon="0.83119">
        <ele>161.100006</ele>
        <time>2018-06-17T07:34:56Z</time>
      </trkpt>
      <trkpt lat="48.99186" lon="0.83119">
        <ele>161</ele>
        <time>2018-06-17T07:34:59Z</time>
      </trkpt>
      <trkpt lat="48.99174" lon="0.83118">
        <ele>161.199997</ele>
        <time>2018-06-17T07:35:02Z</time>
      </trkpt>
      <trkpt lat="48.99164" lon="0.83116">
        <ele>161</ele>
        <time>2018-06-17T07:35:05Z</time>
      </trkpt>
      <trkpt lat="48.9909" lon="0.83103">
        <ele>163.662369</ele>
        <time>2018-06-17T07:38:39Z</time>
      </trkpt>
      <trkpt lat="48.991" lon="0.83156">
        <ele>160.300003</ele>
        <time>2018-06-17T07:38:41Z</time>
      </trkpt>
      <trkpt lat="48.99103" lon="0.83172">
        <ele>160.300003</ele>
        <time>2018-06-17T07:38:43Z</time>
      </trkpt>
      <trkpt lat="48.99107" lon="0.83187">
        <ele>160.600006</ele>
        <time>2018-06-17T07:38:45Z</time>
      </trkpt>
      <trkpt lat="48.9911" lon="0.83203">
        <ele>161</ele>
        <time>2018-06-17T07:38:47Z</time>
      </trkpt>
      <trkpt lat="48.99114" lon="0.83219">
        <ele>160.699997</ele>
        <time>2018-06-17T07:38:49Z</time>
      </trkpt>
      <trkpt lat="48.99117" lon="0.83234">
        <ele>160.800003</ele>
        <time>2018-06-17T07:38:51Z</time>
      </trkpt>
      <trkpt lat="48.9912" lon="0.8325">
        <ele>160.899994</ele>
        <time>2018-06-17T07:38:53Z</time>
      </trkpt>
      <trkpt lat="48.99124" lon="0.83267">
        <ele>160.899994</ele>
        <time>2018-06-17T07:38:55Z</time>
      </trkpt>
      <trkpt lat="48.99128" lon="0.83284">
        <ele>160.800003</ele>
        <time>2018-06-17T07:38:57Z</time>
      </trkpt>
      <trkpt lat="48.99131" lon="0.83301">
        <ele>160.699997</ele>
        <time>2018-06-17T07:38:59Z</time>
      </trkpt>
      <trkpt lat="48.99135" lon="0.83318">
        <ele>160.600006</ele>
        <time>2018-06-17T07:39:01Z</time>
      </trkpt>
      <trkpt lat="48.99138" lon="0.83335">
        <ele>160.699997</ele>
        <time>2018-06-17T07:39:03Z</time>
      </trkpt>
      <trkpt lat="48.99142" lon="0.83353">
        <ele>160.699997</ele>
        <time>2018-06-17T07:39:05Z</time>
      </trkpt>
      <trkpt lat="48.99145" lon="0.83371">
        <ele>160.699997</ele>
        <time>2018-06-17T07:39:07Z</time>
      </trkpt>
      <trkpt lat="48.99149" lon="0.83389">
        <ele>160.699997</ele>
        <time>2018-06-17T07:39:09Z</time>
      </trkpt>
      <trkpt lat="48.99153" lon="0.83407">
        <ele>160.899994</ele>
        <time>2018-06-17T07:39:11Z</time>
      </trkpt>
      <trkpt lat="48.99157" lon="0.83425">
        <ele>161.199997</ele>
        <time>2018-06-17T07:39:13Z</time>
      </trkpt>
      <trkpt lat="48.99161" lon="0.83444">
        <ele>161.199997</ele>
        <time>2018-06-17T07:39:15Z</time>
      </trkpt>
      <trkpt lat="48.99165" lon="0.83464">
        <ele>161.199997</ele>
        <time>2018-06-17T07:39:17Z</time>
      </trkpt>
      <trkpt lat="48.99169" lon="0.83483">
        <ele>161.100006</ele>
        <time>2018-06-17T07:39:19Z</time>
      </trkpt>
      <trkpt lat="48.99173" lon="0.83501">
        <ele>160.800003</ele>
        <time>2018-06-17T07:39:21Z</time>
      </trkpt>
      <trkpt lat="48.99177" lon="0.8352">
        <ele>160.899994</ele>
        <time>2018-06-17T07:39:23Z</time>
      </trkpt>
      <trkpt lat="48.99182" lon="0.83538">
        <ele>160.899994</ele>
        <time>2018-06-17T07:39:25Z</time>
      </trkpt>
      <trkpt lat="48.99186" lon="0.83556">
        <ele>160.899994</ele>
        <time>2018-06-17T07:39:27Z</time>
      </trkpt>
      <trkpt lat="48.99191" lon="0.83575">
        <ele>160.899994</ele>
        <time>2018-06-17T07:39:29Z</time>
      </trkpt>
      <trkpt lat="48.99196" lon="0.83594">
        <ele>160.800003</ele>
        <time>2018-06-17T07:39:31Z</time>
      </trkpt>
      <trkpt lat="48.992" lon="0.83613">
        <ele>160.800003</ele>
        <time>2018-06-17T07:39:33Z</time>
      </trkpt>
      <trkpt lat="48.99203" lon="0.83632">
        <ele>160.600006</ele>
        <time>2018-06-17T07:39:35Z</time>
      </trkpt>
      <trkpt lat="48.99206" lon="0.83652">
        <ele>160.5</ele>
        <time>2018-06-17T07:39:37Z</time>
      </trkpt>
      <trkpt lat="48.99208" lon="0.83671">
        <ele>160.399994</ele>
        <time>2018-06-17T07:39:39Z</time>
      </trkpt>
      <trkpt lat="48.9921" lon="0.83692">
        <ele>160.5</ele>
        <time>2018-06-17T07:39:41Z</time>
      </trkpt>
      <trkpt lat="48.99212" lon="0.83712">
        <ele>160.300003</ele>
        <time>2018-06-17T07:39:43Z</time>
      </trkpt>
      <trkpt lat="48.99214" lon="0.83732">
        <ele>160.300003</ele>
        <time>2018-06-17T07:39:45Z</time>
      </trkpt>
      <trkpt lat="48.99216" lon="0.83751">
        <ele>160.300003</ele>
        <time>2018-06-17T07:39:47Z</time>
      </trkpt>
      <trkpt lat="48.99218" lon="0.83771">
        <ele>160.300003</ele>
        <time>2018-06-17T07:39:49Z</time>
      </trkpt>
      <trkpt lat="48.99219" lon="0.8379">
        <ele>160.199997</ele>
        <time>2018-06-17T07:39:51Z</time>
      </trkpt>
      <trkpt lat="48.99221" lon="0.83809">
        <ele>160.199997</ele>
        <time>2018-06-17T07:39:53Z</time>
      </trkpt>
      <trkpt lat="48.99223" lon="0.83827">
        <ele>160.399994</ele>
        <time>2018-06-17T07:39:55Z</time>
      </trkpt>
      <trkpt lat="48.99225" lon="0.83844">
        <ele>160.300003</ele>
        <time>2018-06-17T07:39:57Z</time>
      </trkpt>
      <trkpt lat="48.99227" lon="0.83862">
        <ele>160.199997</ele>
        <time>2018-06-17T07:39:59Z</time>
      </trkpt>
      <trkpt lat="48.99229" lon="0.8388">
        <ele>160</ele>
        <time>2018-06-17T07:40:01Z</time>
      </trkpt>
      <trkpt lat="48.99231" lon="0.83898">
        <ele>159.899994</ele>
        <time>2018-06-17T07:40:03Z</time>
      </trkpt>
      <trkpt lat="48.99233" lon="0.83917">
        <ele>159.800003</ele>
        <time>2018-06-17T07:40:05Z</time>
      </trkpt>
      <trkpt lat="48.99234" lon="0.83937">
        <ele>159.699997</ele>
        <time>2018-06-17T07:40:07Z</time>
      </trkpt>
      <trkpt lat="48.99236" lon="0.83956">
        <ele>159.5</ele>
        <time>2018-06-17T07:40:09Z</time>
      </trkpt>
      <trkpt lat="48.99238" lon="0.83975">
        <ele>159.5</ele>
        <time>2018-06-17T07:40:11Z</time>
      </trkpt>
      <trkpt lat="48.9924" lon="0.83995">
        <ele>159.5</ele>
        <time>2018-06-17T07:40:13Z</time>
      </trkpt>
      <trkpt lat="48.99242" lon="0.84014">
        <ele>159.300003</ele>
        <time>2018-06-17T07:40:15Z</time>
      </trkpt>
      <trkpt lat="48.99243" lon="0.84035">
        <ele>159.199997</ele>
        <time>2018-06-17T07:40:17Z</time>
      </trkpt>
      <trkpt lat="48.99244" lon="0.84056">
        <ele>159.100006</ele>
        <time>2018-06-17T07:40:19Z</time>
      </trkpt>
      <trkpt lat="48.99244" lon="0.84077">
        <ele>159.399994</ele>
        <time>2018-06-17T07:40:21Z</time>
      </trkpt>
      <trkpt lat="48.99243" lon="0.84099">
        <ele>159.199997</ele>
        <time>2018-06-17T07:40:23Z</time>
      </trkpt>
      <trkpt lat="48.99241" lon="0.8412">
        <ele>158.899994</ele>
        <time>2018-06-17T07:40:25Z</time>
      </trkpt>
      <trkpt lat="48.99239" lon="0.84141">
        <ele>158.699997</ele>
        <time>2018-06-17T07:40:27Z</time>
      </trkpt>
      <trkpt lat="48.99236" lon="0.84162">
        <ele>158.600006</ele>
        <time>2018-06-17T07:40:29Z</time>
      </trkpt>
      <trkpt lat="48.99234" lon="0.84184">
        <ele>158.399994</ele>
        <time>2018-06-17T07:40:31Z</time>
      </trkpt>
      <trkpt lat="48.99231" lon="0.84205">
        <ele>158.199997</ele>
        <time>2018-06-17T07:40:33Z</time>
      </trkpt>
      <trkpt lat="48.99229" lon="0.84226">
        <ele>158.199997</ele>
        <time>2018-06-17T07:40:35Z</time>
      </trkpt>
      <trkpt lat="48.99227" lon="0.84247">
        <ele>157.899994</ele>
        <time>2018-06-17T07:40:37Z</time>
      </trkpt>
      <trkpt lat="48.99226" lon="0.84268">
        <ele>157.800003</ele>
        <time>2018-06-17T07:40:39Z</time>
      </trkpt>
      <trkpt lat="48.99225" lon="0.84289">
        <ele>157.899994</ele>
        <time>2018-06-17T07:40:41Z</time>
      </trkpt>
      <trkpt lat="48.99226" lon="0.8431">
        <ele>157.399994</ele>
        <time>2018-06-17T07:40:43Z</time>
      </trkpt>
      <trkpt lat="48.99227" lon="0.8433">
        <ele>157.399994</ele>
        <time>2018-06-17T07:40:45Z</time>
      </trkpt>
      <trkpt lat="48.9923" lon="0.84348">
        <ele>157.199997</ele>
        <time>2018-06-17T07:40:47Z</time>
      </trkpt>
      <trkpt lat="48.99231" lon="0.84362">
        <ele>157.300003</ele>
        <time>2018-06-17T07:40:49Z</time>
      </trkpt>
      <trkpt lat="48.99233" lon="0.84382">
        <ele>157.5</ele>
        <time>2018-06-17T07:40:52Z</time>
      </trkpt>
      <trkpt lat="48.99239" lon="0.84399">
        <ele>157.699997</ele>
        <time>2018-06-17T07:40:55Z</time>
      </trkpt>
      <trkpt lat="48.99242" lon="0.84418">
        <ele>158.100006</ele>
        <time>2018-06-17T07:40:58Z</time>
      </trkpt>
      <trkpt lat="48.99247" lon="0.84438">
        <ele>158.399994</ele>
        <time>2018-06-17T07:41:01Z</time>
      </trkpt>
      <trkpt lat="48.99251" lon="0.84451">
        <ele>158.5</ele>
        <time>2018-06-17T07:41:03Z</time>
      </trkpt>
      <trkpt lat="48.99254" lon="0.84464">
        <ele>158.800003</ele>
        <time>2018-06-17T07:41:05Z</time>
      </trkpt>
      <trkpt lat="48.99259" lon="0.84477">
        <ele>159.199997</ele>
        <time>2018-06-17T07:41:07Z</time>
      </trkpt>
      <trkpt lat="48.99263" lon="0.8449">
        <ele>159.5</ele>
        <time>2018-06-17T07:41:09Z</time>
      </trkpt>
      <trkpt lat="48.99267" lon="0.84504">
        <ele>159.800003</ele>
        <time>2018-06-17T07:41:11Z</time>
      </trkpt>
      <trkpt lat="48.99272" lon="0.84518">
        <ele>160</ele>
        <time>2018-06-17T07:41:13Z</time>
      </trkpt>
      <trkpt lat="48.99277" lon="0.84533">
        <ele>160.399994</ele>
        <time>2018-06-17T07:41:15Z</time>
      </trkpt>
      <trkpt lat="48.99282" lon="0.84547">
        <ele>160.899994</ele>
        <time>2018-06-17T07:41:17Z</time>
      </trkpt>
      <trkpt lat="48.99287" lon="0.84561">
        <ele>161.300003</ele>
        <time>2018-06-17T07:41:19Z</time>
      </trkpt>
      <trkpt lat="48.99292" lon="0.84577">
        <ele>161.699997</ele>
        <time>2018-06-17T07:41:21Z</time>
      </trkpt>
      <trkpt lat="48.99298" lon="0.84591">
        <ele>162</ele>
        <time>2018-06-17T07:41:23Z</time>
      </trkpt>
      <trkpt lat="48.99303" lon="0.84606">
        <ele>162.199997</ele>
        <time>2018-06-17T07:41:25Z</time>
      </trkpt>
      <trkpt lat="48.99309" lon="0.84621">
        <ele>162.5</ele>
        <time>2018-06-17T07:41:27Z</time>
      </trkpt>
      <trkpt lat="48.99315" lon="0.84636">
        <ele>162.699997</ele>
        <time>2018-06-17T07:41:29Z</time>
      </trkpt>
      <trkpt lat="48.9932" lon="0.8465">
        <ele>163</ele>
        <time>2018-06-17T07:41:31Z</time>
      </trkpt>
      <trkpt lat="48.99326" lon="0.84664">
        <ele>163.199997</ele>
        <time>2018-06-17T07:41:33Z</time>
      </trkpt>
      <trkpt lat="48.99332" lon="0.84678">
        <ele>163.399994</ele>
        <time>2018-06-17T07:41:35Z</time>
      </trkpt>
      <trkpt lat="48.99339" lon="0.84692">
        <ele>163.699997</ele>
        <time>2018-06-17T07:41:37Z</time>
      </trkpt>
      <trkpt lat="48.99346" lon="0.84707">
        <ele>163.800003</ele>
        <time>2018-06-17T07:41:39Z</time>
      </trkpt>
      <trkpt lat="48.9935" lon="0.84723">
        <ele>163.899994</ele>
        <time>2018-06-17T07:41:41Z</time>
      </trkpt>
      <trkpt lat="48.99355" lon="0.84739">
        <ele>164</ele>
        <time>2018-06-17T07:41:43Z</time>
      </trkpt>
      <trkpt lat="48.99355" lon="0.84755">
        <ele>164.300003</ele>
        <time>2018-06-17T07:41:45Z</time>
      </trkpt>
      <trkpt lat="48.99348" lon="0.84766">
        <ele>164.300003</ele>
        <time>2018-06-17T07:41:47Z</time>
      </trkpt>
      <trkpt lat="48.99338" lon="0.84771">
        <ele>164.399994</ele>
        <time>2018-06-17T07:41:49Z</time>
      </trkpt>
      <trkpt lat="48.99326" lon="0.84775">
        <ele>164.600006</ele>
        <time>2018-06-17T07:41:51Z</time>
      </trkpt>
      <trkpt lat="48.99314" lon="0.8478">
        <ele>164.899994</ele>
        <time>2018-06-17T07:41:53Z</time>
      </trkpt>
      <trkpt lat="48.99303" lon="0.84786">
        <ele>164.899994</ele>
        <time>2018-06-17T07:41:55Z</time>
      </trkpt>
      <trkpt lat="48.99293" lon="0.84796">
        <ele>164.899994</ele>
        <time>2018-06-17T07:41:57Z</time>
      </trkpt>
      <trkpt lat="48.99283" lon="0.84806">
        <ele>164.699997</ele>
        <time>2018-06-17T07:41:59Z</time>
      </trkpt>
      <trkpt lat="48.99273" lon="0.84816">
        <ele>164.699997</ele>
        <time>2018-06-17T07:42:01Z</time>
      </trkpt>
      <trkpt lat="48.99263" lon="0.84826">
        <ele>164.399994</ele>
        <time>2018-06-17T07:42:03Z</time>
      </trkpt>
      <trkpt lat="48.99251" lon="0.84832">
        <ele>164.399994</ele>
        <time>2018-06-17T07:42:05Z</time>
      </trkpt>
      <trkpt lat="48.99238" lon="0.84832">
        <ele>164.300003</ele>
        <time>2018-06-17T07:42:07Z</time>
      </trkpt>
      <trkpt lat="48.99226" lon="0.84828">
        <ele>164.300003</ele>
        <time>2018-06-17T07:42:09Z</time>
      </trkpt>
      <trkpt lat="48.99215" lon="0.84827">
        <ele>164.300003</ele>
        <time>2018-06-17T07:42:11Z</time>
      </trkpt>
      <trkpt lat="48.99203" lon="0.8483">
        <ele>164.300003</ele>
        <time>2018-06-17T07:42:13Z</time>
      </trkpt>
      <trkpt lat="48.99191" lon="0.84833">
        <ele>164.300003</ele>
        <time>2018-06-17T07:42:15Z</time>
      </trkpt>
      <trkpt lat="48.99179" lon="0.84836">
        <ele>164.399994</ele>
        <time>2018-06-17T07:42:17Z</time>
      </trkpt>
      <trkpt lat="48.99166" lon="0.84837">
        <ele>164.5</ele>
        <time>2018-06-17T07:42:19Z</time>
      </trkpt>
      <trkpt lat="48.99153" lon="0.8484">
        <ele>164.600006</ele>
        <time>2018-06-17T07:42:21Z</time>
      </trkpt>
      <trkpt lat="48.99141" lon="0.84842">
        <ele>164.600006</ele>
        <time>2018-06-17T07:42:23Z</time>
      </trkpt>
      <trkpt lat="48.99129" lon="0.84845">
        <ele>164.699997</ele>
        <time>2018-06-17T07:42:25Z</time>
      </trkpt>
      <trkpt lat="48.99118" lon="0.8485">
        <ele>164.5</ele>
        <time>2018-06-17T07:42:27Z</time>
      </trkpt>
      <trkpt lat="48.99108" lon="0.8486">
        <ele>164.399994</ele>
        <time>2018-06-17T07:42:29Z</time>
      </trkpt>
      <trkpt lat="48.99099" lon="0.84873">
        <ele>164.399994</ele>
        <time>2018-06-17T07:42:31Z</time>
      </trkpt>
      <trkpt lat="48.9909" lon="0.84887">
        <ele>164.5</ele>
        <time>2018-06-17T07:42:33Z</time>
      </trkpt>
      <trkpt lat="48.99081" lon="0.84901">
        <ele>164.5</ele>
        <time>2018-06-17T07:42:35Z</time>
      </trkpt>
      <trkpt lat="48.99073" lon="0.84915">
        <ele>164.600006</ele>
        <time>2018-06-17T07:42:37Z</time>
      </trkpt>
      <trkpt lat="48.99065" lon="0.84929">
        <ele>164.5</ele>
        <time>2018-06-17T07:42:39Z</time>
      </trkpt>
      <trkpt lat="48.99056" lon="0.84943">
        <ele>164.5</ele>
        <time>2018-06-17T07:42:41Z</time>
      </trkpt>
      <trkpt lat="48.99048" lon="0.84956">
        <ele>164.600006</ele>
        <time>2018-06-17T07:42:43Z</time>
      </trkpt>
      <trkpt lat="48.99048" lon="0.84972">
        <ele>164.100006</ele>
        <time>2018-06-17T07:42:48Z</time>
      </trkpt>
      <trkpt lat="48.99048" lon="0.84989">
        <ele>164.100006</ele>
        <time>2018-06-17T07:42:51Z</time>
      </trkpt>
      <trkpt lat="48.99046" lon="0.85003">
        <ele>164.100006</ele>
        <time>2018-06-17T07:42:53Z</time>
      </trkpt>
      <trkpt lat="48.99044" lon="0.8502">
        <ele>164</ele>
        <time>2018-06-17T07:42:55Z</time>
      </trkpt>
      <trkpt lat="48.99041" lon="0.85038">
        <ele>164</ele>
        <time>2018-06-17T07:42:57Z</time>
      </trkpt>
      <trkpt lat="48.99038" lon="0.85057">
        <ele>164</ele>
        <time>2018-06-17T07:42:59Z</time>
      </trkpt>
      <trkpt lat="48.99036" lon="0.85075">
        <ele>164</ele>
        <time>2018-06-17T07:43:01Z</time>
      </trkpt>
      <trkpt lat="48.99032" lon="0.85094">
        <ele>164.100006</ele>
        <time>2018-06-17T07:43:03Z</time>
      </trkpt>
      <trkpt lat="48.99029" lon="0.85113">
        <ele>164</ele>
        <time>2018-06-17T07:43:05Z</time>
      </trkpt>
      <trkpt lat="48.99025" lon="0.85133">
        <ele>164</ele>
        <time>2018-06-17T07:43:07Z</time>
      </trkpt>
      <trkpt lat="48.9902" lon="0.85152">
        <ele>164</ele>
        <time>2018-06-17T07:43:09Z</time>
      </trkpt>
      <trkpt lat="48.99015" lon="0.85171">
        <ele>164.100006</ele>
        <time>2018-06-17T07:43:11Z</time>
      </trkpt>
      <trkpt lat="48.9901" lon="0.85191">
        <ele>164</ele>
        <time>2018-06-17T07:43:13Z</time>
      </trkpt>
      <trkpt lat="48.99004" lon="0.8521">
        <ele>163.800003</ele>
        <time>2018-06-17T07:43:15Z</time>
      </trkpt>
      <trkpt lat="48.98999" lon="0.85229">
        <ele>163.800003</ele>
        <time>2018-06-17T07:43:17Z</time>
      </trkpt>
      <trkpt lat="48.98994" lon="0.85249">
        <ele>163.699997</ele>
        <time>2018-06-17T07:43:19Z</time>
      </trkpt>
      <trkpt lat="48.9899" lon="0.85268">
        <ele>163.5</ele>
        <time>2018-06-17T07:43:21Z</time>
      </trkpt>
      <trkpt lat="48.98987" lon="0.85289">
        <ele>163.300003</ele>
        <time>2018-06-17T07:43:23Z</time>
      </trkpt>
      <trkpt lat="48.98986" lon="0.85311">
        <ele>162.800003</ele>
        <time>2018-06-17T07:43:25Z</time>
      </trkpt>
      <trkpt lat="48.98984" lon="0.85333">
        <ele>162.5</ele>
        <time>2018-06-17T07:43:27Z</time>
      </trkpt>
      <trkpt lat="48.98983" lon="0.85355">
        <ele>162.199997</ele>
        <time>2018-06-17T07:43:29Z</time>
      </trkpt>
      <trkpt lat="48.98982" lon="0.85377">
        <ele>161.899994</ele>
        <time>2018-06-17T07:43:31Z</time>
      </trkpt>
      <trkpt lat="48.9898" lon="0.85399">
        <ele>161.800003</ele>
        <time>2018-06-17T07:43:33Z</time>
      </trkpt>
      <trkpt lat="48.98979" lon="0.85421">
        <ele>161.699997</ele>
        <time>2018-06-17T07:43:35Z</time>
      </trkpt>
      <trkpt lat="48.98978" lon="0.85444">
        <ele>161.5</ele>
        <time>2018-06-17T07:43:37Z</time>
      </trkpt>
      <trkpt lat="48.98976" lon="0.85466">
        <ele>161.199997</ele>
        <time>2018-06-17T07:43:39Z</time>
      </trkpt>
      <trkpt lat="48.98974" lon="0.85489">
        <ele>161</ele>
        <time>2018-06-17T07:43:41Z</time>
      </trkpt>
      <trkpt lat="48.98972" lon="0.85511">
        <ele>160.899994</ele>
        <time>2018-06-17T07:43:43Z</time>
      </trkpt>
      <trkpt lat="48.9897" lon="0.85534">
        <ele>160.699997</ele>
        <time>2018-06-17T07:43:45Z</time>
      </trkpt>
      <trkpt lat="48.98967" lon="0.85555">
        <ele>160.399994</ele>
        <time>2018-06-17T07:43:47Z</time>
      </trkpt>
      <trkpt lat="48.98963" lon="0.85577">
        <ele>160.300003</ele>
        <time>2018-06-17T07:43:49Z</time>
      </trkpt>
      <trkpt lat="48.98959" lon="0.85598">
        <ele>160.100006</ele>
        <time>2018-06-17T07:43:51Z</time>
      </trkpt>
      <trkpt lat="48.98955" lon="0.8562">
        <ele>160</ele>
        <time>2018-06-17T07:43:53Z</time>
      </trkpt>
      <trkpt lat="48.98952" lon="0.85643">
        <ele>159.899994</ele>
        <time>2018-06-17T07:43:55Z</time>
      </trkpt>
      <trkpt lat="48.98949" lon="0.85667">
        <ele>159.899994</ele>
        <time>2018-06-17T07:43:57Z</time>
      </trkpt>
      <trkpt lat="48.98947" lon="0.85689">
        <ele>159.600006</ele>
        <time>2018-06-17T07:43:59Z</time>
      </trkpt>
      <trkpt lat="48.98946" lon="0.85712">
        <ele>159.300003</ele>
        <time>2018-06-17T07:44:01Z</time>
      </trkpt>
      <trkpt lat="48.98946" lon="0.85735">
        <ele>159.100006</ele>
        <time>2018-06-17T07:44:03Z</time>
      </trkpt>
      <trkpt lat="48.98945" lon="0.85758">
        <ele>159</ele>
        <time>2018-06-17T07:44:05Z</time>
      </trkpt>
      <trkpt lat="48.98946" lon="0.85781">
        <ele>158.600006</ele>
        <time>2018-06-17T07:44:07Z</time>
      </trkpt>
      <trkpt lat="48.98947" lon="0.85804">
        <ele>158.300003</ele>
        <time>2018-06-17T07:44:09Z</time>
      </trkpt>
      <trkpt lat="48.98948" lon="0.85827">
        <ele>158.100006</ele>
        <time>2018-06-17T07:44:11Z</time>
      </trkpt>
      <trkpt lat="48.98951" lon="0.8585">
        <ele>157.800003</ele>
        <time>2018-06-17T07:44:13Z</time>
      </trkpt>
      <trkpt lat="48.98953" lon="0.85872">
        <ele>157.699997</ele>
        <time>2018-06-17T07:44:15Z</time>
      </trkpt>
      <trkpt lat="48.98955" lon="0.85895">
        <ele>157.199997</ele>
        <time>2018-06-17T07:44:17Z</time>
      </trkpt>
      <trkpt lat="48.98956" lon="0.85917">
        <ele>157.100006</ele>
        <time>2018-06-17T07:44:19Z</time>
      </trkpt>
      <trkpt lat="48.98959" lon="0.8594">
        <ele>157.199997</ele>
        <time>2018-06-17T07:44:21Z</time>
      </trkpt>
      <trkpt lat="48.98961" lon="0.85962">
        <ele>157.100006</ele>
        <time>2018-06-17T07:44:23Z</time>
      </trkpt>
      <trkpt lat="48.98964" lon="0.85983">
        <ele>157</ele>
        <time>2018-06-17T07:44:25Z</time>
      </trkpt>
      <trkpt lat="48.98967" lon="0.86005">
        <ele>156.699997</ele>
        <time>2018-06-17T07:44:27Z</time>
      </trkpt>
      <trkpt lat="48.9897" lon="0.86027">
        <ele>156.600006</ele>
        <time>2018-06-17T07:44:29Z</time>
      </trkpt>
      <trkpt lat="48.98972" lon="0.86048">
        <ele>156.899994</ele>
        <time>2018-06-17T07:44:31Z</time>
      </trkpt>
      <trkpt lat="48.98974" lon="0.8607">
        <ele>156.800003</ele>
        <time>2018-06-17T07:44:33Z</time>
      </trkpt>
      <trkpt lat="48.98975" lon="0.86091">
        <ele>156.399994</ele>
        <time>2018-06-17T07:44:35Z</time>
      </trkpt>
      <trkpt lat="48.98975" lon="0.86111">
        <ele>156.300003</ele>
        <time>2018-06-17T07:44:37Z</time>
      </trkpt>
      <trkpt lat="48.98974" lon="0.8613">
        <ele>156.399994</ele>
        <time>2018-06-17T07:44:39Z</time>
      </trkpt>
      <trkpt lat="48.98972" lon="0.86148">
        <ele>156.199997</ele>
        <time>2018-06-17T07:44:41Z</time>
      </trkpt>
      <trkpt lat="48.98975" lon="0.86163">
        <ele>156.199997</ele>
        <time>2018-06-17T07:44:44Z</time>
      </trkpt>
      <trkpt lat="48.98989" lon="0.86168">
        <ele>156.100006</ele>
        <time>2018-06-17T07:44:47Z</time>
      </trkpt>
      <trkpt lat="48.99" lon="0.86169">
        <ele>156.300003</ele>
        <time>2018-06-17T07:44:49Z</time>
      </trkpt>
      <trkpt lat="48.99012" lon="0.86171">
        <ele>156.199997</ele>
        <time>2018-06-17T07:44:51Z</time>
      </trkpt>
      <trkpt lat="48.99025" lon="0.86175">
        <ele>156.199997</ele>
        <time>2018-06-17T07:44:53Z</time>
      </trkpt>
      <trkpt lat="48.99038" lon="0.86178">
        <ele>156.399994</ele>
        <time>2018-06-17T07:44:55Z</time>
      </trkpt>
      <trkpt lat="48.99052" lon="0.86182">
        <ele>156.399994</ele>
        <time>2018-06-17T07:44:57Z</time>
      </trkpt>
      <trkpt lat="48.99065" lon="0.86185">
        <ele>156.600006</ele>
        <time>2018-06-17T07:44:59Z</time>
      </trkpt>
      <trkpt lat="48.99077" lon="0.86188">
        <ele>156.5</ele>
        <time>2018-06-17T07:45:01Z</time>
      </trkpt>
      <trkpt lat="48.9909" lon="0.86191">
        <ele>156.300003</ele>
        <time>2018-06-17T07:45:03Z</time>
      </trkpt>
      <trkpt lat="48.99102" lon="0.86195">
        <ele>156.300003</ele>
        <time>2018-06-17T07:45:05Z</time>
      </trkpt>
      <trkpt lat="48.99114" lon="0.86198">
        <ele>156.300003</ele>
        <time>2018-06-17T07:45:07Z</time>
      </trkpt>
      <trkpt lat="48.99127" lon="0.86203">
        <ele>156.100006</ele>
        <time>2018-06-17T07:45:09Z</time>
      </trkpt>
      <trkpt lat="48.99139" lon="0.86207">
        <ele>156</ele>
        <time>2018-06-17T07:45:11Z</time>
      </trkpt>
      <trkpt lat="48.99152" lon="0.8621">
        <ele>155.899994</ele>
        <time>2018-06-17T07:45:13Z</time>
      </trkpt>
      <trkpt lat="48.99164" lon="0.86213">
        <ele>155.800003</ele>
        <time>2018-06-17T07:45:15Z</time>
      </trkpt>
      <trkpt lat="48.99176" lon="0.86216">
        <ele>155.800003</ele>
        <time>2018-06-17T07:45:17Z</time>
      </trkpt>
      <trkpt lat="48.99188" lon="0.8622">
        <ele>155.5</ele>
        <time>2018-06-17T07:45:19Z</time>
      </trkpt>
      <trkpt lat="48.99201" lon="0.86224">
        <ele>155.399994</ele>
        <time>2018-06-17T07:45:21Z</time>
      </trkpt>
      <trkpt lat="48.99213" lon="0.86228">
        <ele>155.100006</ele>
        <time>2018-06-17T07:45:23Z</time>
      </trkpt>
      <trkpt lat="48.99225" lon="0.86231">
        <ele>154.899994</ele>
        <time>2018-06-17T07:45:25Z</time>
      </trkpt>
      <trkpt lat="48.99238" lon="0.86234">
        <ele>154.800003</ele>
        <time>2018-06-17T07:45:27Z</time>
      </trkpt>
      <trkpt lat="48.99251" lon="0.86237">
        <ele>154.5</ele>
        <time>2018-06-17T07:45:29Z</time>
      </trkpt>
      <trkpt lat="48.99264" lon="0.86241">
        <ele>154.5</ele>
        <time>2018-06-17T07:45:31Z</time>
      </trkpt>
      <trkpt lat="48.99278" lon="0.86243">
        <ele>154.199997</ele>
        <time>2018-06-17T07:45:33Z</time>
      </trkpt>
      <trkpt lat="48.99291" lon="0.86244">
        <ele>154.100006</ele>
        <time>2018-06-17T07:45:35Z</time>
      </trkpt>
      <trkpt lat="48.99305" lon="0.86245">
        <ele>154</ele>
        <time>2018-06-17T07:45:37Z</time>
      </trkpt>
      <trkpt lat="48.99319" lon="0.86246">
        <ele>153.800003</ele>
        <time>2018-06-17T07:45:39Z</time>
      </trkpt>
      <trkpt lat="48.99333" lon="0.86246">
        <ele>153.600006</ele>
        <time>2018-06-17T07:45:41Z</time>
      </trkpt>
      <trkpt lat="48.99347" lon="0.86247">
        <ele>153.399994</ele>
        <time>2018-06-17T07:45:43Z</time>
      </trkpt>
      <trkpt lat="48.99361" lon="0.86249">
        <ele>153.300003</ele>
        <time>2018-06-17T07:45:45Z</time>
      </trkpt>
      <trkpt lat="48.99375" lon="0.86251">
        <ele>153.300003</ele>
        <time>2018-06-17T07:45:47Z</time>
      </trkpt>
      <trkpt lat="48.99388" lon="0.86252">
        <ele>153.100006</ele>
        <time>2018-06-17T07:45:49Z</time>
      </trkpt>
      <trkpt lat="48.99402" lon="0.86255">
        <ele>152.800003</ele>
        <time>2018-06-17T07:45:51Z</time>
      </trkpt>
      <trkpt lat="48.99416" lon="0.86259">
        <ele>152.800003</ele>
        <time>2018-06-17T07:45:53Z</time>
      </trkpt>
      <trkpt lat="48.99429" lon="0.86264">
        <ele>152.600006</ele>
        <time>2018-06-17T07:45:55Z</time>
      </trkpt>
      <trkpt lat="48.99443" lon="0.86269">
        <ele>152.5</ele>
        <time>2018-06-17T07:45:57Z</time>
      </trkpt>
      <trkpt lat="48.99457" lon="0.86275">
        <ele>152</ele>
        <time>2018-06-17T07:45:59Z</time>
      </trkpt>
      <trkpt lat="48.99469" lon="0.86282">
        <ele>152</ele>
        <time>2018-06-17T07:46:01Z</time>
      </trkpt>
      <trkpt lat="48.99482" lon="0.86289">
        <ele>152.100006</ele>
        <time>2018-06-17T07:46:03Z</time>
      </trkpt>
      <trkpt lat="48.99495" lon="0.86295">
        <ele>152</ele>
        <time>2018-06-17T07:46:05Z</time>
      </trkpt>
      <trkpt lat="48.99507" lon="0.86302">
        <ele>151.800003</ele>
        <time>2018-06-17T07:46:07Z</time>
      </trkpt>
      <trkpt lat="48.9952" lon="0.86307">
        <ele>151.699997</ele>
        <time>2018-06-17T07:46:09Z</time>
      </trkpt>
      <trkpt lat="48.99529" lon="0.86311">
        <ele>151.399994</ele>
        <time>2018-06-17T07:46:11Z</time>
      </trkpt>
      <trkpt lat="48.9954" lon="0.86303">
        <ele>151.300003</ele>
        <time>2018-06-17T07:46:14Z</time>
      </trkpt>
      <trkpt lat="48.99546" lon="0.86291">
        <ele>151.199997</ele>
        <time>2018-06-17T07:46:16Z</time>
      </trkpt>
      <trkpt lat="48.99552" lon="0.86279">
        <ele>151.100006</ele>
        <time>2018-06-17T07:46:18Z</time>
      </trkpt>
      <trkpt lat="48.99558" lon="0.86266">
        <ele>151</ele>
        <time>2018-06-17T07:46:20Z</time>
      </trkpt>
      <trkpt lat="48.99567" lon="0.86264">
        <ele>150.800003</ele>
        <time>2018-06-17T07:46:23Z</time>
      </trkpt>
      <trkpt lat="48.99569" lon="0.8628">
        <ele>150.800003</ele>
        <time>2018-06-17T07:46:26Z</time>
      </trkpt>
      <trkpt lat="48.99569" lon="0.86301">
        <ele>150.800003</ele>
        <time>2018-06-17T07:46:29Z</time>
      </trkpt>
      <trkpt lat="48.99575" lon="0.86317">
        <ele>150.699997</ele>
        <time>2018-06-17T07:46:31Z</time>
      </trkpt>
      <trkpt lat="48.99586" lon="0.86328">
        <ele>150.600006</ele>
        <time>2018-06-17T07:46:33Z</time>
      </trkpt>
      <trkpt lat="48.99599" lon="0.86333">
        <ele>150.5</ele>
        <time>2018-06-17T07:46:35Z</time>
      </trkpt>
      <trkpt lat="48.99611" lon="0.86337">
        <ele>150.600006</ele>
        <time>2018-06-17T07:46:37Z</time>
      </trkpt>
      <trkpt lat="48.99623" lon="0.86341">
        <ele>150.600006</ele>
        <time>2018-06-17T07:46:39Z</time>
      </trkpt>
      <trkpt lat="48.99636" lon="0.86345">
        <ele>150.600006</ele>
        <time>2018-06-17T07:46:41Z</time>
      </trkpt>
      <trkpt lat="48.99649" lon="0.8635">
        <ele>150.600006</ele>
        <time>2018-06-17T07:46:43Z</time>
      </trkpt>
      <trkpt lat="48.99661" lon="0.86356">
        <ele>150.5</ele>
        <time>2018-06-17T07:46:45Z</time>
      </trkpt>
      <trkpt lat="48.99675" lon="0.86364">
        <ele>150.399994</ele>
        <time>2018-06-17T07:46:47Z</time>
      </trkpt>
      <trkpt lat="48.99687" lon="0.86374">
        <ele>150.300003</ele>
        <time>2018-06-17T07:46:49Z</time>
      </trkpt>
      <trkpt lat="48.99698" lon="0.86388">
        <ele>150.300003</ele>
        <time>2018-06-17T07:46:51Z</time>
      </trkpt>
      <trkpt lat="48.99707" lon="0.86404">
        <ele>150.100006</ele>
        <time>2018-06-17T07:46:53Z</time>
      </trkpt>
      <trkpt lat="48.99718" lon="0.86418">
        <ele>150.199997</ele>
        <time>2018-06-17T07:46:55Z</time>
      </trkpt>
      <trkpt lat="48.99731" lon="0.86426">
        <ele>150.199997</ele>
        <time>2018-06-17T07:46:57Z</time>
      </trkpt>
      <trkpt lat="48.99745" lon="0.8643">
        <ele>150.300003</ele>
        <time>2018-06-17T07:46:59Z</time>
      </trkpt>
      <trkpt lat="48.99759" lon="0.86433">
        <ele>150.399994</ele>
        <time>2018-06-17T07:47:01Z</time>
      </trkpt>
      <trkpt lat="48.99772" lon="0.86437">
        <ele>150.5</ele>
        <time>2018-06-17T07:47:03Z</time>
      </trkpt>
      <trkpt lat="48.99785" lon="0.86442">
        <ele>150.600006</ele>
        <time>2018-06-17T07:47:05Z</time>
      </trkpt>
      <trkpt lat="48.99797" lon="0.86445">
        <ele>150.600006</ele>
        <time>2018-06-17T07:47:07Z</time>
      </trkpt>
      <trkpt lat="48.99806" lon="0.86455">
        <ele>150.5</ele>
        <time>2018-06-17T07:47:09Z</time>
      </trkpt>
      <trkpt lat="48.99808" lon="0.8647">
        <ele>150.399994</ele>
        <time>2018-06-17T07:47:11Z</time>
      </trkpt>
      <trkpt lat="48.99807" lon="0.86487">
        <ele>150.300003</ele>
        <time>2018-06-17T07:47:13Z</time>
      </trkpt>
      <trkpt lat="48.99809" lon="0.86503">
        <ele>150.300003</ele>
        <time>2018-06-17T07:47:15Z</time>
      </trkpt>
      <trkpt lat="48.9982" lon="0.86511">
        <ele>150.300003</ele>
        <time>2018-06-17T07:47:18Z</time>
      </trkpt>
      <trkpt lat="48.9983" lon="0.86511">
        <ele>150.5</ele>
        <time>2018-06-17T07:47:20Z</time>
      </trkpt>
      <trkpt lat="48.99841" lon="0.86512">
        <ele>150.600006</ele>
        <time>2018-06-17T07:47:22Z</time>
      </trkpt>
      <trkpt lat="48.99852" lon="0.86512">
        <ele>150.899994</ele>
        <time>2018-06-17T07:47:24Z</time>
      </trkpt>
      <trkpt lat="48.99864" lon="0.8651">
        <ele>151.199997</ele>
        <time>2018-06-17T07:47:26Z</time>
      </trkpt>
      <trkpt lat="48.99871" lon="0.86501">
        <ele>151.300003</ele>
        <time>2018-06-17T07:47:28Z</time>
      </trkpt>
      <trkpt lat="48.99874" lon="0.86488">
        <ele>151.300003</ele>
        <time>2018-06-17T07:47:30Z</time>
      </trkpt>
      <trkpt lat="48.99878" lon="0.86472">
        <ele>151.399994</ele>
        <time>2018-06-17T07:47:32Z</time>
      </trkpt>
      <trkpt lat="48.99883" lon="0.86454">
        <ele>151.699997</ele>
        <time>2018-06-17T07:47:34Z</time>
      </trkpt>
      <trkpt lat="48.99888" lon="0.86436">
        <ele>151.899994</ele>
        <time>2018-06-17T07:47:36Z</time>
      </trkpt>
      <trkpt lat="48.99892" lon="0.86418">
        <ele>152.199997</ele>
        <time>2018-06-17T07:47:38Z</time>
      </trkpt>
      <trkpt lat="48.99897" lon="0.86402">
        <ele>152.5</ele>
        <time>2018-06-17T07:47:40Z</time>
      </trkpt>
      <trkpt lat="48.99901" lon="0.86385">
        <ele>152.5</ele>
        <time>2018-06-17T07:47:42Z</time>
      </trkpt>
      <trkpt lat="48.99906" lon="0.8637">
        <ele>152.600006</ele>
        <time>2018-06-17T07:47:44Z</time>
      </trkpt>
      <trkpt lat="48.99911" lon="0.86355">
        <ele>152.699997</ele>
        <time>2018-06-17T07:47:46Z</time>
      </trkpt>
      <trkpt lat="48.99917" lon="0.86343">
        <ele>152.899994</ele>
        <time>2018-06-17T07:47:48Z</time>
      </trkpt>
      <trkpt lat="48.99922" lon="0.86331">
        <ele>153.100006</ele>
        <time>2018-06-17T07:47:50Z</time>
      </trkpt>
      <trkpt lat="48.99929" lon="0.8632">
        <ele>153.5</ele>
        <time>2018-06-17T07:47:52Z</time>
      </trkpt>
      <trkpt lat="48.99935" lon="0.86309">
        <ele>154</ele>
        <time>2018-06-17T07:47:54Z</time>
      </trkpt>
      <trkpt lat="48.99943" lon="0.86299">
        <ele>154.5</ele>
        <time>2018-06-17T07:47:56Z</time>
      </trkpt>
      <trkpt lat="48.99951" lon="0.86294">
        <ele>154.899994</ele>
        <time>2018-06-17T07:47:58Z</time>
      </trkpt>
      <trkpt lat="48.99961" lon="0.86297">
        <ele>155.300003</ele>
        <time>2018-06-17T07:48:00Z</time>
      </trkpt>
      <trkpt lat="48.99969" lon="0.86305">
        <ele>156</ele>
        <time>2018-06-17T07:48:02Z</time>
      </trkpt>
      <trkpt lat="48.99977" lon="0.86314">
        <ele>156.600006</ele>
        <time>2018-06-17T07:48:04Z</time>
      </trkpt>
      <trkpt lat="48.99984" lon="0.86322">
        <ele>157.5</ele>
        <time>2018-06-17T07:48:06Z</time>
      </trkpt>
      <trkpt lat="48.99992" lon="0.86331">
        <ele>158.100006</ele>
        <time>2018-06-17T07:48:08Z</time>
      </trkpt>
      <trkpt lat="48.99998" lon="0.86344">
        <ele>158.300003</ele>
        <time>2018-06-17T07:48:10Z</time>
      </trkpt>
      <trkpt lat="48.99996" lon="0.86362">
        <ele>158.100006</ele>
        <time>2018-06-17T07:48:12Z</time>
      </trkpt>
      <trkpt lat="48.99981" lon="0.86387">
        <ele>157</ele>
        <time>2018-06-17T07:48:15Z</time>
      </trkpt>
      <trkpt lat="48.99961" lon="0.86415">
        <ele>156.5</ele>
        <time>2018-06-17T07:48:18Z</time>
      </trkpt>
      <trkpt lat="48.99955" lon="0.86425">
        <ele>156.199997</ele>
        <time>2018-06-17T07:48:19Z</time>
      </trkpt>
      <trkpt lat="48.99949" lon="0.86437">
        <ele>155.699997</ele>
        <time>2018-06-17T07:48:20Z</time>
      </trkpt>
      <trkpt lat="48.99943" lon="0.86448">
        <ele>155.300003</ele>
        <time>2018-06-17T07:48:21Z</time>
      </trkpt>
      <trkpt lat="48.99937" lon="0.8646">
        <ele>154.800003</ele>
        <time>2018-06-17T07:48:22Z</time>
      </trkpt>
      <trkpt lat="48.99931" lon="0.86472">
        <ele>154.399994</ele>
        <time>2018-06-17T07:48:23Z</time>
      </trkpt>
      <trkpt lat="48.99925" lon="0.86484">
        <ele>154.300003</ele>
        <time>2018-06-17T07:48:24Z</time>
      </trkpt>
      <trkpt lat="48.99919" lon="0.86496">
        <ele>154</ele>
        <time>2018-06-17T07:48:25Z</time>
      </trkpt>
      <trkpt lat="48.99913" lon="0.86508">
        <ele>153.699997</ele>
        <time>2018-06-17T07:48:26Z</time>
      </trkpt>
      <trkpt lat="48.99907" lon="0.86519">
        <ele>153.5</ele>
        <time>2018-06-17T07:48:27Z</time>
      </trkpt>
      <trkpt lat="48.99902" lon="0.86531">
        <ele>153.399994</ele>
        <time>2018-06-17T07:48:28Z</time>
      </trkpt>
      <trkpt lat="48.99896" lon="0.86543">
        <ele>153.199997</ele>
        <time>2018-06-17T07:48:29Z</time>
      </trkpt>
      <trkpt lat="48.99891" lon="0.86554">
        <ele>153</ele>
        <time>2018-06-17T07:48:30Z</time>
      </trkpt>
      <trkpt lat="48.99885" lon="0.86566">
        <ele>152.899994</ele>
        <time>2018-06-17T07:48:31Z</time>
      </trkpt>
      <trkpt lat="48.9988" lon="0.86577">
        <ele>152.800003</ele>
        <time>2018-06-17T07:48:32Z</time>
      </trkpt>
      <trkpt lat="48.99874" lon="0.86588">
        <ele>152.600006</ele>
        <time>2018-06-17T07:48:33Z</time>
      </trkpt>
      <trkpt lat="48.99869" lon="0.86599">
        <ele>152.399994</ele>
        <time>2018-06-17T07:48:34Z</time>
      </trkpt>
      <trkpt lat="48.99863" lon="0.86611">
        <ele>152.300003</ele>
        <time>2018-06-17T07:48:35Z</time>
      </trkpt>
      <trkpt lat="48.99858" lon="0.86622">
        <ele>152.399994</ele>
        <time>2018-06-17T07:48:36Z</time>
      </trkpt>
      <trkpt lat="48.99852" lon="0.86633">
        <ele>152.300003</ele>
        <time>2018-06-17T07:48:37Z</time>
      </trkpt>
      <trkpt lat="48.99847" lon="0.86644">
        <ele>152.300003</ele>
        <time>2018-06-17T07:48:38Z</time>
      </trkpt>
      <trkpt lat="48.99841" lon="0.86655">
        <ele>152</ele>
        <time>2018-06-17T07:48:39Z</time>
      </trkpt>
      <trkpt lat="48.99836" lon="0.86667">
        <ele>152.100006</ele>
        <time>2018-06-17T07:48:40Z</time>
      </trkpt>
      <trkpt lat="48.99831" lon="0.86678">
        <ele>152.100006</ele>
        <time>2018-06-17T07:48:41Z</time>
      </trkpt>
      <trkpt lat="48.99825" lon="0.8669">
        <ele>152</ele>
        <time>2018-06-17T07:48:42Z</time>
      </trkpt>
      <trkpt lat="48.99819" lon="0.86702">
        <ele>151.899994</ele>
        <time>2018-06-17T07:48:43Z</time>
      </trkpt>
      <trkpt lat="48.99813" lon="0.86714">
        <ele>151.800003</ele>
        <time>2018-06-17T07:48:44Z</time>
      </trkpt>
      <trkpt lat="48.99807" lon="0.86726">
        <ele>151.600006</ele>
        <time>2018-06-17T07:48:45Z</time>
      </trkpt>
      <trkpt lat="48.99802" lon="0.86738">
        <ele>151.600006</ele>
        <time>2018-06-17T07:48:46Z</time>
      </trkpt>
      <trkpt lat="48.99796" lon="0.8675">
        <ele>151.399994</ele>
        <time>2018-06-17T07:48:47Z</time>
      </trkpt>
      <trkpt lat="48.9979" lon="0.86762">
        <ele>151.399994</ele>
        <time>2018-06-17T07:48:48Z</time>
      </trkpt>
      <trkpt lat="48.99784" lon="0.86774">
        <ele>151.300003</ele>
        <time>2018-06-17T07:48:49Z</time>
      </trkpt>
      <trkpt lat="48.99778" lon="0.86786">
        <ele>151.100006</ele>
        <time>2018-06-17T07:48:50Z</time>
      </trkpt>
      <trkpt lat="48.99772" lon="0.86799">
        <ele>151</ele>
        <time>2018-06-17T07:48:51Z</time>
      </trkpt>
      <trkpt lat="48.99767" lon="0.86811">
        <ele>150.800003</ele>
        <time>2018-06-17T07:48:52Z</time>
      </trkpt>
      <trkpt lat="48.99761" lon="0.86823">
        <ele>150.699997</ele>
        <time>2018-06-17T07:48:53Z</time>
      </trkpt>
      <trkpt lat="48.99755" lon="0.86835">
        <ele>150.699997</ele>
        <time>2018-06-17T07:48:54Z</time>
      </trkpt>
      <trkpt lat="48.99749" lon="0.86847">
        <ele>150.600006</ele>
        <time>2018-06-17T07:48:55Z</time>
      </trkpt>
      <trkpt lat="48.99743" lon="0.8686">
        <ele>150.600006</ele>
        <time>2018-06-17T07:48:56Z</time>
      </trkpt>
      <trkpt lat="48.99737" lon="0.86872">
        <ele>150.399994</ele>
        <time>2018-06-17T07:48:57Z</time>
      </trkpt>
      <trkpt lat="48.99731" lon="0.86883">
        <ele>150.300003</ele>
        <time>2018-06-17T07:48:58Z</time>
      </trkpt>
      <trkpt lat="48.99726" lon="0.86895">
        <ele>150.199997</ele>
        <time>2018-06-17T07:48:59Z</time>
      </trkpt>
      <trkpt lat="48.99716" lon="0.86916">
        <ele>150.100006</ele>
        <time>2018-06-17T07:49:01Z</time>
      </trkpt>
      <trkpt lat="48.99712" lon="0.8694">
        <ele>150</ele>
        <time>2018-06-17T07:49:03Z</time>
      </trkpt>
      <trkpt lat="48.99711" lon="0.86963">
        <ele>149.899994</ele>
        <time>2018-06-17T07:49:05Z</time>
      </trkpt>
      <trkpt lat="48.99706" lon="0.86981">
        <ele>149.399994</ele>
        <time>2018-06-17T07:49:07Z</time>
      </trkpt>
      <trkpt lat="48.99695" lon="0.86991">
        <ele>149.199997</ele>
        <time>2018-06-17T07:49:09Z</time>
      </trkpt>
      <trkpt lat="48.99684" lon="0.87002">
        <ele>148.899994</ele>
        <time>2018-06-17T07:49:11Z</time>
      </trkpt>
      <trkpt lat="48.99676" lon="0.87019">
        <ele>148.899994</ele>
        <time>2018-06-17T07:49:13Z</time>
      </trkpt>
      <trkpt lat="48.99671" lon="0.8704">
        <ele>148.899994</ele>
        <time>2018-06-17T07:49:15Z</time>
      </trkpt>
      <trkpt lat="48.99663" lon="0.8706">
        <ele>148.899994</ele>
        <time>2018-06-17T07:49:17Z</time>
      </trkpt>
      <trkpt lat="48.99656" lon="0.8708">
        <ele>148.800003</ele>
        <time>2018-06-17T07:49:19Z</time>
      </trkpt>
      <trkpt lat="48.99652" lon="0.87103">
        <ele>148.600006</ele>
        <time>2018-06-17T07:49:21Z</time>
      </trkpt>
      <trkpt lat="48.99648" lon="0.87123">
        <ele>148.5</ele>
        <time>2018-06-17T07:49:23Z</time>
      </trkpt>
      <trkpt lat="48.99644" lon="0.87143">
        <ele>147.800003</ele>
        <time>2018-06-17T07:49:25Z</time>
      </trkpt>
      <trkpt lat="48.99638" lon="0.87161">
        <ele>147.800003</ele>
        <time>2018-06-17T07:49:27Z</time>
      </trkpt>
      <trkpt lat="48.99631" lon="0.87179">
        <ele>147.699997</ele>
        <time>2018-06-17T07:49:29Z</time>
      </trkpt>
      <trkpt lat="48.99622" lon="0.87195">
        <ele>147.600006</ele>
        <time>2018-06-17T07:49:31Z</time>
      </trkpt>
      <trkpt lat="48.99612" lon="0.87209">
        <ele>147.600006</ele>
        <time>2018-06-17T07:49:33Z</time>
      </trkpt>
      <trkpt lat="48.99601" lon="0.8722">
        <ele>147.5</ele>
        <time>2018-06-17T07:49:35Z</time>
      </trkpt>
      <trkpt lat="48.99589" lon="0.87229">
        <ele>147.600006</ele>
        <time>2018-06-17T07:49:37Z</time>
      </trkpt>
      <trkpt lat="48.99578" lon="0.87236">
        <ele>147.600006</ele>
        <time>2018-06-17T07:49:39Z</time>
      </trkpt>
      <trkpt lat="48.99569" lon="0.87243">
        <ele>147.399994</ele>
        <time>2018-06-17T07:49:41Z</time>
      </trkpt>
      <trkpt lat="48.99561" lon="0.8725">
        <ele>147.300003</ele>
        <time>2018-06-17T07:49:43Z</time>
      </trkpt>
      <trkpt lat="48.99553" lon="0.87259">
        <ele>146.899994</ele>
        <time>2018-06-17T07:49:45Z</time>
      </trkpt>
      <trkpt lat="48.99546" lon="0.87271">
        <ele>146.699997</ele>
        <time>2018-06-17T07:49:47Z</time>
      </trkpt>
      <trkpt lat="48.99542" lon="0.87287">
        <ele>146.800003</ele>
        <time>2018-06-17T07:49:49Z</time>
      </trkpt>
      <trkpt lat="48.9954" lon="0.87304">
        <ele>147</ele>
        <time>2018-06-17T07:49:51Z</time>
      </trkpt>
      <trkpt lat="48.9954" lon="0.87322">
        <ele>146.699997</ele>
        <time>2018-06-17T07:49:53Z</time>
      </trkpt>
      <trkpt lat="48.9954" lon="0.87339">
        <ele>146.699997</ele>
        <time>2018-06-17T07:49:55Z</time>
      </trkpt>
      <trkpt lat="48.9954" lon="0.87357">
        <ele>146.699997</ele>
        <time>2018-06-17T07:49:57Z</time>
      </trkpt>
      <trkpt lat="48.9954" lon="0.87374">
        <ele>146.600006</ele>
        <time>2018-06-17T07:49:59Z</time>
      </trkpt>
      <trkpt lat="48.9954" lon="0.87391">
        <ele>146.399994</ele>
        <time>2018-06-17T07:50:01Z</time>
      </trkpt>
      <trkpt lat="48.99541" lon="0.87409">
        <ele>146.199997</ele>
        <time>2018-06-17T07:50:03Z</time>
      </trkpt>
      <trkpt lat="48.99541" lon="0.87426">
        <ele>146.199997</ele>
        <time>2018-06-17T07:50:05Z</time>
      </trkpt>
      <trkpt lat="48.99541" lon="0.87444">
        <ele>146.300003</ele>
        <time>2018-06-17T07:50:07Z</time>
      </trkpt>
      <trkpt lat="48.99539" lon="0.87463">
        <ele>146.100006</ele>
        <time>2018-06-17T07:50:09Z</time>
      </trkpt>
      <trkpt lat="48.99535" lon="0.8748">
        <ele>146.5</ele>
        <time>2018-06-17T07:50:11Z</time>
      </trkpt>
      <trkpt lat="48.9953" lon="0.87496">
        <ele>146.5</ele>
        <time>2018-06-17T07:50:13Z</time>
      </trkpt>
      <trkpt lat="48.99525" lon="0.87513">
        <ele>146.600006</ele>
        <time>2018-06-17T07:50:15Z</time>
      </trkpt>
      <trkpt lat="48.9952" lon="0.8753">
        <ele>146.800003</ele>
        <time>2018-06-17T07:50:17Z</time>
      </trkpt>
      <trkpt lat="48.99516" lon="0.87547">
        <ele>146.899994</ele>
        <time>2018-06-17T07:50:19Z</time>
      </trkpt>
      <trkpt lat="48.99512" lon="0.87565">
        <ele>147.100006</ele>
        <time>2018-06-17T07:50:21Z</time>
      </trkpt>
      <trkpt lat="48.99508" lon="0.87582">
        <ele>147.199997</ele>
        <time>2018-06-17T07:50:23Z</time>
      </trkpt>
      <trkpt lat="48.99505" lon="0.876">
        <ele>147.5</ele>
        <time>2018-06-17T07:50:25Z</time>
      </trkpt>
      <trkpt lat="48.99502" lon="0.87618">
        <ele>147.5</ele>
        <time>2018-06-17T07:50:27Z</time>
      </trkpt>
      <trkpt lat="48.99498" lon="0.87637">
        <ele>147.600006</ele>
        <time>2018-06-17T07:50:29Z</time>
      </trkpt>
      <trkpt lat="48.99496" lon="0.87656">
        <ele>147.5</ele>
        <time>2018-06-17T07:50:31Z</time>
      </trkpt>
      <trkpt lat="48.99495" lon="0.87674">
        <ele>147.399994</ele>
        <time>2018-06-17T07:50:33Z</time>
      </trkpt>
      <trkpt lat="48.99495" lon="0.87692">
        <ele>147.5</ele>
        <time>2018-06-17T07:50:35Z</time>
      </trkpt>
      <trkpt lat="48.99496" lon="0.8771">
        <ele>147.300003</ele>
        <time>2018-06-17T07:50:37Z</time>
      </trkpt>
      <trkpt lat="48.99497" lon="0.87726">
        <ele>147.300003</ele>
        <time>2018-06-17T07:50:39Z</time>
      </trkpt>
      <trkpt lat="48.99499" lon="0.87743">
        <ele>147.300003</ele>
        <time>2018-06-17T07:50:41Z</time>
      </trkpt>
      <trkpt lat="48.99502" lon="0.87759">
        <ele>147.100006</ele>
        <time>2018-06-17T07:50:43Z</time>
      </trkpt>
      <trkpt lat="48.99505" lon="0.87775">
        <ele>147.100006</ele>
        <time>2018-06-17T07:50:45Z</time>
      </trkpt>
      <trkpt lat="48.99507" lon="0.87791">
        <ele>146.800003</ele>
        <time>2018-06-17T07:50:47Z</time>
      </trkpt>
      <trkpt lat="48.9951" lon="0.87808">
        <ele>146.800003</ele>
        <time>2018-06-17T07:50:49Z</time>
      </trkpt>
      <trkpt lat="48.99513" lon="0.87825">
        <ele>146.5</ele>
        <time>2018-06-17T07:50:51Z</time>
      </trkpt>
      <trkpt lat="48.99515" lon="0.87841">
        <ele>146.5</ele>
        <time>2018-06-17T07:50:53Z</time>
      </trkpt>
      <trkpt lat="48.99517" lon="0.87857">
        <ele>146.5</ele>
        <time>2018-06-17T07:50:55Z</time>
      </trkpt>
      <trkpt lat="48.99519" lon="0.87872">
        <ele>146.5</ele>
        <time>2018-06-17T07:50:57Z</time>
      </trkpt>
      <trkpt lat="48.99521" lon="0.87887">
        <ele>146.899994</ele>
        <time>2018-06-17T07:50:59Z</time>
      </trkpt>
      <trkpt lat="48.99524" lon="0.87901">
        <ele>147.199997</ele>
        <time>2018-06-17T07:51:01Z</time>
      </trkpt>
      <trkpt lat="48.99526" lon="0.87916">
        <ele>147.399994</ele>
        <time>2018-06-17T07:51:03Z</time>
      </trkpt>
      <trkpt lat="48.99529" lon="0.87931">
        <ele>147.5</ele>
        <time>2018-06-17T07:51:05Z</time>
      </trkpt>
      <trkpt lat="48.99532" lon="0.87946">
        <ele>147.600006</ele>
        <time>2018-06-17T07:51:07Z</time>
      </trkpt>
      <trkpt lat="48.99535" lon="0.87962">
        <ele>147.699997</ele>
        <time>2018-06-17T07:51:09Z</time>
      </trkpt>
      <trkpt lat="48.99538" lon="0.87979">
        <ele>147.600006</ele>
        <time>2018-06-17T07:51:11Z</time>
      </trkpt>
      <trkpt lat="48.99542" lon="0.87997">
        <ele>147.5</ele>
        <time>2018-06-17T07:51:13Z</time>
      </trkpt>
      <trkpt lat="48.99545" lon="0.88015">
        <ele>147.5</ele>
        <time>2018-06-17T07:51:15Z</time>
      </trkpt>
      <trkpt lat="48.99548" lon="0.88033">
        <ele>147.399994</ele>
        <time>2018-06-17T07:51:17Z</time>
      </trkpt>
      <trkpt lat="48.99552" lon="0.88053">
        <ele>147.399994</ele>
        <time>2018-06-17T07:51:19Z</time>
      </trkpt>
      <trkpt lat="48.99555" lon="0.88073">
        <ele>147.300003</ele>
        <time>2018-06-17T07:51:21Z</time>
      </trkpt>
      <trkpt lat="48.99559" lon="0.88093">
        <ele>147.100006</ele>
        <time>2018-06-17T07:51:23Z</time>
      </trkpt>
      <trkpt lat="48.99562" lon="0.88113">
        <ele>147.100006</ele>
        <time>2018-06-17T07:51:25Z</time>
      </trkpt>
      <trkpt lat="48.99565" lon="0.88133">
        <ele>146.899994</ele>
        <time>2018-06-17T07:51:27Z</time>
      </trkpt>
      <trkpt lat="48.99569" lon="0.88152">
        <ele>146.899994</ele>
        <time>2018-06-17T07:51:29Z</time>
      </trkpt>
      <trkpt lat="48.99572" lon="0.8817">
        <ele>146.800003</ele>
        <time>2018-06-17T07:51:31Z</time>
      </trkpt>
      <trkpt lat="48.99575" lon="0.88188">
        <ele>147</ele>
        <time>2018-06-17T07:51:33Z</time>
      </trkpt>
      <trkpt lat="48.99579" lon="0.88205">
        <ele>147</ele>
        <time>2018-06-17T07:51:35Z</time>
      </trkpt>
      <trkpt lat="48.99582" lon="0.88222">
        <ele>147.199997</ele>
        <time>2018-06-17T07:51:37Z</time>
      </trkpt>
      <trkpt lat="48.99584" lon="0.88239">
        <ele>147.100006</ele>
        <time>2018-06-17T07:51:39Z</time>
      </trkpt>
      <trkpt lat="48.99587" lon="0.88255">
        <ele>147.199997</ele>
        <time>2018-06-17T07:51:41Z</time>
      </trkpt>
      <trkpt lat="48.99589" lon="0.88272">
        <ele>147.800003</ele>
        <time>2018-06-17T07:51:43Z</time>
      </trkpt>
      <trkpt lat="48.99591" lon="0.88288">
        <ele>148.100006</ele>
        <time>2018-06-17T07:51:45Z</time>
      </trkpt>
      <trkpt lat="48.99594" lon="0.88302">
        <ele>148.300003</ele>
        <time>2018-06-17T07:51:47Z</time>
      </trkpt>
      <trkpt lat="48.99597" lon="0.88316">
        <ele>148.800003</ele>
        <time>2018-06-17T07:51:49Z</time>
      </trkpt>
      <trkpt lat="48.996" lon="0.8833">
        <ele>149.199997</ele>
        <time>2018-06-17T07:51:51Z</time>
      </trkpt>
      <trkpt lat="48.99603" lon="0.88344">
        <ele>149.800003</ele>
        <time>2018-06-17T07:51:53Z</time>
      </trkpt>
      <trkpt lat="48.99605" lon="0.88358">
        <ele>150.199997</ele>
        <time>2018-06-17T07:51:55Z</time>
      </trkpt>
      <trkpt lat="48.99609" lon="0.88372">
        <ele>150.899994</ele>
        <time>2018-06-17T07:51:57Z</time>
      </trkpt>
      <trkpt lat="48.99612" lon="0.88386">
        <ele>151.399994</ele>
        <time>2018-06-17T07:51:59Z</time>
      </trkpt>
      <trkpt lat="48.99615" lon="0.88401">
        <ele>151.899994</ele>
        <time>2018-06-17T07:52:01Z</time>
      </trkpt>
      <trkpt lat="48.99617" lon="0.88417">
        <ele>151.800003</ele>
        <time>2018-06-17T07:52:03Z</time>
      </trkpt>
      <trkpt lat="48.99618" lon="0.88431">
        <ele>152.300003</ele>
        <time>2018-06-17T07:52:05Z</time>
      </trkpt>
      <trkpt lat="48.99619" lon="0.88446">
        <ele>152.600006</ele>
        <time>2018-06-17T07:52:07Z</time>
      </trkpt>
      <trkpt lat="48.9962" lon="0.88461">
        <ele>152.800003</ele>
        <time>2018-06-17T07:52:09Z</time>
      </trkpt>
      <trkpt lat="48.9962" lon="0.88477">
        <ele>153.199997</ele>
        <time>2018-06-17T07:52:11Z</time>
      </trkpt>
      <trkpt lat="48.99621" lon="0.88492">
        <ele>153.600006</ele>
        <time>2018-06-17T07:52:13Z</time>
      </trkpt>
      <trkpt lat="48.99623" lon="0.88507">
        <ele>153.899994</ele>
        <time>2018-06-17T07:52:15Z</time>
      </trkpt>
      <trkpt lat="48.99624" lon="0.88524">
        <ele>154.199997</ele>
        <time>2018-06-17T07:52:17Z</time>
      </trkpt>
      <trkpt lat="48.99624" lon="0.88541">
        <ele>154.399994</ele>
        <time>2018-06-17T07:52:19Z</time>
      </trkpt>
      <trkpt lat="48.99625" lon="0.88557">
        <ele>154.699997</ele>
        <time>2018-06-17T07:52:21Z</time>
      </trkpt>
      <trkpt lat="48.99626" lon="0.88574">
        <ele>155</ele>
        <time>2018-06-17T07:52:23Z</time>
      </trkpt>
      <trkpt lat="48.99628" lon="0.8859">
        <ele>155.100006</ele>
        <time>2018-06-17T07:52:25Z</time>
      </trkpt>
      <trkpt lat="48.9963" lon="0.88607">
        <ele>155.199997</ele>
        <time>2018-06-17T07:52:27Z</time>
      </trkpt>
      <trkpt lat="48.99635" lon="0.88625">
        <ele>155.399994</ele>
        <time>2018-06-17T07:52:29Z</time>
      </trkpt>
      <trkpt lat="48.9964" lon="0.88642">
        <ele>155.5</ele>
        <time>2018-06-17T07:52:31Z</time>
      </trkpt>
      <trkpt lat="48.99644" lon="0.88657">
        <ele>155.600006</ele>
        <time>2018-06-17T07:52:33Z</time>
      </trkpt>
      <trkpt lat="48.99649" lon="0.88673">
        <ele>155.600006</ele>
        <time>2018-06-17T07:52:35Z</time>
      </trkpt>
      <trkpt lat="48.99653" lon="0.88689">
        <ele>155.600006</ele>
        <time>2018-06-17T07:52:37Z</time>
      </trkpt>
      <trkpt lat="48.99656" lon="0.88706">
        <ele>155.800003</ele>
        <time>2018-06-17T07:52:39Z</time>
      </trkpt>
      <trkpt lat="48.99659" lon="0.88724">
        <ele>156</ele>
        <time>2018-06-17T07:52:41Z</time>
      </trkpt>
      <trkpt lat="48.99662" lon="0.88741">
        <ele>156.100006</ele>
        <time>2018-06-17T07:52:43Z</time>
      </trkpt>
      <trkpt lat="48.99665" lon="0.88759">
        <ele>156</ele>
        <time>2018-06-17T07:52:45Z</time>
      </trkpt>
      <trkpt lat="48.99668" lon="0.88777">
        <ele>156.199997</ele>
        <time>2018-06-17T07:52:47Z</time>
      </trkpt>
      <trkpt lat="48.99671" lon="0.88796">
        <ele>156</ele>
        <time>2018-06-17T07:52:49Z</time>
      </trkpt>
      <trkpt lat="48.99674" lon="0.88815">
        <ele>156.100006</ele>
        <time>2018-06-17T07:52:51Z</time>
      </trkpt>
      <trkpt lat="48.99677" lon="0.88835">
        <ele>156.100006</ele>
        <time>2018-06-17T07:52:53Z</time>
      </trkpt>
      <trkpt lat="48.99681" lon="0.88854">
        <ele>156.100006</ele>
        <time>2018-06-17T07:52:55Z</time>
      </trkpt>
      <trkpt lat="48.99685" lon="0.88874">
        <ele>156.199997</ele>
        <time>2018-06-17T07:52:57Z</time>
      </trkpt>
      <trkpt lat="48.99691" lon="0.88892">
        <ele>156.100006</ele>
        <time>2018-06-17T07:52:59Z</time>
      </trkpt>
      <trkpt lat="48.99696" lon="0.88911">
        <ele>156</ele>
        <time>2018-06-17T07:53:01Z</time>
      </trkpt>
      <trkpt lat="48.99702" lon="0.8893">
        <ele>156</ele>
        <time>2018-06-17T07:53:03Z</time>
      </trkpt>
      <trkpt lat="48.99707" lon="0.8895">
        <ele>156</ele>
        <time>2018-06-17T07:53:05Z</time>
      </trkpt>
      <trkpt lat="48.99711" lon="0.8897">
        <ele>155.899994</ele>
        <time>2018-06-17T07:53:07Z</time>
      </trkpt>
      <trkpt lat="48.99711" lon="0.88991">
        <ele>155.699997</ele>
        <time>2018-06-17T07:53:09Z</time>
      </trkpt>
      <trkpt lat="48.9971" lon="0.89012">
        <ele>155.5</ele>
        <time>2018-06-17T07:53:11Z</time>
      </trkpt>
      <trkpt lat="48.99708" lon="0.89034">
        <ele>155.300003</ele>
        <time>2018-06-17T07:53:13Z</time>
      </trkpt>
      <trkpt lat="48.99707" lon="0.89056">
        <ele>155.300003</ele>
        <time>2018-06-17T07:53:15Z</time>
      </trkpt>
      <trkpt lat="48.99707" lon="0.89077">
        <ele>155.199997</ele>
        <time>2018-06-17T07:53:17Z</time>
      </trkpt>
      <trkpt lat="48.99707" lon="0.89099">
        <ele>155</ele>
        <time>2018-06-17T07:53:19Z</time>
      </trkpt>
      <trkpt lat="48.99708" lon="0.89121">
        <ele>154.699997</ele>
        <time>2018-06-17T07:53:21Z</time>
      </trkpt>
      <trkpt lat="48.99709" lon="0.89143">
        <ele>154.399994</ele>
        <time>2018-06-17T07:53:23Z</time>
      </trkpt>
      <trkpt lat="48.9971" lon="0.89164">
        <ele>154.100006</ele>
        <time>2018-06-17T07:53:25Z</time>
      </trkpt>
      <trkpt lat="48.9971" lon="0.89186">
        <ele>153.899994</ele>
        <time>2018-06-17T07:53:27Z</time>
      </trkpt>
      <trkpt lat="48.99709" lon="0.89208">
        <ele>153.899994</ele>
        <time>2018-06-17T07:53:29Z</time>
      </trkpt>
      <trkpt lat="48.99708" lon="0.89229">
        <ele>153.800003</ele>
        <time>2018-06-17T07:53:31Z</time>
      </trkpt>
      <trkpt lat="48.99707" lon="0.89249">
        <ele>153.800003</ele>
        <time>2018-06-17T07:53:33Z</time>
      </trkpt>
      <trkpt lat="48.99707" lon="0.89268">
        <ele>153.699997</ele>
        <time>2018-06-17T07:53:35Z</time>
      </trkpt>
      <trkpt lat="48.99706" lon="0.89288">
        <ele>153.600006</ele>
        <time>2018-06-17T07:53:37Z</time>
      </trkpt>
      <trkpt lat="48.99707" lon="0.89308">
        <ele>153.399994</ele>
        <time>2018-06-17T07:53:39Z</time>
      </trkpt>
      <trkpt lat="48.99708" lon="0.89328">
        <ele>153.399994</ele>
        <time>2018-06-17T07:53:41Z</time>
      </trkpt>
      <trkpt lat="48.99709" lon="0.89349">
        <ele>153.300003</ele>
        <time>2018-06-17T07:53:43Z</time>
      </trkpt>
      <trkpt lat="48.99712" lon="0.8937">
        <ele>153.300003</ele>
        <time>2018-06-17T07:53:45Z</time>
      </trkpt>
      <trkpt lat="48.99715" lon="0.89391">
        <ele>153.399994</ele>
        <time>2018-06-17T07:53:47Z</time>
      </trkpt>
      <trkpt lat="48.99718" lon="0.89411">
        <ele>153.600006</ele>
        <time>2018-06-17T07:53:49Z</time>
      </trkpt>
      <trkpt lat="48.99722" lon="0.89432">
        <ele>153.699997</ele>
        <time>2018-06-17T07:53:51Z</time>
      </trkpt>
      <trkpt lat="48.99724" lon="0.89453">
        <ele>153.899994</ele>
        <time>2018-06-17T07:53:53Z</time>
      </trkpt>
      <trkpt lat="48.99725" lon="0.89473">
        <ele>154.100006</ele>
        <time>2018-06-17T07:53:55Z</time>
      </trkpt>
      <trkpt lat="48.99726" lon="0.89493">
        <ele>154.199997</ele>
        <time>2018-06-17T07:53:57Z</time>
      </trkpt>
      <trkpt lat="48.99723" lon="0.8951">
        <ele>154.199997</ele>
        <time>2018-06-17T07:53:59Z</time>
      </trkpt>
      <trkpt lat="48.99716" lon="0.89518">
        <ele>154.300003</ele>
        <time>2018-06-17T07:54:01Z</time>
      </trkpt>
      <trkpt lat="48.99706" lon="0.89517">
        <ele>154.300003</ele>
        <time>2018-06-17T07:54:03Z</time>
      </trkpt>
      <trkpt lat="48.99696" lon="0.89517">
        <ele>154.5</ele>
        <time>2018-06-17T07:54:05Z</time>
      </trkpt>
      <trkpt lat="48.99686" lon="0.89517">
        <ele>154.800003</ele>
        <time>2018-06-17T07:54:07Z</time>
      </trkpt>
      <trkpt lat="48.99675" lon="0.89517">
        <ele>155.100006</ele>
        <time>2018-06-17T07:54:09Z</time>
      </trkpt>
      <trkpt lat="48.99664" lon="0.8952">
        <ele>155.600006</ele>
        <time>2018-06-17T07:54:11Z</time>
      </trkpt>
      <trkpt lat="48.99652" lon="0.89525">
        <ele>156</ele>
        <time>2018-06-17T07:54:13Z</time>
      </trkpt>
      <trkpt lat="48.9964" lon="0.89531">
        <ele>156.300003</ele>
        <time>2018-06-17T07:54:15Z</time>
      </trkpt>
      <trkpt lat="48.99629" lon="0.89537">
        <ele>156.600006</ele>
        <time>2018-06-17T07:54:17Z</time>
      </trkpt>
      <trkpt lat="48.99617" lon="0.89543">
        <ele>156.899994</ele>
        <time>2018-06-17T07:54:19Z</time>
      </trkpt>
      <trkpt lat="48.99605" lon="0.8955">
        <ele>157.300003</ele>
        <time>2018-06-17T07:54:21Z</time>
      </trkpt>
      <trkpt lat="48.99592" lon="0.89556">
        <ele>157.699997</ele>
        <time>2018-06-17T07:54:23Z</time>
      </trkpt>
      <trkpt lat="48.9958" lon="0.89564">
        <ele>158</ele>
        <time>2018-06-17T07:54:25Z</time>
      </trkpt>
      <trkpt lat="48.99569" lon="0.89571">
        <ele>158.300003</ele>
        <time>2018-06-17T07:54:27Z</time>
      </trkpt>
      <trkpt lat="48.99558" lon="0.89577">
        <ele>158.399994</ele>
        <time>2018-06-17T07:54:29Z</time>
      </trkpt>
      <trkpt lat="48.99548" lon="0.89583">
        <ele>158.399994</ele>
        <time>2018-06-17T07:54:31Z</time>
      </trkpt>
      <trkpt lat="48.99539" lon="0.8959">
        <ele>158.300003</ele>
        <time>2018-06-17T07:54:33Z</time>
      </trkpt>
      <trkpt lat="48.99532" lon="0.89598">
        <ele>158.399994</ele>
        <time>2018-06-17T07:54:35Z</time>
      </trkpt>
      <trkpt lat="48.99525" lon="0.89608">
        <ele>158.399994</ele>
        <time>2018-06-17T07:54:38Z</time>
      </trkpt>
      <trkpt lat="48.99521" lon="0.89621">
        <ele>158</ele>
        <time>2018-06-17T07:54:46Z</time>
      </trkpt>
      <trkpt lat="48.99514" lon="0.89631">
        <ele>157.100006</ele>
        <time>2018-06-17T08:00:29Z</time>
      </trkpt>
      <trkpt lat="48.99508" lon="0.89646">
        <ele>157.100006</ele>
        <time>2018-06-17T08:00:33Z</time>
      </trkpt>
      <trkpt lat="48.99502" lon="0.89662">
        <ele>157.5</ele>
        <time>2018-06-17T08:00:36Z</time>
      </trkpt>
      <trkpt lat="48.99494" lon="0.89679">
        <ele>157.600006</ele>
        <time>2018-06-17T08:00:39Z</time>
      </trkpt>
      <trkpt lat="48.99489" lon="0.89691">
        <ele>157.5</ele>
        <time>2018-06-17T08:00:41Z</time>
      </trkpt>
      <trkpt lat="48.99483" lon="0.89702">
        <ele>157.5</ele>
        <time>2018-06-17T08:00:43Z</time>
      </trkpt>
      <trkpt lat="48.99476" lon="0.89714">
        <ele>157.600006</ele>
        <time>2018-06-17T08:00:45Z</time>
      </trkpt>
      <trkpt lat="48.99469" lon="0.89727">
        <ele>157.699997</ele>
        <time>2018-06-17T08:00:47Z</time>
      </trkpt>
      <trkpt lat="48.99461" lon="0.8974">
        <ele>157.800003</ele>
        <time>2018-06-17T08:00:49Z</time>
      </trkpt>
      <trkpt lat="48.99453" lon="0.89753">
        <ele>157.600006</ele>
        <time>2018-06-17T08:00:51Z</time>
      </trkpt>
      <trkpt lat="48.99445" lon="0.89768">
        <ele>157.600006</ele>
        <time>2018-06-17T08:00:53Z</time>
      </trkpt>
      <trkpt lat="48.99438" lon="0.89782">
        <ele>157.699997</ele>
        <time>2018-06-17T08:00:55Z</time>
      </trkpt>
      <trkpt lat="48.9943" lon="0.89796">
        <ele>157.800003</ele>
        <time>2018-06-17T08:00:57Z</time>
      </trkpt>
      <trkpt lat="48.99422" lon="0.8981">
        <ele>157.600006</ele>
        <time>2018-06-17T08:00:59Z</time>
      </trkpt>
      <trkpt lat="48.99414" lon="0.89824">
        <ele>157.600006</ele>
        <time>2018-06-17T08:01:01Z</time>
      </trkpt>
      <trkpt lat="48.99406" lon="0.89838">
        <ele>157.5</ele>
        <time>2018-06-17T08:01:03Z</time>
      </trkpt>
      <trkpt lat="48.99399" lon="0.89852">
        <ele>157.600006</ele>
        <time>2018-06-17T08:01:05Z</time>
      </trkpt>
      <trkpt lat="48.99391" lon="0.89866">
        <ele>157.399994</ele>
        <time>2018-06-17T08:01:07Z</time>
      </trkpt>
      <trkpt lat="48.99383" lon="0.89879">
        <ele>157.399994</ele>
        <time>2018-06-17T08:01:09Z</time>
      </trkpt>
      <trkpt lat="48.99375" lon="0.89892">
        <ele>157.300003</ele>
        <time>2018-06-17T08:01:11Z</time>
      </trkpt>
      <trkpt lat="48.99365" lon="0.89904">
        <ele>157.199997</ele>
        <time>2018-06-17T08:01:13Z</time>
      </trkpt>
      <trkpt lat="48.99356" lon="0.89916">
        <ele>157.199997</ele>
        <time>2018-06-17T08:01:15Z</time>
      </trkpt>
      <trkpt lat="48.99346" lon="0.89926">
        <ele>157</ele>
        <time>2018-06-17T08:01:17Z</time>
      </trkpt>
      <trkpt lat="48.99336" lon="0.89937">
        <ele>157</ele>
        <time>2018-06-17T08:01:19Z</time>
      </trkpt>
      <trkpt lat="48.99325" lon="0.89947">
        <ele>157.100006</ele>
        <time>2018-06-17T08:01:21Z</time>
      </trkpt>
      <trkpt lat="48.99315" lon="0.89957">
        <ele>156.899994</ele>
        <time>2018-06-17T08:01:23Z</time>
      </trkpt>
      <trkpt lat="48.99305" lon="0.89966">
        <ele>156.699997</ele>
        <time>2018-06-17T08:01:25Z</time>
      </trkpt>
      <trkpt lat="48.99295" lon="0.89974">
        <ele>156.699997</ele>
        <time>2018-06-17T08:01:27Z</time>
      </trkpt>
      <trkpt lat="48.99285" lon="0.89983">
        <ele>156.5</ele>
        <time>2018-06-17T08:01:29Z</time>
      </trkpt>
      <trkpt lat="48.99275" lon="0.89993">
        <ele>156.5</ele>
        <time>2018-06-17T08:01:31Z</time>
      </trkpt>
      <trkpt lat="48.99265" lon="0.90003">
        <ele>156.5</ele>
        <time>2018-06-17T08:01:33Z</time>
      </trkpt>
      <trkpt lat="48.99255" lon="0.90012">
        <ele>156.5</ele>
        <time>2018-06-17T08:01:35Z</time>
      </trkpt>
      <trkpt lat="48.99245" lon="0.90021">
        <ele>156.300003</ele>
        <time>2018-06-17T08:01:37Z</time>
      </trkpt>
      <trkpt lat="48.99235" lon="0.90031">
        <ele>156.300003</ele>
        <time>2018-06-17T08:01:39Z</time>
      </trkpt>
      <trkpt lat="48.99225" lon="0.9004">
        <ele>156.199997</ele>
        <time>2018-06-17T08:01:41Z</time>
      </trkpt>
      <trkpt lat="48.99214" lon="0.90049">
        <ele>156.300003</ele>
        <time>2018-06-17T08:01:43Z</time>
      </trkpt>
      <trkpt lat="48.99204" lon="0.90058">
        <ele>156.300003</ele>
        <time>2018-06-17T08:01:45Z</time>
      </trkpt>
      <trkpt lat="48.99194" lon="0.90067">
        <ele>156.300003</ele>
        <time>2018-06-17T08:01:47Z</time>
      </trkpt>
      <trkpt lat="48.99183" lon="0.90076">
        <ele>156.199997</ele>
        <time>2018-06-17T08:01:49Z</time>
      </trkpt>
      <trkpt lat="48.99173" lon="0.90084">
        <ele>156.100006</ele>
        <time>2018-06-17T08:01:51Z</time>
      </trkpt>
      <trkpt lat="48.99162" lon="0.90092">
        <ele>156.100006</ele>
        <time>2018-06-17T08:01:53Z</time>
      </trkpt>
      <trkpt lat="48.99151" lon="0.901">
        <ele>156</ele>
        <time>2018-06-17T08:01:55Z</time>
      </trkpt>
      <trkpt lat="48.9914" lon="0.90107">
        <ele>155.899994</ele>
        <time>2018-06-17T08:01:57Z</time>
      </trkpt>
      <trkpt lat="48.99129" lon="0.90114">
        <ele>155.800003</ele>
        <time>2018-06-17T08:01:59Z</time>
      </trkpt>
      <trkpt lat="48.99118" lon="0.90122">
        <ele>155.800003</ele>
        <time>2018-06-17T08:02:01Z</time>
      </trkpt>
      <trkpt lat="48.99108" lon="0.90129">
        <ele>155.899994</ele>
        <time>2018-06-17T08:02:03Z</time>
      </trkpt>
      <trkpt lat="48.99097" lon="0.90136">
        <ele>155.699997</ele>
        <time>2018-06-17T08:02:05Z</time>
      </trkpt>
      <trkpt lat="48.99087" lon="0.90143">
        <ele>155.699997</ele>
        <time>2018-06-17T08:02:07Z</time>
      </trkpt>
      <trkpt lat="48.99076" lon="0.9015">
        <ele>155.600006</ele>
        <time>2018-06-17T08:02:09Z</time>
      </trkpt>
      <trkpt lat="48.99066" lon="0.90156">
        <ele>155.699997</ele>
        <time>2018-06-17T08:02:11Z</time>
      </trkpt>
      <trkpt lat="48.99055" lon="0.90163">
        <ele>155.699997</ele>
        <time>2018-06-17T08:02:13Z</time>
      </trkpt>
      <trkpt lat="48.99045" lon="0.9017">
        <ele>155.600006</ele>
        <time>2018-06-17T08:02:15Z</time>
      </trkpt>
      <trkpt lat="48.99035" lon="0.90176">
        <ele>155.5</ele>
        <time>2018-06-17T08:02:17Z</time>
      </trkpt>
      <trkpt lat="48.99025" lon="0.90183">
        <ele>155.5</ele>
        <time>2018-06-17T08:02:19Z</time>
      </trkpt>
      <trkpt lat="48.99014" lon="0.9019">
        <ele>155.5</ele>
        <time>2018-06-17T08:02:21Z</time>
      </trkpt>
      <trkpt lat="48.99004" lon="0.90197">
        <ele>155.600006</ele>
        <time>2018-06-17T08:02:23Z</time>
      </trkpt>
      <trkpt lat="48.98993" lon="0.90203">
        <ele>155.5</ele>
        <time>2018-06-17T08:02:25Z</time>
      </trkpt>
      <trkpt lat="48.98983" lon="0.9021">
        <ele>155.5</ele>
        <time>2018-06-17T08:02:27Z</time>
      </trkpt>
      <trkpt lat="48.98973" lon="0.90217">
        <ele>155.399994</ele>
        <time>2018-06-17T08:02:29Z</time>
      </trkpt>
      <trkpt lat="48.98962" lon="0.90224">
        <ele>155.300003</ele>
        <time>2018-06-17T08:02:31Z</time>
      </trkpt>
      <trkpt lat="48.98952" lon="0.90231">
        <ele>155.199997</ele>
        <time>2018-06-17T08:02:33Z</time>
      </trkpt>
      <trkpt lat="48.98941" lon="0.90238">
        <ele>155.100006</ele>
        <time>2018-06-17T08:02:35Z</time>
      </trkpt>
      <trkpt lat="48.98931" lon="0.90245">
        <ele>155.100006</ele>
        <time>2018-06-17T08:02:37Z</time>
      </trkpt>
      <trkpt lat="48.9892" lon="0.90252">
        <ele>155.100006</ele>
        <time>2018-06-17T08:02:39Z</time>
      </trkpt>
      <trkpt lat="48.9891" lon="0.90259">
        <ele>155.100006</ele>
        <time>2018-06-17T08:02:41Z</time>
      </trkpt>
      <trkpt lat="48.989" lon="0.90267">
        <ele>155.300003</ele>
        <time>2018-06-17T08:02:43Z</time>
      </trkpt>
      <trkpt lat="48.9889" lon="0.90274">
        <ele>155.199997</ele>
        <time>2018-06-17T08:02:45Z</time>
      </trkpt>
      <trkpt lat="48.98879" lon="0.90282">
        <ele>155.100006</ele>
        <time>2018-06-17T08:02:47Z</time>
      </trkpt>
      <trkpt lat="48.98869" lon="0.90289">
        <ele>155.100006</ele>
        <time>2018-06-17T08:02:49Z</time>
      </trkpt>
      <trkpt lat="48.9886" lon="0.90297">
        <ele>155.100006</ele>
        <time>2018-06-17T08:02:51Z</time>
      </trkpt>
      <trkpt lat="48.9885" lon="0.90305">
        <ele>155</ele>
        <time>2018-06-17T08:02:53Z</time>
      </trkpt>
      <trkpt lat="48.98841" lon="0.90313">
        <ele>155</ele>
        <time>2018-06-17T08:02:55Z</time>
      </trkpt>
      <trkpt lat="48.98832" lon="0.9032">
        <ele>155</ele>
        <time>2018-06-17T08:02:57Z</time>
      </trkpt>
      <trkpt lat="48.98822" lon="0.90328">
        <ele>155</ele>
        <time>2018-06-17T08:02:59Z</time>
      </trkpt>
      <trkpt lat="48.98812" lon="0.90335">
        <ele>155</ele>
        <time>2018-06-17T08:03:01Z</time>
      </trkpt>
      <trkpt lat="48.98803" lon="0.90344">
        <ele>154.899994</ele>
        <time>2018-06-17T08:03:03Z</time>
      </trkpt>
      <trkpt lat="48.98793" lon="0.90353">
        <ele>154.899994</ele>
        <time>2018-06-17T08:03:05Z</time>
      </trkpt>
      <trkpt lat="48.98782" lon="0.9036">
        <ele>154.899994</ele>
        <time>2018-06-17T08:03:07Z</time>
      </trkpt>
      <trkpt lat="48.98771" lon="0.90366">
        <ele>155</ele>
        <time>2018-06-17T08:03:09Z</time>
      </trkpt>
      <trkpt lat="48.9876" lon="0.90373">
        <ele>155.100006</ele>
        <time>2018-06-17T08:03:11Z</time>
      </trkpt>
      <trkpt lat="48.98751" lon="0.90379">
        <ele>154.800003</ele>
        <time>2018-06-17T08:03:13Z</time>
      </trkpt>
      <trkpt lat="48.98743" lon="0.90386">
        <ele>154</ele>
        <time>2018-06-17T08:03:16Z</time>
      </trkpt>
      <trkpt lat="48.98734" lon="0.90395">
        <ele>153.699997</ele>
        <time>2018-06-17T08:03:19Z</time>
      </trkpt>
      <trkpt lat="48.98722" lon="0.90406">
        <ele>153.399994</ele>
        <time>2018-06-17T08:03:22Z</time>
      </trkpt>
      <trkpt lat="48.98714" lon="0.90414">
        <ele>153.199997</ele>
        <time>2018-06-17T08:03:24Z</time>
      </trkpt>
      <trkpt lat="48.98707" lon="0.90422">
        <ele>153.100006</ele>
        <time>2018-06-17T08:03:26Z</time>
      </trkpt>
      <trkpt lat="48.98699" lon="0.9043">
        <ele>153.100006</ele>
        <time>2018-06-17T08:03:28Z</time>
      </trkpt>
      <trkpt lat="48.98692" lon="0.90438">
        <ele>153.100006</ele>
        <time>2018-06-17T08:03:30Z</time>
      </trkpt>
      <trkpt lat="48.98684" lon="0.90447">
        <ele>153.100006</ele>
        <time>2018-06-17T08:03:32Z</time>
      </trkpt>
      <trkpt lat="48.98676" lon="0.90455">
        <ele>153</ele>
        <time>2018-06-17T08:03:34Z</time>
      </trkpt>
      <trkpt lat="48.98667" lon="0.90463">
        <ele>152.899994</ele>
        <time>2018-06-17T08:03:36Z</time>
      </trkpt>
      <trkpt lat="48.98658" lon="0.90472">
        <ele>152.800003</ele>
        <time>2018-06-17T08:03:38Z</time>
      </trkpt>
      <trkpt lat="48.98649" lon="0.9048">
        <ele>152.600006</ele>
        <time>2018-06-17T08:03:40Z</time>
      </trkpt>
      <trkpt lat="48.9864" lon="0.90489">
        <ele>152.5</ele>
        <time>2018-06-17T08:03:42Z</time>
      </trkpt>
      <trkpt lat="48.98631" lon="0.90498">
        <ele>152.399994</ele>
        <time>2018-06-17T08:03:44Z</time>
      </trkpt>
      <trkpt lat="48.98622" lon="0.90508">
        <ele>152.399994</ele>
        <time>2018-06-17T08:03:46Z</time>
      </trkpt>
      <trkpt lat="48.98613" lon="0.90517">
        <ele>152.300003</ele>
        <time>2018-06-17T08:03:48Z</time>
      </trkpt>
      <trkpt lat="48.98604" lon="0.90526">
        <ele>152.300003</ele>
        <time>2018-06-17T08:03:50Z</time>
      </trkpt>
      <trkpt lat="48.98595" lon="0.90535">
        <ele>152</ele>
        <time>2018-06-17T08:03:52Z</time>
      </trkpt>
      <trkpt lat="48.98586" lon="0.90544">
        <ele>152.100006</ele>
        <time>2018-06-17T08:03:54Z</time>
      </trkpt>
      <trkpt lat="48.98577" lon="0.90552">
        <ele>152.100006</ele>
        <time>2018-06-17T08:03:56Z</time>
      </trkpt>
      <trkpt lat="48.98568" lon="0.90561">
        <ele>152</ele>
        <time>2018-06-17T08:03:58Z</time>
      </trkpt>
      <trkpt lat="48.98559" lon="0.9057">
        <ele>151.800003</ele>
        <time>2018-06-17T08:04:00Z</time>
      </trkpt>
      <trkpt lat="48.9855" lon="0.90579">
        <ele>151.800003</ele>
        <time>2018-06-17T08:04:02Z</time>
      </trkpt>
      <trkpt lat="48.9854" lon="0.90588">
        <ele>151.800003</ele>
        <time>2018-06-17T08:04:04Z</time>
      </trkpt>
      <trkpt lat="48.98531" lon="0.90597">
        <ele>151.800003</ele>
        <time>2018-06-17T08:04:06Z</time>
      </trkpt>
      <trkpt lat="48.98522" lon="0.90606">
        <ele>151.899994</ele>
        <time>2018-06-17T08:04:08Z</time>
      </trkpt>
      <trkpt lat="48.98513" lon="0.90616">
        <ele>152</ele>
        <time>2018-06-17T08:04:10Z</time>
      </trkpt>
      <trkpt lat="48.98505" lon="0.90625">
        <ele>152</ele>
        <time>2018-06-17T08:04:12Z</time>
      </trkpt>
      <trkpt lat="48.98496" lon="0.90634">
        <ele>151.899994</ele>
        <time>2018-06-17T08:04:14Z</time>
      </trkpt>
      <trkpt lat="48.98488" lon="0.90643">
        <ele>151.699997</ele>
        <time>2018-06-17T08:04:16Z</time>
      </trkpt>
      <trkpt lat="48.98479" lon="0.90652">
        <ele>151.800003</ele>
        <time>2018-06-17T08:04:18Z</time>
      </trkpt>
      <trkpt lat="48.9847" lon="0.90661">
        <ele>151.699997</ele>
        <time>2018-06-17T08:04:20Z</time>
      </trkpt>
      <trkpt lat="48.98461" lon="0.90671">
        <ele>151.600006</ele>
        <time>2018-06-17T08:04:22Z</time>
      </trkpt>
      <trkpt lat="48.98453" lon="0.9068">
        <ele>151.5</ele>
        <time>2018-06-17T08:04:24Z</time>
      </trkpt>
      <trkpt lat="48.98444" lon="0.9069">
        <ele>151.300003</ele>
        <time>2018-06-17T08:04:26Z</time>
      </trkpt>
      <trkpt lat="48.98435" lon="0.90699">
        <ele>151.399994</ele>
        <time>2018-06-17T08:04:28Z</time>
      </trkpt>
      <trkpt lat="48.98426" lon="0.90708">
        <ele>151.399994</ele>
        <time>2018-06-17T08:04:30Z</time>
      </trkpt>
      <trkpt lat="48.98417" lon="0.90717">
        <ele>151.300003</ele>
        <time>2018-06-17T08:04:32Z</time>
      </trkpt>
      <trkpt lat="48.98408" lon="0.90725">
        <ele>151.300003</ele>
        <time>2018-06-17T08:04:34Z</time>
      </trkpt>
      <trkpt lat="48.98399" lon="0.90733">
        <ele>151.199997</ele>
        <time>2018-06-17T08:04:36Z</time>
      </trkpt>
      <trkpt lat="48.9839" lon="0.9074">
        <ele>151.100006</ele>
        <time>2018-06-17T08:04:38Z</time>
      </trkpt>
      <trkpt lat="48.98381" lon="0.90748">
        <ele>150.899994</ele>
        <time>2018-06-17T08:04:40Z</time>
      </trkpt>
      <trkpt lat="48.98372" lon="0.90755">
        <ele>150.800003</ele>
        <time>2018-06-17T08:04:42Z</time>
      </trkpt>
      <trkpt lat="48.98363" lon="0.90761">
        <ele>150.600006</ele>
        <time>2018-06-17T08:04:44Z</time>
      </trkpt>
      <trkpt lat="48.98354" lon="0.90768">
        <ele>150.5</ele>
        <time>2018-06-17T08:04:46Z</time>
      </trkpt>
      <trkpt lat="48.98344" lon="0.90776">
        <ele>150.399994</ele>
        <time>2018-06-17T08:04:49Z</time>
      </trkpt>
      <trkpt lat="48.98333" lon="0.90787">
        <ele>150.300003</ele>
        <time>2018-06-17T08:04:52Z</time>
      </trkpt>
      <trkpt lat="48.98325" lon="0.90795">
        <ele>150.399994</ele>
        <time>2018-06-17T08:04:54Z</time>
      </trkpt>
      <trkpt lat="48.98316" lon="0.90802">
        <ele>150.5</ele>
        <time>2018-06-17T08:04:56Z</time>
      </trkpt>
      <trkpt lat="48.98307" lon="0.90809">
        <ele>150.399994</ele>
        <time>2018-06-17T08:04:58Z</time>
      </trkpt>
      <trkpt lat="48.98296" lon="0.90813">
        <ele>150.399994</ele>
        <time>2018-06-17T08:05:00Z</time>
      </trkpt>
      <trkpt lat="48.98284" lon="0.90818">
        <ele>150.5</ele>
        <time>2018-06-17T08:05:02Z</time>
      </trkpt>
      <trkpt lat="48.98272" lon="0.90825">
        <ele>150.199997</ele>
        <time>2018-06-17T08:05:04Z</time>
      </trkpt>
      <trkpt lat="48.98259" lon="0.90831">
        <ele>150.199997</ele>
        <time>2018-06-17T08:05:06Z</time>
      </trkpt>
      <trkpt lat="48.98245" lon="0.90838">
        <ele>150</ele>
        <time>2018-06-17T08:05:08Z</time>
      </trkpt>
      <trkpt lat="48.98232" lon="0.90846">
        <ele>149.699997</ele>
        <time>2018-06-17T08:05:10Z</time>
      </trkpt>
      <trkpt lat="48.98218" lon="0.90853">
        <ele>149.199997</ele>
        <time>2018-06-17T08:05:12Z</time>
      </trkpt>
      <trkpt lat="48.98204" lon="0.9086">
        <ele>149.100006</ele>
        <time>2018-06-17T08:05:14Z</time>
      </trkpt>
      <trkpt lat="48.9819" lon="0.90866">
        <ele>148.899994</ele>
        <time>2018-06-17T08:05:16Z</time>
      </trkpt>
      <trkpt lat="48.98174" lon="0.90869">
        <ele>148.399994</ele>
        <time>2018-06-17T08:05:18Z</time>
      </trkpt>
      <trkpt lat="48.98159" lon="0.90872">
        <ele>148.199997</ele>
        <time>2018-06-17T08:05:20Z</time>
      </trkpt>
      <trkpt lat="48.98142" lon="0.90875">
        <ele>147.699997</ele>
        <time>2018-06-17T08:05:22Z</time>
      </trkpt>
      <trkpt lat="48.98126" lon="0.90878">
        <ele>147.399994</ele>
        <time>2018-06-17T08:05:24Z</time>
      </trkpt>
      <trkpt lat="48.9811" lon="0.90881">
        <ele>147</ele>
        <time>2018-06-17T08:05:26Z</time>
      </trkpt>
      <trkpt lat="48.98094" lon="0.90884">
        <ele>146.899994</ele>
        <time>2018-06-17T08:05:28Z</time>
      </trkpt>
      <trkpt lat="48.98077" lon="0.90887">
        <ele>146.800003</ele>
        <time>2018-06-17T08:05:30Z</time>
      </trkpt>
      <trkpt lat="48.98061" lon="0.90889">
        <ele>146.600006</ele>
        <time>2018-06-17T08:05:32Z</time>
      </trkpt>
      <trkpt lat="48.98044" lon="0.90891">
        <ele>146.399994</ele>
        <time>2018-06-17T08:05:34Z</time>
      </trkpt>
      <trkpt lat="48.98028" lon="0.90894">
        <ele>146.399994</ele>
        <time>2018-06-17T08:05:36Z</time>
      </trkpt>
      <trkpt lat="48.98013" lon="0.90896">
        <ele>146.300003</ele>
        <time>2018-06-17T08:05:38Z</time>
      </trkpt>
      <trkpt lat="48.97998" lon="0.90899">
        <ele>146.5</ele>
        <time>2018-06-17T08:05:40Z</time>
      </trkpt>
      <trkpt lat="48.97984" lon="0.90901">
        <ele>146.800003</ele>
        <time>2018-06-17T08:05:42Z</time>
      </trkpt>
      <trkpt lat="48.97971" lon="0.90903">
        <ele>147.100006</ele>
        <time>2018-06-17T08:05:44Z</time>
      </trkpt>
      <trkpt lat="48.97959" lon="0.90909">
        <ele>147.300003</ele>
        <time>2018-06-17T08:05:46Z</time>
      </trkpt>
      <trkpt lat="48.97949" lon="0.90918">
        <ele>147.300003</ele>
        <time>2018-06-17T08:05:48Z</time>
      </trkpt>
      <trkpt lat="48.9794" lon="0.90928">
        <ele>147.800003</ele>
        <time>2018-06-17T08:05:50Z</time>
      </trkpt>
      <trkpt lat="48.97932" lon="0.9094">
        <ele>148.199997</ele>
        <time>2018-06-17T08:05:52Z</time>
      </trkpt>
      <trkpt lat="48.97925" lon="0.90953">
        <ele>148.300003</ele>
        <time>2018-06-17T08:05:54Z</time>
      </trkpt>
      <trkpt lat="48.97918" lon="0.90965">
        <ele>148.600006</ele>
        <time>2018-06-17T08:05:56Z</time>
      </trkpt>
      <trkpt lat="48.97914" lon="0.9098">
        <ele>148.600006</ele>
        <time>2018-06-17T08:05:58Z</time>
      </trkpt>
      <trkpt lat="48.97914" lon="0.90997">
        <ele>148.699997</ele>
        <time>2018-06-17T08:06:00Z</time>
      </trkpt>
      <trkpt lat="48.97914" lon="0.91015">
        <ele>149.100006</ele>
        <time>2018-06-17T08:06:02Z</time>
      </trkpt>
      <trkpt lat="48.97914" lon="0.91033">
        <ele>148.800003</ele>
        <time>2018-06-17T08:06:04Z</time>
      </trkpt>
      <trkpt lat="48.97916" lon="0.9105">
        <ele>148.699997</ele>
        <time>2018-06-17T08:06:06Z</time>
      </trkpt>
      <trkpt lat="48.97917" lon="0.91068">
        <ele>148.5</ele>
        <time>2018-06-17T08:06:08Z</time>
      </trkpt>
      <trkpt lat="48.97919" lon="0.91086">
        <ele>148.300003</ele>
        <time>2018-06-17T08:06:10Z</time>
      </trkpt>
      <trkpt lat="48.97921" lon="0.91105">
        <ele>148.199997</ele>
        <time>2018-06-17T08:06:12Z</time>
      </trkpt>
      <trkpt lat="48.97923" lon="0.91124">
        <ele>148.100006</ele>
        <time>2018-06-17T08:06:14Z</time>
      </trkpt>
      <trkpt lat="48.97925" lon="0.91142">
        <ele>147.899994</ele>
        <time>2018-06-17T08:06:16Z</time>
      </trkpt>
      <trkpt lat="48.97927" lon="0.91161">
        <ele>147.399994</ele>
        <time>2018-06-17T08:06:18Z</time>
      </trkpt>
      <trkpt lat="48.97929" lon="0.91181">
        <ele>147.100006</ele>
        <time>2018-06-17T08:06:20Z</time>
      </trkpt>
      <trkpt lat="48.97931" lon="0.912">
        <ele>146.899994</ele>
        <time>2018-06-17T08:06:22Z</time>
      </trkpt>
      <trkpt lat="48.97933" lon="0.9122">
        <ele>146.399994</ele>
        <time>2018-06-17T08:06:24Z</time>
      </trkpt>
      <trkpt lat="48.97936" lon="0.91239">
        <ele>146.300003</ele>
        <time>2018-06-17T08:06:26Z</time>
      </trkpt>
      <trkpt lat="48.97938" lon="0.91259">
        <ele>145.899994</ele>
        <time>2018-06-17T08:06:28Z</time>
      </trkpt>
      <trkpt lat="48.9794" lon="0.91279">
        <ele>145.899994</ele>
        <time>2018-06-17T08:06:30Z</time>
      </trkpt>
      <trkpt lat="48.97942" lon="0.913">
        <ele>145.399994</ele>
        <time>2018-06-17T08:06:32Z</time>
      </trkpt>
      <trkpt lat="48.97945" lon="0.9132">
        <ele>144.800003</ele>
        <time>2018-06-17T08:06:34Z</time>
      </trkpt>
      <trkpt lat="48.97947" lon="0.91338">
        <ele>144</ele>
        <time>2018-06-17T08:06:36Z</time>
      </trkpt>
      <trkpt lat="48.97949" lon="0.91356">
        <ele>143.199997</ele>
        <time>2018-06-17T08:06:38Z</time>
      </trkpt>
      <trkpt lat="48.97951" lon="0.91372">
        <ele>142.300003</ele>
        <time>2018-06-17T08:06:40Z</time>
      </trkpt>
      <trkpt lat="48.97954" lon="0.91389">
        <ele>141.600006</ele>
        <time>2018-06-17T08:06:42Z</time>
      </trkpt>
      <trkpt lat="48.97955" lon="0.91406">
        <ele>140.699997</ele>
        <time>2018-06-17T08:06:45Z</time>
      </trkpt>
      <trkpt lat="48.97956" lon="0.91421">
        <ele>140.100006</ele>
        <time>2018-06-17T08:06:48Z</time>
      </trkpt>
      <trkpt lat="48.97958" lon="0.91438">
        <ele>141.100006</ele>
        <time>2018-06-17T08:06:52Z</time>
      </trkpt>
      <trkpt lat="48.97956" lon="0.91454">
        <ele>142.300003</ele>
        <time>2018-06-17T08:06:56Z</time>
      </trkpt>
      <trkpt lat="48.97958" lon="0.9147">
        <ele>143.600006</ele>
        <time>2018-06-17T08:07:00Z</time>
      </trkpt>
      <trkpt lat="48.97959" lon="0.91488">
        <ele>144.399994</ele>
        <time>2018-06-17T08:07:03Z</time>
      </trkpt>
      <trkpt lat="48.9796" lon="0.91507">
        <ele>144.800003</ele>
        <time>2018-06-17T08:07:06Z</time>
      </trkpt>
      <trkpt lat="48.9796" lon="0.91527">
        <ele>145.5</ele>
        <time>2018-06-17T08:07:09Z</time>
      </trkpt>
      <trkpt lat="48.97958" lon="0.91543">
        <ele>145.800003</ele>
        <time>2018-06-17T08:07:12Z</time>
      </trkpt>
      <trkpt lat="48.97958" lon="0.91561">
        <ele>145.899994</ele>
        <time>2018-06-17T08:07:15Z</time>
      </trkpt>
      <trkpt lat="48.97961" lon="0.91577">
        <ele>145.899994</ele>
        <time>2018-06-17T08:07:17Z</time>
      </trkpt>
      <trkpt lat="48.97958" lon="0.9159">
        <ele>146</ele>
        <time>2018-06-17T08:07:21Z</time>
      </trkpt>
      <trkpt lat="48.97947" lon="0.91599">
        <ele>146.100006</ele>
        <time>2018-06-17T08:07:24Z</time>
      </trkpt>
      <trkpt lat="48.97937" lon="0.91608">
        <ele>146.100006</ele>
        <time>2018-06-17T08:07:27Z</time>
      </trkpt>
      <trkpt lat="48.97925" lon="0.91621">
        <ele>146.100006</ele>
        <time>2018-06-17T08:07:30Z</time>
      </trkpt>
      <trkpt lat="48.97914" lon="0.91631">
        <ele>146.100006</ele>
        <time>2018-06-17T08:07:32Z</time>
      </trkpt>
      <trkpt lat="48.97905" lon="0.91641">
        <ele>146.199997</ele>
        <time>2018-06-17T08:07:34Z</time>
      </trkpt>
      <trkpt lat="48.97896" lon="0.9165">
        <ele>146.300003</ele>
        <time>2018-06-17T08:07:36Z</time>
      </trkpt>
      <trkpt lat="48.97885" lon="0.91662">
        <ele>146.300003</ele>
        <time>2018-06-17T08:07:39Z</time>
      </trkpt>
      <trkpt lat="48.97876" lon="0.9167">
        <ele>146.100006</ele>
        <time>2018-06-17T08:07:41Z</time>
      </trkpt>
      <trkpt lat="48.97865" lon="0.91673">
        <ele>146.100006</ele>
        <time>2018-06-17T08:07:43Z</time>
      </trkpt>
      <trkpt lat="48.97855" lon="0.91685">
        <ele>146</ele>
        <time>2018-06-17T08:07:46Z</time>
      </trkpt>
      <trkpt lat="48.97848" lon="0.91698">
        <ele>145.899994</ele>
        <time>2018-06-17T08:07:48Z</time>
      </trkpt>
      <trkpt lat="48.97838" lon="0.91716">
        <ele>145.800003</ele>
        <time>2018-06-17T08:07:51Z</time>
      </trkpt>
      <trkpt lat="48.97831" lon="0.91731">
        <ele>145.600006</ele>
        <time>2018-06-17T08:07:53Z</time>
      </trkpt>
      <trkpt lat="48.97825" lon="0.91745">
        <ele>145.5</ele>
        <time>2018-06-17T08:07:55Z</time>
      </trkpt>
      <trkpt lat="48.9782" lon="0.91761">
        <ele>145.300003</ele>
        <time>2018-06-17T08:07:57Z</time>
      </trkpt>
      <trkpt lat="48.97816" lon="0.91777">
        <ele>145</ele>
        <time>2018-06-17T08:07:59Z</time>
      </trkpt>
      <trkpt lat="48.97811" lon="0.91793">
        <ele>144.600006</ele>
        <time>2018-06-17T08:08:02Z</time>
      </trkpt>
      <trkpt lat="48.97808" lon="0.91807">
        <ele>144.5</ele>
        <time>2018-06-17T08:08:04Z</time>
      </trkpt>
      <trkpt lat="48.97804" lon="0.91824">
        <ele>144.300003</ele>
        <time>2018-06-17T08:08:06Z</time>
      </trkpt>
      <trkpt lat="48.978" lon="0.91837">
        <ele>144.600006</ele>
        <time>2018-06-17T08:08:08Z</time>
      </trkpt>
      <trkpt lat="48.97796" lon="0.91852">
        <ele>144.800003</ele>
        <time>2018-06-17T08:08:10Z</time>
      </trkpt>
      <trkpt lat="48.97792" lon="0.91868">
        <ele>144.899994</ele>
        <time>2018-06-17T08:08:12Z</time>
      </trkpt>
      <trkpt lat="48.97786" lon="0.91883">
        <ele>145</ele>
        <time>2018-06-17T08:08:14Z</time>
      </trkpt>
      <trkpt lat="48.97782" lon="0.91899">
        <ele>145.100006</ele>
        <time>2018-06-17T08:08:16Z</time>
      </trkpt>
      <trkpt lat="48.97776" lon="0.91916">
        <ele>145.100006</ele>
        <time>2018-06-17T08:08:18Z</time>
      </trkpt>
      <trkpt lat="48.9777" lon="0.9193">
        <ele>145.199997</ele>
        <time>2018-06-17T08:08:20Z</time>
      </trkpt>
      <trkpt lat="48.97764" lon="0.91947">
        <ele>145.300003</ele>
        <time>2018-06-17T08:08:22Z</time>
      </trkpt>
      <trkpt lat="48.97758" lon="0.91963">
        <ele>145.600006</ele>
        <time>2018-06-17T08:08:24Z</time>
      </trkpt>
      <trkpt lat="48.97752" lon="0.91976">
        <ele>145.600006</ele>
        <time>2018-06-17T08:08:26Z</time>
      </trkpt>
      <trkpt lat="48.97747" lon="0.91987">
        <ele>145.699997</ele>
        <time>2018-06-17T08:08:28Z</time>
      </trkpt>
      <trkpt lat="48.97739" lon="0.92">
        <ele>145.699997</ele>
        <time>2018-06-17T08:08:30Z</time>
      </trkpt>
      <trkpt lat="48.9773" lon="0.92014">
        <ele>145.699997</ele>
        <time>2018-06-17T08:08:32Z</time>
      </trkpt>
      <trkpt lat="48.9772" lon="0.92029">
        <ele>145.600006</ele>
        <time>2018-06-17T08:08:34Z</time>
      </trkpt>
      <trkpt lat="48.97713" lon="0.92043">
        <ele>145.100006</ele>
        <time>2018-06-17T08:08:36Z</time>
      </trkpt>
      <trkpt lat="48.97703" lon="0.92061">
        <ele>144.899994</ele>
        <time>2018-06-17T08:08:38Z</time>
      </trkpt>
      <trkpt lat="48.97699" lon="0.92081">
        <ele>144.800003</ele>
        <time>2018-06-17T08:08:40Z</time>
      </trkpt>
      <trkpt lat="48.97693" lon="0.92101">
        <ele>144.800003</ele>
        <time>2018-06-17T08:08:42Z</time>
      </trkpt>
      <trkpt lat="48.97687" lon="0.9212">
        <ele>144.699997</ele>
        <time>2018-06-17T08:08:44Z</time>
      </trkpt>
      <trkpt lat="48.97684" lon="0.92141">
        <ele>144.699997</ele>
        <time>2018-06-17T08:08:46Z</time>
      </trkpt>
      <trkpt lat="48.97679" lon="0.9216">
        <ele>144.600006</ele>
        <time>2018-06-17T08:08:48Z</time>
      </trkpt>
      <trkpt lat="48.97672" lon="0.92177">
        <ele>144.600006</ele>
        <time>2018-06-17T08:08:50Z</time>
      </trkpt>
      <trkpt lat="48.97665" lon="0.92197">
        <ele>144.600006</ele>
        <time>2018-06-17T08:08:52Z</time>
      </trkpt>
      <trkpt lat="48.97661" lon="0.92215">
        <ele>144.5</ele>
        <time>2018-06-17T08:08:54Z</time>
      </trkpt>
      <trkpt lat="48.97656" lon="0.92233">
        <ele>144.199997</ele>
        <time>2018-06-17T08:08:56Z</time>
      </trkpt>
      <trkpt lat="48.97651" lon="0.9225">
        <ele>144</ele>
        <time>2018-06-17T08:08:58Z</time>
      </trkpt>
      <trkpt lat="48.97645" lon="0.92265">
        <ele>143.600006</ele>
        <time>2018-06-17T08:09:00Z</time>
      </trkpt>
      <trkpt lat="48.97637" lon="0.9228">
        <ele>143.300003</ele>
        <time>2018-06-17T08:09:02Z</time>
      </trkpt>
      <trkpt lat="48.97632" lon="0.92295">
        <ele>143</ele>
        <time>2018-06-17T08:09:04Z</time>
      </trkpt>
      <trkpt lat="48.97626" lon="0.9231">
        <ele>142.600006</ele>
        <time>2018-06-17T08:09:06Z</time>
      </trkpt>
      <trkpt lat="48.97618" lon="0.92327">
        <ele>142.300003</ele>
        <time>2018-06-17T08:09:08Z</time>
      </trkpt>
      <trkpt lat="48.97612" lon="0.92345">
        <ele>141.800003</ele>
        <time>2018-06-17T08:09:10Z</time>
      </trkpt>
      <trkpt lat="48.9761" lon="0.92367">
        <ele>141.100006</ele>
        <time>2018-06-17T08:09:12Z</time>
      </trkpt>
      <trkpt lat="48.97607" lon="0.92384">
        <ele>140.699997</ele>
        <time>2018-06-17T08:09:14Z</time>
      </trkpt>
      <trkpt lat="48.97597" lon="0.92397">
        <ele>140.199997</ele>
        <time>2018-06-17T08:09:16Z</time>
      </trkpt>
      <trkpt lat="48.97589" lon="0.9241">
        <ele>140.399994</ele>
        <time>2018-06-17T08:09:18Z</time>
      </trkpt>
      <trkpt lat="48.97582" lon="0.9242">
        <ele>140.899994</ele>
        <time>2018-06-17T08:09:20Z</time>
      </trkpt>
      <trkpt lat="48.97573" lon="0.92433">
        <ele>141.5</ele>
        <time>2018-06-17T08:09:22Z</time>
      </trkpt>
      <trkpt lat="48.97562" lon="0.92441">
        <ele>142.100006</ele>
        <time>2018-06-17T08:09:24Z</time>
      </trkpt>
      <trkpt lat="48.97554" lon="0.9245">
        <ele>142.600006</ele>
        <time>2018-06-17T08:09:26Z</time>
      </trkpt>
      <trkpt lat="48.97542" lon="0.9246">
        <ele>142.899994</ele>
        <time>2018-06-17T08:09:28Z</time>
      </trkpt>
      <trkpt lat="48.97529" lon="0.92469">
        <ele>143.100006</ele>
        <time>2018-06-17T08:09:30Z</time>
      </trkpt>
      <trkpt lat="48.97519" lon="0.92479">
        <ele>143.399994</ele>
        <time>2018-06-17T08:09:32Z</time>
      </trkpt>
      <trkpt lat="48.97509" lon="0.92487">
        <ele>143.5</ele>
        <time>2018-06-17T08:09:34Z</time>
      </trkpt>
      <trkpt lat="48.97501" lon="0.92498">
        <ele>143.800003</ele>
        <time>2018-06-17T08:09:36Z</time>
      </trkpt>
      <trkpt lat="48.97492" lon="0.92511">
        <ele>144.199997</ele>
        <time>2018-06-17T08:09:39Z</time>
      </trkpt>
      <trkpt lat="48.97483" lon="0.9253">
        <ele>144.5</ele>
        <time>2018-06-17T08:09:42Z</time>
      </trkpt>
      <trkpt lat="48.97475" lon="0.92542">
        <ele>144.699997</ele>
        <time>2018-06-17T08:09:44Z</time>
      </trkpt>
      <trkpt lat="48.97465" lon="0.9255">
        <ele>145.100006</ele>
        <time>2018-06-17T08:09:46Z</time>
      </trkpt>
      <trkpt lat="48.97456" lon="0.92561">
        <ele>145.300003</ele>
        <time>2018-06-17T08:09:48Z</time>
      </trkpt>
      <trkpt lat="48.9745" lon="0.92571">
        <ele>145.800003</ele>
        <time>2018-06-17T08:09:50Z</time>
      </trkpt>
      <trkpt lat="48.97441" lon="0.92585">
        <ele>146.100006</ele>
        <time>2018-06-17T08:09:52Z</time>
      </trkpt>
      <trkpt lat="48.97433" lon="0.92593">
        <ele>146.199997</ele>
        <time>2018-06-17T08:09:54Z</time>
      </trkpt>
      <trkpt lat="48.97423" lon="0.92607">
        <ele>146.300003</ele>
        <time>2018-06-17T08:09:56Z</time>
      </trkpt>
      <trkpt lat="48.97414" lon="0.92619">
        <ele>146.300003</ele>
        <time>2018-06-17T08:09:58Z</time>
      </trkpt>
      <trkpt lat="48.97404" lon="0.9263">
        <ele>146.300003</ele>
        <time>2018-06-17T08:10:00Z</time>
      </trkpt>
      <trkpt lat="48.97395" lon="0.92641">
        <ele>146.399994</ele>
        <time>2018-06-17T08:10:02Z</time>
      </trkpt>
      <trkpt lat="48.97385" lon="0.92655">
        <ele>146.199997</ele>
        <time>2018-06-17T08:10:04Z</time>
      </trkpt>
      <trkpt lat="48.97377" lon="0.9267">
        <ele>146.100006</ele>
        <time>2018-06-17T08:10:06Z</time>
      </trkpt>
      <trkpt lat="48.9737" lon="0.92682">
        <ele>146.199997</ele>
        <time>2018-06-17T08:10:08Z</time>
      </trkpt>
      <trkpt lat="48.97362" lon="0.92695">
        <ele>146.300003</ele>
        <time>2018-06-17T08:10:10Z</time>
      </trkpt>
      <trkpt lat="48.97354" lon="0.92709">
        <ele>146.300003</ele>
        <time>2018-06-17T08:10:12Z</time>
      </trkpt>
      <trkpt lat="48.97342" lon="0.92718">
        <ele>146.199997</ele>
        <time>2018-06-17T08:10:14Z</time>
      </trkpt>
      <trkpt lat="48.97332" lon="0.92731">
        <ele>146</ele>
        <time>2018-06-17T08:10:16Z</time>
      </trkpt>
      <trkpt lat="48.97324" lon="0.92744">
        <ele>145.899994</ele>
        <time>2018-06-17T08:10:18Z</time>
      </trkpt>
      <trkpt lat="48.97316" lon="0.92755">
        <ele>146</ele>
        <time>2018-06-17T08:10:20Z</time>
      </trkpt>
      <trkpt lat="48.97309" lon="0.92765">
        <ele>145.899994</ele>
        <time>2018-06-17T08:10:21Z</time>
      </trkpt>
      <trkpt lat="48.97298" lon="0.9278">
        <ele>145.800003</ele>
        <time>2018-06-17T08:10:23Z</time>
      </trkpt>
      <trkpt lat="48.97286" lon="0.92794">
        <ele>145.600006</ele>
        <time>2018-06-17T08:10:25Z</time>
      </trkpt>
      <trkpt lat="48.97274" lon="0.9281">
        <ele>145.100006</ele>
        <time>2018-06-17T08:10:27Z</time>
      </trkpt>
      <trkpt lat="48.97264" lon="0.92823">
        <ele>144.699997</ele>
        <time>2018-06-17T08:10:29Z</time>
      </trkpt>
      <trkpt lat="48.97251" lon="0.92834">
        <ele>144.199997</ele>
        <time>2018-06-17T08:10:31Z</time>
      </trkpt>
      <trkpt lat="48.9724" lon="0.92847">
        <ele>143.699997</ele>
        <time>2018-06-17T08:10:33Z</time>
      </trkpt>
      <trkpt lat="48.97229" lon="0.92863">
        <ele>143.399994</ele>
        <time>2018-06-17T08:10:35Z</time>
      </trkpt>
      <trkpt lat="48.97219" lon="0.92876">
        <ele>143</ele>
        <time>2018-06-17T08:10:37Z</time>
      </trkpt>
      <trkpt lat="48.97211" lon="0.92891">
        <ele>142.800003</ele>
        <time>2018-06-17T08:10:39Z</time>
      </trkpt>
      <trkpt lat="48.97204" lon="0.92907">
        <ele>142.5</ele>
        <time>2018-06-17T08:10:41Z</time>
      </trkpt>
      <trkpt lat="48.97196" lon="0.92923">
        <ele>142.300003</ele>
        <time>2018-06-17T08:10:43Z</time>
      </trkpt>
      <trkpt lat="48.97187" lon="0.92938">
        <ele>142.100006</ele>
        <time>2018-06-17T08:10:45Z</time>
      </trkpt>
      <trkpt lat="48.97177" lon="0.92956">
        <ele>141.800003</ele>
        <time>2018-06-17T08:10:47Z</time>
      </trkpt>
      <trkpt lat="48.97165" lon="0.92974">
        <ele>141.399994</ele>
        <time>2018-06-17T08:10:49Z</time>
      </trkpt>
      <trkpt lat="48.97152" lon="0.92988">
        <ele>141</ele>
        <time>2018-06-17T08:10:51Z</time>
      </trkpt>
      <trkpt lat="48.9714" lon="0.93">
        <ele>140.199997</ele>
        <time>2018-06-17T08:10:53Z</time>
      </trkpt>
      <trkpt lat="48.9713" lon="0.93016">
        <ele>139.600006</ele>
        <time>2018-06-17T08:10:55Z</time>
      </trkpt>
      <trkpt lat="48.97124" lon="0.93029">
        <ele>139.199997</ele>
        <time>2018-06-17T08:10:57Z</time>
      </trkpt>
      <trkpt lat="48.97125" lon="0.93042">
        <ele>139</ele>
        <time>2018-06-17T08:10:59Z</time>
      </trkpt>
      <trkpt lat="48.97125" lon="0.93056">
        <ele>138.899994</ele>
        <time>2018-06-17T08:11:01Z</time>
      </trkpt>
      <trkpt lat="48.97122" lon="0.93075">
        <ele>139.199997</ele>
        <time>2018-06-17T08:11:04Z</time>
      </trkpt>
      <trkpt lat="48.9712" lon="0.9309">
        <ele>139.600006</ele>
        <time>2018-06-17T08:11:07Z</time>
      </trkpt>
      <trkpt lat="48.97119" lon="0.93108">
        <ele>139.800003</ele>
        <time>2018-06-17T08:11:10Z</time>
      </trkpt>
      <trkpt lat="48.97123" lon="0.93125">
        <ele>140.100006</ele>
        <time>2018-06-17T08:11:12Z</time>
      </trkpt>
      <trkpt lat="48.97126" lon="0.93142">
        <ele>140.800003</ele>
        <time>2018-06-17T08:11:15Z</time>
      </trkpt>
      <trkpt lat="48.97129" lon="0.93159">
        <ele>141.800003</ele>
        <time>2018-06-17T08:11:18Z</time>
      </trkpt>
      <trkpt lat="48.97132" lon="0.93174">
        <ele>142.699997</ele>
        <time>2018-06-17T08:11:21Z</time>
      </trkpt>
      <trkpt lat="48.97136" lon="0.93189">
        <ele>143.5</ele>
        <time>2018-06-17T08:11:24Z</time>
      </trkpt>
      <trkpt lat="48.97138" lon="0.93206">
        <ele>144.399994</ele>
        <time>2018-06-17T08:11:27Z</time>
      </trkpt>
      <trkpt lat="48.9714" lon="0.93222">
        <ele>145.100006</ele>
        <time>2018-06-17T08:11:30Z</time>
      </trkpt>
      <trkpt lat="48.9714" lon="0.93237">
        <ele>145.899994</ele>
        <time>2018-06-17T08:11:33Z</time>
      </trkpt>
      <trkpt lat="48.97142" lon="0.93252">
        <ele>146.600006</ele>
        <time>2018-06-17T08:11:36Z</time>
      </trkpt>
      <trkpt lat="48.97148" lon="0.93267">
        <ele>147.399994</ele>
        <time>2018-06-17T08:11:39Z</time>
      </trkpt>
      <trkpt lat="48.97154" lon="0.93279">
        <ele>148.199997</ele>
        <time>2018-06-17T08:11:42Z</time>
      </trkpt>
      <trkpt lat="48.97159" lon="0.9329">
        <ele>149.100006</ele>
        <time>2018-06-17T08:11:45Z</time>
      </trkpt>
      <trkpt lat="48.97165" lon="0.93304">
        <ele>150.300003</ele>
        <time>2018-06-17T08:11:49Z</time>
      </trkpt>
      <trkpt lat="48.97166" lon="0.93321">
        <ele>151.399994</ele>
        <time>2018-06-17T08:11:53Z</time>
      </trkpt>
      <trkpt lat="48.97159" lon="0.93336">
        <ele>152.399994</ele>
        <time>2018-06-17T08:11:57Z</time>
      </trkpt>
      <trkpt lat="48.97152" lon="0.93349">
        <ele>153</ele>
        <time>2018-06-17T08:12:00Z</time>
      </trkpt>
      <trkpt lat="48.97143" lon="0.93361">
        <ele>153.300003</ele>
        <time>2018-06-17T08:12:03Z</time>
      </trkpt>
      <trkpt lat="48.97133" lon="0.93373">
        <ele>153.300003</ele>
        <time>2018-06-17T08:12:06Z</time>
      </trkpt>
      <trkpt lat="48.97123" lon="0.93384">
        <ele>153</ele>
        <time>2018-06-17T08:12:09Z</time>
      </trkpt>
      <trkpt lat="48.97116" lon="0.93393">
        <ele>152.899994</ele>
        <time>2018-06-17T08:12:11Z</time>
      </trkpt>
      <trkpt lat="48.97107" lon="0.93402">
        <ele>152.699997</ele>
        <time>2018-06-17T08:12:13Z</time>
      </trkpt>
      <trkpt lat="48.97103" lon="0.93418">
        <ele>152.399994</ele>
        <time>2018-06-17T08:12:16Z</time>
      </trkpt>
      <trkpt lat="48.97093" lon="0.93425">
        <ele>152.199997</ele>
        <time>2018-06-17T08:12:19Z</time>
      </trkpt>
      <trkpt lat="48.97083" lon="0.93426">
        <ele>151.5</ele>
        <time>2018-06-17T08:12:22Z</time>
      </trkpt>
      <trkpt lat="48.97074" lon="0.93429">
        <ele>150</ele>
        <time>2018-06-17T08:12:29Z</time>
      </trkpt>
      <trkpt lat="48.97065" lon="0.93433">
        <ele>149.300003</ele>
        <time>2018-06-17T08:12:34Z</time>
      </trkpt>
      <trkpt lat="48.97057" lon="0.93423">
        <ele>148.800003</ele>
        <time>2018-06-17T08:12:37Z</time>
      </trkpt>
      <trkpt lat="48.97052" lon="0.93411">
        <ele>148.300003</ele>
        <time>2018-06-17T08:12:39Z</time>
      </trkpt>
      <trkpt lat="48.97045" lon="0.93399">
        <ele>147.800003</ele>
        <time>2018-06-17T08:12:41Z</time>
      </trkpt>
      <trkpt lat="48.97038" lon="0.93382">
        <ele>147.199997</ele>
        <time>2018-06-17T08:12:43Z</time>
      </trkpt>
      <trkpt lat="48.97033" lon="0.93366">
        <ele>146.399994</ele>
        <time>2018-06-17T08:12:45Z</time>
      </trkpt>
      <trkpt lat="48.97022" lon="0.93371">
        <ele>144.600006</ele>
        <time>2018-06-17T08:12:49Z</time>
      </trkpt>
      <trkpt lat="48.97014" lon="0.93385">
        <ele>143.899994</ele>
        <time>2018-06-17T08:12:52Z</time>
      </trkpt>
      <trkpt lat="48.97007" lon="0.93402">
        <ele>143.899994</ele>
        <time>2018-06-17T08:12:55Z</time>
      </trkpt>
      <trkpt lat="48.97003" lon="0.9342">
        <ele>144</ele>
        <time>2018-06-17T08:12:58Z</time>
      </trkpt>
      <trkpt lat="48.97003" lon="0.9344">
        <ele>143.800003</ele>
        <time>2018-06-17T08:13:01Z</time>
      </trkpt>
      <trkpt lat="48.97" lon="0.93458">
        <ele>144</ele>
        <time>2018-06-17T08:13:04Z</time>
      </trkpt>
      <trkpt lat="48.96998" lon="0.93471">
        <ele>144.199997</ele>
        <time>2018-06-17T08:13:06Z</time>
      </trkpt>
      <trkpt lat="48.96999" lon="0.93492">
        <ele>144.699997</ele>
        <time>2018-06-17T08:13:09Z</time>
      </trkpt>
      <trkpt lat="48.96997" lon="0.93505">
        <ele>145.100006</ele>
        <time>2018-06-17T08:13:11Z</time>
      </trkpt>
      <trkpt lat="48.96997" lon="0.93525">
        <ele>145.600006</ele>
        <time>2018-06-17T08:13:14Z</time>
      </trkpt>
      <trkpt lat="48.96999" lon="0.93542">
        <ele>146.100006</ele>
        <time>2018-06-17T08:13:17Z</time>
      </trkpt>
      <trkpt lat="48.96999" lon="0.93556">
        <ele>146.300003</ele>
        <time>2018-06-17T08:13:19Z</time>
      </trkpt>
      <trkpt lat="48.97004" lon="0.93571">
        <ele>146.5</ele>
        <time>2018-06-17T08:13:21Z</time>
      </trkpt>
      <trkpt lat="48.97015" lon="0.93577">
        <ele>147</ele>
        <time>2018-06-17T08:13:24Z</time>
      </trkpt>
      <trkpt lat="48.97024" lon="0.93582">
        <ele>147.399994</ele>
        <time>2018-06-17T08:13:26Z</time>
      </trkpt>
      <trkpt lat="48.97034" lon="0.93588">
        <ele>148.399994</ele>
        <time>2018-06-17T08:13:29Z</time>
      </trkpt>
      <trkpt lat="48.97044" lon="0.93594">
        <ele>149.100006</ele>
        <time>2018-06-17T08:13:32Z</time>
      </trkpt>
      <trkpt lat="48.97053" lon="0.93602">
        <ele>149.600006</ele>
        <time>2018-06-17T08:13:35Z</time>
      </trkpt>
      <trkpt lat="48.97063" lon="0.93591">
        <ele>150.300003</ele>
        <time>2018-06-17T08:13:40Z</time>
      </trkpt>
      <trkpt lat="48.97068" lon="0.93574">
        <ele>151</ele>
        <time>2018-06-17T08:13:45Z</time>
      </trkpt>
      <trkpt lat="48.9707" lon="0.93559">
        <ele>151.300003</ele>
        <time>2018-06-17T08:13:48Z</time>
      </trkpt>
      <trkpt lat="48.97075" lon="0.93544">
        <ele>151.5</ele>
        <time>2018-06-17T08:13:51Z</time>
      </trkpt>
      <trkpt lat="48.9708" lon="0.9353">
        <ele>152</ele>
        <time>2018-06-17T08:13:54Z</time>
      </trkpt>
      <trkpt lat="48.97088" lon="0.93526">
        <ele>152.5</ele>
        <time>2018-06-17T08:13:58Z</time>
      </trkpt>
      <trkpt lat="48.97094" lon="0.93537">
        <ele>153.100006</ele>
        <time>2018-06-17T08:14:01Z</time>
      </trkpt>
      <trkpt lat="48.97102" lon="0.93543">
        <ele>153.399994</ele>
        <time>2018-06-17T08:14:03Z</time>
      </trkpt>
      <trkpt lat="48.97111" lon="0.9355">
        <ele>153.699997</ele>
        <time>2018-06-17T08:14:06Z</time>
      </trkpt>
      <trkpt lat="48.97123" lon="0.9356">
        <ele>154.100006</ele>
        <time>2018-06-17T08:14:09Z</time>
      </trkpt>
      <trkpt lat="48.97135" lon="0.9357">
        <ele>154.300003</ele>
        <time>2018-06-17T08:14:12Z</time>
      </trkpt>
      <trkpt lat="48.97145" lon="0.93583">
        <ele>154.600006</ele>
        <time>2018-06-17T08:14:15Z</time>
      </trkpt>
      <trkpt lat="48.97154" lon="0.93598">
        <ele>154.600006</ele>
        <time>2018-06-17T08:14:18Z</time>
      </trkpt>
      <trkpt lat="48.97159" lon="0.93612">
        <ele>154.600006</ele>
        <time>2018-06-17T08:14:20Z</time>
      </trkpt>
      <trkpt lat="48.97166" lon="0.93624">
        <ele>154.600006</ele>
        <time>2018-06-17T08:14:22Z</time>
      </trkpt>
      <trkpt lat="48.97171" lon="0.93638">
        <ele>154.5</ele>
        <time>2018-06-17T08:14:24Z</time>
      </trkpt>
      <trkpt lat="48.97176" lon="0.93654">
        <ele>154.300003</ele>
        <time>2018-06-17T08:14:26Z</time>
      </trkpt>
      <trkpt lat="48.97182" lon="0.93668">
        <ele>154</ele>
        <time>2018-06-17T08:14:28Z</time>
      </trkpt>
      <trkpt lat="48.9719" lon="0.93677">
        <ele>153.699997</ele>
        <time>2018-06-17T08:14:30Z</time>
      </trkpt>
      <trkpt lat="48.972" lon="0.93683">
        <ele>153.300003</ele>
        <time>2018-06-17T08:14:32Z</time>
      </trkpt>
      <trkpt lat="48.9721" lon="0.93688">
        <ele>153.199997</ele>
        <time>2018-06-17T08:14:34Z</time>
      </trkpt>
      <trkpt lat="48.97222" lon="0.93693">
        <ele>153.100006</ele>
        <time>2018-06-17T08:14:36Z</time>
      </trkpt>
      <trkpt lat="48.97234" lon="0.93703">
        <ele>153</ele>
        <time>2018-06-17T08:14:38Z</time>
      </trkpt>
      <trkpt lat="48.97242" lon="0.93719">
        <ele>152.899994</ele>
        <time>2018-06-17T08:14:40Z</time>
      </trkpt>
      <trkpt lat="48.9725" lon="0.93737">
        <ele>152.800003</ele>
        <time>2018-06-17T08:14:42Z</time>
      </trkpt>
      <trkpt lat="48.97258" lon="0.93753">
        <ele>152.699997</ele>
        <time>2018-06-17T08:14:44Z</time>
      </trkpt>
      <trkpt lat="48.97267" lon="0.93771">
        <ele>152.399994</ele>
        <time>2018-06-17T08:14:46Z</time>
      </trkpt>
      <trkpt lat="48.97276" lon="0.93789">
        <ele>152.100006</ele>
        <time>2018-06-17T08:14:48Z</time>
      </trkpt>
      <trkpt lat="48.97284" lon="0.93807">
        <ele>152</ele>
        <time>2018-06-17T08:14:50Z</time>
      </trkpt>
      <trkpt lat="48.97288" lon="0.93827">
        <ele>151.699997</ele>
        <time>2018-06-17T08:14:52Z</time>
      </trkpt>
      <trkpt lat="48.97289" lon="0.93848">
        <ele>151.300003</ele>
        <time>2018-06-17T08:14:54Z</time>
      </trkpt>
      <trkpt lat="48.97289" lon="0.93869">
        <ele>150.899994</ele>
        <time>2018-06-17T08:14:56Z</time>
      </trkpt>
      <trkpt lat="48.97288" lon="0.93891">
        <ele>150.399994</ele>
        <time>2018-06-17T08:14:58Z</time>
      </trkpt>
      <trkpt lat="48.97282" lon="0.93909">
        <ele>150</ele>
        <time>2018-06-17T08:15:00Z</time>
      </trkpt>
      <trkpt lat="48.97273" lon="0.93925">
        <ele>149.699997</ele>
        <time>2018-06-17T08:15:02Z</time>
      </trkpt>
      <trkpt lat="48.97268" lon="0.93944">
        <ele>149.5</ele>
        <time>2018-06-17T08:15:04Z</time>
      </trkpt>
      <trkpt lat="48.97269" lon="0.93964">
        <ele>149.199997</ele>
        <time>2018-06-17T08:15:06Z</time>
      </trkpt>
      <trkpt lat="48.97277" lon="0.93979">
        <ele>149</ele>
        <time>2018-06-17T08:15:08Z</time>
      </trkpt>
      <trkpt lat="48.97288" lon="0.93989">
        <ele>148.899994</ele>
        <time>2018-06-17T08:15:10Z</time>
      </trkpt>
      <trkpt lat="48.97297" lon="0.94">
        <ele>149.100006</ele>
        <time>2018-06-17T08:15:12Z</time>
      </trkpt>
      <trkpt lat="48.97303" lon="0.94017">
        <ele>149.199997</ele>
        <time>2018-06-17T08:15:14Z</time>
      </trkpt>
      <trkpt lat="48.97307" lon="0.94036">
        <ele>149</ele>
        <time>2018-06-17T08:15:16Z</time>
      </trkpt>
      <trkpt lat="48.9731" lon="0.94056">
        <ele>149.199997</ele>
        <time>2018-06-17T08:15:18Z</time>
      </trkpt>
      <trkpt lat="48.97312" lon="0.94076">
        <ele>149.199997</ele>
        <time>2018-06-17T08:15:20Z</time>
      </trkpt>
      <trkpt lat="48.97313" lon="0.94096">
        <ele>149.399994</ele>
        <time>2018-06-17T08:15:22Z</time>
      </trkpt>
      <trkpt lat="48.97314" lon="0.94117">
        <ele>149.800003</ele>
        <time>2018-06-17T08:15:24Z</time>
      </trkpt>
      <trkpt lat="48.97315" lon="0.94137">
        <ele>150.100006</ele>
        <time>2018-06-17T08:15:26Z</time>
      </trkpt>
      <trkpt lat="48.97317" lon="0.94156">
        <ele>150.300003</ele>
        <time>2018-06-17T08:15:28Z</time>
      </trkpt>
      <trkpt lat="48.97318" lon="0.94177">
        <ele>150.399994</ele>
        <time>2018-06-17T08:15:30Z</time>
      </trkpt>
      <trkpt lat="48.9732" lon="0.94196">
        <ele>150.399994</ele>
        <time>2018-06-17T08:15:32Z</time>
      </trkpt>
      <trkpt lat="48.97324" lon="0.94214">
        <ele>150.5</ele>
        <time>2018-06-17T08:15:34Z</time>
      </trkpt>
      <trkpt lat="48.97329" lon="0.94231">
        <ele>150.699997</ele>
        <time>2018-06-17T08:15:36Z</time>
      </trkpt>
      <trkpt lat="48.97332" lon="0.9425">
        <ele>150.899994</ele>
        <time>2018-06-17T08:15:38Z</time>
      </trkpt>
      <trkpt lat="48.9733" lon="0.9427">
        <ele>151</ele>
        <time>2018-06-17T08:15:40Z</time>
      </trkpt>
      <trkpt lat="48.97325" lon="0.94289">
        <ele>151.199997</ele>
        <time>2018-06-17T08:15:42Z</time>
      </trkpt>
      <trkpt lat="48.9732" lon="0.94308">
        <ele>151.300003</ele>
        <time>2018-06-17T08:15:44Z</time>
      </trkpt>
      <trkpt lat="48.97314" lon="0.94327">
        <ele>151.300003</ele>
        <time>2018-06-17T08:15:46Z</time>
      </trkpt>
      <trkpt lat="48.97308" lon="0.94345">
        <ele>151.199997</ele>
        <time>2018-06-17T08:15:48Z</time>
      </trkpt>
      <trkpt lat="48.97301" lon="0.94363">
        <ele>151.199997</ele>
        <time>2018-06-17T08:15:50Z</time>
      </trkpt>
      <trkpt lat="48.97296" lon="0.94382">
        <ele>151.100006</ele>
        <time>2018-06-17T08:15:52Z</time>
      </trkpt>
      <trkpt lat="48.97291" lon="0.94401">
        <ele>151</ele>
        <time>2018-06-17T08:15:54Z</time>
      </trkpt>
      <trkpt lat="48.97288" lon="0.94421">
        <ele>150.899994</ele>
        <time>2018-06-17T08:15:56Z</time>
      </trkpt>
      <trkpt lat="48.97283" lon="0.94442">
        <ele>150.899994</ele>
        <time>2018-06-17T08:15:58Z</time>
      </trkpt>
      <trkpt lat="48.97278" lon="0.94462">
        <ele>150.800003</ele>
        <time>2018-06-17T08:16:00Z</time>
      </trkpt>
      <trkpt lat="48.97273" lon="0.94482">
        <ele>150.699997</ele>
        <time>2018-06-17T08:16:02Z</time>
      </trkpt>
      <trkpt lat="48.97268" lon="0.94502">
        <ele>150.800003</ele>
        <time>2018-06-17T08:16:04Z</time>
      </trkpt>
      <trkpt lat="48.97263" lon="0.94522">
        <ele>150.600006</ele>
        <time>2018-06-17T08:16:06Z</time>
      </trkpt>
      <trkpt lat="48.97259" lon="0.94543">
        <ele>150.5</ele>
        <time>2018-06-17T08:16:08Z</time>
      </trkpt>
      <trkpt lat="48.97255" lon="0.94564">
        <ele>150.199997</ele>
        <time>2018-06-17T08:16:10Z</time>
      </trkpt>
      <trkpt lat="48.97253" lon="0.94585">
        <ele>149.899994</ele>
        <time>2018-06-17T08:16:12Z</time>
      </trkpt>
      <trkpt lat="48.97249" lon="0.94606">
        <ele>149.800003</ele>
        <time>2018-06-17T08:16:14Z</time>
      </trkpt>
      <trkpt lat="48.97243" lon="0.94626">
        <ele>149.600006</ele>
        <time>2018-06-17T08:16:16Z</time>
      </trkpt>
      <trkpt lat="48.97235" lon="0.94644">
        <ele>149.5</ele>
        <time>2018-06-17T08:16:18Z</time>
      </trkpt>
      <trkpt lat="48.97228" lon="0.94662">
        <ele>149.300003</ele>
        <time>2018-06-17T08:16:20Z</time>
      </trkpt>
      <trkpt lat="48.9722" lon="0.94681">
        <ele>149.199997</ele>
        <time>2018-06-17T08:16:22Z</time>
      </trkpt>
      <trkpt lat="48.97214" lon="0.947">
        <ele>149</ele>
        <time>2018-06-17T08:16:24Z</time>
      </trkpt>
      <trkpt lat="48.97208" lon="0.94717">
        <ele>148.600006</ele>
        <time>2018-06-17T08:16:26Z</time>
      </trkpt>
      <trkpt lat="48.97201" lon="0.94731">
        <ele>148.300003</ele>
        <time>2018-06-17T08:16:29Z</time>
      </trkpt>
      <trkpt lat="48.97197" lon="0.94746">
        <ele>147.199997</ele>
        <time>2018-06-17T08:16:45Z</time>
      </trkpt>
      <trkpt lat="48.97192" lon="0.94764">
        <ele>147.100006</ele>
        <time>2018-06-17T08:16:48Z</time>
      </trkpt>
      <trkpt lat="48.97187" lon="0.9478">
        <ele>147</ele>
        <time>2018-06-17T08:16:50Z</time>
      </trkpt>
      <trkpt lat="48.97181" lon="0.94798">
        <ele>146.899994</ele>
        <time>2018-06-17T08:16:52Z</time>
      </trkpt>
      <trkpt lat="48.97175" lon="0.94817">
        <ele>146.800003</ele>
        <time>2018-06-17T08:16:54Z</time>
      </trkpt>
      <trkpt lat="48.9717" lon="0.94837">
        <ele>146.699997</ele>
        <time>2018-06-17T08:16:56Z</time>
      </trkpt>
      <trkpt lat="48.97165" lon="0.94858">
        <ele>146.600006</ele>
        <time>2018-06-17T08:16:58Z</time>
      </trkpt>
      <trkpt lat="48.97161" lon="0.94879">
        <ele>146.199997</ele>
        <time>2018-06-17T08:17:00Z</time>
      </trkpt>
      <trkpt lat="48.97158" lon="0.94902">
        <ele>146</ele>
        <time>2018-06-17T08:17:02Z</time>
      </trkpt>
      <trkpt lat="48.97159" lon="0.94922">
        <ele>145.899994</ele>
        <time>2018-06-17T08:17:04Z</time>
      </trkpt>
      <trkpt lat="48.9716" lon="0.94945">
        <ele>145.899994</ele>
        <time>2018-06-17T08:17:06Z</time>
      </trkpt>
      <trkpt lat="48.97161" lon="0.94964">
        <ele>146</ele>
        <time>2018-06-17T08:17:08Z</time>
      </trkpt>
      <trkpt lat="48.97164" lon="0.94983">
        <ele>146.199997</ele>
        <time>2018-06-17T08:17:10Z</time>
      </trkpt>
      <trkpt lat="48.97167" lon="0.95001">
        <ele>146.300003</ele>
        <time>2018-06-17T08:17:12Z</time>
      </trkpt>
      <trkpt lat="48.97171" lon="0.95019">
        <ele>146.399994</ele>
        <time>2018-06-17T08:17:14Z</time>
      </trkpt>
      <trkpt lat="48.97175" lon="0.95037">
        <ele>146.5</ele>
        <time>2018-06-17T08:17:16Z</time>
      </trkpt>
      <trkpt lat="48.97179" lon="0.95055">
        <ele>146.600006</ele>
        <time>2018-06-17T08:17:18Z</time>
      </trkpt>
      <trkpt lat="48.97184" lon="0.95073">
        <ele>146.699997</ele>
        <time>2018-06-17T08:17:20Z</time>
      </trkpt>
      <trkpt lat="48.97189" lon="0.95091">
        <ele>146.800003</ele>
        <time>2018-06-17T08:17:22Z</time>
      </trkpt>
      <trkpt lat="48.97195" lon="0.95109">
        <ele>146.800003</ele>
        <time>2018-06-17T08:17:24Z</time>
      </trkpt>
      <trkpt lat="48.972" lon="0.95127">
        <ele>147</ele>
        <time>2018-06-17T08:17:26Z</time>
      </trkpt>
      <trkpt lat="48.97207" lon="0.95145">
        <ele>147</ele>
        <time>2018-06-17T08:17:28Z</time>
      </trkpt>
      <trkpt lat="48.97214" lon="0.95162">
        <ele>147</ele>
        <time>2018-06-17T08:17:30Z</time>
      </trkpt>
      <trkpt lat="48.97223" lon="0.95177">
        <ele>146.899994</ele>
        <time>2018-06-17T08:17:32Z</time>
      </trkpt>
      <trkpt lat="48.97232" lon="0.95192">
        <ele>147</ele>
        <time>2018-06-17T08:17:34Z</time>
      </trkpt>
      <trkpt lat="48.97241" lon="0.95205">
        <ele>147.199997</ele>
        <time>2018-06-17T08:17:36Z</time>
      </trkpt>
      <trkpt lat="48.97251" lon="0.95218">
        <ele>147.300003</ele>
        <time>2018-06-17T08:17:38Z</time>
      </trkpt>
      <trkpt lat="48.97262" lon="0.9523">
        <ele>147.300003</ele>
        <time>2018-06-17T08:17:40Z</time>
      </trkpt>
      <trkpt lat="48.97273" lon="0.95241">
        <ele>147.300003</ele>
        <time>2018-06-17T08:17:42Z</time>
      </trkpt>
      <trkpt lat="48.97283" lon="0.95253">
        <ele>147.300003</ele>
        <time>2018-06-17T08:17:44Z</time>
      </trkpt>
      <trkpt lat="48.97294" lon="0.95264">
        <ele>147.399994</ele>
        <time>2018-06-17T08:17:46Z</time>
      </trkpt>
      <trkpt lat="48.97305" lon="0.95275">
        <ele>147.600006</ele>
        <time>2018-06-17T08:17:48Z</time>
      </trkpt>
      <trkpt lat="48.97316" lon="0.95286">
        <ele>147.699997</ele>
        <time>2018-06-17T08:17:50Z</time>
      </trkpt>
      <trkpt lat="48.97327" lon="0.95296">
        <ele>147.800003</ele>
        <time>2018-06-17T08:17:52Z</time>
      </trkpt>
      <trkpt lat="48.97338" lon="0.95308">
        <ele>147.899994</ele>
        <time>2018-06-17T08:17:54Z</time>
      </trkpt>
      <trkpt lat="48.97349" lon="0.95319">
        <ele>148</ele>
        <time>2018-06-17T08:17:56Z</time>
      </trkpt>
      <trkpt lat="48.97359" lon="0.95331">
        <ele>148.100006</ele>
        <time>2018-06-17T08:17:58Z</time>
      </trkpt>
      <trkpt lat="48.9737" lon="0.95343">
        <ele>148.399994</ele>
        <time>2018-06-17T08:18:00Z</time>
      </trkpt>
      <trkpt lat="48.97381" lon="0.95354">
        <ele>148.699997</ele>
        <time>2018-06-17T08:18:02Z</time>
      </trkpt>
      <trkpt lat="48.97391" lon="0.95366">
        <ele>148.899994</ele>
        <time>2018-06-17T08:18:04Z</time>
      </trkpt>
      <trkpt lat="48.97401" lon="0.9538">
        <ele>149</ele>
        <time>2018-06-17T08:18:06Z</time>
      </trkpt>
      <trkpt lat="48.9741" lon="0.95396">
        <ele>149.399994</ele>
        <time>2018-06-17T08:18:08Z</time>
      </trkpt>
      <trkpt lat="48.97417" lon="0.95414">
        <ele>149.600006</ele>
        <time>2018-06-17T08:18:10Z</time>
      </trkpt>
      <trkpt lat="48.97423" lon="0.95433">
        <ele>149.800003</ele>
        <time>2018-06-17T08:18:12Z</time>
      </trkpt>
      <trkpt lat="48.97429" lon="0.95453">
        <ele>150.100006</ele>
        <time>2018-06-17T08:18:14Z</time>
      </trkpt>
      <trkpt lat="48.97434" lon="0.95472">
        <ele>150.199997</ele>
        <time>2018-06-17T08:18:16Z</time>
      </trkpt>
      <trkpt lat="48.97444" lon="0.95482">
        <ele>150.399994</ele>
        <time>2018-06-17T08:18:18Z</time>
      </trkpt>
      <trkpt lat="48.97454" lon="0.95486">
        <ele>150.5</ele>
        <time>2018-06-17T08:18:20Z</time>
      </trkpt>
      <trkpt lat="48.97464" lon="0.9549">
        <ele>150.5</ele>
        <time>2018-06-17T08:18:24Z</time>
      </trkpt>
      <trkpt lat="48.97472" lon="0.95498">
        <ele>150.399994</ele>
        <time>2018-06-17T08:18:30Z</time>
      </trkpt>
      <trkpt lat="48.97482" lon="0.95503">
        <ele>150.300003</ele>
        <time>2018-06-17T08:18:33Z</time>
      </trkpt>
      <trkpt lat="48.97492" lon="0.95508">
        <ele>150.300003</ele>
        <time>2018-06-17T08:18:35Z</time>
      </trkpt>
      <trkpt lat="48.97502" lon="0.95513">
        <ele>150.300003</ele>
        <time>2018-06-17T08:18:37Z</time>
      </trkpt>
      <trkpt lat="48.97513" lon="0.95518">
        <ele>150.399994</ele>
        <time>2018-06-17T08:18:39Z</time>
      </trkpt>
      <trkpt lat="48.97523" lon="0.95524">
        <ele>150.5</ele>
        <time>2018-06-17T08:18:41Z</time>
      </trkpt>
      <trkpt lat="48.97533" lon="0.95529">
        <ele>150.699997</ele>
        <time>2018-06-17T08:18:43Z</time>
      </trkpt>
      <trkpt lat="48.97543" lon="0.95533">
        <ele>150.800003</ele>
        <time>2018-06-17T08:18:45Z</time>
      </trkpt>
      <trkpt lat="48.97553" lon="0.95538">
        <ele>150.699997</ele>
        <time>2018-06-17T08:18:47Z</time>
      </trkpt>
      <trkpt lat="48.97564" lon="0.95544">
        <ele>150.5</ele>
        <time>2018-06-17T08:18:49Z</time>
      </trkpt>
      <trkpt lat="48.97577" lon="0.95551">
        <ele>150.399994</ele>
        <time>2018-06-17T08:18:51Z</time>
      </trkpt>
      <trkpt lat="48.97589" lon="0.95557">
        <ele>150.199997</ele>
        <time>2018-06-17T08:18:53Z</time>
      </trkpt>
      <trkpt lat="48.97601" lon="0.95563">
        <ele>149.899994</ele>
        <time>2018-06-17T08:18:55Z</time>
      </trkpt>
      <trkpt lat="48.97612" lon="0.9557">
        <ele>149.800003</ele>
        <time>2018-06-17T08:18:57Z</time>
      </trkpt>
      <trkpt lat="48.97622" lon="0.9558">
        <ele>149.600006</ele>
        <time>2018-06-17T08:18:59Z</time>
      </trkpt>
      <trkpt lat="48.97632" lon="0.95592">
        <ele>149.199997</ele>
        <time>2018-06-17T08:19:01Z</time>
      </trkpt>
      <trkpt lat="48.97641" lon="0.95606">
        <ele>149</ele>
        <time>2018-06-17T08:19:03Z</time>
      </trkpt>
      <trkpt lat="48.9765" lon="0.95622">
        <ele>148.699997</ele>
        <time>2018-06-17T08:19:05Z</time>
      </trkpt>
      <trkpt lat="48.97658" lon="0.95637">
        <ele>148.399994</ele>
        <time>2018-06-17T08:19:07Z</time>
      </trkpt>
      <trkpt lat="48.97668" lon="0.95644">
        <ele>147.899994</ele>
        <time>2018-06-17T08:19:09Z</time>
      </trkpt>
      <trkpt lat="48.97681" lon="0.95644">
        <ele>147.5</ele>
        <time>2018-06-17T08:19:11Z</time>
      </trkpt>
      <trkpt lat="48.97694" lon="0.95641">
        <ele>147</ele>
        <time>2018-06-17T08:19:13Z</time>
      </trkpt>
      <trkpt lat="48.97708" lon="0.9564">
        <ele>146.600006</ele>
        <time>2018-06-17T08:19:15Z</time>
      </trkpt>
      <trkpt lat="48.97722" lon="0.95638">
        <ele>146.100006</ele>
        <time>2018-06-17T08:19:17Z</time>
      </trkpt>
      <trkpt lat="48.97736" lon="0.95637">
        <ele>145.399994</ele>
        <time>2018-06-17T08:19:19Z</time>
      </trkpt>
      <trkpt lat="48.97751" lon="0.95636">
        <ele>144.899994</ele>
        <time>2018-06-17T08:19:21Z</time>
      </trkpt>
      <trkpt lat="48.97766" lon="0.95638">
        <ele>144.600006</ele>
        <time>2018-06-17T08:19:23Z</time>
      </trkpt>
      <trkpt lat="48.97781" lon="0.95645">
        <ele>143.899994</ele>
        <time>2018-06-17T08:19:25Z</time>
      </trkpt>
      <trkpt lat="48.97796" lon="0.95655">
        <ele>143.399994</ele>
        <time>2018-06-17T08:19:27Z</time>
      </trkpt>
      <trkpt lat="48.9781" lon="0.95666">
        <ele>142.699997</ele>
        <time>2018-06-17T08:19:29Z</time>
      </trkpt>
      <trkpt lat="48.97824" lon="0.95678">
        <ele>142.199997</ele>
        <time>2018-06-17T08:19:31Z</time>
      </trkpt>
      <trkpt lat="48.97837" lon="0.9569">
        <ele>141.5</ele>
        <time>2018-06-17T08:19:33Z</time>
      </trkpt>
      <trkpt lat="48.97848" lon="0.95702">
        <ele>140.800003</ele>
        <time>2018-06-17T08:19:35Z</time>
      </trkpt>
      <trkpt lat="48.97859" lon="0.95709">
        <ele>139.399994</ele>
        <time>2018-06-17T08:19:37Z</time>
      </trkpt>
      <trkpt lat="48.97869" lon="0.95714">
        <ele>137.800003</ele>
        <time>2018-06-17T08:19:39Z</time>
      </trkpt>
      <trkpt lat="48.97877" lon="0.95725">
        <ele>136.300003</ele>
        <time>2018-06-17T08:19:41Z</time>
      </trkpt>
      <trkpt lat="48.9788" lon="0.95743">
        <ele>135</ele>
        <time>2018-06-17T08:19:43Z</time>
      </trkpt>
      <trkpt lat="48.97883" lon="0.95757">
        <ele>133.699997</ele>
        <time>2018-06-17T08:19:45Z</time>
      </trkpt>
      <trkpt lat="48.97888" lon="0.9577">
        <ele>133.100006</ele>
        <time>2018-06-17T08:19:47Z</time>
      </trkpt>
      <trkpt lat="48.97893" lon="0.95781">
        <ele>133.199997</ele>
        <time>2018-06-17T08:19:49Z</time>
      </trkpt>
      <trkpt lat="48.979" lon="0.95793">
        <ele>134.300003</ele>
        <time>2018-06-17T08:19:53Z</time>
      </trkpt>
      <trkpt lat="48.97908" lon="0.95804">
        <ele>135.699997</ele>
        <time>2018-06-17T08:19:57Z</time>
      </trkpt>
      <trkpt lat="48.97917" lon="0.9581">
        <ele>136.600006</ele>
        <time>2018-06-17T08:20:00Z</time>
      </trkpt>
      <trkpt lat="48.97928" lon="0.95817">
        <ele>137.300003</ele>
        <time>2018-06-17T08:20:03Z</time>
      </trkpt>
      <trkpt lat="48.97938" lon="0.95824">
        <ele>137.5</ele>
        <time>2018-06-17T08:20:05Z</time>
      </trkpt>
      <trkpt lat="48.97946" lon="0.95829">
        <ele>137.5</ele>
        <time>2018-06-17T08:20:07Z</time>
      </trkpt>
      <trkpt lat="48.97955" lon="0.95836">
        <ele>137.399994</ele>
        <time>2018-06-17T08:20:09Z</time>
      </trkpt>
      <trkpt lat="48.97966" lon="0.95844">
        <ele>137.899994</ele>
        <time>2018-06-17T08:20:12Z</time>
      </trkpt>
      <trkpt lat="48.97977" lon="0.95851">
        <ele>138.5</ele>
        <time>2018-06-17T08:20:15Z</time>
      </trkpt>
      <trkpt lat="48.97988" lon="0.9586">
        <ele>138.899994</ele>
        <time>2018-06-17T08:20:18Z</time>
      </trkpt>
      <trkpt lat="48.98001" lon="0.95869">
        <ele>139</ele>
        <time>2018-06-17T08:20:21Z</time>
      </trkpt>
      <trkpt lat="48.9801" lon="0.95874">
        <ele>139.100006</ele>
        <time>2018-06-17T08:20:23Z</time>
      </trkpt>
      <trkpt lat="48.98019" lon="0.9588">
        <ele>139.199997</ele>
        <time>2018-06-17T08:20:25Z</time>
      </trkpt>
      <trkpt lat="48.98029" lon="0.95888">
        <ele>139.600006</ele>
        <time>2018-06-17T08:20:28Z</time>
      </trkpt>
      <trkpt lat="48.98039" lon="0.95895">
        <ele>140.199997</ele>
        <time>2018-06-17T08:20:31Z</time>
      </trkpt>
      <trkpt lat="48.9805" lon="0.95903">
        <ele>140.899994</ele>
        <time>2018-06-17T08:20:34Z</time>
      </trkpt>
      <trkpt lat="48.9806" lon="0.95911">
        <ele>141.899994</ele>
        <time>2018-06-17T08:20:37Z</time>
      </trkpt>
      <trkpt lat="48.98071" lon="0.9592">
        <ele>142.600006</ele>
        <time>2018-06-17T08:20:40Z</time>
      </trkpt>
      <trkpt lat="48.98082" lon="0.95928">
        <ele>143</ele>
        <time>2018-06-17T08:20:43Z</time>
      </trkpt>
      <trkpt lat="48.98094" lon="0.95936">
        <ele>143.5</ele>
        <time>2018-06-17T08:20:46Z</time>
      </trkpt>
      <trkpt lat="48.98106" lon="0.95944">
        <ele>143.899994</ele>
        <time>2018-06-17T08:20:49Z</time>
      </trkpt>
      <trkpt lat="48.98118" lon="0.95952">
        <ele>144.199997</ele>
        <time>2018-06-17T08:20:52Z</time>
      </trkpt>
      <trkpt lat="48.98129" lon="0.95962">
        <ele>144.199997</ele>
        <time>2018-06-17T08:20:55Z</time>
      </trkpt>
      <trkpt lat="48.98137" lon="0.95971">
        <ele>144.399994</ele>
        <time>2018-06-17T08:20:57Z</time>
      </trkpt>
      <trkpt lat="48.98143" lon="0.95983">
        <ele>144.5</ele>
        <time>2018-06-17T08:20:59Z</time>
      </trkpt>
      <trkpt lat="48.98149" lon="0.95994">
        <ele>144.600006</ele>
        <time>2018-06-17T08:21:01Z</time>
      </trkpt>
      <trkpt lat="48.98153" lon="0.96006">
        <ele>144.600006</ele>
        <time>2018-06-17T08:21:03Z</time>
      </trkpt>
      <trkpt lat="48.98148" lon="0.96025">
        <ele>144.5</ele>
        <time>2018-06-17T08:21:06Z</time>
      </trkpt>
      <trkpt lat="48.98141" lon="0.96039">
        <ele>144.399994</ele>
        <time>2018-06-17T08:21:08Z</time>
      </trkpt>
      <trkpt lat="48.98134" lon="0.96054">
        <ele>144.300003</ele>
        <time>2018-06-17T08:21:10Z</time>
      </trkpt>
      <trkpt lat="48.98127" lon="0.96069">
        <ele>144.100006</ele>
        <time>2018-06-17T08:21:12Z</time>
      </trkpt>
      <trkpt lat="48.9812" lon="0.96085">
        <ele>144.100006</ele>
        <time>2018-06-17T08:21:14Z</time>
      </trkpt>
      <trkpt lat="48.98113" lon="0.96099">
        <ele>143.899994</ele>
        <time>2018-06-17T08:21:16Z</time>
      </trkpt>
      <trkpt lat="48.98109" lon="0.96114">
        <ele>143.600006</ele>
        <time>2018-06-17T08:21:18Z</time>
      </trkpt>
      <trkpt lat="48.98105" lon="0.9613">
        <ele>143.399994</ele>
        <time>2018-06-17T08:21:20Z</time>
      </trkpt>
      <trkpt lat="48.98101" lon="0.96143">
        <ele>143.199997</ele>
        <time>2018-06-17T08:21:22Z</time>
      </trkpt>
      <trkpt lat="48.98093" lon="0.96161">
        <ele>142.899994</ele>
        <time>2018-06-17T08:21:25Z</time>
      </trkpt>
      <trkpt lat="48.98082" lon="0.96178">
        <ele>142.600006</ele>
        <time>2018-06-17T08:21:28Z</time>
      </trkpt>
      <trkpt lat="48.98072" lon="0.96191">
        <ele>142.5</ele>
        <time>2018-06-17T08:21:30Z</time>
      </trkpt>
      <trkpt lat="48.98063" lon="0.96202">
        <ele>141.899994</ele>
        <time>2018-06-17T08:21:32Z</time>
      </trkpt>
      <trkpt lat="48.98053" lon="0.96215">
        <ele>141.199997</ele>
        <time>2018-06-17T08:21:34Z</time>
      </trkpt>
      <trkpt lat="48.98045" lon="0.96228">
        <ele>140.699997</ele>
        <time>2018-06-17T08:21:36Z</time>
      </trkpt>
      <trkpt lat="48.98038" lon="0.96239">
        <ele>140.300003</ele>
        <time>2018-06-17T08:21:38Z</time>
      </trkpt>
      <trkpt lat="48.98029" lon="0.96255">
        <ele>140</ele>
        <time>2018-06-17T08:21:40Z</time>
      </trkpt>
      <trkpt lat="48.98021" lon="0.9627">
        <ele>139.800003</ele>
        <time>2018-06-17T08:21:42Z</time>
      </trkpt>
      <trkpt lat="48.98012" lon="0.96283">
        <ele>139.300003</ele>
        <time>2018-06-17T08:21:44Z</time>
      </trkpt>
      <trkpt lat="48.98004" lon="0.96298">
        <ele>138.600006</ele>
        <time>2018-06-17T08:21:46Z</time>
      </trkpt>
      <trkpt lat="48.97995" lon="0.96312">
        <ele>138.399994</ele>
        <time>2018-06-17T08:21:48Z</time>
      </trkpt>
      <trkpt lat="48.97987" lon="0.96329">
        <ele>138.199997</ele>
        <time>2018-06-17T08:21:50Z</time>
      </trkpt>
      <trkpt lat="48.97981" lon="0.9634">
        <ele>138.100006</ele>
        <time>2018-06-17T08:21:51Z</time>
      </trkpt>
      <trkpt lat="48.97972" lon="0.96356">
        <ele>137.699997</ele>
        <time>2018-06-17T08:21:53Z</time>
      </trkpt>
      <trkpt lat="48.97967" lon="0.96375">
        <ele>137.300003</ele>
        <time>2018-06-17T08:21:55Z</time>
      </trkpt>
      <trkpt lat="48.97966" lon="0.96395">
        <ele>136.800003</ele>
        <time>2018-06-17T08:21:57Z</time>
      </trkpt>
      <trkpt lat="48.97969" lon="0.96416">
        <ele>136.100006</ele>
        <time>2018-06-17T08:21:59Z</time>
      </trkpt>
      <trkpt lat="48.97971" lon="0.96436">
        <ele>135.399994</ele>
        <time>2018-06-17T08:22:01Z</time>
      </trkpt>
      <trkpt lat="48.97973" lon="0.96454">
        <ele>134.899994</ele>
        <time>2018-06-17T08:22:03Z</time>
      </trkpt>
      <trkpt lat="48.97973" lon="0.96472">
        <ele>134.300003</ele>
        <time>2018-06-17T08:22:05Z</time>
      </trkpt>
      <trkpt lat="48.9797" lon="0.96488">
        <ele>133.600006</ele>
        <time>2018-06-17T08:22:07Z</time>
      </trkpt>
      <trkpt lat="48.97965" lon="0.96505">
        <ele>132.899994</ele>
        <time>2018-06-17T08:22:09Z</time>
      </trkpt>
      <trkpt lat="48.97955" lon="0.96517">
        <ele>132.300003</ele>
        <time>2018-06-17T08:22:11Z</time>
      </trkpt>
      <trkpt lat="48.97942" lon="0.96525">
        <ele>131.699997</ele>
        <time>2018-06-17T08:22:13Z</time>
      </trkpt>
      <trkpt lat="48.97929" lon="0.96529">
        <ele>130.899994</ele>
        <time>2018-06-17T08:22:15Z</time>
      </trkpt>
      <trkpt lat="48.97914" lon="0.96528">
        <ele>129.800003</ele>
        <time>2018-06-17T08:22:17Z</time>
      </trkpt>
      <trkpt lat="48.97903" lon="0.96528">
        <ele>128.800003</ele>
        <time>2018-06-17T08:22:19Z</time>
      </trkpt>
      <trkpt lat="48.97888" lon="0.96525">
        <ele>127.599998</ele>
        <time>2018-06-17T08:22:21Z</time>
      </trkpt>
      <trkpt lat="48.97875" lon="0.96529">
        <ele>126.300003</ele>
        <time>2018-06-17T08:22:23Z</time>
      </trkpt>
      <trkpt lat="48.97862" lon="0.96537">
        <ele>125.300003</ele>
        <time>2018-06-17T08:22:25Z</time>
      </trkpt>
      <trkpt lat="48.97854" lon="0.96551">
        <ele>124.199997</ele>
        <time>2018-06-17T08:22:27Z</time>
      </trkpt>
      <trkpt lat="48.97847" lon="0.96561">
        <ele>123.599998</ele>
        <time>2018-06-17T08:22:28Z</time>
      </trkpt>
      <trkpt lat="48.9784" lon="0.9658">
        <ele>122.400002</ele>
        <time>2018-06-17T08:22:30Z</time>
      </trkpt>
      <trkpt lat="48.97833" lon="0.96604">
        <ele>120.900002</ele>
        <time>2018-06-17T08:22:32Z</time>
      </trkpt>
      <trkpt lat="48.97828" lon="0.96619">
        <ele>120.400002</ele>
        <time>2018-06-17T08:22:33Z</time>
      </trkpt>
      <trkpt lat="48.97825" lon="0.96635">
        <ele>119.900002</ele>
        <time>2018-06-17T08:22:34Z</time>
      </trkpt>
      <trkpt lat="48.97821" lon="0.96648">
        <ele>119.199997</ele>
        <time>2018-06-17T08:22:35Z</time>
      </trkpt>
      <trkpt lat="48.97818" lon="0.96661">
        <ele>118.699997</ele>
        <time>2018-06-17T08:22:36Z</time>
      </trkpt>
      <trkpt lat="48.97816" lon="0.96677">
        <ele>118</ele>
        <time>2018-06-17T08:22:37Z</time>
      </trkpt>
      <trkpt lat="48.97814" lon="0.96695">
        <ele>117.5</ele>
        <time>2018-06-17T08:22:38Z</time>
      </trkpt>
      <trkpt lat="48.97815" lon="0.96721">
        <ele>116.599998</ele>
        <time>2018-06-17T08:22:40Z</time>
      </trkpt>
      <trkpt lat="48.97818" lon="0.96739">
        <ele>115.199997</ele>
        <time>2018-06-17T08:22:42Z</time>
      </trkpt>
      <trkpt lat="48.97808" lon="0.96735">
        <ele>109.199997</ele>
        <time>2018-06-17T08:23:01Z</time>
      </trkpt>
      <trkpt lat="48.97803" lon="0.9672">
        <ele>108.699997</ele>
        <time>2018-06-17T08:23:05Z</time>
      </trkpt>
      <trkpt lat="48.97799" lon="0.96706">
        <ele>108.199997</ele>
        <time>2018-06-17T08:23:08Z</time>
      </trkpt>
      <trkpt lat="48.97791" lon="0.96697">
        <ele>107.400002</ele>
        <time>2018-06-17T08:23:10Z</time>
      </trkpt>
      <trkpt lat="48.97779" lon="0.96692">
        <ele>106.099998</ele>
        <time>2018-06-17T08:23:13Z</time>
      </trkpt>
      <trkpt lat="48.97769" lon="0.96693">
        <ele>104.800003</ele>
        <time>2018-06-17T08:23:15Z</time>
      </trkpt>
      <trkpt lat="48.9776" lon="0.967">
        <ele>103.699997</ele>
        <time>2018-06-17T08:23:17Z</time>
      </trkpt>
      <trkpt lat="48.9775" lon="0.96711">
        <ele>102.699997</ele>
        <time>2018-06-17T08:23:19Z</time>
      </trkpt>
      <trkpt lat="48.97739" lon="0.96719">
        <ele>102</ele>
        <time>2018-06-17T08:23:21Z</time>
      </trkpt>
      <trkpt lat="48.97727" lon="0.96719">
        <ele>101.400002</ele>
        <time>2018-06-17T08:23:23Z</time>
      </trkpt>
      <trkpt lat="48.97716" lon="0.96712">
        <ele>100.900002</ele>
        <time>2018-06-17T08:23:25Z</time>
      </trkpt>
      <trkpt lat="48.97708" lon="0.96703">
        <ele>100.599998</ele>
        <time>2018-06-17T08:23:27Z</time>
      </trkpt>
      <trkpt lat="48.97698" lon="0.96698">
        <ele>100.400002</ele>
        <time>2018-06-17T08:23:29Z</time>
      </trkpt>
      <trkpt lat="48.97685" lon="0.96702">
        <ele>100</ele>
        <time>2018-06-17T08:23:31Z</time>
      </trkpt>
      <trkpt lat="48.97675" lon="0.96714">
        <ele>99.800003</ele>
        <time>2018-06-17T08:23:33Z</time>
      </trkpt>
      <trkpt lat="48.97668" lon="0.96729">
        <ele>99.599998</ele>
        <time>2018-06-17T08:23:35Z</time>
      </trkpt>
      <trkpt lat="48.97668" lon="0.96747">
        <ele>99.5</ele>
        <time>2018-06-17T08:23:38Z</time>
      </trkpt>
      <trkpt lat="48.97676" lon="0.96765">
        <ele>99.599998</ele>
        <time>2018-06-17T08:23:41Z</time>
      </trkpt>
      <trkpt lat="48.97679" lon="0.96781">
        <ele>99.699997</ele>
        <time>2018-06-17T08:23:43Z</time>
      </trkpt>
      <trkpt lat="48.9768" lon="0.96799">
        <ele>99.599998</ele>
        <time>2018-06-17T08:23:45Z</time>
      </trkpt>
      <trkpt lat="48.97682" lon="0.96818">
        <ele>99.5</ele>
        <time>2018-06-17T08:23:47Z</time>
      </trkpt>
      <trkpt lat="48.97683" lon="0.96836">
        <ele>99.199997</ele>
        <time>2018-06-17T08:23:49Z</time>
      </trkpt>
      <trkpt lat="48.97686" lon="0.96854">
        <ele>99.099998</ele>
        <time>2018-06-17T08:23:51Z</time>
      </trkpt>
      <trkpt lat="48.9769" lon="0.96869">
        <ele>99.5</ele>
        <time>2018-06-17T08:23:53Z</time>
      </trkpt>
      <trkpt lat="48.97697" lon="0.9688">
        <ele>99.900002</ele>
        <time>2018-06-17T08:23:55Z</time>
      </trkpt>
      <trkpt lat="48.97704" lon="0.96891">
        <ele>100.199997</ele>
        <time>2018-06-17T08:23:57Z</time>
      </trkpt>
      <trkpt lat="48.9771" lon="0.96904">
        <ele>100.300003</ele>
        <time>2018-06-17T08:23:59Z</time>
      </trkpt>
      <trkpt lat="48.97715" lon="0.96917">
        <ele>100.599998</ele>
        <time>2018-06-17T08:24:01Z</time>
      </trkpt>
      <trkpt lat="48.9772" lon="0.96931">
        <ele>100.900002</ele>
        <time>2018-06-17T08:24:03Z</time>
      </trkpt>
      <trkpt lat="48.97723" lon="0.96946">
        <ele>101.300003</ele>
        <time>2018-06-17T08:24:05Z</time>
      </trkpt>
      <trkpt lat="48.97722" lon="0.96962">
        <ele>101.5</ele>
        <time>2018-06-17T08:24:07Z</time>
      </trkpt>
      <trkpt lat="48.97717" lon="0.96976">
        <ele>101.599998</ele>
        <time>2018-06-17T08:24:09Z</time>
      </trkpt>
      <trkpt lat="48.97713" lon="0.96989">
        <ele>101.800003</ele>
        <time>2018-06-17T08:24:11Z</time>
      </trkpt>
      <trkpt lat="48.97709" lon="0.97002">
        <ele>102</ele>
        <time>2018-06-17T08:24:13Z</time>
      </trkpt>
      <trkpt lat="48.97709" lon="0.97022">
        <ele>102.199997</ele>
        <time>2018-06-17T08:24:16Z</time>
      </trkpt>
      <trkpt lat="48.97707" lon="0.97037">
        <ele>102.300003</ele>
        <time>2018-06-17T08:24:18Z</time>
      </trkpt>
      <trkpt lat="48.97701" lon="0.97048">
        <ele>102.699997</ele>
        <time>2018-06-17T08:24:20Z</time>
      </trkpt>
      <trkpt lat="48.97693" lon="0.97061">
        <ele>103.599998</ele>
        <time>2018-06-17T08:24:23Z</time>
      </trkpt>
      <trkpt lat="48.97688" lon="0.97072">
        <ele>104.5</ele>
        <time>2018-06-17T08:24:26Z</time>
      </trkpt>
      <trkpt lat="48.97681" lon="0.97086">
        <ele>106</ele>
        <time>2018-06-17T08:24:30Z</time>
      </trkpt>
      <trkpt lat="48.97674" lon="0.97097">
        <ele>107.599998</ele>
        <time>2018-06-17T08:24:34Z</time>
      </trkpt>
      <trkpt lat="48.97674" lon="0.97113">
        <ele>109</ele>
        <time>2018-06-17T08:24:38Z</time>
      </trkpt>
      <trkpt lat="48.97679" lon="0.97133">
        <ele>108.5</ele>
        <time>2018-06-17T08:24:41Z</time>
      </trkpt>
      <trkpt lat="48.97689" lon="0.97152">
        <ele>107.5</ele>
        <time>2018-06-17T08:24:43Z</time>
      </trkpt>
      <trkpt lat="48.97695" lon="0.97163">
        <ele>106.800003</ele>
        <time>2018-06-17T08:24:44Z</time>
      </trkpt>
      <trkpt lat="48.97702" lon="0.97174">
        <ele>105.900002</ele>
        <time>2018-06-17T08:24:45Z</time>
      </trkpt>
      <trkpt lat="48.97709" lon="0.97185">
        <ele>105.099998</ele>
        <time>2018-06-17T08:24:46Z</time>
      </trkpt>
      <trkpt lat="48.97716" lon="0.97196">
        <ele>104.300003</ele>
        <time>2018-06-17T08:24:47Z</time>
      </trkpt>
      <trkpt lat="48.97724" lon="0.97207">
        <ele>103.699997</ele>
        <time>2018-06-17T08:24:48Z</time>
      </trkpt>
      <trkpt lat="48.97731" lon="0.97218">
        <ele>103.099998</ele>
        <time>2018-06-17T08:24:49Z</time>
      </trkpt>
      <trkpt lat="48.97737" lon="0.97228">
        <ele>102.5</ele>
        <time>2018-06-17T08:24:50Z</time>
      </trkpt>
      <trkpt lat="48.97748" lon="0.97247">
        <ele>101.400002</ele>
        <time>2018-06-17T08:24:52Z</time>
      </trkpt>
      <trkpt lat="48.97755" lon="0.97267">
        <ele>100.300003</ele>
        <time>2018-06-17T08:24:54Z</time>
      </trkpt>
      <trkpt lat="48.97758" lon="0.97287">
        <ele>99.300003</ele>
        <time>2018-06-17T08:24:56Z</time>
      </trkpt>
      <trkpt lat="48.97764" lon="0.97303">
        <ele>98.699997</ele>
        <time>2018-06-17T08:24:58Z</time>
      </trkpt>
      <trkpt lat="48.97772" lon="0.9732">
        <ele>98.400002</ele>
        <time>2018-06-17T08:25:00Z</time>
      </trkpt>
      <trkpt lat="48.97773" lon="0.97339">
        <ele>98.199997</ele>
        <time>2018-06-17T08:25:02Z</time>
      </trkpt>
      <trkpt lat="48.97767" lon="0.97356">
        <ele>98.199997</ele>
        <time>2018-06-17T08:25:04Z</time>
      </trkpt>
      <trkpt lat="48.97758" lon="0.97369">
        <ele>98.300003</ele>
        <time>2018-06-17T08:25:06Z</time>
      </trkpt>
      <trkpt lat="48.9775" lon="0.97381">
        <ele>98.300003</ele>
        <time>2018-06-17T08:25:08Z</time>
      </trkpt>
      <trkpt lat="48.97742" lon="0.97394">
        <ele>98.199997</ele>
        <time>2018-06-17T08:25:10Z</time>
      </trkpt>
      <trkpt lat="48.9774" lon="0.97408">
        <ele>98.300003</ele>
        <time>2018-06-17T08:25:12Z</time>
      </trkpt>
      <trkpt lat="48.97735" lon="0.97424">
        <ele>98.400002</ele>
        <time>2018-06-17T08:25:15Z</time>
      </trkpt>
      <trkpt lat="48.97723" lon="0.97432">
        <ele>98.199997</ele>
        <time>2018-06-17T08:25:18Z</time>
      </trkpt>
      <trkpt lat="48.97714" lon="0.9744">
        <ele>98.099998</ele>
        <time>2018-06-17T08:25:21Z</time>
      </trkpt>
      <trkpt lat="48.97702" lon="0.97447">
        <ele>97.900002</ele>
        <time>2018-06-17T08:25:24Z</time>
      </trkpt>
      <trkpt lat="48.97694" lon="0.97454">
        <ele>97.900002</ele>
        <time>2018-06-17T08:25:26Z</time>
      </trkpt>
      <trkpt lat="48.97684" lon="0.97461">
        <ele>97.699997</ele>
        <time>2018-06-17T08:25:29Z</time>
      </trkpt>
      <trkpt lat="48.97675" lon="0.97465">
        <ele>97.599998</ele>
        <time>2018-06-17T08:25:31Z</time>
      </trkpt>
      <trkpt lat="48.97665" lon="0.9747">
        <ele>97.599998</ele>
        <time>2018-06-17T08:25:33Z</time>
      </trkpt>
      <trkpt lat="48.97654" lon="0.97478">
        <ele>97.900002</ele>
        <time>2018-06-17T08:25:36Z</time>
      </trkpt>
      <trkpt lat="48.97645" lon="0.97485">
        <ele>98.099998</ele>
        <time>2018-06-17T08:25:38Z</time>
      </trkpt>
      <trkpt lat="48.97637" lon="0.97492">
        <ele>98</ele>
        <time>2018-06-17T08:25:40Z</time>
      </trkpt>
      <trkpt lat="48.97628" lon="0.97496">
        <ele>98.099998</ele>
        <time>2018-06-17T08:25:42Z</time>
      </trkpt>
      <trkpt lat="48.97619" lon="0.97503">
        <ele>97.900002</ele>
        <time>2018-06-17T08:25:44Z</time>
      </trkpt>
      <trkpt lat="48.97608" lon="0.97508">
        <ele>97.900002</ele>
        <time>2018-06-17T08:25:47Z</time>
      </trkpt>
      <trkpt lat="48.97596" lon="0.97505">
        <ele>97.599998</ele>
        <time>2018-06-17T08:25:50Z</time>
      </trkpt>
      <trkpt lat="48.97586" lon="0.975">
        <ele>97.400002</ele>
        <time>2018-06-17T08:25:52Z</time>
      </trkpt>
      <trkpt lat="48.97573" lon="0.97491">
        <ele>97.199997</ele>
        <time>2018-06-17T08:25:55Z</time>
      </trkpt>
      <trkpt lat="48.97562" lon="0.97485">
        <ele>97</ele>
        <time>2018-06-17T08:25:57Z</time>
      </trkpt>
      <trkpt lat="48.97549" lon="0.9748">
        <ele>96.900002</ele>
        <time>2018-06-17T08:25:59Z</time>
      </trkpt>
      <trkpt lat="48.97539" lon="0.97484">
        <ele>96.800003</ele>
        <time>2018-06-17T08:26:01Z</time>
      </trkpt>
      <trkpt lat="48.97533" lon="0.97496">
        <ele>96.800003</ele>
        <time>2018-06-17T08:26:03Z</time>
      </trkpt>
      <trkpt lat="48.97527" lon="0.97511">
        <ele>96.800003</ele>
        <time>2018-06-17T08:26:05Z</time>
      </trkpt>
      <trkpt lat="48.97522" lon="0.97526">
        <ele>97</ele>
        <time>2018-06-17T08:26:07Z</time>
      </trkpt>
      <trkpt lat="48.97516" lon="0.97541">
        <ele>96.900002</ele>
        <time>2018-06-17T08:26:09Z</time>
      </trkpt>
      <trkpt lat="48.97509" lon="0.97554">
        <ele>96.900002</ele>
        <time>2018-06-17T08:26:11Z</time>
      </trkpt>
      <trkpt lat="48.97503" lon="0.97568">
        <ele>96.800003</ele>
        <time>2018-06-17T08:26:13Z</time>
      </trkpt>
      <trkpt lat="48.97495" lon="0.97581">
        <ele>96.900002</ele>
        <time>2018-06-17T08:26:15Z</time>
      </trkpt>
      <trkpt lat="48.97484" lon="0.97591">
        <ele>97.099998</ele>
        <time>2018-06-17T08:26:17Z</time>
      </trkpt>
      <trkpt lat="48.97475" lon="0.97601">
        <ele>97.400002</ele>
        <time>2018-06-17T08:26:19Z</time>
      </trkpt>
      <trkpt lat="48.97466" lon="0.97614">
        <ele>97.400002</ele>
        <time>2018-06-17T08:26:21Z</time>
      </trkpt>
      <trkpt lat="48.97455" lon="0.97627">
        <ele>97.400002</ele>
        <time>2018-06-17T08:26:23Z</time>
      </trkpt>
      <trkpt lat="48.97445" lon="0.9764">
        <ele>97.400002</ele>
        <time>2018-06-17T08:26:25Z</time>
      </trkpt>
      <trkpt lat="48.97437" lon="0.97656">
        <ele>97.099998</ele>
        <time>2018-06-17T08:26:27Z</time>
      </trkpt>
      <trkpt lat="48.9743" lon="0.9767">
        <ele>96.900002</ele>
        <time>2018-06-17T08:26:29Z</time>
      </trkpt>
      <trkpt lat="48.97423" lon="0.97686">
        <ele>96.800003</ele>
        <time>2018-06-17T08:26:31Z</time>
      </trkpt>
      <trkpt lat="48.97417" lon="0.97704">
        <ele>96.800003</ele>
        <time>2018-06-17T08:26:33Z</time>
      </trkpt>
      <trkpt lat="48.9741" lon="0.97723">
        <ele>96.800003</ele>
        <time>2018-06-17T08:26:35Z</time>
      </trkpt>
      <trkpt lat="48.97403" lon="0.97741">
        <ele>96.300003</ele>
        <time>2018-06-17T08:26:37Z</time>
      </trkpt>
      <trkpt lat="48.97395" lon="0.9776">
        <ele>96.400002</ele>
        <time>2018-06-17T08:26:39Z</time>
      </trkpt>
      <trkpt lat="48.97388" lon="0.97777">
        <ele>96.199997</ele>
        <time>2018-06-17T08:26:41Z</time>
      </trkpt>
      <trkpt lat="48.9738" lon="0.97795">
        <ele>96.300003</ele>
        <time>2018-06-17T08:26:43Z</time>
      </trkpt>
      <trkpt lat="48.9737" lon="0.97808">
        <ele>96.300003</ele>
        <time>2018-06-17T08:26:45Z</time>
      </trkpt>
      <trkpt lat="48.97359" lon="0.97821">
        <ele>96.400002</ele>
        <time>2018-06-17T08:26:47Z</time>
      </trkpt>
      <trkpt lat="48.97349" lon="0.97836">
        <ele>96.400002</ele>
        <time>2018-06-17T08:26:49Z</time>
      </trkpt>
      <trkpt lat="48.97343" lon="0.97853">
        <ele>96.099998</ele>
        <time>2018-06-17T08:26:51Z</time>
      </trkpt>
      <trkpt lat="48.97337" lon="0.97867">
        <ele>95.900002</ele>
        <time>2018-06-17T08:26:53Z</time>
      </trkpt>
      <trkpt lat="48.97325" lon="0.97867">
        <ele>96.199997</ele>
        <time>2018-06-17T08:26:56Z</time>
      </trkpt>
      <trkpt lat="48.97312" lon="0.97858">
        <ele>96.300003</ele>
        <time>2018-06-17T08:26:59Z</time>
      </trkpt>
      <trkpt lat="48.97302" lon="0.97852">
        <ele>96.5</ele>
        <time>2018-06-17T08:27:01Z</time>
      </trkpt>
      <trkpt lat="48.97293" lon="0.97846">
        <ele>96.5</ele>
        <time>2018-06-17T08:27:03Z</time>
      </trkpt>
      <trkpt lat="48.97283" lon="0.97838">
        <ele>96.400002</ele>
        <time>2018-06-17T08:27:05Z</time>
      </trkpt>
      <trkpt lat="48.97272" lon="0.9783">
        <ele>96.300003</ele>
        <time>2018-06-17T08:27:07Z</time>
      </trkpt>
      <trkpt lat="48.97262" lon="0.97824">
        <ele>96.199997</ele>
        <time>2018-06-17T08:27:09Z</time>
      </trkpt>
      <trkpt lat="48.97252" lon="0.97818">
        <ele>96.099998</ele>
        <time>2018-06-17T08:27:11Z</time>
      </trkpt>
      <trkpt lat="48.97242" lon="0.97814">
        <ele>96.099998</ele>
        <time>2018-06-17T08:27:13Z</time>
      </trkpt>
      <trkpt lat="48.97232" lon="0.97811">
        <ele>96.099998</ele>
        <time>2018-06-17T08:27:15Z</time>
      </trkpt>
      <trkpt lat="48.97222" lon="0.97811">
        <ele>96.099998</ele>
        <time>2018-06-17T08:27:17Z</time>
      </trkpt>
      <trkpt lat="48.97212" lon="0.97812">
        <ele>96</ele>
        <time>2018-06-17T08:27:19Z</time>
      </trkpt>
      <trkpt lat="48.97202" lon="0.97812">
        <ele>96.199997</ele>
        <time>2018-06-17T08:27:21Z</time>
      </trkpt>
      <trkpt lat="48.97193" lon="0.9781">
        <ele>96.300003</ele>
        <time>2018-06-17T08:27:23Z</time>
      </trkpt>
      <trkpt lat="48.97181" lon="0.97804">
        <ele>96.400002</ele>
        <time>2018-06-17T08:27:26Z</time>
      </trkpt>
      <trkpt lat="48.97172" lon="0.97804">
        <ele>96.699997</ele>
        <time>2018-06-17T08:27:29Z</time>
      </trkpt>
      <trkpt lat="48.97161" lon="0.97805">
        <ele>97.900002</ele>
        <time>2018-06-17T08:27:34Z</time>
      </trkpt>
      <trkpt lat="48.97151" lon="0.97804">
        <ele>100</ele>
        <time>2018-06-17T08:27:41Z</time>
      </trkpt>
      <trkpt lat="48.97141" lon="0.97803">
        <ele>102.300003</ele>
        <time>2018-06-17T08:27:48Z</time>
      </trkpt>
      <trkpt lat="48.97132" lon="0.97802">
        <ele>103.900002</ele>
        <time>2018-06-17T08:27:54Z</time>
      </trkpt>
      <trkpt lat="48.97123" lon="0.97806">
        <ele>105.5</ele>
        <time>2018-06-17T08:28:01Z</time>
      </trkpt>
      <trkpt lat="48.97113" lon="0.97807">
        <ele>107.199997</ele>
        <time>2018-06-17T08:28:08Z</time>
      </trkpt>
      <trkpt lat="48.97104" lon="0.9781">
        <ele>109.300003</ele>
        <time>2018-06-17T08:28:16Z</time>
      </trkpt>
      <trkpt lat="48.97094" lon="0.9781">
        <ele>112.099998</ele>
        <time>2018-06-17T08:28:31Z</time>
      </trkpt>
      <trkpt lat="48.97085" lon="0.97811">
        <ele>115.300003</ele>
        <time>2018-06-17T08:28:47Z</time>
      </trkpt>
      <trkpt lat="48.97076" lon="0.97805">
        <ele>116.900002</ele>
        <time>2018-06-17T08:28:58Z</time>
      </trkpt>
      <trkpt lat="48.97075" lon="0.9779">
        <ele>117.300003</ele>
        <time>2018-06-17T08:29:05Z</time>
      </trkpt>
      <trkpt lat="48.97087" lon="0.97788">
        <ele>116.699997</ele>
        <time>2018-06-17T08:29:09Z</time>
      </trkpt>
      <trkpt lat="48.97098" lon="0.97786">
        <ele>116.300003</ele>
        <time>2018-06-17T08:29:11Z</time>
      </trkpt>
      <trkpt lat="48.97109" lon="0.97783">
        <ele>115.800003</ele>
        <time>2018-06-17T08:29:13Z</time>
      </trkpt>
      <trkpt lat="48.97118" lon="0.97774">
        <ele>115.199997</ele>
        <time>2018-06-17T08:29:15Z</time>
      </trkpt>
      <trkpt lat="48.97124" lon="0.97759">
        <ele>114.5</ele>
        <time>2018-06-17T08:29:17Z</time>
      </trkpt>
      <trkpt lat="48.97129" lon="0.97741">
        <ele>113.599998</ele>
        <time>2018-06-17T08:29:19Z</time>
      </trkpt>
      <trkpt lat="48.97132" lon="0.97719">
        <ele>112.599998</ele>
        <time>2018-06-17T08:29:21Z</time>
      </trkpt>
      <trkpt lat="48.97136" lon="0.97696">
        <ele>111.699997</ele>
        <time>2018-06-17T08:29:23Z</time>
      </trkpt>
      <trkpt lat="48.97142" lon="0.97685">
        <ele>111.300003</ele>
        <time>2018-06-17T08:29:24Z</time>
      </trkpt>
      <trkpt lat="48.97147" lon="0.97663">
        <ele>110.199997</ele>
        <time>2018-06-17T08:29:26Z</time>
      </trkpt>
      <trkpt lat="48.97152" lon="0.97646">
        <ele>109</ele>
        <time>2018-06-17T08:29:28Z</time>
      </trkpt>
      <trkpt lat="48.97162" lon="0.97632">
        <ele>107.800003</ele>
        <time>2018-06-17T08:29:30Z</time>
      </trkpt>
      <trkpt lat="48.97169" lon="0.97621">
        <ele>107.300003</ele>
        <time>2018-06-17T08:29:31Z</time>
      </trkpt>
      <trkpt lat="48.97178" lon="0.97607">
        <ele>106.400002</ele>
        <time>2018-06-17T08:29:33Z</time>
      </trkpt>
      <trkpt lat="48.97184" lon="0.97592">
        <ele>105.599998</ele>
        <time>2018-06-17T08:29:35Z</time>
      </trkpt>
      <trkpt lat="48.97194" lon="0.97578">
        <ele>105</ele>
        <time>2018-06-17T08:29:37Z</time>
      </trkpt>
      <trkpt lat="48.97199" lon="0.97563">
        <ele>104.199997</ele>
        <time>2018-06-17T08:29:39Z</time>
      </trkpt>
      <trkpt lat="48.97204" lon="0.97551">
        <ele>103.699997</ele>
        <time>2018-06-17T08:29:41Z</time>
      </trkpt>
      <trkpt lat="48.97212" lon="0.97541">
        <ele>103.5</ele>
        <time>2018-06-17T08:29:43Z</time>
      </trkpt>
      <trkpt lat="48.97222" lon="0.97533">
        <ele>103.400002</ele>
        <time>2018-06-17T08:29:45Z</time>
      </trkpt>
      <trkpt lat="48.97232" lon="0.97523">
        <ele>103</ele>
        <time>2018-06-17T08:29:47Z</time>
      </trkpt>
      <trkpt lat="48.9724" lon="0.97514">
        <ele>102.5</ele>
        <time>2018-06-17T08:29:49Z</time>
      </trkpt>
      <trkpt lat="48.9725" lon="0.97506">
        <ele>101.699997</ele>
        <time>2018-06-17T08:29:52Z</time>
      </trkpt>
      <trkpt lat="48.97255" lon="0.97493">
        <ele>101.199997</ele>
        <time>2018-06-17T08:29:56Z</time>
      </trkpt>
      <trkpt lat="48.97261" lon="0.97479">
        <ele>101.400002</ele>
        <time>2018-06-17T08:29:59Z</time>
      </trkpt>
      <trkpt lat="48.97267" lon="0.97466">
        <ele>101.800003</ele>
        <time>2018-06-17T08:30:02Z</time>
      </trkpt>
      <trkpt lat="48.97276" lon="0.97454">
        <ele>102.300003</ele>
        <time>2018-06-17T08:30:05Z</time>
      </trkpt>
      <trkpt lat="48.97284" lon="0.97446">
        <ele>102.400002</ele>
        <time>2018-06-17T08:30:07Z</time>
      </trkpt>
      <trkpt lat="48.97294" lon="0.97438">
        <ele>102.400002</ele>
        <time>2018-06-17T08:30:09Z</time>
      </trkpt>
      <trkpt lat="48.97306" lon="0.97435">
        <ele>101.900002</ele>
        <time>2018-06-17T08:30:13Z</time>
      </trkpt>
      <trkpt lat="48.97315" lon="0.97431">
        <ele>101.800003</ele>
        <time>2018-06-17T08:30:17Z</time>
      </trkpt>
      <trkpt lat="48.97324" lon="0.97425">
        <ele>101.800003</ele>
        <time>2018-06-17T08:30:20Z</time>
      </trkpt>
      <trkpt lat="48.97335" lon="0.97422">
        <ele>101.900002</ele>
        <time>2018-06-17T08:30:23Z</time>
      </trkpt>
      <trkpt lat="48.97346" lon="0.97417">
        <ele>102.199997</ele>
        <time>2018-06-17T08:30:27Z</time>
      </trkpt>
      <trkpt lat="48.97354" lon="0.97412">
        <ele>102.300003</ele>
        <time>2018-06-17T08:30:29Z</time>
      </trkpt>
      <trkpt lat="48.97367" lon="0.97407">
        <ele>102.599998</ele>
        <time>2018-06-17T08:30:33Z</time>
      </trkpt>
      <trkpt lat="48.9738" lon="0.97403">
        <ele>103</ele>
        <time>2018-06-17T08:30:36Z</time>
      </trkpt>
      <trkpt lat="48.97394" lon="0.97398">
        <ele>102.800003</ele>
        <time>2018-06-17T08:30:39Z</time>
      </trkpt>
      <trkpt lat="48.97403" lon="0.97391">
        <ele>102.800003</ele>
        <time>2018-06-17T08:30:41Z</time>
      </trkpt>
      <trkpt lat="48.97411" lon="0.97384">
        <ele>102.900002</ele>
        <time>2018-06-17T08:30:43Z</time>
      </trkpt>
      <trkpt lat="48.97423" lon="0.97378">
        <ele>102.900002</ele>
        <time>2018-06-17T08:30:46Z</time>
      </trkpt>
      <trkpt lat="48.97431" lon="0.97372">
        <ele>103</ele>
        <time>2018-06-17T08:30:48Z</time>
      </trkpt>
      <trkpt lat="48.9744" lon="0.97368">
        <ele>103.199997</ele>
        <time>2018-06-17T08:30:51Z</time>
      </trkpt>
      <trkpt lat="48.97448" lon="0.9736">
        <ele>103.599998</ele>
        <time>2018-06-17T08:30:54Z</time>
      </trkpt>
      <trkpt lat="48.97459" lon="0.97357">
        <ele>103.699997</ele>
        <time>2018-06-17T08:30:58Z</time>
      </trkpt>
      <trkpt lat="48.97469" lon="0.97353">
        <ele>103.199997</ele>
        <time>2018-06-17T08:31:02Z</time>
      </trkpt>
      <trkpt lat="48.9748" lon="0.97351">
        <ele>102.800003</ele>
        <time>2018-06-17T08:31:06Z</time>
      </trkpt>
      <trkpt lat="48.97488" lon="0.97339">
        <ele>102.800003</ele>
        <time>2018-06-17T08:31:10Z</time>
      </trkpt>
      <trkpt lat="48.97497" lon="0.97329">
        <ele>103.199997</ele>
        <time>2018-06-17T08:31:13Z</time>
      </trkpt>
      <trkpt lat="48.97502" lon="0.97316">
        <ele>103.199997</ele>
        <time>2018-06-17T08:31:17Z</time>
      </trkpt>
      <trkpt lat="48.97503" lon="0.97299">
        <ele>104</ele>
        <time>2018-06-17T08:31:22Z</time>
      </trkpt>
      <trkpt lat="48.975" lon="0.97282">
        <ele>104.5</ele>
        <time>2018-06-17T08:31:26Z</time>
      </trkpt>
      <trkpt lat="48.97497" lon="0.97267">
        <ele>104.900002</ele>
        <time>2018-06-17T08:31:30Z</time>
      </trkpt>
      <trkpt lat="48.97489" lon="0.97253">
        <ele>105.300003</ele>
        <time>2018-06-17T08:31:34Z</time>
      </trkpt>
      <trkpt lat="48.97483" lon="0.97243">
        <ele>105.800003</ele>
        <time>2018-06-17T08:31:37Z</time>
      </trkpt>
      <trkpt lat="48.97475" lon="0.97232">
        <ele>106.199997</ele>
        <time>2018-06-17T08:31:40Z</time>
      </trkpt>
      <trkpt lat="48.97465" lon="0.97224">
        <ele>106.599998</ele>
        <time>2018-06-17T08:31:43Z</time>
      </trkpt>
      <trkpt lat="48.97456" lon="0.97215">
        <ele>107</ele>
        <time>2018-06-17T08:31:46Z</time>
      </trkpt>
      <trkpt lat="48.97447" lon="0.97207">
        <ele>107.5</ele>
        <time>2018-06-17T08:31:49Z</time>
      </trkpt>
      <trkpt lat="48.97435" lon="0.972">
        <ele>108</ele>
        <time>2018-06-17T08:31:52Z</time>
      </trkpt>
      <trkpt lat="48.97423" lon="0.97195">
        <ele>108.599998</ele>
        <time>2018-06-17T08:31:55Z</time>
      </trkpt>
      <trkpt lat="48.97413" lon="0.97191">
        <ele>109.199997</ele>
        <time>2018-06-17T08:31:58Z</time>
      </trkpt>
      <trkpt lat="48.97403" lon="0.97187">
        <ele>109.900002</ele>
        <time>2018-06-17T08:32:02Z</time>
      </trkpt>
      <trkpt lat="48.97393" lon="0.97182">
        <ele>110.400002</ele>
        <time>2018-06-17T08:32:06Z</time>
      </trkpt>
      <trkpt lat="48.97385" lon="0.97177">
        <ele>110.699997</ele>
        <time>2018-06-17T08:32:09Z</time>
      </trkpt>
      <trkpt lat="48.97374" lon="0.97174">
        <ele>112</ele>
        <time>2018-06-17T08:32:14Z</time>
      </trkpt>
      <trkpt lat="48.97362" lon="0.97171">
        <ele>112.400002</ele>
        <time>2018-06-17T08:32:17Z</time>
      </trkpt>
      <trkpt lat="48.97351" lon="0.97167">
        <ele>113</ele>
        <time>2018-06-17T08:32:20Z</time>
      </trkpt>
      <trkpt lat="48.97341" lon="0.97164">
        <ele>113.300003</ele>
        <time>2018-06-17T08:32:23Z</time>
      </trkpt>
      <trkpt lat="48.97331" lon="0.97163">
        <ele>113.699997</ele>
        <time>2018-06-17T08:32:26Z</time>
      </trkpt>
      <trkpt lat="48.97319" lon="0.9716">
        <ele>114.300003</ele>
        <time>2018-06-17T08:32:29Z</time>
      </trkpt>
      <trkpt lat="48.97309" lon="0.97159">
        <ele>114.800003</ele>
        <time>2018-06-17T08:32:31Z</time>
      </trkpt>
      <trkpt lat="48.97297" lon="0.97159">
        <ele>115</ele>
        <time>2018-06-17T08:32:34Z</time>
      </trkpt>
      <trkpt lat="48.97288" lon="0.97158">
        <ele>115.699997</ele>
        <time>2018-06-17T08:32:37Z</time>
      </trkpt>
      <trkpt lat="48.97278" lon="0.97154">
        <ele>116.199997</ele>
        <time>2018-06-17T08:32:40Z</time>
      </trkpt>
      <trkpt lat="48.97268" lon="0.97153">
        <ele>116.699997</ele>
        <time>2018-06-17T08:32:43Z</time>
      </trkpt>
      <trkpt lat="48.97257" lon="0.9715">
        <ele>117.400002</ele>
        <time>2018-06-17T08:32:47Z</time>
      </trkpt>
      <trkpt lat="48.97248" lon="0.97149">
        <ele>117.800003</ele>
        <time>2018-06-17T08:32:50Z</time>
      </trkpt>
      <trkpt lat="48.97238" lon="0.97148">
        <ele>118.5</ele>
        <time>2018-06-17T08:32:54Z</time>
      </trkpt>
      <trkpt lat="48.97227" lon="0.9715">
        <ele>119.099998</ele>
        <time>2018-06-17T08:32:58Z</time>
      </trkpt>
      <trkpt lat="48.97218" lon="0.97145">
        <ele>120.099998</ele>
        <time>2018-06-17T08:33:11Z</time>
      </trkpt>
      <trkpt lat="48.97209" lon="0.97142">
        <ele>120.400002</ele>
        <time>2018-06-17T08:33:18Z</time>
      </trkpt>
      <trkpt lat="48.97199" lon="0.97142">
        <ele>120.400002</ele>
        <time>2018-06-17T08:33:21Z</time>
      </trkpt>
      <trkpt lat="48.97189" lon="0.97138">
        <ele>120.699997</ele>
        <time>2018-06-17T08:33:24Z</time>
      </trkpt>
      <trkpt lat="48.9718" lon="0.97135">
        <ele>121.300003</ele>
        <time>2018-06-17T08:33:27Z</time>
      </trkpt>
      <trkpt lat="48.9717" lon="0.97131">
        <ele>122</ele>
        <time>2018-06-17T08:33:30Z</time>
      </trkpt>
      <trkpt lat="48.9716" lon="0.97126">
        <ele>122.599998</ele>
        <time>2018-06-17T08:33:34Z</time>
      </trkpt>
      <trkpt lat="48.97151" lon="0.97122">
        <ele>122.900002</ele>
        <time>2018-06-17T08:33:37Z</time>
      </trkpt>
      <trkpt lat="48.97141" lon="0.97117">
        <ele>123.199997</ele>
        <time>2018-06-17T08:33:40Z</time>
      </trkpt>
      <trkpt lat="48.97131" lon="0.97111">
        <ele>123.800003</ele>
        <time>2018-06-17T08:33:43Z</time>
      </trkpt>
      <trkpt lat="48.9712" lon="0.97104">
        <ele>124.099998</ele>
        <time>2018-06-17T08:33:46Z</time>
      </trkpt>
      <trkpt lat="48.9711" lon="0.97101">
        <ele>124.5</ele>
        <time>2018-06-17T08:33:49Z</time>
      </trkpt>
      <trkpt lat="48.97099" lon="0.97096">
        <ele>125.199997</ele>
        <time>2018-06-17T08:33:52Z</time>
      </trkpt>
      <trkpt lat="48.97089" lon="0.97091">
        <ele>125.5</ele>
        <time>2018-06-17T08:33:55Z</time>
      </trkpt>
      <trkpt lat="48.97079" lon="0.97083">
        <ele>126</ele>
        <time>2018-06-17T08:33:59Z</time>
      </trkpt>
      <trkpt lat="48.9707" lon="0.97078">
        <ele>126.400002</ele>
        <time>2018-06-17T08:34:02Z</time>
      </trkpt>
      <trkpt lat="48.97061" lon="0.97072">
        <ele>126.900002</ele>
        <time>2018-06-17T08:34:05Z</time>
      </trkpt>
      <trkpt lat="48.97051" lon="0.97064">
        <ele>127.400002</ele>
        <time>2018-06-17T08:34:08Z</time>
      </trkpt>
      <trkpt lat="48.9704" lon="0.97057">
        <ele>127.800003</ele>
        <time>2018-06-17T08:34:11Z</time>
      </trkpt>
      <trkpt lat="48.97028" lon="0.97051">
        <ele>127.699997</ele>
        <time>2018-06-17T08:34:14Z</time>
      </trkpt>
      <trkpt lat="48.97017" lon="0.97047">
        <ele>128</ele>
        <time>2018-06-17T08:34:17Z</time>
      </trkpt>
      <trkpt lat="48.97011" lon="0.97037">
        <ele>128.800003</ele>
        <time>2018-06-17T08:34:25Z</time>
      </trkpt>
      <trkpt lat="48.97012" lon="0.97022">
        <ele>131</ele>
        <time>2018-06-17T08:34:36Z</time>
      </trkpt>
      <trkpt lat="48.97015" lon="0.97008">
        <ele>134.199997</ele>
        <time>2018-06-17T08:34:48Z</time>
      </trkpt>
      <trkpt lat="48.97013" lon="0.96993">
        <ele>135.5</ele>
        <time>2018-06-17T08:35:06Z</time>
      </trkpt>
      <trkpt lat="48.97015" lon="0.96978">
        <ele>136.300003</ele>
        <time>2018-06-17T08:35:13Z</time>
      </trkpt>
      <trkpt lat="48.97017" lon="0.96961">
        <ele>136.899994</ele>
        <time>2018-06-17T08:35:18Z</time>
      </trkpt>
      <trkpt lat="48.9702" lon="0.96947">
        <ele>137.399994</ele>
        <time>2018-06-17T08:35:22Z</time>
      </trkpt>
      <trkpt lat="48.97025" lon="0.96933">
        <ele>137.800003</ele>
        <time>2018-06-17T08:35:25Z</time>
      </trkpt>
      <trkpt lat="48.97031" lon="0.96919">
        <ele>138.199997</ele>
        <time>2018-06-17T08:35:28Z</time>
      </trkpt>
      <trkpt lat="48.97037" lon="0.96904">
        <ele>138.199997</ele>
        <time>2018-06-17T08:35:31Z</time>
      </trkpt>
      <trkpt lat="48.97044" lon="0.96892">
        <ele>138.300003</ele>
        <time>2018-06-17T08:35:34Z</time>
      </trkpt>
      <trkpt lat="48.97048" lon="0.96876">
        <ele>138.699997</ele>
        <time>2018-06-17T08:35:37Z</time>
      </trkpt>
      <trkpt lat="48.97053" lon="0.96862">
        <ele>138.699997</ele>
        <time>2018-06-17T08:35:40Z</time>
      </trkpt>
      <trkpt lat="48.97059" lon="0.96847">
        <ele>138.800003</ele>
        <time>2018-06-17T08:35:43Z</time>
      </trkpt>
      <trkpt lat="48.97063" lon="0.96829">
        <ele>139</ele>
        <time>2018-06-17T08:35:46Z</time>
      </trkpt>
      <trkpt lat="48.97068" lon="0.96811">
        <ele>139.199997</ele>
        <time>2018-06-17T08:35:49Z</time>
      </trkpt>
      <trkpt lat="48.97071" lon="0.96797">
        <ele>139.300003</ele>
        <time>2018-06-17T08:35:51Z</time>
      </trkpt>
      <trkpt lat="48.97075" lon="0.96784">
        <ele>139.199997</ele>
        <time>2018-06-17T08:35:53Z</time>
      </trkpt>
      <trkpt lat="48.97081" lon="0.96774">
        <ele>139.100006</ele>
        <time>2018-06-17T08:35:56Z</time>
      </trkpt>
      <trkpt lat="48.97087" lon="0.96787">
        <ele>138.600006</ele>
        <time>2018-06-17T08:36:10Z</time>
      </trkpt>
      <trkpt lat="48.97089" lon="0.96801">
        <ele>138.899994</ele>
        <time>2018-06-17T08:36:17Z</time>
      </trkpt>
      <trkpt lat="48.97099" lon="0.96798">
        <ele>138.199997</ele>
        <time>2018-06-17T08:36:25Z</time>
      </trkpt>
      <trkpt lat="48.97107" lon="0.96806">
        <ele>138.100006</ele>
        <time>2018-06-17T08:36:33Z</time>
      </trkpt>
      <trkpt lat="48.97114" lon="0.96816">
        <ele>138.199997</ele>
        <time>2018-06-17T08:36:37Z</time>
      </trkpt>
      <trkpt lat="48.97123" lon="0.96825">
        <ele>138.300003</ele>
        <time>2018-06-17T08:36:45Z</time>
      </trkpt>
      <trkpt lat="48.97131" lon="0.96818">
        <ele>138.399994</ele>
        <time>2018-06-17T08:36:53Z</time>
      </trkpt>
      <trkpt lat="48.97136" lon="0.96806">
        <ele>138.399994</ele>
        <time>2018-06-17T08:36:59Z</time>
      </trkpt>
      <trkpt lat="48.97144" lon="0.96794">
        <ele>138.600006</ele>
        <time>2018-06-17T08:37:03Z</time>
      </trkpt>
      <trkpt lat="48.97147" lon="0.96779">
        <ele>138.5</ele>
        <time>2018-06-17T08:37:09Z</time>
      </trkpt>
      <trkpt lat="48.97147" lon="0.96761">
        <ele>138.399994</ele>
        <time>2018-06-17T08:37:14Z</time>
      </trkpt>
      <trkpt lat="48.97151" lon="0.96746">
        <ele>138.5</ele>
        <time>2018-06-17T08:37:20Z</time>
      </trkpt>
      <trkpt lat="48.9716" lon="0.96733">
        <ele>138.399994</ele>
        <time>2018-06-17T08:37:23Z</time>
      </trkpt>
      <trkpt lat="48.9717" lon="0.96729">
        <ele>138</ele>
        <time>2018-06-17T08:37:27Z</time>
      </trkpt>
      <trkpt lat="48.9718" lon="0.96736">
        <ele>137.600006</ele>
        <time>2018-06-17T08:37:31Z</time>
      </trkpt>
      <trkpt lat="48.97188" lon="0.96745">
        <ele>137.399994</ele>
        <time>2018-06-17T08:37:36Z</time>
      </trkpt>
      <trkpt lat="48.97192" lon="0.9676">
        <ele>137.800003</ele>
        <time>2018-06-17T08:37:42Z</time>
      </trkpt>
      <trkpt lat="48.97202" lon="0.96758">
        <ele>138.100006</ele>
        <time>2018-06-17T08:37:47Z</time>
      </trkpt>
      <trkpt lat="48.97211" lon="0.96764">
        <ele>138</ele>
        <time>2018-06-17T08:37:52Z</time>
      </trkpt>
      <trkpt lat="48.97221" lon="0.96762">
        <ele>138</ele>
        <time>2018-06-17T08:37:56Z</time>
      </trkpt>
      <trkpt lat="48.97227" lon="0.96752">
        <ele>137.899994</ele>
        <time>2018-06-17T08:37:59Z</time>
      </trkpt>
      <trkpt lat="48.97236" lon="0.96737">
        <ele>137.699997</ele>
        <time>2018-06-17T08:38:03Z</time>
      </trkpt>
      <trkpt lat="48.97247" lon="0.96732">
        <ele>137.199997</ele>
        <time>2018-06-17T08:38:06Z</time>
      </trkpt>
      <trkpt lat="48.97256" lon="0.96735">
        <ele>136.600006</ele>
        <time>2018-06-17T08:38:10Z</time>
      </trkpt>
      <trkpt lat="48.97265" lon="0.96743">
        <ele>136.699997</ele>
        <time>2018-06-17T08:38:14Z</time>
      </trkpt>
      <trkpt lat="48.97275" lon="0.96748">
        <ele>137</ele>
        <time>2018-06-17T08:38:17Z</time>
      </trkpt>
      <trkpt lat="48.97285" lon="0.96755">
        <ele>137.100006</ele>
        <time>2018-06-17T08:38:20Z</time>
      </trkpt>
      <trkpt lat="48.97293" lon="0.96764">
        <ele>137.399994</ele>
        <time>2018-06-17T08:38:23Z</time>
      </trkpt>
      <trkpt lat="48.97303" lon="0.9677">
        <ele>137.699997</ele>
        <time>2018-06-17T08:38:26Z</time>
      </trkpt>
      <trkpt lat="48.97315" lon="0.96771">
        <ele>137.300003</ele>
        <time>2018-06-17T08:38:30Z</time>
      </trkpt>
      <trkpt lat="48.97323" lon="0.96763">
        <ele>137.100006</ele>
        <time>2018-06-17T08:38:33Z</time>
      </trkpt>
      <trkpt lat="48.9733" lon="0.96751">
        <ele>136.699997</ele>
        <time>2018-06-17T08:38:37Z</time>
      </trkpt>
      <trkpt lat="48.97337" lon="0.9674">
        <ele>136.699997</ele>
        <time>2018-06-17T08:38:40Z</time>
      </trkpt>
      <trkpt lat="48.97344" lon="0.96726">
        <ele>136</ele>
        <time>2018-06-17T08:38:43Z</time>
      </trkpt>
      <trkpt lat="48.97348" lon="0.96708">
        <ele>135.600006</ele>
        <time>2018-06-17T08:38:46Z</time>
      </trkpt>
      <trkpt lat="48.97352" lon="0.96689">
        <ele>134.600006</ele>
        <time>2018-06-17T08:38:49Z</time>
      </trkpt>
      <trkpt lat="48.97357" lon="0.96677">
        <ele>133.800003</ele>
        <time>2018-06-17T08:38:51Z</time>
      </trkpt>
      <trkpt lat="48.97361" lon="0.96663">
        <ele>133.100006</ele>
        <time>2018-06-17T08:38:53Z</time>
      </trkpt>
      <trkpt lat="48.97365" lon="0.96647">
        <ele>131.399994</ele>
        <time>2018-06-17T08:38:56Z</time>
      </trkpt>
      <trkpt lat="48.97357" lon="0.96639">
        <ele>130.199997</ele>
        <time>2018-06-17T08:39:00Z</time>
      </trkpt>
      <trkpt lat="48.97347" lon="0.96631">
        <ele>130</ele>
        <time>2018-06-17T08:39:04Z</time>
      </trkpt>
      <trkpt lat="48.97342" lon="0.96614">
        <ele>129.800003</ele>
        <time>2018-06-17T08:39:07Z</time>
      </trkpt>
      <trkpt lat="48.97341" lon="0.96599">
        <ele>128.899994</ele>
        <time>2018-06-17T08:39:11Z</time>
      </trkpt>
      <trkpt lat="48.97335" lon="0.96585">
        <ele>127.5</ele>
        <time>2018-06-17T08:39:16Z</time>
      </trkpt>
      <trkpt lat="48.97325" lon="0.96579">
        <ele>127.099998</ele>
        <time>2018-06-17T08:39:19Z</time>
      </trkpt>
      <trkpt lat="48.97317" lon="0.96572">
        <ele>126.599998</ele>
        <time>2018-06-17T08:39:22Z</time>
      </trkpt>
      <trkpt lat="48.97306" lon="0.96572">
        <ele>126.400002</ele>
        <time>2018-06-17T08:39:25Z</time>
      </trkpt>
      <trkpt lat="48.97299" lon="0.96562">
        <ele>126.699997</ele>
        <time>2018-06-17T08:39:28Z</time>
      </trkpt>
      <trkpt lat="48.9729" lon="0.96551">
        <ele>126.400002</ele>
        <time>2018-06-17T08:39:32Z</time>
      </trkpt>
      <trkpt lat="48.97281" lon="0.96541">
        <ele>126.300003</ele>
        <time>2018-06-17T08:39:35Z</time>
      </trkpt>
      <trkpt lat="48.97273" lon="0.96534">
        <ele>126.300003</ele>
        <time>2018-06-17T08:39:37Z</time>
      </trkpt>
      <trkpt lat="48.97264" lon="0.96529">
        <ele>126.199997</ele>
        <time>2018-06-17T08:39:40Z</time>
      </trkpt>
      <trkpt lat="48.97257" lon="0.96516">
        <ele>125.800003</ele>
        <time>2018-06-17T08:39:45Z</time>
      </trkpt>
      <trkpt lat="48.97248" lon="0.96504">
        <ele>125.300003</ele>
        <time>2018-06-17T08:39:49Z</time>
      </trkpt>
      <trkpt lat="48.97241" lon="0.96495">
        <ele>124.699997</ele>
        <time>2018-06-17T08:39:53Z</time>
      </trkpt>
      <trkpt lat="48.97234" lon="0.96484">
        <ele>123.199997</ele>
        <time>2018-06-17T08:39:57Z</time>
      </trkpt>
      <trkpt lat="48.97227" lon="0.96473">
        <ele>122.300003</ele>
        <time>2018-06-17T08:40:01Z</time>
      </trkpt>
      <trkpt lat="48.9722" lon="0.96462">
        <ele>121</ele>
        <time>2018-06-17T08:40:05Z</time>
      </trkpt>
      <trkpt lat="48.97211" lon="0.96454">
        <ele>120</ele>
        <time>2018-06-17T08:40:09Z</time>
      </trkpt>
      <trkpt lat="48.97203" lon="0.96445">
        <ele>119.699997</ele>
        <time>2018-06-17T08:40:13Z</time>
      </trkpt>
      <trkpt lat="48.97198" lon="0.9643">
        <ele>118.400002</ele>
        <time>2018-06-17T08:40:18Z</time>
      </trkpt>
      <trkpt lat="48.97195" lon="0.96418">
        <ele>114.900002</ele>
        <time>2018-06-17T08:40:25Z</time>
      </trkpt>
      <trkpt lat="48.97191" lon="0.96402">
        <ele>110.900002</ele>
        <time>2018-06-17T08:40:32Z</time>
      </trkpt>
      <trkpt lat="48.97193" lon="0.96386">
        <ele>107.400002</ele>
        <time>2018-06-17T08:40:37Z</time>
      </trkpt>
      <trkpt lat="48.97195" lon="0.9637">
        <ele>105.099998</ele>
        <time>2018-06-17T08:40:41Z</time>
      </trkpt>
      <trkpt lat="48.97192" lon="0.96354">
        <ele>102.900002</ele>
        <time>2018-06-17T08:40:45Z</time>
      </trkpt>
      <trkpt lat="48.97183" lon="0.96351">
        <ele>101.800003</ele>
        <time>2018-06-17T08:40:48Z</time>
      </trkpt>
      <trkpt lat="48.97171" lon="0.96347">
        <ele>101.599998</ele>
        <time>2018-06-17T08:40:51Z</time>
      </trkpt>
      <trkpt lat="48.97161" lon="0.96338">
        <ele>101.800003</ele>
        <time>2018-06-17T08:40:54Z</time>
      </trkpt>
      <trkpt lat="48.97152" lon="0.96334">
        <ele>101.800003</ele>
        <time>2018-06-17T08:40:57Z</time>
      </trkpt>
      <trkpt lat="48.9714" lon="0.96329">
        <ele>102</ele>
        <time>2018-06-17T08:41:01Z</time>
      </trkpt>
      <trkpt lat="48.97129" lon="0.96323">
        <ele>102</ele>
        <time>2018-06-17T08:41:04Z</time>
      </trkpt>
      <trkpt lat="48.9712" lon="0.96319">
        <ele>101.400002</ele>
        <time>2018-06-17T08:41:06Z</time>
      </trkpt>
      <trkpt lat="48.97109" lon="0.9631">
        <ele>101.699997</ele>
        <time>2018-06-17T08:41:09Z</time>
      </trkpt>
      <trkpt lat="48.97099" lon="0.963">
        <ele>102.400002</ele>
        <time>2018-06-17T08:41:12Z</time>
      </trkpt>
      <trkpt lat="48.97091" lon="0.96293">
        <ele>103</ele>
        <time>2018-06-17T08:41:14Z</time>
      </trkpt>
      <trkpt lat="48.97082" lon="0.96283">
        <ele>104</ele>
        <time>2018-06-17T08:41:17Z</time>
      </trkpt>
      <trkpt lat="48.97072" lon="0.96272">
        <ele>104.900002</ele>
        <time>2018-06-17T08:41:20Z</time>
      </trkpt>
      <trkpt lat="48.97063" lon="0.9626">
        <ele>105.699997</ele>
        <time>2018-06-17T08:41:23Z</time>
      </trkpt>
      <trkpt lat="48.97054" lon="0.96245">
        <ele>106.5</ele>
        <time>2018-06-17T08:41:26Z</time>
      </trkpt>
      <trkpt lat="48.97045" lon="0.96232">
        <ele>107.099998</ele>
        <time>2018-06-17T08:41:29Z</time>
      </trkpt>
      <trkpt lat="48.97036" lon="0.96219">
        <ele>107.5</ele>
        <time>2018-06-17T08:41:32Z</time>
      </trkpt>
      <trkpt lat="48.97028" lon="0.96205">
        <ele>108.300003</ele>
        <time>2018-06-17T08:41:35Z</time>
      </trkpt>
      <trkpt lat="48.97022" lon="0.96195">
        <ele>108.800003</ele>
        <time>2018-06-17T08:41:37Z</time>
      </trkpt>
      <trkpt lat="48.97016" lon="0.96184">
        <ele>109.199997</ele>
        <time>2018-06-17T08:41:39Z</time>
      </trkpt>
      <trkpt lat="48.9701" lon="0.96174">
        <ele>109.5</ele>
        <time>2018-06-17T08:41:41Z</time>
      </trkpt>
      <trkpt lat="48.97002" lon="0.96162">
        <ele>110</ele>
        <time>2018-06-17T08:41:44Z</time>
      </trkpt>
      <trkpt lat="48.96994" lon="0.9615">
        <ele>110.300003</ele>
        <time>2018-06-17T08:41:48Z</time>
      </trkpt>
      <trkpt lat="48.96984" lon="0.96148">
        <ele>111.300003</ele>
        <time>2018-06-17T08:41:53Z</time>
      </trkpt>
      <trkpt lat="48.96977" lon="0.96139">
        <ele>111.800003</ele>
        <time>2018-06-17T08:41:56Z</time>
      </trkpt>
      <trkpt lat="48.9697" lon="0.96128">
        <ele>112.400002</ele>
        <time>2018-06-17T08:42:00Z</time>
      </trkpt>
      <trkpt lat="48.96963" lon="0.96118">
        <ele>112.800003</ele>
        <time>2018-06-17T08:42:03Z</time>
      </trkpt>
      <trkpt lat="48.96954" lon="0.96106">
        <ele>113</ele>
        <time>2018-06-17T08:42:06Z</time>
      </trkpt>
      <trkpt lat="48.96948" lon="0.96096">
        <ele>113.699997</ele>
        <time>2018-06-17T08:42:10Z</time>
      </trkpt>
      <trkpt lat="48.96941" lon="0.96086">
        <ele>114.599998</ele>
        <time>2018-06-17T08:42:14Z</time>
      </trkpt>
      <trkpt lat="48.96934" lon="0.96076">
        <ele>115.699997</ele>
        <time>2018-06-17T08:42:22Z</time>
      </trkpt>
      <trkpt lat="48.96926" lon="0.96067">
        <ele>116.199997</ele>
        <time>2018-06-17T08:42:28Z</time>
      </trkpt>
      <trkpt lat="48.96918" lon="0.96057">
        <ele>116.900002</ele>
        <time>2018-06-17T08:42:33Z</time>
      </trkpt>
      <trkpt lat="48.96911" lon="0.96046">
        <ele>118.300003</ele>
        <time>2018-06-17T08:42:38Z</time>
      </trkpt>
      <trkpt lat="48.96906" lon="0.96031">
        <ele>119.300003</ele>
        <time>2018-06-17T08:42:43Z</time>
      </trkpt>
      <trkpt lat="48.969" lon="0.96019">
        <ele>120</ele>
        <time>2018-06-17T08:42:47Z</time>
      </trkpt>
      <trkpt lat="48.96894" lon="0.96008">
        <ele>120.900002</ele>
        <time>2018-06-17T08:42:51Z</time>
      </trkpt>
      <trkpt lat="48.96887" lon="0.95998">
        <ele>121.400002</ele>
        <time>2018-06-17T08:42:55Z</time>
      </trkpt>
      <trkpt lat="48.96881" lon="0.95986">
        <ele>122.099998</ele>
        <time>2018-06-17T08:42:59Z</time>
      </trkpt>
      <trkpt lat="48.96872" lon="0.95978">
        <ele>122.800003</ele>
        <time>2018-06-17T08:43:04Z</time>
      </trkpt>
      <trkpt lat="48.96867" lon="0.95991">
        <ele>124.300003</ele>
        <time>2018-06-17T08:43:10Z</time>
      </trkpt>
      <trkpt lat="48.96864" lon="0.96006">
        <ele>125.599998</ele>
        <time>2018-06-17T08:43:15Z</time>
      </trkpt>
      <trkpt lat="48.96861" lon="0.9602">
        <ele>127.199997</ele>
        <time>2018-06-17T08:43:21Z</time>
      </trkpt>
      <trkpt lat="48.96861" lon="0.96035">
        <ele>129.300003</ele>
        <time>2018-06-17T08:43:28Z</time>
      </trkpt>
      <trkpt lat="48.96857" lon="0.96049">
        <ele>131.600006</ele>
        <time>2018-06-17T08:43:36Z</time>
      </trkpt>
      <trkpt lat="48.96852" lon="0.96061">
        <ele>133.800003</ele>
        <time>2018-06-17T08:43:43Z</time>
      </trkpt>
      <trkpt lat="48.9685" lon="0.96075">
        <ele>135</ele>
        <time>2018-06-17T08:43:49Z</time>
      </trkpt>
      <trkpt lat="48.96853" lon="0.9609">
        <ele>135.699997</ele>
        <time>2018-06-17T08:43:55Z</time>
      </trkpt>
      <trkpt lat="48.9686" lon="0.96102">
        <ele>136</ele>
        <time>2018-06-17T08:43:59Z</time>
      </trkpt>
      <trkpt lat="48.96867" lon="0.96114">
        <ele>135.899994</ele>
        <time>2018-06-17T08:44:03Z</time>
      </trkpt>
      <trkpt lat="48.96872" lon="0.96126">
        <ele>135.600006</ele>
        <time>2018-06-17T08:44:06Z</time>
      </trkpt>
      <trkpt lat="48.96877" lon="0.96138">
        <ele>135.5</ele>
        <time>2018-06-17T08:44:09Z</time>
      </trkpt>
      <trkpt lat="48.96885" lon="0.96151">
        <ele>135.300003</ele>
        <time>2018-06-17T08:44:12Z</time>
      </trkpt>
      <trkpt lat="48.96893" lon="0.96167">
        <ele>134.800003</ele>
        <time>2018-06-17T08:44:15Z</time>
      </trkpt>
      <trkpt lat="48.96897" lon="0.96183">
        <ele>134.800003</ele>
        <time>2018-06-17T08:44:18Z</time>
      </trkpt>
      <trkpt lat="48.96906" lon="0.96197">
        <ele>134.600006</ele>
        <time>2018-06-17T08:44:21Z</time>
      </trkpt>
      <trkpt lat="48.96914" lon="0.9621">
        <ele>134.300003</ele>
        <time>2018-06-17T08:44:24Z</time>
      </trkpt>
      <trkpt lat="48.96923" lon="0.96218">
        <ele>133</ele>
        <time>2018-06-17T08:44:32Z</time>
      </trkpt>
      <trkpt lat="48.96931" lon="0.9623">
        <ele>132.899994</ele>
        <time>2018-06-17T08:44:39Z</time>
      </trkpt>
      <trkpt lat="48.96938" lon="0.9624">
        <ele>133.100006</ele>
        <time>2018-06-17T08:44:42Z</time>
      </trkpt>
      <trkpt lat="48.96946" lon="0.96255">
        <ele>133</ele>
        <time>2018-06-17T08:44:45Z</time>
      </trkpt>
      <trkpt lat="48.96953" lon="0.96266">
        <ele>132.800003</ele>
        <time>2018-06-17T08:44:47Z</time>
      </trkpt>
      <trkpt lat="48.96959" lon="0.96277">
        <ele>132.600006</ele>
        <time>2018-06-17T08:44:49Z</time>
      </trkpt>
      <trkpt lat="48.96966" lon="0.96287">
        <ele>132.5</ele>
        <time>2018-06-17T08:44:51Z</time>
      </trkpt>
      <trkpt lat="48.96975" lon="0.96297">
        <ele>132.5</ele>
        <time>2018-06-17T08:44:53Z</time>
      </trkpt>
      <trkpt lat="48.96982" lon="0.96308">
        <ele>132.5</ele>
        <time>2018-06-17T08:44:55Z</time>
      </trkpt>
      <trkpt lat="48.96989" lon="0.96319">
        <ele>132.600006</ele>
        <time>2018-06-17T08:44:57Z</time>
      </trkpt>
      <trkpt lat="48.96996" lon="0.96332">
        <ele>132.399994</ele>
        <time>2018-06-17T08:44:59Z</time>
      </trkpt>
      <trkpt lat="48.97005" lon="0.96346">
        <ele>132</ele>
        <time>2018-06-17T08:45:02Z</time>
      </trkpt>
      <trkpt lat="48.97011" lon="0.9636">
        <ele>131.699997</ele>
        <time>2018-06-17T08:45:04Z</time>
      </trkpt>
      <trkpt lat="48.97018" lon="0.96372">
        <ele>131.5</ele>
        <time>2018-06-17T08:45:06Z</time>
      </trkpt>
      <trkpt lat="48.97025" lon="0.96385">
        <ele>132</ele>
        <time>2018-06-17T08:45:09Z</time>
      </trkpt>
      <trkpt lat="48.97032" lon="0.96397">
        <ele>132.699997</ele>
        <time>2018-06-17T08:45:12Z</time>
      </trkpt>
      <trkpt lat="48.9704" lon="0.96411">
        <ele>132.899994</ele>
        <time>2018-06-17T08:45:15Z</time>
      </trkpt>
      <trkpt lat="48.97044" lon="0.96425">
        <ele>132.699997</ele>
        <time>2018-06-17T08:45:19Z</time>
      </trkpt>
      <trkpt lat="48.97033" lon="0.96427">
        <ele>133.300003</ele>
        <time>2018-06-17T08:45:26Z</time>
      </trkpt>
      <trkpt lat="48.97023" lon="0.96421">
        <ele>133.899994</ele>
        <time>2018-06-17T08:45:31Z</time>
      </trkpt>
      <trkpt lat="48.97068" lon="0.96474">
        <ele>134.513458</ele>
        <time>2018-06-17T08:45:34Z</time>
      </trkpt>
      <trkpt lat="48.97024" lon="0.96562">
        <ele>141.327148</ele>
        <time>2018-06-17T08:45:37Z</time>
      </trkpt>
      <trkpt lat="48.96975" lon="0.96648">
        <ele>144.141418</ele>
        <time>2018-06-17T08:45:40Z</time>
      </trkpt>
      <trkpt lat="48.96868" lon="0.96703">
        <ele>142.960449</ele>
        <time>2018-06-17T08:45:42Z</time>
      </trkpt>
      <trkpt lat="48.96766" lon="0.96756">
        <ele>143.254547</ele>
        <time>2018-06-17T08:45:44Z</time>
      </trkpt>
      <trkpt lat="48.96346" lon="0.9659">
        <ele>154.617676</ele>
        <time>2018-06-17T08:45:46Z</time>
      </trkpt>
      <trkpt lat="48.96247" lon="0.96135">
        <ele>158.956192</ele>
        <time>2018-06-17T08:52:42Z</time>
      </trkpt>
      <trkpt lat="48.96243" lon="0.96043">
        <ele>151.100006</ele>
        <time>2018-06-17T08:52:46Z</time>
      </trkpt>
      <trkpt lat="48.96238" lon="0.96025">
        <ele>151.600006</ele>
        <time>2018-06-17T08:52:49Z</time>
      </trkpt>
      <trkpt lat="48.96236" lon="0.96012">
        <ele>151.699997</ele>
        <time>2018-06-17T08:52:51Z</time>
      </trkpt>
      <trkpt lat="48.96234" lon="0.95998">
        <ele>151.699997</ele>
        <time>2018-06-17T08:52:53Z</time>
      </trkpt>
      <trkpt lat="48.96231" lon="0.95984">
        <ele>151.699997</ele>
        <time>2018-06-17T08:52:55Z</time>
      </trkpt>
      <trkpt lat="48.96227" lon="0.95969">
        <ele>151.5</ele>
        <time>2018-06-17T08:52:57Z</time>
      </trkpt>
      <trkpt lat="48.96224" lon="0.95953">
        <ele>151.5</ele>
        <time>2018-06-17T08:52:59Z</time>
      </trkpt>
      <trkpt lat="48.9622" lon="0.95937">
        <ele>151.5</ele>
        <time>2018-06-17T08:53:01Z</time>
      </trkpt>
      <trkpt lat="48.96217" lon="0.95921">
        <ele>151.399994</ele>
        <time>2018-06-17T08:53:03Z</time>
      </trkpt>
      <trkpt lat="48.96213" lon="0.95905">
        <ele>151.300003</ele>
        <time>2018-06-17T08:53:05Z</time>
      </trkpt>
      <trkpt lat="48.96209" lon="0.95888">
        <ele>151.100006</ele>
        <time>2018-06-17T08:53:07Z</time>
      </trkpt>
      <trkpt lat="48.96205" lon="0.9587">
        <ele>150.800003</ele>
        <time>2018-06-17T08:53:09Z</time>
      </trkpt>
      <trkpt lat="48.96201" lon="0.95852">
        <ele>150.5</ele>
        <time>2018-06-17T08:53:11Z</time>
      </trkpt>
      <trkpt lat="48.96199" lon="0.95836">
        <ele>150.100006</ele>
        <time>2018-06-17T08:53:13Z</time>
      </trkpt>
      <trkpt lat="48.96201" lon="0.9582">
        <ele>149.199997</ele>
        <time>2018-06-17T08:53:16Z</time>
      </trkpt>
      <trkpt lat="48.96199" lon="0.95803">
        <ele>148.100006</ele>
        <time>2018-06-17T08:53:19Z</time>
      </trkpt>
      <trkpt lat="48.96195" lon="0.9579">
        <ele>147.600006</ele>
        <time>2018-06-17T08:53:21Z</time>
      </trkpt>
      <trkpt lat="48.96193" lon="0.95768">
        <ele>146.899994</ele>
        <time>2018-06-17T08:53:24Z</time>
      </trkpt>
      <trkpt lat="48.96191" lon="0.95751">
        <ele>146.399994</ele>
        <time>2018-06-17T08:53:26Z</time>
      </trkpt>
      <trkpt lat="48.96195" lon="0.95737">
        <ele>145.399994</ele>
        <time>2018-06-17T08:53:28Z</time>
      </trkpt>
      <trkpt lat="48.962" lon="0.95724">
        <ele>144.399994</ele>
        <time>2018-06-17T08:53:30Z</time>
      </trkpt>
      <trkpt lat="48.9621" lon="0.95714">
        <ele>143.100006</ele>
        <time>2018-06-17T08:53:32Z</time>
      </trkpt>
      <trkpt lat="48.96219" lon="0.95708">
        <ele>141.699997</ele>
        <time>2018-06-17T08:53:34Z</time>
      </trkpt>
      <trkpt lat="48.96232" lon="0.957">
        <ele>140.100006</ele>
        <time>2018-06-17T08:53:37Z</time>
      </trkpt>
      <trkpt lat="48.96244" lon="0.95694">
        <ele>138.699997</ele>
        <time>2018-06-17T08:53:39Z</time>
      </trkpt>
      <trkpt lat="48.96258" lon="0.95686">
        <ele>136.800003</ele>
        <time>2018-06-17T08:53:41Z</time>
      </trkpt>
      <trkpt lat="48.96271" lon="0.95682">
        <ele>135.800003</ele>
        <time>2018-06-17T08:53:43Z</time>
      </trkpt>
      <trkpt lat="48.96283" lon="0.95674">
        <ele>134.399994</ele>
        <time>2018-06-17T08:53:45Z</time>
      </trkpt>
      <trkpt lat="48.96299" lon="0.95671">
        <ele>132.800003</ele>
        <time>2018-06-17T08:53:47Z</time>
      </trkpt>
      <trkpt lat="48.96311" lon="0.95666">
        <ele>130.399994</ele>
        <time>2018-06-17T08:53:50Z</time>
      </trkpt>
      <trkpt lat="48.96321" lon="0.95662">
        <ele>128.300003</ele>
        <time>2018-06-17T08:53:53Z</time>
      </trkpt>
      <trkpt lat="48.96331" lon="0.95661">
        <ele>126.5</ele>
        <time>2018-06-17T08:53:57Z</time>
      </trkpt>
      <trkpt lat="48.96344" lon="0.95652">
        <ele>125.099998</ele>
        <time>2018-06-17T08:54:01Z</time>
      </trkpt>
      <trkpt lat="48.9636" lon="0.95642">
        <ele>124.099998</ele>
        <time>2018-06-17T08:54:03Z</time>
      </trkpt>
      <trkpt lat="48.96371" lon="0.95632">
        <ele>122.300003</ele>
        <time>2018-06-17T08:54:05Z</time>
      </trkpt>
      <trkpt lat="48.96384" lon="0.9562">
        <ele>120.800003</ele>
        <time>2018-06-17T08:54:07Z</time>
      </trkpt>
      <trkpt lat="48.96394" lon="0.95606">
        <ele>119.300003</ele>
        <time>2018-06-17T08:54:09Z</time>
      </trkpt>
      <trkpt lat="48.9641" lon="0.95591">
        <ele>117.5</ele>
        <time>2018-06-17T08:54:11Z</time>
      </trkpt>
      <trkpt lat="48.96417" lon="0.95583">
        <ele>116.5</ele>
        <time>2018-06-17T08:54:12Z</time>
      </trkpt>
      <trkpt lat="48.96427" lon="0.95571">
        <ele>114.400002</ele>
        <time>2018-06-17T08:54:14Z</time>
      </trkpt>
      <trkpt lat="48.9643" lon="0.95556">
        <ele>113</ele>
        <time>2018-06-17T08:54:16Z</time>
      </trkpt>
      <trkpt lat="48.96425" lon="0.95542">
        <ele>111.400002</ele>
        <time>2018-06-17T08:54:19Z</time>
      </trkpt>
      <trkpt lat="48.96419" lon="0.95531">
        <ele>110.800003</ele>
        <time>2018-06-17T08:54:21Z</time>
      </trkpt>
      <trkpt lat="48.9641" lon="0.95519">
        <ele>110.199997</ele>
        <time>2018-06-17T08:54:23Z</time>
      </trkpt>
      <trkpt lat="48.96399" lon="0.95504">
        <ele>109.5</ele>
        <time>2018-06-17T08:54:25Z</time>
      </trkpt>
      <trkpt lat="48.96382" lon="0.95483">
        <ele>108</ele>
        <time>2018-06-17T08:54:28Z</time>
      </trkpt>
      <trkpt lat="48.96365" lon="0.95465">
        <ele>108.199997</ele>
        <time>2018-06-17T08:54:31Z</time>
      </trkpt>
      <trkpt lat="48.96353" lon="0.95456">
        <ele>108.099998</ele>
        <time>2018-06-17T08:54:33Z</time>
      </trkpt>
      <trkpt lat="48.96341" lon="0.95449">
        <ele>108.199997</ele>
        <time>2018-06-17T08:54:35Z</time>
      </trkpt>
      <trkpt lat="48.96328" lon="0.95442">
        <ele>108.300003</ele>
        <time>2018-06-17T08:54:37Z</time>
      </trkpt>
      <trkpt lat="48.96316" lon="0.95434">
        <ele>108.400002</ele>
        <time>2018-06-17T08:54:39Z</time>
      </trkpt>
      <trkpt lat="48.96304" lon="0.95425">
        <ele>108.5</ele>
        <time>2018-06-17T08:54:41Z</time>
      </trkpt>
      <trkpt lat="48.96295" lon="0.95416">
        <ele>108.5</ele>
        <time>2018-06-17T08:54:43Z</time>
      </trkpt>
      <trkpt lat="48.96284" lon="0.95406">
        <ele>108.5</ele>
        <time>2018-06-17T08:54:45Z</time>
      </trkpt>
      <trkpt lat="48.96274" lon="0.95394">
        <ele>108.300003</ele>
        <time>2018-06-17T08:54:47Z</time>
      </trkpt>
      <trkpt lat="48.96264" lon="0.95383">
        <ele>108.199997</ele>
        <time>2018-06-17T08:54:49Z</time>
      </trkpt>
      <trkpt lat="48.96255" lon="0.9537">
        <ele>108.199997</ele>
        <time>2018-06-17T08:54:51Z</time>
      </trkpt>
      <trkpt lat="48.96245" lon="0.95356">
        <ele>108.199997</ele>
        <time>2018-06-17T08:54:53Z</time>
      </trkpt>
      <trkpt lat="48.96235" lon="0.95341">
        <ele>108.199997</ele>
        <time>2018-06-17T08:54:55Z</time>
      </trkpt>
      <trkpt lat="48.96226" lon="0.95327">
        <ele>108.199997</ele>
        <time>2018-06-17T08:54:57Z</time>
      </trkpt>
      <trkpt lat="48.96217" lon="0.95314">
        <ele>108.300003</ele>
        <time>2018-06-17T08:54:59Z</time>
      </trkpt>
      <trkpt lat="48.96207" lon="0.95302">
        <ele>108.400002</ele>
        <time>2018-06-17T08:55:01Z</time>
      </trkpt>
      <trkpt lat="48.96197" lon="0.95289">
        <ele>108.400002</ele>
        <time>2018-06-17T08:55:04Z</time>
      </trkpt>
      <trkpt lat="48.96189" lon="0.95279">
        <ele>108.900002</ele>
        <time>2018-06-17T08:55:07Z</time>
      </trkpt>
      <trkpt lat="48.96181" lon="0.9527">
        <ele>109.5</ele>
        <time>2018-06-17T08:55:10Z</time>
      </trkpt>
      <trkpt lat="48.96174" lon="0.95261">
        <ele>110.199997</ele>
        <time>2018-06-17T08:55:13Z</time>
      </trkpt>
      <trkpt lat="48.96165" lon="0.95251">
        <ele>111.300003</ele>
        <time>2018-06-17T08:55:17Z</time>
      </trkpt>
      <trkpt lat="48.96157" lon="0.95242">
        <ele>112.400002</ele>
        <time>2018-06-17T08:55:21Z</time>
      </trkpt>
      <trkpt lat="48.96149" lon="0.95232">
        <ele>113.400002</ele>
        <time>2018-06-17T08:55:25Z</time>
      </trkpt>
      <trkpt lat="48.96142" lon="0.95222">
        <ele>115</ele>
        <time>2018-06-17T08:55:30Z</time>
      </trkpt>
      <trkpt lat="48.96135" lon="0.95214">
        <ele>116.300003</ele>
        <time>2018-06-17T08:55:35Z</time>
      </trkpt>
      <trkpt lat="48.96127" lon="0.95202">
        <ele>117.5</ele>
        <time>2018-06-17T08:55:40Z</time>
      </trkpt>
      <trkpt lat="48.9612" lon="0.95193">
        <ele>118.800003</ele>
        <time>2018-06-17T08:55:45Z</time>
      </trkpt>
      <trkpt lat="48.96114" lon="0.95183">
        <ele>120.099998</ele>
        <time>2018-06-17T08:55:50Z</time>
      </trkpt>
      <trkpt lat="48.96107" lon="0.95171">
        <ele>121.400002</ele>
        <time>2018-06-17T08:55:55Z</time>
      </trkpt>
      <trkpt lat="48.96099" lon="0.9516">
        <ele>122.400002</ele>
        <time>2018-06-17T08:56:00Z</time>
      </trkpt>
      <trkpt lat="48.96093" lon="0.95147">
        <ele>123.699997</ele>
        <time>2018-06-17T08:56:05Z</time>
      </trkpt>
      <trkpt lat="48.96087" lon="0.95134">
        <ele>124.699997</ele>
        <time>2018-06-17T08:56:10Z</time>
      </trkpt>
      <trkpt lat="48.96082" lon="0.95121">
        <ele>126.300003</ele>
        <time>2018-06-17T08:56:16Z</time>
      </trkpt>
      <trkpt lat="48.96078" lon="0.95107">
        <ele>127.900002</ele>
        <time>2018-06-17T08:56:23Z</time>
      </trkpt>
      <trkpt lat="48.96074" lon="0.95093">
        <ele>130</ele>
        <time>2018-06-17T08:56:29Z</time>
      </trkpt>
      <trkpt lat="48.9607" lon="0.95079">
        <ele>131.699997</ele>
        <time>2018-06-17T08:56:35Z</time>
      </trkpt>
      <trkpt lat="48.96065" lon="0.95067">
        <ele>133</ele>
        <time>2018-06-17T08:56:40Z</time>
      </trkpt>
      <trkpt lat="48.9606" lon="0.95052">
        <ele>134.5</ele>
        <time>2018-06-17T08:56:46Z</time>
      </trkpt>
      <trkpt lat="48.96055" lon="0.95039">
        <ele>135.699997</ele>
        <time>2018-06-17T08:56:52Z</time>
      </trkpt>
      <trkpt lat="48.9605" lon="0.95026">
        <ele>137.300003</ele>
        <time>2018-06-17T08:56:58Z</time>
      </trkpt>
      <trkpt lat="48.96045" lon="0.95013">
        <ele>138.699997</ele>
        <time>2018-06-17T08:57:03Z</time>
      </trkpt>
      <trkpt lat="48.96039" lon="0.95003">
        <ele>139.5</ele>
        <time>2018-06-17T08:57:07Z</time>
      </trkpt>
      <trkpt lat="48.96032" lon="0.94992">
        <ele>140.399994</ele>
        <time>2018-06-17T08:57:11Z</time>
      </trkpt>
      <trkpt lat="48.96029" lon="0.94975">
        <ele>140.899994</ele>
        <time>2018-06-17T08:57:15Z</time>
      </trkpt>
      <trkpt lat="48.96027" lon="0.9496">
        <ele>141.100006</ele>
        <time>2018-06-17T08:57:18Z</time>
      </trkpt>
      <trkpt lat="48.96024" lon="0.9494">
        <ele>141.100006</ele>
        <time>2018-06-17T08:57:21Z</time>
      </trkpt>
      <trkpt lat="48.96021" lon="0.94926">
        <ele>141.100006</ele>
        <time>2018-06-17T08:57:23Z</time>
      </trkpt>
      <trkpt lat="48.96019" lon="0.94912">
        <ele>141.199997</ele>
        <time>2018-06-17T08:57:25Z</time>
      </trkpt>
      <trkpt lat="48.96017" lon="0.94897">
        <ele>141.100006</ele>
        <time>2018-06-17T08:57:27Z</time>
      </trkpt>
      <trkpt lat="48.96015" lon="0.94882">
        <ele>141.199997</ele>
        <time>2018-06-17T08:57:29Z</time>
      </trkpt>
      <trkpt lat="48.96012" lon="0.94866">
        <ele>141.399994</ele>
        <time>2018-06-17T08:57:31Z</time>
      </trkpt>
      <trkpt lat="48.9601" lon="0.9485">
        <ele>141.5</ele>
        <time>2018-06-17T08:57:33Z</time>
      </trkpt>
      <trkpt lat="48.96008" lon="0.94834">
        <ele>141.600006</ele>
        <time>2018-06-17T08:57:35Z</time>
      </trkpt>
      <trkpt lat="48.96005" lon="0.94817">
        <ele>141.699997</ele>
        <time>2018-06-17T08:57:37Z</time>
      </trkpt>
      <trkpt lat="48.96002" lon="0.948">
        <ele>141.800003</ele>
        <time>2018-06-17T08:57:39Z</time>
      </trkpt>
      <trkpt lat="48.96" lon="0.94783">
        <ele>141.899994</ele>
        <time>2018-06-17T08:57:41Z</time>
      </trkpt>
      <trkpt lat="48.95998" lon="0.94766">
        <ele>142</ele>
        <time>2018-06-17T08:57:43Z</time>
      </trkpt>
      <trkpt lat="48.95995" lon="0.94749">
        <ele>142.399994</ele>
        <time>2018-06-17T08:57:45Z</time>
      </trkpt>
      <trkpt lat="48.95992" lon="0.94732">
        <ele>142.5</ele>
        <time>2018-06-17T08:57:47Z</time>
      </trkpt>
      <trkpt lat="48.9599" lon="0.94714">
        <ele>142.600006</ele>
        <time>2018-06-17T08:57:49Z</time>
      </trkpt>
      <trkpt lat="48.95987" lon="0.94698">
        <ele>142.699997</ele>
        <time>2018-06-17T08:57:51Z</time>
      </trkpt>
      <trkpt lat="48.95983" lon="0.94681">
        <ele>142.899994</ele>
        <time>2018-06-17T08:57:53Z</time>
      </trkpt>
      <trkpt lat="48.9598" lon="0.94664">
        <ele>143</ele>
        <time>2018-06-17T08:57:55Z</time>
      </trkpt>
      <trkpt lat="48.95979" lon="0.94647">
        <ele>143.100006</ele>
        <time>2018-06-17T08:57:57Z</time>
      </trkpt>
      <trkpt lat="48.95977" lon="0.9463">
        <ele>143</ele>
        <time>2018-06-17T08:57:59Z</time>
      </trkpt>
      <trkpt lat="48.95975" lon="0.94612">
        <ele>143.100006</ele>
        <time>2018-06-17T08:58:01Z</time>
      </trkpt>
      <trkpt lat="48.95972" lon="0.94595">
        <ele>143.199997</ele>
        <time>2018-06-17T08:58:03Z</time>
      </trkpt>
      <trkpt lat="48.95969" lon="0.94578">
        <ele>143.300003</ele>
        <time>2018-06-17T08:58:05Z</time>
      </trkpt>
      <trkpt lat="48.95967" lon="0.94561">
        <ele>143.300003</ele>
        <time>2018-06-17T08:58:07Z</time>
      </trkpt>
      <trkpt lat="48.95965" lon="0.94543">
        <ele>143.199997</ele>
        <time>2018-06-17T08:58:09Z</time>
      </trkpt>
      <trkpt lat="48.95963" lon="0.94527">
        <ele>143.300003</ele>
        <time>2018-06-17T08:58:11Z</time>
      </trkpt>
      <trkpt lat="48.9596" lon="0.94511">
        <ele>143.300003</ele>
        <time>2018-06-17T08:58:13Z</time>
      </trkpt>
      <trkpt lat="48.95958" lon="0.94497">
        <ele>143.300003</ele>
        <time>2018-06-17T08:58:15Z</time>
      </trkpt>
      <trkpt lat="48.95963" lon="0.94485">
        <ele>143.199997</ele>
        <time>2018-06-17T08:58:18Z</time>
      </trkpt>
      <trkpt lat="48.95973" lon="0.94483">
        <ele>142.899994</ele>
        <time>2018-06-17T08:58:21Z</time>
      </trkpt>
      <trkpt lat="48.95986" lon="0.94481">
        <ele>142.699997</ele>
        <time>2018-06-17T08:58:24Z</time>
      </trkpt>
      <trkpt lat="48.95995" lon="0.94479">
        <ele>142</ele>
        <time>2018-06-17T08:58:27Z</time>
      </trkpt>
      <trkpt lat="48.96007" lon="0.94477">
        <ele>140.300003</ele>
        <time>2018-06-17T08:58:30Z</time>
      </trkpt>
      <trkpt lat="48.96016" lon="0.94476">
        <ele>137.899994</ele>
        <time>2018-06-17T08:58:33Z</time>
      </trkpt>
      <trkpt lat="48.96027" lon="0.94475">
        <ele>134.100006</ele>
        <time>2018-06-17T08:58:37Z</time>
      </trkpt>
      <trkpt lat="48.96037" lon="0.94475">
        <ele>129.899994</ele>
        <time>2018-06-17T08:58:41Z</time>
      </trkpt>
      <trkpt lat="48.96047" lon="0.94474">
        <ele>125.199997</ele>
        <time>2018-06-17T08:58:47Z</time>
      </trkpt>
      <trkpt lat="48.96058" lon="0.9447">
        <ele>123.400002</ele>
        <time>2018-06-17T08:58:50Z</time>
      </trkpt>
      <trkpt lat="48.96069" lon="0.9447">
        <ele>122.199997</ele>
        <time>2018-06-17T08:58:52Z</time>
      </trkpt>
      <trkpt lat="48.96084" lon="0.94473">
        <ele>121</ele>
        <time>2018-06-17T08:58:54Z</time>
      </trkpt>
      <trkpt lat="48.96099" lon="0.94475">
        <ele>119.300003</ele>
        <time>2018-06-17T08:58:56Z</time>
      </trkpt>
      <trkpt lat="48.96112" lon="0.94475">
        <ele>117.400002</ele>
        <time>2018-06-17T08:58:58Z</time>
      </trkpt>
      <trkpt lat="48.96122" lon="0.94472">
        <ele>114.599998</ele>
        <time>2018-06-17T08:59:01Z</time>
      </trkpt>
      <trkpt lat="48.96129" lon="0.94459">
        <ele>112.599998</ele>
        <time>2018-06-17T08:59:05Z</time>
      </trkpt>
      <trkpt lat="48.96135" lon="0.94448">
        <ele>112.199997</ele>
        <time>2018-06-17T08:59:09Z</time>
      </trkpt>
      <trkpt lat="48.96142" lon="0.94436">
        <ele>112.900002</ele>
        <time>2018-06-17T08:59:13Z</time>
      </trkpt>
      <trkpt lat="48.9615" lon="0.94427">
        <ele>114.199997</ele>
        <time>2018-06-17T08:59:18Z</time>
      </trkpt>
      <trkpt lat="48.96157" lon="0.94415">
        <ele>115.5</ele>
        <time>2018-06-17T08:59:23Z</time>
      </trkpt>
      <trkpt lat="48.96162" lon="0.94403">
        <ele>116.599998</ele>
        <time>2018-06-17T08:59:27Z</time>
      </trkpt>
      <trkpt lat="48.96169" lon="0.94393">
        <ele>117.900002</ele>
        <time>2018-06-17T08:59:31Z</time>
      </trkpt>
      <trkpt lat="48.96177" lon="0.94381">
        <ele>119.400002</ele>
        <time>2018-06-17T08:59:36Z</time>
      </trkpt>
      <trkpt lat="48.96185" lon="0.94369">
        <ele>120.800003</ele>
        <time>2018-06-17T08:59:41Z</time>
      </trkpt>
      <trkpt lat="48.96193" lon="0.94358">
        <ele>122.199997</ele>
        <time>2018-06-17T08:59:46Z</time>
      </trkpt>
      <trkpt lat="48.96199" lon="0.94347">
        <ele>123.300003</ele>
        <time>2018-06-17T08:59:51Z</time>
      </trkpt>
      <trkpt lat="48.96206" lon="0.94336">
        <ele>124.800003</ele>
        <time>2018-06-17T08:59:56Z</time>
      </trkpt>
      <trkpt lat="48.96213" lon="0.94325">
        <ele>126.099998</ele>
        <time>2018-06-17T09:00:01Z</time>
      </trkpt>
      <trkpt lat="48.9622" lon="0.94313">
        <ele>127.900002</ele>
        <time>2018-06-17T09:00:07Z</time>
      </trkpt>
      <trkpt lat="48.96225" lon="0.94301">
        <ele>129.600006</ele>
        <time>2018-06-17T09:00:12Z</time>
      </trkpt>
      <trkpt lat="48.96231" lon="0.94289">
        <ele>130.899994</ele>
        <time>2018-06-17T09:00:17Z</time>
      </trkpt>
      <trkpt lat="48.96238" lon="0.94279">
        <ele>132.399994</ele>
        <time>2018-06-17T09:00:22Z</time>
      </trkpt>
      <trkpt lat="48.96245" lon="0.94269">
        <ele>133.800003</ele>
        <time>2018-06-17T09:00:27Z</time>
      </trkpt>
      <trkpt lat="48.96236" lon="0.94271">
        <ele>136.5</ele>
        <time>2018-06-17T09:00:38Z</time>
      </trkpt>
      <trkpt lat="48.96231" lon="0.94259">
        <ele>139.199997</ele>
        <time>2018-06-17T09:00:58Z</time>
      </trkpt>
      <trkpt lat="48.96232" lon="0.94244">
        <ele>139.300003</ele>
        <time>2018-06-17T09:01:04Z</time>
      </trkpt>
      <trkpt lat="48.96233" lon="0.94227">
        <ele>139.399994</ele>
        <time>2018-06-17T09:01:08Z</time>
      </trkpt>
      <trkpt lat="48.96232" lon="0.94212">
        <ele>139.5</ele>
        <time>2018-06-17T09:01:11Z</time>
      </trkpt>
      <trkpt lat="48.9623" lon="0.94195">
        <ele>139.600006</ele>
        <time>2018-06-17T09:01:14Z</time>
      </trkpt>
      <trkpt lat="48.96235" lon="0.94182">
        <ele>139.5</ele>
        <time>2018-06-17T09:01:17Z</time>
      </trkpt>
      <trkpt lat="48.96248" lon="0.94176">
        <ele>139.300003</ele>
        <time>2018-06-17T09:01:20Z</time>
      </trkpt>
      <trkpt lat="48.96258" lon="0.94172">
        <ele>139.199997</ele>
        <time>2018-06-17T09:01:22Z</time>
      </trkpt>
      <trkpt lat="48.96267" lon="0.94166">
        <ele>139.100006</ele>
        <time>2018-06-17T09:01:24Z</time>
      </trkpt>
      <trkpt lat="48.96271" lon="0.94147">
        <ele>139.199997</ele>
        <time>2018-06-17T09:01:27Z</time>
      </trkpt>
      <trkpt lat="48.9627" lon="0.94132">
        <ele>139.199997</ele>
        <time>2018-06-17T09:01:29Z</time>
      </trkpt>
      <trkpt lat="48.96268" lon="0.94112">
        <ele>139.100006</ele>
        <time>2018-06-17T09:01:32Z</time>
      </trkpt>
      <trkpt lat="48.96264" lon="0.94094">
        <ele>138.5</ele>
        <time>2018-06-17T09:01:35Z</time>
      </trkpt>
      <trkpt lat="48.96254" lon="0.94089">
        <ele>138.100006</ele>
        <time>2018-06-17T09:01:38Z</time>
      </trkpt>
      <trkpt lat="48.96244" lon="0.94086">
        <ele>137.899994</ele>
        <time>2018-06-17T09:01:41Z</time>
      </trkpt>
      <trkpt lat="48.96236" lon="0.94073">
        <ele>138.199997</ele>
        <time>2018-06-17T09:01:45Z</time>
      </trkpt>
      <trkpt lat="48.9623" lon="0.94067">
        <ele>138.600006</ele>
        <time>2018-06-17T09:02:44Z</time>
      </trkpt>
    </trkseg>
  </trk>
</gpx>